<?xml version="1.0" encoding="UTF-8" standalone="no" ?>
<gpx xmlns="http://www.topografix.com/GPX/1/1" xmlns:xsi="http://www.w3.org/2001/XMLSchema-instance" xsi:schemaLocation="http://www.topografix.com/GPX/1/1 http://www.topografix.com/GPX/1/1/gpx.xsd" version="1.1" creator="VisuGPX - https://www.visugpx.com">
  <metadata>
    <name>col de blaux curban</name>
    <desc><![CDATA[col de blaux curban]]></desc>
  </metadata>
  <trk>
    <name><![CDATA[Parcours du 2020-09-05 09:57]]></name>
    <trkseg>
      <trkpt lat="44.45937" lon="6.19858">
        <ele>698.8</ele>
        <time>2020-09-05T08:01:22.000Z</time>
      </trkpt>
      <trkpt lat="44.45937" lon="6.19858">
        <ele>698.8</ele>
        <time>2020-09-05T08:01:22.000Z</time>
      </trkpt>
      <trkpt lat="44.45945" lon="6.1986">
        <ele>698.8</ele>
        <time>2020-09-05T08:01:25.000Z</time>
      </trkpt>
      <trkpt lat="44.45949" lon="6.19853">
        <ele>698.8</ele>
        <time>2020-09-05T08:01:27.000Z</time>
      </trkpt>
      <trkpt lat="44.45951" lon="6.19846">
        <ele>698.8</ele>
        <time>2020-09-05T08:01:29.000Z</time>
      </trkpt>
      <trkpt lat="44.45953" lon="6.19838">
        <ele>698.8</ele>
        <time>2020-09-05T08:01:33.000Z</time>
      </trkpt>
      <trkpt lat="44.45955" lon="6.1983">
        <ele>698.8</ele>
        <time>2020-09-05T08:01:35.000Z</time>
      </trkpt>
      <trkpt lat="44.45955" lon="6.19821">
        <ele>698.8</ele>
        <time>2020-09-05T08:01:39.000Z</time>
      </trkpt>
      <trkpt lat="44.4595" lon="6.19815">
        <ele>698.8</ele>
        <time>2020-09-05T08:01:42.000Z</time>
      </trkpt>
      <trkpt lat="44.45944" lon="6.19814">
        <ele>698.8</ele>
        <time>2020-09-05T08:01:44.000Z</time>
      </trkpt>
      <trkpt lat="44.45941" lon="6.19818">
        <ele>698.8</ele>
        <time>2020-09-05T08:01:46.000Z</time>
      </trkpt>
      <trkpt lat="44.45941" lon="6.19825">
        <ele>698.8</ele>
        <time>2020-09-05T08:01:48.000Z</time>
      </trkpt>
      <trkpt lat="44.45946" lon="6.19828">
        <ele>698.8</ele>
        <time>2020-09-05T08:01:50.000Z</time>
      </trkpt>
      <trkpt lat="44.4595" lon="6.19828">
        <ele>698.8</ele>
        <time>2020-09-05T08:01:52.000Z</time>
      </trkpt>
      <trkpt lat="44.45957" lon="6.19827">
        <ele>698.8</ele>
        <time>2020-09-05T08:01:55.000Z</time>
      </trkpt>
      <trkpt lat="44.45952" lon="6.19832">
        <ele>698.8</ele>
        <time>2020-09-05T08:01:59.000Z</time>
      </trkpt>
      <trkpt lat="44.45946" lon="6.1983">
        <ele>698.8</ele>
        <time>2020-09-05T08:02:01.000Z</time>
      </trkpt>
      <trkpt lat="44.4594" lon="6.19828">
        <ele>698.8</ele>
        <time>2020-09-05T08:02:03.000Z</time>
      </trkpt>
      <trkpt lat="44.45936" lon="6.19825">
        <ele>698.8</ele>
        <time>2020-09-05T08:02:06.000Z</time>
      </trkpt>
      <trkpt lat="44.45932" lon="6.19821">
        <ele>698.8</ele>
        <time>2020-09-05T08:02:10.000Z</time>
      </trkpt>
      <trkpt lat="44.45931" lon="6.19812">
        <ele>698.8</ele>
        <time>2020-09-05T08:02:13.000Z</time>
      </trkpt>
      <trkpt lat="44.45934" lon="6.19808">
        <ele>698.8</ele>
        <time>2020-09-05T08:02:15.000Z</time>
      </trkpt>
      <trkpt lat="44.45941" lon="6.19811">
        <ele>698.8</ele>
        <time>2020-09-05T08:02:18.000Z</time>
      </trkpt>
      <trkpt lat="44.4594" lon="6.19818">
        <ele>698.8</ele>
        <time>2020-09-05T08:02:20.000Z</time>
      </trkpt>
      <trkpt lat="44.45935" lon="6.1982">
        <ele>698.8</ele>
        <time>2020-09-05T08:02:22.000Z</time>
      </trkpt>
      <trkpt lat="44.45928" lon="6.19818">
        <ele>698.8</ele>
        <time>2020-09-05T08:02:24.000Z</time>
      </trkpt>
      <trkpt lat="44.45921" lon="6.19815">
        <ele>698.8</ele>
        <time>2020-09-05T08:02:26.000Z</time>
      </trkpt>
      <trkpt lat="44.4592" lon="6.198">
        <ele>698.8</ele>
        <time>2020-09-05T08:02:28.000Z</time>
      </trkpt>
      <trkpt lat="44.45922" lon="6.19789">
        <ele>698.8</ele>
        <time>2020-09-05T08:02:29.000Z</time>
      </trkpt>
      <trkpt lat="44.45923" lon="6.19776">
        <ele>698.8</ele>
        <time>2020-09-05T08:02:30.000Z</time>
      </trkpt>
      <trkpt lat="44.45926" lon="6.19746">
        <ele>698.8</ele>
        <time>2020-09-05T08:02:32.000Z</time>
      </trkpt>
      <trkpt lat="44.45929" lon="6.19731">
        <ele>698.8</ele>
        <time>2020-09-05T08:02:33.000Z</time>
      </trkpt>
      <trkpt lat="44.45941" lon="6.19704">
        <ele>698.8</ele>
        <time>2020-09-05T08:02:35.000Z</time>
      </trkpt>
      <trkpt lat="44.45957" lon="6.19688">
        <ele>698.8</ele>
        <time>2020-09-05T08:02:37.000Z</time>
      </trkpt>
      <trkpt lat="44.45968" lon="6.19672">
        <ele>698.8</ele>
        <time>2020-09-05T08:02:39.000Z</time>
      </trkpt>
      <trkpt lat="44.45972" lon="6.19659">
        <ele>698.8</ele>
        <time>2020-09-05T08:02:40.000Z</time>
      </trkpt>
      <trkpt lat="44.45978" lon="6.19628">
        <ele>698.8</ele>
        <time>2020-09-05T08:02:42.000Z</time>
      </trkpt>
      <trkpt lat="44.45982" lon="6.1959">
        <ele>698.8</ele>
        <time>2020-09-05T08:02:44.000Z</time>
      </trkpt>
      <trkpt lat="44.45984" lon="6.19545">
        <ele>698.8</ele>
        <time>2020-09-05T08:02:46.000Z</time>
      </trkpt>
      <trkpt lat="44.45988" lon="6.19502">
        <ele>698.8</ele>
        <time>2020-09-05T08:02:48.000Z</time>
      </trkpt>
      <trkpt lat="44.4599" lon="6.19481">
        <ele>698.8</ele>
        <time>2020-09-05T08:02:49.000Z</time>
      </trkpt>
      <trkpt lat="44.45992" lon="6.19438">
        <ele>698.8</ele>
        <time>2020-09-05T08:02:51.000Z</time>
      </trkpt>
      <trkpt lat="44.45995" lon="6.19398">
        <ele>698.8</ele>
        <time>2020-09-05T08:02:53.000Z</time>
      </trkpt>
      <trkpt lat="44.45998" lon="6.19358">
        <ele>698.8</ele>
        <time>2020-09-05T08:02:55.000Z</time>
      </trkpt>
      <trkpt lat="44.45999" lon="6.19338">
        <ele>698.8</ele>
        <time>2020-09-05T08:02:56.000Z</time>
      </trkpt>
      <trkpt lat="44.46002" lon="6.19296">
        <ele>698.8</ele>
        <time>2020-09-05T08:02:58.000Z</time>
      </trkpt>
      <trkpt lat="44.46005" lon="6.19253">
        <ele>698.8</ele>
        <time>2020-09-05T08:03:00.000Z</time>
      </trkpt>
      <trkpt lat="44.46008" lon="6.19214">
        <ele>698.8</ele>
        <time>2020-09-05T08:03:02.000Z</time>
      </trkpt>
      <trkpt lat="44.46009" lon="6.19192">
        <ele>698.8</ele>
        <time>2020-09-05T08:03:03.000Z</time>
      </trkpt>
      <trkpt lat="44.46012" lon="6.1915">
        <ele>698.8</ele>
        <time>2020-09-05T08:03:05.000Z</time>
      </trkpt>
      <trkpt lat="44.46013" lon="6.1913">
        <ele>698.8</ele>
        <time>2020-09-05T08:03:06.000Z</time>
      </trkpt>
      <trkpt lat="44.46014" lon="6.19109">
        <ele>698.8</ele>
        <time>2020-09-05T08:03:07.000Z</time>
      </trkpt>
      <trkpt lat="44.46017" lon="6.19064">
        <ele>698.8</ele>
        <time>2020-09-05T08:03:09.000Z</time>
      </trkpt>
      <trkpt lat="44.46025" lon="6.19025">
        <ele>698.8</ele>
        <time>2020-09-05T08:03:11.000Z</time>
      </trkpt>
      <trkpt lat="44.46028" lon="6.19006">
        <ele>698.8</ele>
        <time>2020-09-05T08:03:12.000Z</time>
      </trkpt>
      <trkpt lat="44.46031" lon="6.18965">
        <ele>698.8</ele>
        <time>2020-09-05T08:03:14.000Z</time>
      </trkpt>
      <trkpt lat="44.46033" lon="6.18945">
        <ele>698.8</ele>
        <time>2020-09-05T08:03:15.000Z</time>
      </trkpt>
      <trkpt lat="44.46035" lon="6.18901">
        <ele>682.5</ele>
        <time>2020-09-05T08:03:17.000Z</time>
      </trkpt>
      <trkpt lat="44.46036" lon="6.18863">
        <ele>681.6</ele>
        <time>2020-09-05T08:03:19.000Z</time>
      </trkpt>
      <trkpt lat="44.46033" lon="6.18851">
        <ele>681</ele>
        <time>2020-09-05T08:03:20.000Z</time>
      </trkpt>
      <trkpt lat="44.46026" lon="6.18835">
        <ele>681.8</ele>
        <time>2020-09-05T08:03:22.000Z</time>
      </trkpt>
      <trkpt lat="44.46025" lon="6.18824">
        <ele>681.5</ele>
        <time>2020-09-05T08:03:23.000Z</time>
      </trkpt>
      <trkpt lat="44.46026" lon="6.18811">
        <ele>681.8</ele>
        <time>2020-09-05T08:03:24.000Z</time>
      </trkpt>
      <trkpt lat="44.46029" lon="6.18796">
        <ele>681</ele>
        <time>2020-09-05T08:03:25.000Z</time>
      </trkpt>
      <trkpt lat="44.46031" lon="6.18778">
        <ele>681.1</ele>
        <time>2020-09-05T08:03:26.000Z</time>
      </trkpt>
      <trkpt lat="44.46034" lon="6.18735">
        <ele>681.5</ele>
        <time>2020-09-05T08:03:28.000Z</time>
      </trkpt>
      <trkpt lat="44.46033" lon="6.18711">
        <ele>681.4</ele>
        <time>2020-09-05T08:03:29.000Z</time>
      </trkpt>
      <trkpt lat="44.46029" lon="6.18672">
        <ele>683.1</ele>
        <time>2020-09-05T08:03:31.000Z</time>
      </trkpt>
      <trkpt lat="44.46031" lon="6.1864">
        <ele>683.3</ele>
        <time>2020-09-05T08:03:33.000Z</time>
      </trkpt>
      <trkpt lat="44.46034" lon="6.18623">
        <ele>684.1</ele>
        <time>2020-09-05T08:03:34.000Z</time>
      </trkpt>
      <trkpt lat="44.46037" lon="6.18606">
        <ele>684.5</ele>
        <time>2020-09-05T08:03:35.000Z</time>
      </trkpt>
      <trkpt lat="44.46042" lon="6.18566">
        <ele>684.4</ele>
        <time>2020-09-05T08:03:37.000Z</time>
      </trkpt>
      <trkpt lat="44.46044" lon="6.18523">
        <ele>684.5</ele>
        <time>2020-09-05T08:03:39.000Z</time>
      </trkpt>
      <trkpt lat="44.46045" lon="6.18503">
        <ele>685.8</ele>
        <time>2020-09-05T08:03:40.000Z</time>
      </trkpt>
      <trkpt lat="44.46047" lon="6.18482">
        <ele>685.4</ele>
        <time>2020-09-05T08:03:41.000Z</time>
      </trkpt>
      <trkpt lat="44.46049" lon="6.18461">
        <ele>685.7</ele>
        <time>2020-09-05T08:03:42.000Z</time>
      </trkpt>
      <trkpt lat="44.46051" lon="6.18416">
        <ele>686.8</ele>
        <time>2020-09-05T08:03:44.000Z</time>
      </trkpt>
      <trkpt lat="44.46052" lon="6.18392">
        <ele>686.6</ele>
        <time>2020-09-05T08:03:45.000Z</time>
      </trkpt>
      <trkpt lat="44.46054" lon="6.18369">
        <ele>686.2</ele>
        <time>2020-09-05T08:03:46.000Z</time>
      </trkpt>
      <trkpt lat="44.46058" lon="6.18327">
        <ele>686</ele>
        <time>2020-09-05T08:03:48.000Z</time>
      </trkpt>
      <trkpt lat="44.46058" lon="6.18308">
        <ele>686.5</ele>
        <time>2020-09-05T08:03:49.000Z</time>
      </trkpt>
      <trkpt lat="44.4606" lon="6.18289">
        <ele>685.5</ele>
        <time>2020-09-05T08:03:50.000Z</time>
      </trkpt>
      <trkpt lat="44.46064" lon="6.18249">
        <ele>685.6</ele>
        <time>2020-09-05T08:03:52.000Z</time>
      </trkpt>
      <trkpt lat="44.46069" lon="6.18199">
        <ele>686.2</ele>
        <time>2020-09-05T08:03:54.000Z</time>
      </trkpt>
      <trkpt lat="44.46072" lon="6.18175">
        <ele>687.6</ele>
        <time>2020-09-05T08:03:55.000Z</time>
      </trkpt>
      <trkpt lat="44.46075" lon="6.18153">
        <ele>687.4</ele>
        <time>2020-09-05T08:03:56.000Z</time>
      </trkpt>
      <trkpt lat="44.46079" lon="6.18117">
        <ele>688.2</ele>
        <time>2020-09-05T08:03:58.000Z</time>
      </trkpt>
      <trkpt lat="44.4608" lon="6.18098">
        <ele>688.1</ele>
        <time>2020-09-05T08:03:59.000Z</time>
      </trkpt>
      <trkpt lat="44.4608" lon="6.18077">
        <ele>687.9</ele>
        <time>2020-09-05T08:04:00.000Z</time>
      </trkpt>
      <trkpt lat="44.46082" lon="6.18055">
        <ele>688.1</ele>
        <time>2020-09-05T08:04:01.000Z</time>
      </trkpt>
      <trkpt lat="44.46084" lon="6.18033">
        <ele>688.3</ele>
        <time>2020-09-05T08:04:02.000Z</time>
      </trkpt>
      <trkpt lat="44.46086" lon="6.18011">
        <ele>688.5</ele>
        <time>2020-09-05T08:04:03.000Z</time>
      </trkpt>
      <trkpt lat="44.46088" lon="6.17967">
        <ele>687.8</ele>
        <time>2020-09-05T08:04:05.000Z</time>
      </trkpt>
      <trkpt lat="44.4609" lon="6.1795">
        <ele>687.7</ele>
        <time>2020-09-05T08:04:06.000Z</time>
      </trkpt>
      <trkpt lat="44.46093" lon="6.17935">
        <ele>687.9</ele>
        <time>2020-09-05T08:04:07.000Z</time>
      </trkpt>
      <trkpt lat="44.46103" lon="6.17908">
        <ele>685.5</ele>
        <time>2020-09-05T08:04:09.000Z</time>
      </trkpt>
      <trkpt lat="44.4611" lon="6.17893">
        <ele>683.6</ele>
        <time>2020-09-05T08:04:10.000Z</time>
      </trkpt>
      <trkpt lat="44.46118" lon="6.1786">
        <ele>681.4</ele>
        <time>2020-09-05T08:04:12.000Z</time>
      </trkpt>
      <trkpt lat="44.46121" lon="6.1784">
        <ele>680.9</ele>
        <time>2020-09-05T08:04:13.000Z</time>
      </trkpt>
      <trkpt lat="44.46127" lon="6.17797">
        <ele>681.4</ele>
        <time>2020-09-05T08:04:15.000Z</time>
      </trkpt>
      <trkpt lat="44.4613" lon="6.17774">
        <ele>681</ele>
        <time>2020-09-05T08:04:16.000Z</time>
      </trkpt>
      <trkpt lat="44.46134" lon="6.17753">
        <ele>680.6</ele>
        <time>2020-09-05T08:04:17.000Z</time>
      </trkpt>
      <trkpt lat="44.4614" lon="6.17716">
        <ele>680.7</ele>
        <time>2020-09-05T08:04:19.000Z</time>
      </trkpt>
      <trkpt lat="44.46146" lon="6.17678">
        <ele>681.5</ele>
        <time>2020-09-05T08:04:21.000Z</time>
      </trkpt>
      <trkpt lat="44.4615" lon="6.17637">
        <ele>683.5</ele>
        <time>2020-09-05T08:04:23.000Z</time>
      </trkpt>
      <trkpt lat="44.46151" lon="6.17615">
        <ele>683.1</ele>
        <time>2020-09-05T08:04:24.000Z</time>
      </trkpt>
      <trkpt lat="44.46153" lon="6.17593">
        <ele>682.7</ele>
        <time>2020-09-05T08:04:25.000Z</time>
      </trkpt>
      <trkpt lat="44.46156" lon="6.17571">
        <ele>682.7</ele>
        <time>2020-09-05T08:04:26.000Z</time>
      </trkpt>
      <trkpt lat="44.46159" lon="6.17552">
        <ele>683.4</ele>
        <time>2020-09-05T08:04:27.000Z</time>
      </trkpt>
      <trkpt lat="44.46164" lon="6.17522">
        <ele>683.7</ele>
        <time>2020-09-05T08:04:29.000Z</time>
      </trkpt>
      <trkpt lat="44.46165" lon="6.17511">
        <ele>684</ele>
        <time>2020-09-05T08:04:30.000Z</time>
      </trkpt>
      <trkpt lat="44.46165" lon="6.17499">
        <ele>683.4</ele>
        <time>2020-09-05T08:04:32.000Z</time>
      </trkpt>
      <trkpt lat="44.46165" lon="6.1749">
        <ele>683.9</ele>
        <time>2020-09-05T08:04:35.000Z</time>
      </trkpt>
      <trkpt lat="44.46168" lon="6.17483">
        <ele>684.9</ele>
        <time>2020-09-05T08:04:38.291Z</time>
      </trkpt>
      <trkpt lat="44.46172" lon="6.17477">
        <ele>682.8</ele>
        <time>2020-09-05T08:04:41.000Z</time>
      </trkpt>
      <trkpt lat="44.46177" lon="6.17473">
        <ele>683.4</ele>
        <time>2020-09-05T08:04:43.000Z</time>
      </trkpt>
      <trkpt lat="44.46183" lon="6.17464">
        <ele>684</ele>
        <time>2020-09-05T08:04:45.000Z</time>
      </trkpt>
      <trkpt lat="44.46184" lon="6.1745">
        <ele>682.1</ele>
        <time>2020-09-05T08:04:47.000Z</time>
      </trkpt>
      <trkpt lat="44.46186" lon="6.17428">
        <ele>682</ele>
        <time>2020-09-05T08:04:49.000Z</time>
      </trkpt>
      <trkpt lat="44.46187" lon="6.1742">
        <ele>681.9</ele>
        <time>2020-09-05T08:04:51.000Z</time>
      </trkpt>
      <trkpt lat="44.4619" lon="6.17411">
        <ele>677.5</ele>
        <time>2020-09-05T08:05:02.000Z</time>
      </trkpt>
      <trkpt lat="44.46192" lon="6.17402">
        <ele>677.7</ele>
        <time>2020-09-05T08:05:05.000Z</time>
      </trkpt>
      <trkpt lat="44.46193" lon="6.17391">
        <ele>677.1</ele>
        <time>2020-09-05T08:05:08.248Z</time>
      </trkpt>
      <trkpt lat="44.46193" lon="6.17381">
        <ele>676.1</ele>
        <time>2020-09-05T08:05:10.000Z</time>
      </trkpt>
      <trkpt lat="44.46193" lon="6.17366">
        <ele>677.4</ele>
        <time>2020-09-05T08:05:12.000Z</time>
      </trkpt>
      <trkpt lat="44.46194" lon="6.17357">
        <ele>678.5</ele>
        <time>2020-09-05T08:05:13.000Z</time>
      </trkpt>
      <trkpt lat="44.46194" lon="6.17345">
        <ele>679</ele>
        <time>2020-09-05T08:05:14.000Z</time>
      </trkpt>
      <trkpt lat="44.46195" lon="6.17335">
        <ele>679.6</ele>
        <time>2020-09-05T08:05:15.000Z</time>
      </trkpt>
      <trkpt lat="44.46196" lon="6.17321">
        <ele>679.8</ele>
        <time>2020-09-05T08:05:17.000Z</time>
      </trkpt>
      <trkpt lat="44.46198" lon="6.17316">
        <ele>677.8</ele>
        <time>2020-09-05T08:05:19.000Z</time>
      </trkpt>
      <trkpt lat="44.46198" lon="6.17296">
        <ele>679.3</ele>
        <time>2020-09-05T08:05:26.000Z</time>
      </trkpt>
      <trkpt lat="44.46199" lon="6.17285">
        <ele>679.4</ele>
        <time>2020-09-05T08:05:27.000Z</time>
      </trkpt>
      <trkpt lat="44.46199" lon="6.17277">
        <ele>678.8</ele>
        <time>2020-09-05T08:05:28.000Z</time>
      </trkpt>
      <trkpt lat="44.46196" lon="6.17262">
        <ele>679.6</ele>
        <time>2020-09-05T08:05:30.000Z</time>
      </trkpt>
      <trkpt lat="44.46194" lon="6.17255">
        <ele>680.2</ele>
        <time>2020-09-05T08:05:31.000Z</time>
      </trkpt>
      <trkpt lat="44.46196" lon="6.17241">
        <ele>679.8</ele>
        <time>2020-09-05T08:05:33.000Z</time>
      </trkpt>
      <trkpt lat="44.46198" lon="6.1723">
        <ele>676.8</ele>
        <time>2020-09-05T08:05:34.000Z</time>
      </trkpt>
      <trkpt lat="44.46201" lon="6.17218">
        <ele>677.1</ele>
        <time>2020-09-05T08:05:35.000Z</time>
      </trkpt>
      <trkpt lat="44.46203" lon="6.17208">
        <ele>677.3</ele>
        <time>2020-09-05T08:05:36.000Z</time>
      </trkpt>
      <trkpt lat="44.46203" lon="6.172">
        <ele>677.6</ele>
        <time>2020-09-05T08:05:37.000Z</time>
      </trkpt>
      <trkpt lat="44.46201" lon="6.17192">
        <ele>678.5</ele>
        <time>2020-09-05T08:05:38.000Z</time>
      </trkpt>
      <trkpt lat="44.46197" lon="6.17175">
        <ele>678.4</ele>
        <time>2020-09-05T08:05:40.000Z</time>
      </trkpt>
      <trkpt lat="44.46194" lon="6.17164">
        <ele>677.4</ele>
        <time>2020-09-05T08:05:43.000Z</time>
      </trkpt>
      <trkpt lat="44.46194" lon="6.17154">
        <ele>676.9</ele>
        <time>2020-09-05T08:05:45.000Z</time>
      </trkpt>
      <trkpt lat="44.4619" lon="6.17144">
        <ele>677</ele>
        <time>2020-09-05T08:05:47.000Z</time>
      </trkpt>
      <trkpt lat="44.46178" lon="6.17131">
        <ele>677</ele>
        <time>2020-09-05T08:05:50.000Z</time>
      </trkpt>
      <trkpt lat="44.46173" lon="6.17124">
        <ele>677.3</ele>
        <time>2020-09-05T08:05:51.287Z</time>
      </trkpt>
      <trkpt lat="44.46167" lon="6.17115">
        <ele>676.5</ele>
        <time>2020-09-05T08:05:53.000Z</time>
      </trkpt>
      <trkpt lat="44.46157" lon="6.17113">
        <ele>677.7</ele>
        <time>2020-09-05T08:05:57.000Z</time>
      </trkpt>
      <trkpt lat="44.46151" lon="6.17113">
        <ele>673.8</ele>
        <time>2020-09-05T08:05:58.000Z</time>
      </trkpt>
      <trkpt lat="44.46146" lon="6.17111">
        <ele>672.9</ele>
        <time>2020-09-05T08:05:59.000Z</time>
      </trkpt>
      <trkpt lat="44.4614" lon="6.17099">
        <ele>672.7</ele>
        <time>2020-09-05T08:06:01.000Z</time>
      </trkpt>
      <trkpt lat="44.46136" lon="6.17084">
        <ele>673</ele>
        <time>2020-09-05T08:06:02.000Z</time>
      </trkpt>
      <trkpt lat="44.46128" lon="6.17059">
        <ele>671.2</ele>
        <time>2020-09-05T08:06:04.000Z</time>
      </trkpt>
      <trkpt lat="44.46124" lon="6.1704">
        <ele>670.7</ele>
        <time>2020-09-05T08:06:06.000Z</time>
      </trkpt>
      <trkpt lat="44.46121" lon="6.1703">
        <ele>670.4</ele>
        <time>2020-09-05T08:06:07.000Z</time>
      </trkpt>
      <trkpt lat="44.4611" lon="6.17005">
        <ele>671.3</ele>
        <time>2020-09-05T08:06:09.000Z</time>
      </trkpt>
      <trkpt lat="44.46106" lon="6.16994">
        <ele>672.2</ele>
        <time>2020-09-05T08:06:10.000Z</time>
      </trkpt>
      <trkpt lat="44.46102" lon="6.16984">
        <ele>674</ele>
        <time>2020-09-05T08:06:11.000Z</time>
      </trkpt>
      <trkpt lat="44.46103" lon="6.16969">
        <ele>675.1</ele>
        <time>2020-09-05T08:06:13.000Z</time>
      </trkpt>
      <trkpt lat="44.46105" lon="6.16947">
        <ele>675.9</ele>
        <time>2020-09-05T08:06:15.000Z</time>
      </trkpt>
      <trkpt lat="44.46103" lon="6.16931">
        <ele>676.2</ele>
        <time>2020-09-05T08:06:16.000Z</time>
      </trkpt>
      <trkpt lat="44.46102" lon="6.16918">
        <ele>675.6</ele>
        <time>2020-09-05T08:06:17.000Z</time>
      </trkpt>
      <trkpt lat="44.46104" lon="6.16891">
        <ele>675.4</ele>
        <time>2020-09-05T08:06:19.000Z</time>
      </trkpt>
      <trkpt lat="44.46105" lon="6.16875">
        <ele>674.7</ele>
        <time>2020-09-05T08:06:20.000Z</time>
      </trkpt>
      <trkpt lat="44.46105" lon="6.16852">
        <ele>673.7</ele>
        <time>2020-09-05T08:06:22.000Z</time>
      </trkpt>
      <trkpt lat="44.46106" lon="6.16827">
        <ele>675</ele>
        <time>2020-09-05T08:06:24.000Z</time>
      </trkpt>
      <trkpt lat="44.46113" lon="6.16792">
        <ele>676.6</ele>
        <time>2020-09-05T08:06:26.000Z</time>
      </trkpt>
      <trkpt lat="44.46119" lon="6.16773">
        <ele>676.6</ele>
        <time>2020-09-05T08:06:27.000Z</time>
      </trkpt>
      <trkpt lat="44.46131" lon="6.16738">
        <ele>675.6</ele>
        <time>2020-09-05T08:06:29.000Z</time>
      </trkpt>
      <trkpt lat="44.46135" lon="6.1672">
        <ele>675.4</ele>
        <time>2020-09-05T08:06:30.000Z</time>
      </trkpt>
      <trkpt lat="44.46137" lon="6.16687">
        <ele>675.7</ele>
        <time>2020-09-05T08:06:32.000Z</time>
      </trkpt>
      <trkpt lat="44.46136" lon="6.1667">
        <ele>675.7</ele>
        <time>2020-09-05T08:06:33.000Z</time>
      </trkpt>
      <trkpt lat="44.46134" lon="6.16655">
        <ele>675.9</ele>
        <time>2020-09-05T08:06:34.000Z</time>
      </trkpt>
      <trkpt lat="44.4613" lon="6.16626">
        <ele>673.4</ele>
        <time>2020-09-05T08:06:36.000Z</time>
      </trkpt>
      <trkpt lat="44.46128" lon="6.16611">
        <ele>673.2</ele>
        <time>2020-09-05T08:06:37.000Z</time>
      </trkpt>
      <trkpt lat="44.46125" lon="6.16596">
        <ele>673.8</ele>
        <time>2020-09-05T08:06:38.000Z</time>
      </trkpt>
      <trkpt lat="44.46119" lon="6.16569">
        <ele>673.1</ele>
        <time>2020-09-05T08:06:40.000Z</time>
      </trkpt>
      <trkpt lat="44.46116" lon="6.16555">
        <ele>672.9</ele>
        <time>2020-09-05T08:06:41.000Z</time>
      </trkpt>
      <trkpt lat="44.46116" lon="6.16542">
        <ele>668.7</ele>
        <time>2020-09-05T08:06:42.000Z</time>
      </trkpt>
      <trkpt lat="44.46115" lon="6.16524">
        <ele>667.3</ele>
        <time>2020-09-05T08:06:44.000Z</time>
      </trkpt>
      <trkpt lat="44.46116" lon="6.16509">
        <ele>668.4</ele>
        <time>2020-09-05T08:06:46.000Z</time>
      </trkpt>
      <trkpt lat="44.46117" lon="6.16502">
        <ele>667.8</ele>
        <time>2020-09-05T08:06:47.000Z</time>
      </trkpt>
      <trkpt lat="44.46117" lon="6.16482">
        <ele>671.1</ele>
        <time>2020-09-05T08:06:49.000Z</time>
      </trkpt>
      <trkpt lat="44.4612" lon="6.16472">
        <ele>671</ele>
        <time>2020-09-05T08:06:50.000Z</time>
      </trkpt>
      <trkpt lat="44.46128" lon="6.16454">
        <ele>671.3</ele>
        <time>2020-09-05T08:06:52.000Z</time>
      </trkpt>
      <trkpt lat="44.46133" lon="6.16444">
        <ele>671.8</ele>
        <time>2020-09-05T08:06:53.000Z</time>
      </trkpt>
      <trkpt lat="44.46142" lon="6.16422">
        <ele>671.3</ele>
        <time>2020-09-05T08:06:55.000Z</time>
      </trkpt>
      <trkpt lat="44.46144" lon="6.1641">
        <ele>670.5</ele>
        <time>2020-09-05T08:06:56.000Z</time>
      </trkpt>
      <trkpt lat="44.46147" lon="6.16386">
        <ele>672.1</ele>
        <time>2020-09-05T08:06:58.000Z</time>
      </trkpt>
      <trkpt lat="44.46151" lon="6.16366">
        <ele>675</ele>
        <time>2020-09-05T08:07:00.000Z</time>
      </trkpt>
      <trkpt lat="44.46154" lon="6.16358">
        <ele>675.9</ele>
        <time>2020-09-05T08:07:01.000Z</time>
      </trkpt>
      <trkpt lat="44.46158" lon="6.16348">
        <ele>678</ele>
        <time>2020-09-05T08:07:02.000Z</time>
      </trkpt>
      <trkpt lat="44.46166" lon="6.16322">
        <ele>677.2</ele>
        <time>2020-09-05T08:07:04.000Z</time>
      </trkpt>
      <trkpt lat="44.46173" lon="6.16298">
        <ele>678.5</ele>
        <time>2020-09-05T08:07:06.000Z</time>
      </trkpt>
      <trkpt lat="44.46182" lon="6.16274">
        <ele>678.5</ele>
        <time>2020-09-05T08:07:08.000Z</time>
      </trkpt>
      <trkpt lat="44.46184" lon="6.16262">
        <ele>678.5</ele>
        <time>2020-09-05T08:07:09.000Z</time>
      </trkpt>
      <trkpt lat="44.46187" lon="6.16236">
        <ele>678.2</ele>
        <time>2020-09-05T08:07:11.000Z</time>
      </trkpt>
      <trkpt lat="44.46184" lon="6.16216">
        <ele>678.3</ele>
        <time>2020-09-05T08:07:13.000Z</time>
      </trkpt>
      <trkpt lat="44.46172" lon="6.16195">
        <ele>678.3</ele>
        <time>2020-09-05T08:07:15.000Z</time>
      </trkpt>
      <trkpt lat="44.46165" lon="6.16182">
        <ele>679.5</ele>
        <time>2020-09-05T08:07:16.000Z</time>
      </trkpt>
      <trkpt lat="44.46149" lon="6.16147">
        <ele>680.6</ele>
        <time>2020-09-05T08:07:18.000Z</time>
      </trkpt>
      <trkpt lat="44.46139" lon="6.16127">
        <ele>682.2</ele>
        <time>2020-09-05T08:07:19.000Z</time>
      </trkpt>
      <trkpt lat="44.4613" lon="6.16106">
        <ele>683.5</ele>
        <time>2020-09-05T08:07:20.000Z</time>
      </trkpt>
      <trkpt lat="44.4611" lon="6.16062">
        <ele>683.1</ele>
        <time>2020-09-05T08:07:22.000Z</time>
      </trkpt>
      <trkpt lat="44.4609" lon="6.16022">
        <ele>681.7</ele>
        <time>2020-09-05T08:07:24.000Z</time>
      </trkpt>
      <trkpt lat="44.46078" lon="6.15987">
        <ele>680.3</ele>
        <time>2020-09-05T08:07:26.000Z</time>
      </trkpt>
      <trkpt lat="44.46068" lon="6.15955">
        <ele>680.1</ele>
        <time>2020-09-05T08:07:28.000Z</time>
      </trkpt>
      <trkpt lat="44.4606" lon="6.15932">
        <ele>680.2</ele>
        <time>2020-09-05T08:07:30.000Z</time>
      </trkpt>
      <trkpt lat="44.4606" lon="6.15918">
        <ele>679.8</ele>
        <time>2020-09-05T08:07:32.000Z</time>
      </trkpt>
      <trkpt lat="44.4606" lon="6.15906">
        <ele>678.4</ele>
        <time>2020-09-05T08:07:34.000Z</time>
      </trkpt>
      <trkpt lat="44.46059" lon="6.159">
        <ele>678.8</ele>
        <time>2020-09-05T08:07:35.000Z</time>
      </trkpt>
      <trkpt lat="44.46053" lon="6.15871">
        <ele>679.4</ele>
        <time>2020-09-05T08:07:37.000Z</time>
      </trkpt>
      <trkpt lat="44.46051" lon="6.15856">
        <ele>679.5</ele>
        <time>2020-09-05T08:07:38.000Z</time>
      </trkpt>
      <trkpt lat="44.46052" lon="6.1584">
        <ele>679.5</ele>
        <time>2020-09-05T08:07:39.000Z</time>
      </trkpt>
      <trkpt lat="44.46053" lon="6.15807">
        <ele>678.5</ele>
        <time>2020-09-05T08:07:41.000Z</time>
      </trkpt>
      <trkpt lat="44.46056" lon="6.15777">
        <ele>678.5</ele>
        <time>2020-09-05T08:07:43.000Z</time>
      </trkpt>
      <trkpt lat="44.46058" lon="6.15763">
        <ele>677.6</ele>
        <time>2020-09-05T08:07:44.000Z</time>
      </trkpt>
      <trkpt lat="44.46061" lon="6.15743">
        <ele>676.4</ele>
        <time>2020-09-05T08:07:46.000Z</time>
      </trkpt>
      <trkpt lat="44.46064" lon="6.1572">
        <ele>674.4</ele>
        <time>2020-09-05T08:07:48.000Z</time>
      </trkpt>
      <trkpt lat="44.46067" lon="6.15695">
        <ele>674.2</ele>
        <time>2020-09-05T08:07:50.000Z</time>
      </trkpt>
      <trkpt lat="44.46072" lon="6.15671">
        <ele>674.8</ele>
        <time>2020-09-05T08:07:52.000Z</time>
      </trkpt>
      <trkpt lat="44.46073" lon="6.15659">
        <ele>675</ele>
        <time>2020-09-05T08:07:53.000Z</time>
      </trkpt>
      <trkpt lat="44.46074" lon="6.15641">
        <ele>674.7</ele>
        <time>2020-09-05T08:07:55.000Z</time>
      </trkpt>
      <trkpt lat="44.46077" lon="6.15613">
        <ele>674.5</ele>
        <time>2020-09-05T08:07:57.000Z</time>
      </trkpt>
      <trkpt lat="44.46077" lon="6.15603">
        <ele>672.8</ele>
        <time>2020-09-05T08:07:58.000Z</time>
      </trkpt>
      <trkpt lat="44.46077" lon="6.15586">
        <ele>671.5</ele>
        <time>2020-09-05T08:08:00.000Z</time>
      </trkpt>
      <trkpt lat="44.46082" lon="6.15572">
        <ele>674.1</ele>
        <time>2020-09-05T08:08:02.000Z</time>
      </trkpt>
      <trkpt lat="44.46086" lon="6.15565">
        <ele>673.9</ele>
        <time>2020-09-05T08:08:03.000Z</time>
      </trkpt>
      <trkpt lat="44.46093" lon="6.15548">
        <ele>672.9</ele>
        <time>2020-09-05T08:08:05.000Z</time>
      </trkpt>
      <trkpt lat="44.46095" lon="6.15539">
        <ele>672.6</ele>
        <time>2020-09-05T08:08:06.000Z</time>
      </trkpt>
      <trkpt lat="44.46095" lon="6.15531">
        <ele>673.1</ele>
        <time>2020-09-05T08:08:07.000Z</time>
      </trkpt>
      <trkpt lat="44.46094" lon="6.15522">
        <ele>673.5</ele>
        <time>2020-09-05T08:08:08.000Z</time>
      </trkpt>
      <trkpt lat="44.46086" lon="6.15503">
        <ele>674.5</ele>
        <time>2020-09-05T08:08:10.000Z</time>
      </trkpt>
      <trkpt lat="44.4608" lon="6.15482">
        <ele>673.8</ele>
        <time>2020-09-05T08:08:12.000Z</time>
      </trkpt>
      <trkpt lat="44.46077" lon="6.15468">
        <ele>674</ele>
        <time>2020-09-05T08:08:13.000Z</time>
      </trkpt>
      <trkpt lat="44.46078" lon="6.15438">
        <ele>674</ele>
        <time>2020-09-05T08:08:15.000Z</time>
      </trkpt>
      <trkpt lat="44.46079" lon="6.15423">
        <ele>673.9</ele>
        <time>2020-09-05T08:08:16.000Z</time>
      </trkpt>
      <trkpt lat="44.4608" lon="6.15407">
        <ele>673.5</ele>
        <time>2020-09-05T08:08:17.000Z</time>
      </trkpt>
      <trkpt lat="44.46081" lon="6.1539">
        <ele>674.1</ele>
        <time>2020-09-05T08:08:18.000Z</time>
      </trkpt>
      <trkpt lat="44.46083" lon="6.15358">
        <ele>675.7</ele>
        <time>2020-09-05T08:08:20.000Z</time>
      </trkpt>
      <trkpt lat="44.46084" lon="6.15334">
        <ele>671.3</ele>
        <time>2020-09-05T08:08:22.000Z</time>
      </trkpt>
      <trkpt lat="44.46085" lon="6.1532">
        <ele>671.3</ele>
        <time>2020-09-05T08:08:23.000Z</time>
      </trkpt>
      <trkpt lat="44.46084" lon="6.15288">
        <ele>671.1</ele>
        <time>2020-09-05T08:08:25.000Z</time>
      </trkpt>
      <trkpt lat="44.46084" lon="6.15274">
        <ele>671.3</ele>
        <time>2020-09-05T08:08:26.000Z</time>
      </trkpt>
      <trkpt lat="44.46089" lon="6.15251">
        <ele>672.5</ele>
        <time>2020-09-05T08:08:28.000Z</time>
      </trkpt>
      <trkpt lat="44.46092" lon="6.15242">
        <ele>670.1</ele>
        <time>2020-09-05T08:08:29.000Z</time>
      </trkpt>
      <trkpt lat="44.46094" lon="6.15222">
        <ele>668.6</ele>
        <time>2020-09-05T08:08:31.000Z</time>
      </trkpt>
      <trkpt lat="44.46085" lon="6.15202">
        <ele>669.8</ele>
        <time>2020-09-05T08:08:33.000Z</time>
      </trkpt>
      <trkpt lat="44.46082" lon="6.15188">
        <ele>668.4</ele>
        <time>2020-09-05T08:08:34.000Z</time>
      </trkpt>
      <trkpt lat="44.46079" lon="6.15172">
        <ele>664.5</ele>
        <time>2020-09-05T08:08:35.000Z</time>
      </trkpt>
      <trkpt lat="44.46072" lon="6.15142">
        <ele>666</ele>
        <time>2020-09-05T08:08:37.000Z</time>
      </trkpt>
      <trkpt lat="44.4607" lon="6.1513">
        <ele>666.8</ele>
        <time>2020-09-05T08:08:38.000Z</time>
      </trkpt>
      <trkpt lat="44.46068" lon="6.15121">
        <ele>667.3</ele>
        <time>2020-09-05T08:08:39.000Z</time>
      </trkpt>
      <trkpt lat="44.46066" lon="6.15111">
        <ele>667.8</ele>
        <time>2020-09-05T08:08:41.000Z</time>
      </trkpt>
      <trkpt lat="44.4607" lon="6.15106">
        <ele>672</ele>
        <time>2020-09-05T08:08:50.000Z</time>
      </trkpt>
      <trkpt lat="44.46074" lon="6.15103">
        <ele>670.3</ele>
        <time>2020-09-05T08:08:52.000Z</time>
      </trkpt>
      <trkpt lat="44.46084" lon="6.15097">
        <ele>671.9</ele>
        <time>2020-09-05T08:08:54.000Z</time>
      </trkpt>
      <trkpt lat="44.46099" lon="6.15092">
        <ele>671.6</ele>
        <time>2020-09-05T08:08:56.000Z</time>
      </trkpt>
      <trkpt lat="44.46108" lon="6.15092">
        <ele>671.3</ele>
        <time>2020-09-05T08:08:57.000Z</time>
      </trkpt>
      <trkpt lat="44.46117" lon="6.15095">
        <ele>670.6</ele>
        <time>2020-09-05T08:08:58.000Z</time>
      </trkpt>
      <trkpt lat="44.46135" lon="6.15106">
        <ele>670.6</ele>
        <time>2020-09-05T08:09:00.000Z</time>
      </trkpt>
      <trkpt lat="44.46144" lon="6.15115">
        <ele>670.6</ele>
        <time>2020-09-05T08:09:01.000Z</time>
      </trkpt>
      <trkpt lat="44.46166" lon="6.15137">
        <ele>669.5</ele>
        <time>2020-09-05T08:09:03.000Z</time>
      </trkpt>
      <trkpt lat="44.46177" lon="6.15146">
        <ele>670.4</ele>
        <time>2020-09-05T08:09:04.000Z</time>
      </trkpt>
      <trkpt lat="44.46188" lon="6.15153">
        <ele>671</ele>
        <time>2020-09-05T08:09:05.000Z</time>
      </trkpt>
      <trkpt lat="44.46195" lon="6.15161">
        <ele>671.9</ele>
        <time>2020-09-05T08:09:06.000Z</time>
      </trkpt>
      <trkpt lat="44.46205" lon="6.15171">
        <ele>672.3</ele>
        <time>2020-09-05T08:09:08.000Z</time>
      </trkpt>
      <trkpt lat="44.46209" lon="6.15175">
        <ele>672.6</ele>
        <time>2020-09-05T08:09:09.000Z</time>
      </trkpt>
      <trkpt lat="44.46215" lon="6.15178">
        <ele>672</ele>
        <time>2020-09-05T08:09:11.000Z</time>
      </trkpt>
      <trkpt lat="44.46217" lon="6.15167">
        <ele>672.2</ele>
        <time>2020-09-05T08:09:37.000Z</time>
      </trkpt>
      <trkpt lat="44.4622" lon="6.15153">
        <ele>671.4</ele>
        <time>2020-09-05T08:09:39.000Z</time>
      </trkpt>
      <trkpt lat="44.4622" lon="6.15132">
        <ele>670.9</ele>
        <time>2020-09-05T08:09:41.000Z</time>
      </trkpt>
      <trkpt lat="44.46221" lon="6.15122">
        <ele>670.6</ele>
        <time>2020-09-05T08:09:42.000Z</time>
      </trkpt>
      <trkpt lat="44.46222" lon="6.15113">
        <ele>670.7</ele>
        <time>2020-09-05T08:09:43.000Z</time>
      </trkpt>
      <trkpt lat="44.46223" lon="6.15102">
        <ele>668.2</ele>
        <time>2020-09-05T08:09:46.000Z</time>
      </trkpt>
      <trkpt lat="44.46223" lon="6.15093">
        <ele>668.6</ele>
        <time>2020-09-05T08:09:47.000Z</time>
      </trkpt>
      <trkpt lat="44.46225" lon="6.15081">
        <ele>668</ele>
        <time>2020-09-05T08:09:48.000Z</time>
      </trkpt>
      <trkpt lat="44.46228" lon="6.15055">
        <ele>667.4</ele>
        <time>2020-09-05T08:09:50.000Z</time>
      </trkpt>
      <trkpt lat="44.46233" lon="6.15024">
        <ele>668.2</ele>
        <time>2020-09-05T08:09:52.000Z</time>
      </trkpt>
      <trkpt lat="44.46236" lon="6.15009">
        <ele>668</ele>
        <time>2020-09-05T08:09:53.000Z</time>
      </trkpt>
      <trkpt lat="44.46244" lon="6.14977">
        <ele>668.9</ele>
        <time>2020-09-05T08:09:55.000Z</time>
      </trkpt>
      <trkpt lat="44.46254" lon="6.14944">
        <ele>668.3</ele>
        <time>2020-09-05T08:09:57.000Z</time>
      </trkpt>
      <trkpt lat="44.46267" lon="6.14914">
        <ele>670.1</ele>
        <time>2020-09-05T08:09:59.000Z</time>
      </trkpt>
      <trkpt lat="44.46279" lon="6.14882">
        <ele>670.7</ele>
        <time>2020-09-05T08:10:01.000Z</time>
      </trkpt>
      <trkpt lat="44.46284" lon="6.14866">
        <ele>671.1</ele>
        <time>2020-09-05T08:10:02.000Z</time>
      </trkpt>
      <trkpt lat="44.46294" lon="6.14837">
        <ele>671.8</ele>
        <time>2020-09-05T08:10:04.000Z</time>
      </trkpt>
      <trkpt lat="44.46299" lon="6.14821">
        <ele>671.2</ele>
        <time>2020-09-05T08:10:05.000Z</time>
      </trkpt>
      <trkpt lat="44.46304" lon="6.14805">
        <ele>672.1</ele>
        <time>2020-09-05T08:10:06.000Z</time>
      </trkpt>
      <trkpt lat="44.46313" lon="6.14778">
        <ele>672.2</ele>
        <time>2020-09-05T08:10:08.000Z</time>
      </trkpt>
      <trkpt lat="44.46317" lon="6.14764">
        <ele>672.9</ele>
        <time>2020-09-05T08:10:09.000Z</time>
      </trkpt>
      <trkpt lat="44.46319" lon="6.14751">
        <ele>673.2</ele>
        <time>2020-09-05T08:10:10.000Z</time>
      </trkpt>
      <trkpt lat="44.46325" lon="6.14726">
        <ele>672.8</ele>
        <time>2020-09-05T08:10:12.000Z</time>
      </trkpt>
      <trkpt lat="44.46333" lon="6.14702">
        <ele>672.2</ele>
        <time>2020-09-05T08:10:14.000Z</time>
      </trkpt>
      <trkpt lat="44.46336" lon="6.14684">
        <ele>671.9</ele>
        <time>2020-09-05T08:10:16.000Z</time>
      </trkpt>
      <trkpt lat="44.46336" lon="6.14674">
        <ele>670.7</ele>
        <time>2020-09-05T08:10:17.000Z</time>
      </trkpt>
      <trkpt lat="44.46336" lon="6.14663">
        <ele>670.3</ele>
        <time>2020-09-05T08:10:18.000Z</time>
      </trkpt>
      <trkpt lat="44.46334" lon="6.14644">
        <ele>671.5</ele>
        <time>2020-09-05T08:10:20.000Z</time>
      </trkpt>
      <trkpt lat="44.46331" lon="6.14635">
        <ele>672.2</ele>
        <time>2020-09-05T08:10:21.000Z</time>
      </trkpt>
      <trkpt lat="44.46311" lon="6.14581">
        <ele>672.8</ele>
        <time>2020-09-05T08:10:27.000Z</time>
      </trkpt>
      <trkpt lat="44.46308" lon="6.14563">
        <ele>672.4</ele>
        <time>2020-09-05T08:10:29.000Z</time>
      </trkpt>
      <trkpt lat="44.46305" lon="6.14556">
        <ele>671.8</ele>
        <time>2020-09-05T08:10:30.000Z</time>
      </trkpt>
      <trkpt lat="44.46306" lon="6.14536">
        <ele>671</ele>
        <time>2020-09-05T08:10:36.000Z</time>
      </trkpt>
      <trkpt lat="44.46307" lon="6.14512">
        <ele>671</ele>
        <time>2020-09-05T08:10:38.000Z</time>
      </trkpt>
      <trkpt lat="44.46307" lon="6.14499">
        <ele>671.4</ele>
        <time>2020-09-05T08:10:39.000Z</time>
      </trkpt>
      <trkpt lat="44.46309" lon="6.14477">
        <ele>671.2</ele>
        <time>2020-09-05T08:10:41.000Z</time>
      </trkpt>
      <trkpt lat="44.46311" lon="6.14468">
        <ele>670.6</ele>
        <time>2020-09-05T08:10:42.000Z</time>
      </trkpt>
      <trkpt lat="44.46317" lon="6.14449">
        <ele>674</ele>
        <time>2020-09-05T08:10:44.000Z</time>
      </trkpt>
      <trkpt lat="44.46322" lon="6.14433">
        <ele>673.6</ele>
        <time>2020-09-05T08:10:46.000Z</time>
      </trkpt>
      <trkpt lat="44.46325" lon="6.14427">
        <ele>673.5</ele>
        <time>2020-09-05T08:10:47.000Z</time>
      </trkpt>
      <trkpt lat="44.46333" lon="6.14415">
        <ele>671.9</ele>
        <time>2020-09-05T08:10:49.000Z</time>
      </trkpt>
      <trkpt lat="44.46341" lon="6.14406">
        <ele>673.7</ele>
        <time>2020-09-05T08:10:51.000Z</time>
      </trkpt>
      <trkpt lat="44.46348" lon="6.14402">
        <ele>674.7</ele>
        <time>2020-09-05T08:10:53.000Z</time>
      </trkpt>
      <trkpt lat="44.46354" lon="6.144">
        <ele>674.2</ele>
        <time>2020-09-05T08:10:55.000Z</time>
      </trkpt>
      <trkpt lat="44.46363" lon="6.14396">
        <ele>671.8</ele>
        <time>2020-09-05T08:10:58.000Z</time>
      </trkpt>
      <trkpt lat="44.46362" lon="6.1438">
        <ele>670.6</ele>
        <time>2020-09-05T08:11:01.000Z</time>
      </trkpt>
      <trkpt lat="44.46365" lon="6.14374">
        <ele>669.6</ele>
        <time>2020-09-05T08:11:03.000Z</time>
      </trkpt>
      <trkpt lat="44.46372" lon="6.14365">
        <ele>669.1</ele>
        <time>2020-09-05T08:11:06.000Z</time>
      </trkpt>
      <trkpt lat="44.46374" lon="6.14354">
        <ele>667.3</ele>
        <time>2020-09-05T08:11:08.000Z</time>
      </trkpt>
      <trkpt lat="44.46376" lon="6.14345">
        <ele>667.6</ele>
        <time>2020-09-05T08:11:09.000Z</time>
      </trkpt>
      <trkpt lat="44.46379" lon="6.14327">
        <ele>670.5</ele>
        <time>2020-09-05T08:11:11.000Z</time>
      </trkpt>
      <trkpt lat="44.46385" lon="6.14316">
        <ele>669.2</ele>
        <time>2020-09-05T08:11:13.000Z</time>
      </trkpt>
      <trkpt lat="44.46391" lon="6.14303">
        <ele>669.4</ele>
        <time>2020-09-05T08:11:15.000Z</time>
      </trkpt>
      <trkpt lat="44.46396" lon="6.14293">
        <ele>668.8</ele>
        <time>2020-09-05T08:11:16.000Z</time>
      </trkpt>
      <trkpt lat="44.46401" lon="6.14283">
        <ele>669.5</ele>
        <time>2020-09-05T08:11:17.000Z</time>
      </trkpt>
      <trkpt lat="44.46407" lon="6.14275">
        <ele>668.2</ele>
        <time>2020-09-05T08:11:18.000Z</time>
      </trkpt>
      <trkpt lat="44.46419" lon="6.14256">
        <ele>667.7</ele>
        <time>2020-09-05T08:11:20.000Z</time>
      </trkpt>
      <trkpt lat="44.46427" lon="6.14233">
        <ele>667.9</ele>
        <time>2020-09-05T08:11:22.000Z</time>
      </trkpt>
      <trkpt lat="44.46428" lon="6.14224">
        <ele>664.6</ele>
        <time>2020-09-05T08:11:23.000Z</time>
      </trkpt>
      <trkpt lat="44.4643" lon="6.14217">
        <ele>664.6</ele>
        <time>2020-09-05T08:11:24.000Z</time>
      </trkpt>
      <trkpt lat="44.46433" lon="6.14213">
        <ele>665.5</ele>
        <time>2020-09-05T08:11:25.819Z</time>
      </trkpt>
      <trkpt lat="44.46437" lon="6.142">
        <ele>665.6</ele>
        <time>2020-09-05T08:11:28.000Z</time>
      </trkpt>
      <trkpt lat="44.46432" lon="6.14189">
        <ele>667.5</ele>
        <time>2020-09-05T08:11:30.867Z</time>
      </trkpt>
      <trkpt lat="44.46431" lon="6.14182">
        <ele>665.9</ele>
        <time>2020-09-05T08:11:31.873Z</time>
      </trkpt>
      <trkpt lat="44.46431" lon="6.14175">
        <ele>666.1</ele>
        <time>2020-09-05T08:11:33.073Z</time>
      </trkpt>
      <trkpt lat="44.46431" lon="6.14165">
        <ele>664.2</ele>
        <time>2020-09-05T08:11:34.000Z</time>
      </trkpt>
      <trkpt lat="44.46431" lon="6.14157">
        <ele>664.1</ele>
        <time>2020-09-05T08:11:35.000Z</time>
      </trkpt>
      <trkpt lat="44.46429" lon="6.14143">
        <ele>662.4</ele>
        <time>2020-09-05T08:11:37.000Z</time>
      </trkpt>
      <trkpt lat="44.46429" lon="6.14137">
        <ele>662</ele>
        <time>2020-09-05T08:11:38.000Z</time>
      </trkpt>
      <trkpt lat="44.46433" lon="6.14114">
        <ele>661.7</ele>
        <time>2020-09-05T08:11:40.000Z</time>
      </trkpt>
      <trkpt lat="44.46434" lon="6.141">
        <ele>661.4</ele>
        <time>2020-09-05T08:11:41.000Z</time>
      </trkpt>
      <trkpt lat="44.46436" lon="6.14086">
        <ele>662.2</ele>
        <time>2020-09-05T08:11:42.000Z</time>
      </trkpt>
      <trkpt lat="44.46442" lon="6.1406">
        <ele>662.2</ele>
        <time>2020-09-05T08:11:44.000Z</time>
      </trkpt>
      <trkpt lat="44.46448" lon="6.14047">
        <ele>662.6</ele>
        <time>2020-09-05T08:11:45.000Z</time>
      </trkpt>
      <trkpt lat="44.46465" lon="6.14023">
        <ele>663.8</ele>
        <time>2020-09-05T08:11:47.000Z</time>
      </trkpt>
      <trkpt lat="44.46475" lon="6.14012">
        <ele>662.5</ele>
        <time>2020-09-05T08:11:48.000Z</time>
      </trkpt>
      <trkpt lat="44.46496" lon="6.13995">
        <ele>663.4</ele>
        <time>2020-09-05T08:11:50.000Z</time>
      </trkpt>
      <trkpt lat="44.46505" lon="6.13988">
        <ele>663.4</ele>
        <time>2020-09-05T08:11:51.000Z</time>
      </trkpt>
      <trkpt lat="44.46511" lon="6.13982">
        <ele>663.5</ele>
        <time>2020-09-05T08:11:52.000Z</time>
      </trkpt>
      <trkpt lat="44.46516" lon="6.13973">
        <ele>662.8</ele>
        <time>2020-09-05T08:11:53.000Z</time>
      </trkpt>
      <trkpt lat="44.46525" lon="6.13951">
        <ele>661.4</ele>
        <time>2020-09-05T08:11:55.000Z</time>
      </trkpt>
      <trkpt lat="44.46531" lon="6.13935">
        <ele>663.3</ele>
        <time>2020-09-05T08:11:57.000Z</time>
      </trkpt>
      <trkpt lat="44.46531" lon="6.13927">
        <ele>664.9</ele>
        <time>2020-09-05T08:11:59.000Z</time>
      </trkpt>
      <trkpt lat="44.46533" lon="6.13919">
        <ele>670.2</ele>
        <time>2020-09-05T08:13:43.000Z</time>
      </trkpt>
      <trkpt lat="44.46533" lon="6.13907">
        <ele>671.7</ele>
        <time>2020-09-05T08:13:45.000Z</time>
      </trkpt>
      <trkpt lat="44.46534" lon="6.13898">
        <ele>672.6</ele>
        <time>2020-09-05T08:13:46.000Z</time>
      </trkpt>
      <trkpt lat="44.46536" lon="6.13879">
        <ele>674.1</ele>
        <time>2020-09-05T08:13:48.000Z</time>
      </trkpt>
      <trkpt lat="44.46536" lon="6.13871">
        <ele>674.5</ele>
        <time>2020-09-05T08:13:49.000Z</time>
      </trkpt>
      <trkpt lat="44.46535" lon="6.1385">
        <ele>675.2</ele>
        <time>2020-09-05T08:13:51.000Z</time>
      </trkpt>
      <trkpt lat="44.46531" lon="6.13837">
        <ele>675.6</ele>
        <time>2020-09-05T08:13:52.000Z</time>
      </trkpt>
      <trkpt lat="44.46521" lon="6.13812">
        <ele>677.5</ele>
        <time>2020-09-05T08:13:54.000Z</time>
      </trkpt>
      <trkpt lat="44.46506" lon="6.13795">
        <ele>678.7</ele>
        <time>2020-09-05T08:13:56.000Z</time>
      </trkpt>
      <trkpt lat="44.46491" lon="6.13777">
        <ele>681.5</ele>
        <time>2020-09-05T08:13:58.000Z</time>
      </trkpt>
      <trkpt lat="44.46483" lon="6.13772">
        <ele>683.7</ele>
        <time>2020-09-05T08:13:59.000Z</time>
      </trkpt>
      <trkpt lat="44.46475" lon="6.13768">
        <ele>684.8</ele>
        <time>2020-09-05T08:14:00.000Z</time>
      </trkpt>
      <trkpt lat="44.46467" lon="6.13767">
        <ele>685</ele>
        <time>2020-09-05T08:14:01.000Z</time>
      </trkpt>
      <trkpt lat="44.46457" lon="6.1377">
        <ele>685.1</ele>
        <time>2020-09-05T08:14:02.000Z</time>
      </trkpt>
      <trkpt lat="44.4643" lon="6.13779">
        <ele>687.5</ele>
        <time>2020-09-05T08:14:04.000Z</time>
      </trkpt>
      <trkpt lat="44.46414" lon="6.13783">
        <ele>687.8</ele>
        <time>2020-09-05T08:14:05.000Z</time>
      </trkpt>
      <trkpt lat="44.46399" lon="6.13784">
        <ele>689.6</ele>
        <time>2020-09-05T08:14:06.000Z</time>
      </trkpt>
      <trkpt lat="44.46373" lon="6.13781">
        <ele>692</ele>
        <time>2020-09-05T08:14:08.000Z</time>
      </trkpt>
      <trkpt lat="44.46344" lon="6.13772">
        <ele>692</ele>
        <time>2020-09-05T08:14:10.000Z</time>
      </trkpt>
      <trkpt lat="44.46329" lon="6.13767">
        <ele>693.8</ele>
        <time>2020-09-05T08:14:11.000Z</time>
      </trkpt>
      <trkpt lat="44.46316" lon="6.13763">
        <ele>695.8</ele>
        <time>2020-09-05T08:14:12.000Z</time>
      </trkpt>
      <trkpt lat="44.46297" lon="6.13759">
        <ele>698.4</ele>
        <time>2020-09-05T08:14:14.000Z</time>
      </trkpt>
      <trkpt lat="44.46292" lon="6.13757">
        <ele>698.5</ele>
        <time>2020-09-05T08:14:15.000Z</time>
      </trkpt>
      <trkpt lat="44.46283" lon="6.13757">
        <ele>699.6</ele>
        <time>2020-09-05T08:14:17.000Z</time>
      </trkpt>
      <trkpt lat="44.46267" lon="6.13759">
        <ele>699.3</ele>
        <time>2020-09-05T08:14:19.000Z</time>
      </trkpt>
      <trkpt lat="44.46245" lon="6.13765">
        <ele>703.2</ele>
        <time>2020-09-05T08:14:21.000Z</time>
      </trkpt>
      <trkpt lat="44.46232" lon="6.1377">
        <ele>703.9</ele>
        <time>2020-09-05T08:14:22.000Z</time>
      </trkpt>
      <trkpt lat="44.4622" lon="6.13772">
        <ele>704.1</ele>
        <time>2020-09-05T08:14:23.000Z</time>
      </trkpt>
      <trkpt lat="44.4621" lon="6.13773">
        <ele>705.4</ele>
        <time>2020-09-05T08:14:24.000Z</time>
      </trkpt>
      <trkpt lat="44.46192" lon="6.13768">
        <ele>706</ele>
        <time>2020-09-05T08:14:26.000Z</time>
      </trkpt>
      <trkpt lat="44.46183" lon="6.13762">
        <ele>707.1</ele>
        <time>2020-09-05T08:14:27.000Z</time>
      </trkpt>
      <trkpt lat="44.46164" lon="6.1375">
        <ele>711</ele>
        <time>2020-09-05T08:14:29.000Z</time>
      </trkpt>
      <trkpt lat="44.46152" lon="6.13741">
        <ele>712.5</ele>
        <time>2020-09-05T08:14:31.000Z</time>
      </trkpt>
      <trkpt lat="44.46147" lon="6.13736">
        <ele>712.9</ele>
        <time>2020-09-05T08:14:32.000Z</time>
      </trkpt>
      <trkpt lat="44.46144" lon="6.1373">
        <ele>713.4</ele>
        <time>2020-09-05T08:14:33.000Z</time>
      </trkpt>
      <trkpt lat="44.46141" lon="6.13724">
        <ele>715.4</ele>
        <time>2020-09-05T08:14:34.000Z</time>
      </trkpt>
      <trkpt lat="44.46132" lon="6.13717">
        <ele>716.4</ele>
        <time>2020-09-05T08:14:36.000Z</time>
      </trkpt>
      <trkpt lat="44.46128" lon="6.13713">
        <ele>717.1</ele>
        <time>2020-09-05T08:14:37.000Z</time>
      </trkpt>
      <trkpt lat="44.46121" lon="6.13703">
        <ele>717.7</ele>
        <time>2020-09-05T08:14:39.000Z</time>
      </trkpt>
      <trkpt lat="44.4612" lon="6.13695">
        <ele>717.1</ele>
        <time>2020-09-05T08:14:41.000Z</time>
      </trkpt>
      <trkpt lat="44.46118" lon="6.13683">
        <ele>718.6</ele>
        <time>2020-09-05T08:14:43.000Z</time>
      </trkpt>
      <trkpt lat="44.46112" lon="6.13668">
        <ele>720.5</ele>
        <time>2020-09-05T08:14:45.000Z</time>
      </trkpt>
      <trkpt lat="44.46107" lon="6.13663">
        <ele>718.2</ele>
        <time>2020-09-05T08:14:46.000Z</time>
      </trkpt>
      <trkpt lat="44.46101" lon="6.13658">
        <ele>719.6</ele>
        <time>2020-09-05T08:14:47.000Z</time>
      </trkpt>
      <trkpt lat="44.46086" lon="6.1365">
        <ele>719.5</ele>
        <time>2020-09-05T08:14:49.000Z</time>
      </trkpt>
      <trkpt lat="44.46072" lon="6.13648">
        <ele>720.6</ele>
        <time>2020-09-05T08:14:51.000Z</time>
      </trkpt>
      <trkpt lat="44.4606" lon="6.13653">
        <ele>722.8</ele>
        <time>2020-09-05T08:14:53.000Z</time>
      </trkpt>
      <trkpt lat="44.46053" lon="6.13657">
        <ele>724.5</ele>
        <time>2020-09-05T08:14:54.000Z</time>
      </trkpt>
      <trkpt lat="44.46047" lon="6.1366">
        <ele>724.1</ele>
        <time>2020-09-05T08:14:55.000Z</time>
      </trkpt>
      <trkpt lat="44.46037" lon="6.1366">
        <ele>725</ele>
        <time>2020-09-05T08:14:58.000Z</time>
      </trkpt>
      <trkpt lat="44.46034" lon="6.13669">
        <ele>729.7</ele>
        <time>2020-09-05T08:15:30.000Z</time>
      </trkpt>
      <trkpt lat="44.46034" lon="6.13677">
        <ele>728.5</ele>
        <time>2020-09-05T08:15:31.274Z</time>
      </trkpt>
      <trkpt lat="44.46035" lon="6.13685">
        <ele>730.2</ele>
        <time>2020-09-05T08:15:33.000Z</time>
      </trkpt>
      <trkpt lat="44.46035" lon="6.13696">
        <ele>726.9</ele>
        <time>2020-09-05T08:15:36.000Z</time>
      </trkpt>
      <trkpt lat="44.46034" lon="6.13705">
        <ele>728.4</ele>
        <time>2020-09-05T08:15:38.000Z</time>
      </trkpt>
      <trkpt lat="44.46029" lon="6.1371">
        <ele>732.4</ele>
        <time>2020-09-05T08:15:41.000Z</time>
      </trkpt>
      <trkpt lat="44.46024" lon="6.13707">
        <ele>735.3</ele>
        <time>2020-09-05T08:15:43.000Z</time>
      </trkpt>
      <trkpt lat="44.46017" lon="6.13703">
        <ele>740.2</ele>
        <time>2020-09-05T08:15:45.000Z</time>
      </trkpt>
      <trkpt lat="44.46012" lon="6.137">
        <ele>742.5</ele>
        <time>2020-09-05T08:15:46.000Z</time>
      </trkpt>
      <trkpt lat="44.46001" lon="6.13695">
        <ele>745.9</ele>
        <time>2020-09-05T08:15:48.000Z</time>
      </trkpt>
      <trkpt lat="44.45998" lon="6.13689">
        <ele>751.4</ele>
        <time>2020-09-05T08:16:07.000Z</time>
      </trkpt>
      <trkpt lat="44.45993" lon="6.13693">
        <ele>760.3</ele>
        <time>2020-09-05T08:16:30.000Z</time>
      </trkpt>
      <trkpt lat="44.45988" lon="6.13695">
        <ele>761.6</ele>
        <time>2020-09-05T08:16:35.000Z</time>
      </trkpt>
      <trkpt lat="44.45991" lon="6.13702">
        <ele>760.2</ele>
        <time>2020-09-05T08:16:40.000Z</time>
      </trkpt>
      <trkpt lat="44.45995" lon="6.13708">
        <ele>759.1</ele>
        <time>2020-09-05T08:16:42.000Z</time>
      </trkpt>
      <trkpt lat="44.45998" lon="6.13715">
        <ele>760.3</ele>
        <time>2020-09-05T08:16:43.714Z</time>
      </trkpt>
      <trkpt lat="44.46" lon="6.13722">
        <ele>761.7</ele>
        <time>2020-09-05T08:16:45.000Z</time>
      </trkpt>
      <trkpt lat="44.45995" lon="6.13724">
        <ele>766.9</ele>
        <time>2020-09-05T08:16:50.000Z</time>
      </trkpt>
      <trkpt lat="44.45987" lon="6.13721">
        <ele>767</ele>
        <time>2020-09-05T08:16:53.781Z</time>
      </trkpt>
      <trkpt lat="44.45982" lon="6.1372">
        <ele>767.8</ele>
        <time>2020-09-05T08:16:55.000Z</time>
      </trkpt>
      <trkpt lat="44.45976" lon="6.1372">
        <ele>767.9</ele>
        <time>2020-09-05T08:16:57.000Z</time>
      </trkpt>
      <trkpt lat="44.45971" lon="6.13723">
        <ele>771.4</ele>
        <time>2020-09-05T08:17:00.000Z</time>
      </trkpt>
      <trkpt lat="44.45973" lon="6.13729">
        <ele>773.6</ele>
        <time>2020-09-05T08:17:05.000Z</time>
      </trkpt>
      <trkpt lat="44.45984" lon="6.13742">
        <ele>775.4</ele>
        <time>2020-09-05T08:17:08.000Z</time>
      </trkpt>
      <trkpt lat="44.45989" lon="6.13751">
        <ele>774.6</ele>
        <time>2020-09-05T08:17:10.000Z</time>
      </trkpt>
      <trkpt lat="44.4599" lon="6.13757">
        <ele>775</ele>
        <time>2020-09-05T08:17:13.000Z</time>
      </trkpt>
      <trkpt lat="44.45985" lon="6.13758">
        <ele>775.9</ele>
        <time>2020-09-05T08:17:15.000Z</time>
      </trkpt>
      <trkpt lat="44.45978" lon="6.13761">
        <ele>776.1</ele>
        <time>2020-09-05T08:17:17.000Z</time>
      </trkpt>
      <trkpt lat="44.45968" lon="6.13762">
        <ele>777.8</ele>
        <time>2020-09-05T08:17:20.000Z</time>
      </trkpt>
      <trkpt lat="44.45961" lon="6.13762">
        <ele>778</ele>
        <time>2020-09-05T08:17:22.000Z</time>
      </trkpt>
      <trkpt lat="44.45956" lon="6.13762">
        <ele>778</ele>
        <time>2020-09-05T08:17:23.000Z</time>
      </trkpt>
      <trkpt lat="44.4594" lon="6.13763">
        <ele>777.6</ele>
        <time>2020-09-05T08:17:25.000Z</time>
      </trkpt>
      <trkpt lat="44.45931" lon="6.13763">
        <ele>778.4</ele>
        <time>2020-09-05T08:17:26.000Z</time>
      </trkpt>
      <trkpt lat="44.45913" lon="6.13764">
        <ele>779.1</ele>
        <time>2020-09-05T08:17:28.000Z</time>
      </trkpt>
      <trkpt lat="44.45897" lon="6.13766">
        <ele>782.9</ele>
        <time>2020-09-05T08:17:30.000Z</time>
      </trkpt>
      <trkpt lat="44.45883" lon="6.13763">
        <ele>786.6</ele>
        <time>2020-09-05T08:17:32.000Z</time>
      </trkpt>
      <trkpt lat="44.45876" lon="6.13763">
        <ele>788.6</ele>
        <time>2020-09-05T08:17:33.000Z</time>
      </trkpt>
      <trkpt lat="44.45866" lon="6.13761">
        <ele>790.9</ele>
        <time>2020-09-05T08:17:35.000Z</time>
      </trkpt>
      <trkpt lat="44.45853" lon="6.13762">
        <ele>792.6</ele>
        <time>2020-09-05T08:17:38.000Z</time>
      </trkpt>
      <trkpt lat="44.45847" lon="6.13763">
        <ele>793.7</ele>
        <time>2020-09-05T08:17:39.000Z</time>
      </trkpt>
      <trkpt lat="44.45833" lon="6.13764">
        <ele>795.5</ele>
        <time>2020-09-05T08:17:41.000Z</time>
      </trkpt>
      <trkpt lat="44.45826" lon="6.13763">
        <ele>797.1</ele>
        <time>2020-09-05T08:17:42.000Z</time>
      </trkpt>
      <trkpt lat="44.45819" lon="6.13761">
        <ele>801.1</ele>
        <time>2020-09-05T08:17:44.000Z</time>
      </trkpt>
      <trkpt lat="44.45814" lon="6.1376">
        <ele>802.1</ele>
        <time>2020-09-05T08:17:45.000Z</time>
      </trkpt>
      <trkpt lat="44.45801" lon="6.13759">
        <ele>806.2</ele>
        <time>2020-09-05T08:17:47.000Z</time>
      </trkpt>
      <trkpt lat="44.45794" lon="6.13757">
        <ele>808.2</ele>
        <time>2020-09-05T08:17:48.000Z</time>
      </trkpt>
      <trkpt lat="44.45788" lon="6.13755">
        <ele>809.3</ele>
        <time>2020-09-05T08:17:49.000Z</time>
      </trkpt>
      <trkpt lat="44.45777" lon="6.13754">
        <ele>812.6</ele>
        <time>2020-09-05T08:17:51.000Z</time>
      </trkpt>
      <trkpt lat="44.45764" lon="6.13756">
        <ele>814.7</ele>
        <time>2020-09-05T08:17:53.000Z</time>
      </trkpt>
      <trkpt lat="44.45758" lon="6.13756">
        <ele>815.4</ele>
        <time>2020-09-05T08:17:54.000Z</time>
      </trkpt>
      <trkpt lat="44.45752" lon="6.13756">
        <ele>816.7</ele>
        <time>2020-09-05T08:17:55.434Z</time>
      </trkpt>
      <trkpt lat="44.45747" lon="6.13752">
        <ele>818.1</ele>
        <time>2020-09-05T08:17:56.795Z</time>
      </trkpt>
      <trkpt lat="44.45753" lon="6.13764">
        <ele>822.2</ele>
        <time>2020-09-05T08:18:02.000Z</time>
      </trkpt>
      <trkpt lat="44.45755" lon="6.1377">
        <ele>823.1</ele>
        <time>2020-09-05T08:18:03.000Z</time>
      </trkpt>
      <trkpt lat="44.45757" lon="6.13776">
        <ele>822.4</ele>
        <time>2020-09-05T08:18:04.000Z</time>
      </trkpt>
      <trkpt lat="44.4576" lon="6.13785">
        <ele>821.6</ele>
        <time>2020-09-05T08:18:05.257Z</time>
      </trkpt>
      <trkpt lat="44.45768" lon="6.13797">
        <ele>824.5</ele>
        <time>2020-09-05T08:18:07.000Z</time>
      </trkpt>
      <trkpt lat="44.45776" lon="6.1381">
        <ele>825.8</ele>
        <time>2020-09-05T08:18:09.000Z</time>
      </trkpt>
      <trkpt lat="44.45784" lon="6.13822">
        <ele>827.5</ele>
        <time>2020-09-05T08:18:11.000Z</time>
      </trkpt>
      <trkpt lat="44.45787" lon="6.13829">
        <ele>829.8</ele>
        <time>2020-09-05T08:18:13.000Z</time>
      </trkpt>
      <trkpt lat="44.4578" lon="6.13833">
        <ele>833.5</ele>
        <time>2020-09-05T08:18:16.000Z</time>
      </trkpt>
      <trkpt lat="44.45767" lon="6.13831">
        <ele>834.2</ele>
        <time>2020-09-05T08:18:18.000Z</time>
      </trkpt>
      <trkpt lat="44.45758" lon="6.13829">
        <ele>836.1</ele>
        <time>2020-09-05T08:18:19.000Z</time>
      </trkpt>
      <trkpt lat="44.45749" lon="6.13825">
        <ele>836.6</ele>
        <time>2020-09-05T08:18:20.000Z</time>
      </trkpt>
      <trkpt lat="44.45731" lon="6.1382">
        <ele>837.8</ele>
        <time>2020-09-05T08:18:22.000Z</time>
      </trkpt>
      <trkpt lat="44.45725" lon="6.13817">
        <ele>837.6</ele>
        <time>2020-09-05T08:18:23.000Z</time>
      </trkpt>
      <trkpt lat="44.4571" lon="6.13814">
        <ele>841</ele>
        <time>2020-09-05T08:18:25.000Z</time>
      </trkpt>
      <trkpt lat="44.45704" lon="6.13812">
        <ele>842.5</ele>
        <time>2020-09-05T08:18:26.000Z</time>
      </trkpt>
      <trkpt lat="44.45698" lon="6.1381">
        <ele>845.7</ele>
        <time>2020-09-05T08:18:29.000Z</time>
      </trkpt>
      <trkpt lat="44.45703" lon="6.13809">
        <ele>858.7</ele>
        <time>2020-09-05T08:18:40.854Z</time>
      </trkpt>
      <trkpt lat="44.45701" lon="6.13801">
        <ele>860.5</ele>
        <time>2020-09-05T08:18:43.000Z</time>
      </trkpt>
      <trkpt lat="44.45691" lon="6.13802">
        <ele>864.3</ele>
        <time>2020-09-05T08:18:45.390Z</time>
      </trkpt>
      <trkpt lat="44.45685" lon="6.13799">
        <ele>867.2</ele>
        <time>2020-09-05T08:18:48.000Z</time>
      </trkpt>
      <trkpt lat="44.45676" lon="6.13795">
        <ele>865.8</ele>
        <time>2020-09-05T08:18:49.719Z</time>
      </trkpt>
      <trkpt lat="44.45657" lon="6.13784">
        <ele>866.5</ele>
        <time>2020-09-05T08:18:51.000Z</time>
      </trkpt>
      <trkpt lat="44.45643" lon="6.13773">
        <ele>867.2</ele>
        <time>2020-09-05T08:18:53.000Z</time>
      </trkpt>
      <trkpt lat="44.45627" lon="6.13766">
        <ele>867.6</ele>
        <time>2020-09-05T08:18:55.000Z</time>
      </trkpt>
      <trkpt lat="44.45613" lon="6.1376">
        <ele>869.1</ele>
        <time>2020-09-05T08:18:57.000Z</time>
      </trkpt>
      <trkpt lat="44.45605" lon="6.13757">
        <ele>869.2</ele>
        <time>2020-09-05T08:18:58.787Z</time>
      </trkpt>
      <trkpt lat="44.456" lon="6.13753">
        <ele>870.4</ele>
        <time>2020-09-05T08:18:59.949Z</time>
      </trkpt>
      <trkpt lat="44.45595" lon="6.1375">
        <ele>871</ele>
        <time>2020-09-05T08:19:01.000Z</time>
      </trkpt>
      <trkpt lat="44.4559" lon="6.13746">
        <ele>871.2</ele>
        <time>2020-09-05T08:19:02.000Z</time>
      </trkpt>
      <trkpt lat="44.45581" lon="6.13737">
        <ele>873.3</ele>
        <time>2020-09-05T08:19:04.000Z</time>
      </trkpt>
      <trkpt lat="44.45577" lon="6.13734">
        <ele>874.9</ele>
        <time>2020-09-05T08:19:05.000Z</time>
      </trkpt>
      <trkpt lat="44.45568" lon="6.13728">
        <ele>876.9</ele>
        <time>2020-09-05T08:19:07.000Z</time>
      </trkpt>
      <trkpt lat="44.45559" lon="6.13725">
        <ele>877.7</ele>
        <time>2020-09-05T08:19:09.000Z</time>
      </trkpt>
      <trkpt lat="44.4555" lon="6.13719">
        <ele>877.7</ele>
        <time>2020-09-05T08:19:12.000Z</time>
      </trkpt>
      <trkpt lat="44.45545" lon="6.13714">
        <ele>880.4</ele>
        <time>2020-09-05T08:19:14.000Z</time>
      </trkpt>
      <trkpt lat="44.45538" lon="6.1371">
        <ele>881.2</ele>
        <time>2020-09-05T08:19:16.000Z</time>
      </trkpt>
      <trkpt lat="44.45531" lon="6.13709">
        <ele>883.7</ele>
        <time>2020-09-05T08:19:18.000Z</time>
      </trkpt>
      <trkpt lat="44.4552" lon="6.13712">
        <ele>884.1</ele>
        <time>2020-09-05T08:19:21.000Z</time>
      </trkpt>
      <trkpt lat="44.45512" lon="6.13711">
        <ele>887.4</ele>
        <time>2020-09-05T08:19:23.000Z</time>
      </trkpt>
      <trkpt lat="44.45501" lon="6.13707">
        <ele>892.1</ele>
        <time>2020-09-05T08:19:25.000Z</time>
      </trkpt>
      <trkpt lat="44.45493" lon="6.13703">
        <ele>895.5</ele>
        <time>2020-09-05T08:19:28.000Z</time>
      </trkpt>
      <trkpt lat="44.45488" lon="6.13699">
        <ele>898.6</ele>
        <time>2020-09-05T08:19:31.000Z</time>
      </trkpt>
      <trkpt lat="44.45481" lon="6.13698">
        <ele>898.8</ele>
        <time>2020-09-05T08:19:33.000Z</time>
      </trkpt>
      <trkpt lat="44.45475" lon="6.13698">
        <ele>899.2</ele>
        <time>2020-09-05T08:19:34.000Z</time>
      </trkpt>
      <trkpt lat="44.45462" lon="6.13695">
        <ele>901.7</ele>
        <time>2020-09-05T08:19:37.000Z</time>
      </trkpt>
      <trkpt lat="44.45456" lon="6.13692">
        <ele>904.9</ele>
        <time>2020-09-05T08:19:39.000Z</time>
      </trkpt>
      <trkpt lat="44.4545" lon="6.13688">
        <ele>907.5</ele>
        <time>2020-09-05T08:19:41.000Z</time>
      </trkpt>
      <trkpt lat="44.4544" lon="6.13685">
        <ele>913.5</ele>
        <time>2020-09-05T08:19:44.000Z</time>
      </trkpt>
      <trkpt lat="44.45434" lon="6.13678">
        <ele>914.9</ele>
        <time>2020-09-05T08:19:47.000Z</time>
      </trkpt>
      <trkpt lat="44.45421" lon="6.13676">
        <ele>917.1</ele>
        <time>2020-09-05T08:19:50.000Z</time>
      </trkpt>
      <trkpt lat="44.45416" lon="6.13676">
        <ele>917.7</ele>
        <time>2020-09-05T08:19:51.689Z</time>
      </trkpt>
      <trkpt lat="44.45411" lon="6.13679">
        <ele>921.1</ele>
        <time>2020-09-05T08:19:54.597Z</time>
      </trkpt>
      <trkpt lat="44.45416" lon="6.1369">
        <ele>924.4</ele>
        <time>2020-09-05T08:19:59.000Z</time>
      </trkpt>
      <trkpt lat="44.4542" lon="6.13699">
        <ele>927.3</ele>
        <time>2020-09-05T08:20:01.334Z</time>
      </trkpt>
      <trkpt lat="44.45422" lon="6.13705">
        <ele>928</ele>
        <time>2020-09-05T08:20:02.576Z</time>
      </trkpt>
      <trkpt lat="44.45429" lon="6.13718">
        <ele>930.8</ele>
        <time>2020-09-05T08:20:04.000Z</time>
      </trkpt>
      <trkpt lat="44.45433" lon="6.13725">
        <ele>931.1</ele>
        <time>2020-09-05T08:20:05.000Z</time>
      </trkpt>
      <trkpt lat="44.45437" lon="6.13731">
        <ele>933.2</ele>
        <time>2020-09-05T08:20:06.000Z</time>
      </trkpt>
      <trkpt lat="44.45442" lon="6.13737">
        <ele>936.9</ele>
        <time>2020-09-05T08:20:08.000Z</time>
      </trkpt>
      <trkpt lat="44.45452" lon="6.13747">
        <ele>939.1</ele>
        <time>2020-09-05T08:20:10.000Z</time>
      </trkpt>
      <trkpt lat="44.45456" lon="6.13753">
        <ele>940.3</ele>
        <time>2020-09-05T08:20:11.000Z</time>
      </trkpt>
      <trkpt lat="44.45464" lon="6.1377">
        <ele>943.3</ele>
        <time>2020-09-05T08:20:13.000Z</time>
      </trkpt>
      <trkpt lat="44.45468" lon="6.13776">
        <ele>944.8</ele>
        <time>2020-09-05T08:20:14.000Z</time>
      </trkpt>
      <trkpt lat="44.45474" lon="6.13786">
        <ele>949.5</ele>
        <time>2020-09-05T08:20:16.000Z</time>
      </trkpt>
      <trkpt lat="44.45469" lon="6.13788">
        <ele>954.1</ele>
        <time>2020-09-05T08:20:21.000Z</time>
      </trkpt>
      <trkpt lat="44.45463" lon="6.13786">
        <ele>955.4</ele>
        <time>2020-09-05T08:20:24.000Z</time>
      </trkpt>
      <trkpt lat="44.45457" lon="6.13783">
        <ele>956.9</ele>
        <time>2020-09-05T08:20:26.000Z</time>
      </trkpt>
      <trkpt lat="44.45444" lon="6.13777">
        <ele>957</ele>
        <time>2020-09-05T08:20:29.000Z</time>
      </trkpt>
      <trkpt lat="44.45431" lon="6.13779">
        <ele>954.2</ele>
        <time>2020-09-05T08:20:32.000Z</time>
      </trkpt>
      <trkpt lat="44.45426" lon="6.13778">
        <ele>955.3</ele>
        <time>2020-09-05T08:20:34.000Z</time>
      </trkpt>
      <trkpt lat="44.45417" lon="6.13774">
        <ele>956</ele>
        <time>2020-09-05T08:20:36.000Z</time>
      </trkpt>
      <trkpt lat="44.45412" lon="6.13772">
        <ele>956.6</ele>
        <time>2020-09-05T08:20:37.000Z</time>
      </trkpt>
      <trkpt lat="44.45408" lon="6.13767">
        <ele>957.6</ele>
        <time>2020-09-05T08:20:40.000Z</time>
      </trkpt>
      <trkpt lat="44.45401" lon="6.13765">
        <ele>959.8</ele>
        <time>2020-09-05T08:20:43.000Z</time>
      </trkpt>
      <trkpt lat="44.45395" lon="6.13764">
        <ele>961.4</ele>
        <time>2020-09-05T08:20:45.000Z</time>
      </trkpt>
      <trkpt lat="44.45388" lon="6.13764">
        <ele>961.6</ele>
        <time>2020-09-05T08:20:47.000Z</time>
      </trkpt>
      <trkpt lat="44.45381" lon="6.1376">
        <ele>961.5</ele>
        <time>2020-09-05T08:20:49.000Z</time>
      </trkpt>
      <trkpt lat="44.45374" lon="6.13757">
        <ele>961.1</ele>
        <time>2020-09-05T08:20:51.000Z</time>
      </trkpt>
      <trkpt lat="44.45366" lon="6.13752">
        <ele>962.2</ele>
        <time>2020-09-05T08:20:53.000Z</time>
      </trkpt>
      <trkpt lat="44.4536" lon="6.13748">
        <ele>962.6</ele>
        <time>2020-09-05T08:20:54.000Z</time>
      </trkpt>
      <trkpt lat="44.45347" lon="6.13739">
        <ele>962.7</ele>
        <time>2020-09-05T08:20:56.000Z</time>
      </trkpt>
      <trkpt lat="44.45341" lon="6.13736">
        <ele>962.4</ele>
        <time>2020-09-05T08:20:57.000Z</time>
      </trkpt>
      <trkpt lat="44.45333" lon="6.13731">
        <ele>964</ele>
        <time>2020-09-05T08:20:59.000Z</time>
      </trkpt>
      <trkpt lat="44.45325" lon="6.13726">
        <ele>964.2</ele>
        <time>2020-09-05T08:21:01.000Z</time>
      </trkpt>
      <trkpt lat="44.45319" lon="6.13725">
        <ele>964.5</ele>
        <time>2020-09-05T08:21:02.000Z</time>
      </trkpt>
      <trkpt lat="44.45312" lon="6.13725">
        <ele>964.2</ele>
        <time>2020-09-05T08:21:03.000Z</time>
      </trkpt>
      <trkpt lat="44.45307" lon="6.13727">
        <ele>965</ele>
        <time>2020-09-05T08:21:04.000Z</time>
      </trkpt>
      <trkpt lat="44.45302" lon="6.13728">
        <ele>965.7</ele>
        <time>2020-09-05T08:21:05.000Z</time>
      </trkpt>
      <trkpt lat="44.45298" lon="6.13734">
        <ele>970.1</ele>
        <time>2020-09-05T08:21:10.000Z</time>
      </trkpt>
      <trkpt lat="44.45307" lon="6.13733">
        <ele>976.1</ele>
        <time>2020-09-05T08:21:15.129Z</time>
      </trkpt>
      <trkpt lat="44.45313" lon="6.13736">
        <ele>979.1</ele>
        <time>2020-09-05T08:21:17.888Z</time>
      </trkpt>
      <trkpt lat="44.45318" lon="6.13738">
        <ele>980.5</ele>
        <time>2020-09-05T08:21:20.000Z</time>
      </trkpt>
      <trkpt lat="44.45328" lon="6.13754">
        <ele>980.4</ele>
        <time>2020-09-05T08:21:23.751Z</time>
      </trkpt>
      <trkpt lat="44.45331" lon="6.1376">
        <ele>979</ele>
        <time>2020-09-05T08:21:25.191Z</time>
      </trkpt>
      <trkpt lat="44.45334" lon="6.13765">
        <ele>980.4</ele>
        <time>2020-09-05T08:21:26.279Z</time>
      </trkpt>
      <trkpt lat="44.4534" lon="6.13776">
        <ele>983.9</ele>
        <time>2020-09-05T08:21:30.000Z</time>
      </trkpt>
      <trkpt lat="44.45343" lon="6.13787">
        <ele>987.2</ele>
        <time>2020-09-05T08:21:32.000Z</time>
      </trkpt>
      <trkpt lat="44.45343" lon="6.13794">
        <ele>990.3</ele>
        <time>2020-09-05T08:21:34.000Z</time>
      </trkpt>
      <trkpt lat="44.45338" lon="6.13801">
        <ele>991.6</ele>
        <time>2020-09-05T08:21:37.000Z</time>
      </trkpt>
      <trkpt lat="44.45329" lon="6.13798">
        <ele>994.6</ele>
        <time>2020-09-05T08:21:39.000Z</time>
      </trkpt>
      <trkpt lat="44.45319" lon="6.13793">
        <ele>995.9</ele>
        <time>2020-09-05T08:21:41.000Z</time>
      </trkpt>
      <trkpt lat="44.4531" lon="6.13789">
        <ele>994.7</ele>
        <time>2020-09-05T08:21:44.000Z</time>
      </trkpt>
      <trkpt lat="44.453" lon="6.13788">
        <ele>996.3</ele>
        <time>2020-09-05T08:21:48.000Z</time>
      </trkpt>
      <trkpt lat="44.45295" lon="6.1379">
        <ele>997.4</ele>
        <time>2020-09-05T08:21:49.000Z</time>
      </trkpt>
      <trkpt lat="44.45289" lon="6.13792">
        <ele>995.7</ele>
        <time>2020-09-05T08:21:51.000Z</time>
      </trkpt>
      <trkpt lat="44.45281" lon="6.13791">
        <ele>997.6</ele>
        <time>2020-09-05T08:21:54.000Z</time>
      </trkpt>
      <trkpt lat="44.45271" lon="6.13797">
        <ele>999.1</ele>
        <time>2020-09-05T08:21:57.000Z</time>
      </trkpt>
      <trkpt lat="44.45267" lon="6.13802">
        <ele>998</ele>
        <time>2020-09-05T08:22:02.000Z</time>
      </trkpt>
      <trkpt lat="44.45264" lon="6.13807">
        <ele>1001.2</ele>
        <time>2020-09-05T08:25:10.000Z</time>
      </trkpt>
      <trkpt lat="44.45258" lon="6.13807">
        <ele>1000.6</ele>
        <time>2020-09-05T08:25:11.000Z</time>
      </trkpt>
      <trkpt lat="44.45253" lon="6.13807">
        <ele>1000.4</ele>
        <time>2020-09-05T08:25:12.000Z</time>
      </trkpt>
      <trkpt lat="44.45247" lon="6.13807">
        <ele>1000.5</ele>
        <time>2020-09-05T08:25:13.000Z</time>
      </trkpt>
      <trkpt lat="44.45238" lon="6.13806">
        <ele>999.9</ele>
        <time>2020-09-05T08:25:15.000Z</time>
      </trkpt>
      <trkpt lat="44.45232" lon="6.13803">
        <ele>999.5</ele>
        <time>2020-09-05T08:25:16.000Z</time>
      </trkpt>
      <trkpt lat="44.45226" lon="6.13801">
        <ele>999.7</ele>
        <time>2020-09-05T08:25:17.000Z</time>
      </trkpt>
      <trkpt lat="44.45213" lon="6.13797">
        <ele>1000.1</ele>
        <time>2020-09-05T08:25:19.000Z</time>
      </trkpt>
      <trkpt lat="44.45206" lon="6.13793">
        <ele>998.2</ele>
        <time>2020-09-05T08:25:20.660Z</time>
      </trkpt>
      <trkpt lat="44.45201" lon="6.13788">
        <ele>998.1</ele>
        <time>2020-09-05T08:25:22.000Z</time>
      </trkpt>
      <trkpt lat="44.45191" lon="6.13784">
        <ele>996.5</ele>
        <time>2020-09-05T08:25:25.000Z</time>
      </trkpt>
      <trkpt lat="44.45184" lon="6.13779">
        <ele>996.4</ele>
        <time>2020-09-05T08:25:26.000Z</time>
      </trkpt>
      <trkpt lat="44.45174" lon="6.13768">
        <ele>994.7</ele>
        <time>2020-09-05T08:25:28.000Z</time>
      </trkpt>
      <trkpt lat="44.45169" lon="6.13761">
        <ele>994</ele>
        <time>2020-09-05T08:25:31.032Z</time>
      </trkpt>
      <trkpt lat="44.45161" lon="6.13762">
        <ele>994.7</ele>
        <time>2020-09-05T08:25:34.575Z</time>
      </trkpt>
      <trkpt lat="44.45152" lon="6.13769">
        <ele>995.2</ele>
        <time>2020-09-05T08:25:36.000Z</time>
      </trkpt>
      <trkpt lat="44.45139" lon="6.13772">
        <ele>995.4</ele>
        <time>2020-09-05T08:25:38.000Z</time>
      </trkpt>
      <trkpt lat="44.45134" lon="6.13773">
        <ele>995.5</ele>
        <time>2020-09-05T08:25:39.000Z</time>
      </trkpt>
      <trkpt lat="44.45126" lon="6.13774">
        <ele>995.5</ele>
        <time>2020-09-05T08:25:40.915Z</time>
      </trkpt>
      <trkpt lat="44.45118" lon="6.13775">
        <ele>993.7</ele>
        <time>2020-09-05T08:25:43.953Z</time>
      </trkpt>
      <trkpt lat="44.45113" lon="6.13776">
        <ele>995.1</ele>
        <time>2020-09-05T08:25:45.000Z</time>
      </trkpt>
      <trkpt lat="44.45109" lon="6.1378">
        <ele>994.4</ele>
        <time>2020-09-05T08:25:46.000Z</time>
      </trkpt>
      <trkpt lat="44.45101" lon="6.1379">
        <ele>995.4</ele>
        <time>2020-09-05T08:25:48.835Z</time>
      </trkpt>
      <trkpt lat="44.45093" lon="6.13799">
        <ele>995</ele>
        <time>2020-09-05T08:25:50.000Z</time>
      </trkpt>
      <trkpt lat="44.45086" lon="6.13806">
        <ele>996.6</ele>
        <time>2020-09-05T08:25:52.000Z</time>
      </trkpt>
      <trkpt lat="44.4508" lon="6.13813">
        <ele>997.1</ele>
        <time>2020-09-05T08:25:54.033Z</time>
      </trkpt>
      <trkpt lat="44.45078" lon="6.1382">
        <ele>997.6</ele>
        <time>2020-09-05T08:25:55.000Z</time>
      </trkpt>
      <trkpt lat="44.45072" lon="6.13827">
        <ele>996.3</ele>
        <time>2020-09-05T08:25:57.695Z</time>
      </trkpt>
      <trkpt lat="44.45077" lon="6.13827">
        <ele>999</ele>
        <time>2020-09-05T08:26:07.000Z</time>
      </trkpt>
      <trkpt lat="44.45072" lon="6.13824">
        <ele>999.6</ele>
        <time>2020-09-05T08:26:12.000Z</time>
      </trkpt>
      <trkpt lat="44.45067" lon="6.13817">
        <ele>1002.5</ele>
        <time>2020-09-05T08:26:15.000Z</time>
      </trkpt>
      <trkpt lat="44.45061" lon="6.13815">
        <ele>1002.3</ele>
        <time>2020-09-05T08:26:18.138Z</time>
      </trkpt>
      <trkpt lat="44.45046" lon="6.13816">
        <ele>1000.2</ele>
        <time>2020-09-05T08:26:20.558Z</time>
      </trkpt>
      <trkpt lat="44.45037" lon="6.13821">
        <ele>1000.5</ele>
        <time>2020-09-05T08:26:22.138Z</time>
      </trkpt>
      <trkpt lat="44.45031" lon="6.13826">
        <ele>1002.8</ele>
        <time>2020-09-05T08:26:23.239Z</time>
      </trkpt>
      <trkpt lat="44.45027" lon="6.13831">
        <ele>1002.7</ele>
        <time>2020-09-05T08:26:24.996Z</time>
      </trkpt>
      <trkpt lat="44.45023" lon="6.13836">
        <ele>1001.6</ele>
        <time>2020-09-05T08:26:27.000Z</time>
      </trkpt>
      <trkpt lat="44.45019" lon="6.13841">
        <ele>1001</ele>
        <time>2020-09-05T08:26:31.962Z</time>
      </trkpt>
      <trkpt lat="44.45008" lon="6.13837">
        <ele>1000.6</ele>
        <time>2020-09-05T08:26:36.000Z</time>
      </trkpt>
      <trkpt lat="44.45003" lon="6.13833">
        <ele>1000.9</ele>
        <time>2020-09-05T08:26:39.000Z</time>
      </trkpt>
      <trkpt lat="44.45" lon="6.13829">
        <ele>995.8</ele>
        <time>2020-09-05T08:26:42.000Z</time>
      </trkpt>
      <trkpt lat="44.44998" lon="6.13816">
        <ele>997.7</ele>
        <time>2020-09-05T08:26:45.000Z</time>
      </trkpt>
      <trkpt lat="44.44999" lon="6.13801">
        <ele>1000.3</ele>
        <time>2020-09-05T08:26:48.000Z</time>
      </trkpt>
      <trkpt lat="44.45002" lon="6.1379">
        <ele>1000.1</ele>
        <time>2020-09-05T08:26:51.000Z</time>
      </trkpt>
      <trkpt lat="44.4501" lon="6.13777">
        <ele>998.4</ele>
        <time>2020-09-05T08:26:53.961Z</time>
      </trkpt>
      <trkpt lat="44.45015" lon="6.13766">
        <ele>997.1</ele>
        <time>2020-09-05T08:26:55.000Z</time>
      </trkpt>
      <trkpt lat="44.45021" lon="6.13761">
        <ele>998.6</ele>
        <time>2020-09-05T08:26:57.038Z</time>
      </trkpt>
      <trkpt lat="44.45028" lon="6.13747">
        <ele>997.5</ele>
        <time>2020-09-05T08:26:58.000Z</time>
      </trkpt>
      <trkpt lat="44.45032" lon="6.13723">
        <ele>997</ele>
        <time>2020-09-05T08:27:00.000Z</time>
      </trkpt>
      <trkpt lat="44.45036" lon="6.13695">
        <ele>995.6</ele>
        <time>2020-09-05T08:27:02.000Z</time>
      </trkpt>
      <trkpt lat="44.45039" lon="6.13683">
        <ele>993.5</ele>
        <time>2020-09-05T08:27:03.000Z</time>
      </trkpt>
      <trkpt lat="44.45042" lon="6.13671">
        <ele>993.6</ele>
        <time>2020-09-05T08:27:05.178Z</time>
      </trkpt>
      <trkpt lat="44.4504" lon="6.13655">
        <ele>993.9</ele>
        <time>2020-09-05T08:27:07.000Z</time>
      </trkpt>
      <trkpt lat="44.4504" lon="6.13633">
        <ele>994.5</ele>
        <time>2020-09-05T08:27:09.000Z</time>
      </trkpt>
      <trkpt lat="44.4504" lon="6.13613">
        <ele>995.4</ele>
        <time>2020-09-05T08:27:11.000Z</time>
      </trkpt>
      <trkpt lat="44.4504" lon="6.13596">
        <ele>997.3</ele>
        <time>2020-09-05T08:27:14.000Z</time>
      </trkpt>
      <trkpt lat="44.45045" lon="6.13588">
        <ele>1000</ele>
        <time>2020-09-05T08:27:15.000Z</time>
      </trkpt>
      <trkpt lat="44.45047" lon="6.13576">
        <ele>999.1</ele>
        <time>2020-09-05T08:27:16.000Z</time>
      </trkpt>
      <trkpt lat="44.45049" lon="6.13559">
        <ele>1002.2</ele>
        <time>2020-09-05T08:27:18.000Z</time>
      </trkpt>
      <trkpt lat="44.45047" lon="6.13551">
        <ele>1004</ele>
        <time>2020-09-05T08:27:20.386Z</time>
      </trkpt>
      <trkpt lat="44.45041" lon="6.1354">
        <ele>1004.9</ele>
        <time>2020-09-05T08:27:23.067Z</time>
      </trkpt>
      <trkpt lat="44.45035" lon="6.1353">
        <ele>1005</ele>
        <time>2020-09-05T08:27:25.070Z</time>
      </trkpt>
      <trkpt lat="44.45024" lon="6.13528">
        <ele>1005.2</ele>
        <time>2020-09-05T08:27:26.000Z</time>
      </trkpt>
      <trkpt lat="44.45005" lon="6.13526">
        <ele>1003</ele>
        <time>2020-09-05T08:27:28.000Z</time>
      </trkpt>
      <trkpt lat="44.44986" lon="6.13523">
        <ele>1003.3</ele>
        <time>2020-09-05T08:27:30.000Z</time>
      </trkpt>
      <trkpt lat="44.4497" lon="6.13523">
        <ele>1004.8</ele>
        <time>2020-09-05T08:27:32.000Z</time>
      </trkpt>
      <trkpt lat="44.44962" lon="6.1352">
        <ele>1005.2</ele>
        <time>2020-09-05T08:27:33.000Z</time>
      </trkpt>
      <trkpt lat="44.44954" lon="6.13515">
        <ele>1004.5</ele>
        <time>2020-09-05T08:27:34.000Z</time>
      </trkpt>
      <trkpt lat="44.44943" lon="6.13499">
        <ele>1003.1</ele>
        <time>2020-09-05T08:27:36.000Z</time>
      </trkpt>
      <trkpt lat="44.44936" lon="6.13484">
        <ele>1005</ele>
        <time>2020-09-05T08:27:38.000Z</time>
      </trkpt>
      <trkpt lat="44.44924" lon="6.13464">
        <ele>1007.4</ele>
        <time>2020-09-05T08:27:40.000Z</time>
      </trkpt>
      <trkpt lat="44.44912" lon="6.13437">
        <ele>1010.1</ele>
        <time>2020-09-05T08:27:42.000Z</time>
      </trkpt>
      <trkpt lat="44.44906" lon="6.13426">
        <ele>1010.6</ele>
        <time>2020-09-05T08:27:43.000Z</time>
      </trkpt>
      <trkpt lat="44.44898" lon="6.13414">
        <ele>1010.1</ele>
        <time>2020-09-05T08:27:45.000Z</time>
      </trkpt>
      <trkpt lat="44.44885" lon="6.1341">
        <ele>1009.7</ele>
        <time>2020-09-05T08:27:47.000Z</time>
      </trkpt>
      <trkpt lat="44.44868" lon="6.13405">
        <ele>1009.5</ele>
        <time>2020-09-05T08:27:49.000Z</time>
      </trkpt>
      <trkpt lat="44.44863" lon="6.134">
        <ele>1009.8</ele>
        <time>2020-09-05T08:27:50.000Z</time>
      </trkpt>
      <trkpt lat="44.44857" lon="6.13395">
        <ele>1010.3</ele>
        <time>2020-09-05T08:27:51.000Z</time>
      </trkpt>
      <trkpt lat="44.44851" lon="6.13392">
        <ele>1009.2</ele>
        <time>2020-09-05T08:27:52.000Z</time>
      </trkpt>
      <trkpt lat="44.44845" lon="6.13387">
        <ele>1006.2</ele>
        <time>2020-09-05T08:27:54.000Z</time>
      </trkpt>
      <trkpt lat="44.44838" lon="6.13373">
        <ele>1006.3</ele>
        <time>2020-09-05T08:27:57.000Z</time>
      </trkpt>
      <trkpt lat="44.44832" lon="6.13365">
        <ele>1007.5</ele>
        <time>2020-09-05T08:27:59.000Z</time>
      </trkpt>
      <trkpt lat="44.44828" lon="6.13359">
        <ele>1007.4</ele>
        <time>2020-09-05T08:28:00.698Z</time>
      </trkpt>
      <trkpt lat="44.44823" lon="6.13355">
        <ele>1007.4</ele>
        <time>2020-09-05T08:28:02.000Z</time>
      </trkpt>
      <trkpt lat="44.44811" lon="6.13357">
        <ele>1007</ele>
        <time>2020-09-05T08:28:04.000Z</time>
      </trkpt>
      <trkpt lat="44.44804" lon="6.13357">
        <ele>1007.3</ele>
        <time>2020-09-05T08:28:05.000Z</time>
      </trkpt>
      <trkpt lat="44.44798" lon="6.13356">
        <ele>1007.2</ele>
        <time>2020-09-05T08:28:06.000Z</time>
      </trkpt>
      <trkpt lat="44.44793" lon="6.13354">
        <ele>1006.7</ele>
        <time>2020-09-05T08:28:07.000Z</time>
      </trkpt>
      <trkpt lat="44.44787" lon="6.13353">
        <ele>1008.2</ele>
        <time>2020-09-05T08:28:08.715Z</time>
      </trkpt>
      <trkpt lat="44.44783" lon="6.13348">
        <ele>1009.3</ele>
        <time>2020-09-05T08:28:11.811Z</time>
      </trkpt>
      <trkpt lat="44.44787" lon="6.13341">
        <ele>1012.1</ele>
        <time>2020-09-05T08:28:16.000Z</time>
      </trkpt>
      <trkpt lat="44.44791" lon="6.13334">
        <ele>1014</ele>
        <time>2020-09-05T08:28:18.628Z</time>
      </trkpt>
      <trkpt lat="44.44795" lon="6.13328">
        <ele>1017.3</ele>
        <time>2020-09-05T08:28:21.000Z</time>
      </trkpt>
      <trkpt lat="44.44801" lon="6.1332">
        <ele>1018.9</ele>
        <time>2020-09-05T08:28:25.000Z</time>
      </trkpt>
      <trkpt lat="44.44802" lon="6.13313">
        <ele>1018.8</ele>
        <time>2020-09-05T08:28:26.566Z</time>
      </trkpt>
      <trkpt lat="44.448" lon="6.13294">
        <ele>1019.4</ele>
        <time>2020-09-05T08:28:28.000Z</time>
      </trkpt>
      <trkpt lat="44.44802" lon="6.13271">
        <ele>1020</ele>
        <time>2020-09-05T08:28:30.000Z</time>
      </trkpt>
      <trkpt lat="44.44804" lon="6.13263">
        <ele>1020</ele>
        <time>2020-09-05T08:28:31.000Z</time>
      </trkpt>
      <trkpt lat="44.44806" lon="6.13244">
        <ele>1019.9</ele>
        <time>2020-09-05T08:28:34.000Z</time>
      </trkpt>
      <trkpt lat="44.44802" lon="6.13217">
        <ele>1019.5</ele>
        <time>2020-09-05T08:28:36.000Z</time>
      </trkpt>
      <trkpt lat="44.44796" lon="6.13196">
        <ele>1018.9</ele>
        <time>2020-09-05T08:28:38.000Z</time>
      </trkpt>
      <trkpt lat="44.44792" lon="6.132">
        <ele>1018.3</ele>
        <time>2020-09-05T08:28:40.022Z</time>
      </trkpt>
      <trkpt lat="44.44783" lon="6.13199">
        <ele>1018.8</ele>
        <time>2020-09-05T08:28:41.000Z</time>
      </trkpt>
      <trkpt lat="44.44778" lon="6.13195">
        <ele>1018.8</ele>
        <time>2020-09-05T08:28:42.000Z</time>
      </trkpt>
      <trkpt lat="44.44772" lon="6.13192">
        <ele>1020.2</ele>
        <time>2020-09-05T08:28:43.792Z</time>
      </trkpt>
      <trkpt lat="44.44771" lon="6.13179">
        <ele>1023.6</ele>
        <time>2020-09-05T08:28:47.595Z</time>
      </trkpt>
      <trkpt lat="44.44771" lon="6.1317">
        <ele>1023.4</ele>
        <time>2020-09-05T08:28:48.754Z</time>
      </trkpt>
      <trkpt lat="44.4478" lon="6.13155">
        <ele>1021.4</ele>
        <time>2020-09-05T08:28:50.000Z</time>
      </trkpt>
      <trkpt lat="44.44807" lon="6.1314">
        <ele>1026.5</ele>
        <time>2020-09-05T08:28:53.000Z</time>
      </trkpt>
      <trkpt lat="44.44827" lon="6.13135">
        <ele>1028.1</ele>
        <time>2020-09-05T08:28:55.000Z</time>
      </trkpt>
      <trkpt lat="44.44834" lon="6.1313">
        <ele>1028.5</ele>
        <time>2020-09-05T08:28:56.000Z</time>
      </trkpt>
      <trkpt lat="44.44846" lon="6.13118">
        <ele>1025.5</ele>
        <time>2020-09-05T08:28:58.000Z</time>
      </trkpt>
      <trkpt lat="44.44852" lon="6.13111">
        <ele>1022.3</ele>
        <time>2020-09-05T08:28:59.000Z</time>
      </trkpt>
      <trkpt lat="44.44859" lon="6.13104">
        <ele>1023.9</ele>
        <time>2020-09-05T08:29:00.000Z</time>
      </trkpt>
      <trkpt lat="44.44868" lon="6.13097">
        <ele>1027.2</ele>
        <time>2020-09-05T08:29:01.000Z</time>
      </trkpt>
      <trkpt lat="44.44888" lon="6.1309">
        <ele>1030.7</ele>
        <time>2020-09-05T08:29:03.000Z</time>
      </trkpt>
      <trkpt lat="44.44899" lon="6.13086">
        <ele>1032.7</ele>
        <time>2020-09-05T08:29:04.000Z</time>
      </trkpt>
      <trkpt lat="44.44911" lon="6.13081">
        <ele>1034.7</ele>
        <time>2020-09-05T08:29:05.000Z</time>
      </trkpt>
      <trkpt lat="44.44932" lon="6.13067">
        <ele>1038.9</ele>
        <time>2020-09-05T08:29:07.000Z</time>
      </trkpt>
      <trkpt lat="44.44942" lon="6.13057">
        <ele>1041.3</ele>
        <time>2020-09-05T08:29:08.000Z</time>
      </trkpt>
      <trkpt lat="44.44954" lon="6.13047">
        <ele>1042.7</ele>
        <time>2020-09-05T08:29:09.000Z</time>
      </trkpt>
      <trkpt lat="44.44978" lon="6.13029">
        <ele>1045.5</ele>
        <time>2020-09-05T08:29:11.000Z</time>
      </trkpt>
      <trkpt lat="44.45001" lon="6.13015">
        <ele>1048</ele>
        <time>2020-09-05T08:29:13.000Z</time>
      </trkpt>
      <trkpt lat="44.45023" lon="6.13001">
        <ele>1050.7</ele>
        <time>2020-09-05T08:29:15.000Z</time>
      </trkpt>
      <trkpt lat="44.45043" lon="6.12988">
        <ele>1053.3</ele>
        <time>2020-09-05T08:29:17.000Z</time>
      </trkpt>
      <trkpt lat="44.45054" lon="6.12978">
        <ele>1055.9</ele>
        <time>2020-09-05T08:29:19.000Z</time>
      </trkpt>
      <trkpt lat="44.4506" lon="6.12976">
        <ele>1059.5</ele>
        <time>2020-09-05T08:29:22.000Z</time>
      </trkpt>
      <trkpt lat="44.45072" lon="6.12961">
        <ele>1065.6</ele>
        <time>2020-09-05T08:29:25.000Z</time>
      </trkpt>
      <trkpt lat="44.45074" lon="6.12952">
        <ele>1067.4</ele>
        <time>2020-09-05T08:29:26.000Z</time>
      </trkpt>
      <trkpt lat="44.45077" lon="6.12946">
        <ele>1072</ele>
        <time>2020-09-05T08:29:27.000Z</time>
      </trkpt>
      <trkpt lat="44.4508" lon="6.12934">
        <ele>1077.6</ele>
        <time>2020-09-05T08:29:30.000Z</time>
      </trkpt>
      <trkpt lat="44.45082" lon="6.12926">
        <ele>1080.5</ele>
        <time>2020-09-05T08:29:32.000Z</time>
      </trkpt>
      <trkpt lat="44.45085" lon="6.12912">
        <ele>1081.4</ele>
        <time>2020-09-05T08:29:34.000Z</time>
      </trkpt>
      <trkpt lat="44.45084" lon="6.12906">
        <ele>1081.5</ele>
        <time>2020-09-05T08:29:36.000Z</time>
      </trkpt>
      <trkpt lat="44.45077" lon="6.12905">
        <ele>1080.4</ele>
        <time>2020-09-05T08:29:38.000Z</time>
      </trkpt>
      <trkpt lat="44.4507" lon="6.12906">
        <ele>1081.7</ele>
        <time>2020-09-05T08:29:40.000Z</time>
      </trkpt>
      <trkpt lat="44.45066" lon="6.12916">
        <ele>1082</ele>
        <time>2020-09-05T08:29:41.000Z</time>
      </trkpt>
      <trkpt lat="44.45058" lon="6.12944">
        <ele>1081.3</ele>
        <time>2020-09-05T08:29:43.000Z</time>
      </trkpt>
      <trkpt lat="44.45051" lon="6.12956">
        <ele>1081.8</ele>
        <time>2020-09-05T08:29:44.000Z</time>
      </trkpt>
      <trkpt lat="44.45042" lon="6.12965">
        <ele>1082.5</ele>
        <time>2020-09-05T08:29:45.000Z</time>
      </trkpt>
      <trkpt lat="44.45033" lon="6.12971">
        <ele>1083.4</ele>
        <time>2020-09-05T08:29:46.000Z</time>
      </trkpt>
      <trkpt lat="44.45022" lon="6.12974">
        <ele>1083.3</ele>
        <time>2020-09-05T08:29:47.000Z</time>
      </trkpt>
      <trkpt lat="44.45003" lon="6.12979">
        <ele>1085.5</ele>
        <time>2020-09-05T08:29:49.000Z</time>
      </trkpt>
      <trkpt lat="44.44986" lon="6.12984">
        <ele>1086.6</ele>
        <time>2020-09-05T08:29:51.000Z</time>
      </trkpt>
      <trkpt lat="44.44977" lon="6.12986">
        <ele>1087</ele>
        <time>2020-09-05T08:29:52.000Z</time>
      </trkpt>
      <trkpt lat="44.4496" lon="6.12991">
        <ele>1087.8</ele>
        <time>2020-09-05T08:29:54.000Z</time>
      </trkpt>
      <trkpt lat="44.4495" lon="6.12992">
        <ele>1088.4</ele>
        <time>2020-09-05T08:29:55.000Z</time>
      </trkpt>
      <trkpt lat="44.4494" lon="6.12995">
        <ele>1089.4</ele>
        <time>2020-09-05T08:29:56.000Z</time>
      </trkpt>
      <trkpt lat="44.44929" lon="6.12998">
        <ele>1091.2</ele>
        <time>2020-09-05T08:29:57.000Z</time>
      </trkpt>
      <trkpt lat="44.44918" lon="6.13002">
        <ele>1093.4</ele>
        <time>2020-09-05T08:29:58.000Z</time>
      </trkpt>
      <trkpt lat="44.44894" lon="6.13007">
        <ele>1095</ele>
        <time>2020-09-05T08:30:00.000Z</time>
      </trkpt>
      <trkpt lat="44.44869" lon="6.13011">
        <ele>1096.6</ele>
        <time>2020-09-05T08:30:02.000Z</time>
      </trkpt>
      <trkpt lat="44.44855" lon="6.13012">
        <ele>1096.6</ele>
        <time>2020-09-05T08:30:03.000Z</time>
      </trkpt>
      <trkpt lat="44.44841" lon="6.13012">
        <ele>1096.2</ele>
        <time>2020-09-05T08:30:04.000Z</time>
      </trkpt>
      <trkpt lat="44.44818" lon="6.1301">
        <ele>1096.3</ele>
        <time>2020-09-05T08:30:06.000Z</time>
      </trkpt>
      <trkpt lat="44.44806" lon="6.13012">
        <ele>1095.5</ele>
        <time>2020-09-05T08:30:07.000Z</time>
      </trkpt>
      <trkpt lat="44.44794" lon="6.13014">
        <ele>1096.5</ele>
        <time>2020-09-05T08:30:08.000Z</time>
      </trkpt>
      <trkpt lat="44.44775" lon="6.13019">
        <ele>1097.2</ele>
        <time>2020-09-05T08:30:10.000Z</time>
      </trkpt>
      <trkpt lat="44.44767" lon="6.13019">
        <ele>1098.8</ele>
        <time>2020-09-05T08:30:11.000Z</time>
      </trkpt>
      <trkpt lat="44.44755" lon="6.13016">
        <ele>1100.1</ele>
        <time>2020-09-05T08:30:13.000Z</time>
      </trkpt>
      <trkpt lat="44.44745" lon="6.13016">
        <ele>1104.3</ele>
        <time>2020-09-05T08:30:15.000Z</time>
      </trkpt>
      <trkpt lat="44.44741" lon="6.13015">
        <ele>1106.9</ele>
        <time>2020-09-05T08:30:17.000Z</time>
      </trkpt>
      <trkpt lat="44.44734" lon="6.13013">
        <ele>1111.5</ele>
        <time>2020-09-05T08:30:20.000Z</time>
      </trkpt>
      <trkpt lat="44.44729" lon="6.1301">
        <ele>1114.8</ele>
        <time>2020-09-05T08:30:27.000Z</time>
      </trkpt>
      <trkpt lat="44.44726" lon="6.13005">
        <ele>1113.8</ele>
        <time>2020-09-05T08:30:29.000Z</time>
      </trkpt>
      <trkpt lat="44.44719" lon="6.12999">
        <ele>1114.9</ele>
        <time>2020-09-05T08:30:38.000Z</time>
      </trkpt>
      <trkpt lat="44.44712" lon="6.12993">
        <ele>1115.9</ele>
        <time>2020-09-05T08:30:40.000Z</time>
      </trkpt>
      <trkpt lat="44.44705" lon="6.12988">
        <ele>1116.8</ele>
        <time>2020-09-05T08:30:42.000Z</time>
      </trkpt>
      <trkpt lat="44.44697" lon="6.1299">
        <ele>1117.9</ele>
        <time>2020-09-05T08:30:45.000Z</time>
      </trkpt>
      <trkpt lat="44.44693" lon="6.13005">
        <ele>1118.7</ele>
        <time>2020-09-05T08:30:48.000Z</time>
      </trkpt>
      <trkpt lat="44.44688" lon="6.13007">
        <ele>1119.4</ele>
        <time>2020-09-05T08:30:52.000Z</time>
      </trkpt>
      <trkpt lat="44.44685" lon="6.13014">
        <ele>1126.2</ele>
        <time>2020-09-05T08:30:56.000Z</time>
      </trkpt>
      <trkpt lat="44.44679" lon="6.13017">
        <ele>1127.5</ele>
        <time>2020-09-05T08:30:59.000Z</time>
      </trkpt>
      <trkpt lat="44.44672" lon="6.13024">
        <ele>1129.8</ele>
        <time>2020-09-05T08:31:02.000Z</time>
      </trkpt>
      <trkpt lat="44.44654" lon="6.13031">
        <ele>1130.3</ele>
        <time>2020-09-05T08:31:05.000Z</time>
      </trkpt>
      <trkpt lat="44.44643" lon="6.13029">
        <ele>1130.1</ele>
        <time>2020-09-05T08:31:06.000Z</time>
      </trkpt>
      <trkpt lat="44.44619" lon="6.13016">
        <ele>1129.8</ele>
        <time>2020-09-05T08:31:08.000Z</time>
      </trkpt>
      <trkpt lat="44.446" lon="6.13008">
        <ele>1134.7</ele>
        <time>2020-09-05T08:31:10.000Z</time>
      </trkpt>
      <trkpt lat="44.44594" lon="6.13008">
        <ele>1134.8</ele>
        <time>2020-09-05T08:31:11.000Z</time>
      </trkpt>
      <trkpt lat="44.44589" lon="6.13012">
        <ele>1137.5</ele>
        <time>2020-09-05T08:31:13.000Z</time>
      </trkpt>
      <trkpt lat="44.44584" lon="6.13015">
        <ele>1141.7</ele>
        <time>2020-09-05T08:31:18.000Z</time>
      </trkpt>
      <trkpt lat="44.44575" lon="6.13015">
        <ele>1143.8</ele>
        <time>2020-09-05T08:31:20.000Z</time>
      </trkpt>
      <trkpt lat="44.44566" lon="6.13017">
        <ele>1145.1</ele>
        <time>2020-09-05T08:31:21.000Z</time>
      </trkpt>
      <trkpt lat="44.44557" lon="6.13018">
        <ele>1145.5</ele>
        <time>2020-09-05T08:31:22.245Z</time>
      </trkpt>
      <trkpt lat="44.44543" lon="6.13018">
        <ele>1147.5</ele>
        <time>2020-09-05T08:31:24.000Z</time>
      </trkpt>
      <trkpt lat="44.44537" lon="6.13018">
        <ele>1148.3</ele>
        <time>2020-09-05T08:31:25.000Z</time>
      </trkpt>
      <trkpt lat="44.44528" lon="6.13018">
        <ele>1149.3</ele>
        <time>2020-09-05T08:31:27.000Z</time>
      </trkpt>
      <trkpt lat="44.44522" lon="6.13016">
        <ele>1149</ele>
        <time>2020-09-05T08:31:30.000Z</time>
      </trkpt>
      <trkpt lat="44.44515" lon="6.13017">
        <ele>1146.8</ele>
        <time>2020-09-05T08:31:32.000Z</time>
      </trkpt>
      <trkpt lat="44.44509" lon="6.13016">
        <ele>1146.4</ele>
        <time>2020-09-05T08:31:34.000Z</time>
      </trkpt>
      <trkpt lat="44.44496" lon="6.13007">
        <ele>1149</ele>
        <time>2020-09-05T08:31:37.000Z</time>
      </trkpt>
      <trkpt lat="44.44492" lon="6.13004">
        <ele>1148.9</ele>
        <time>2020-09-05T08:31:38.243Z</time>
      </trkpt>
      <trkpt lat="44.44485" lon="6.13004">
        <ele>1150.4</ele>
        <time>2020-09-05T08:31:40.000Z</time>
      </trkpt>
      <trkpt lat="44.4448" lon="6.13007">
        <ele>1150.8</ele>
        <time>2020-09-05T08:31:42.000Z</time>
      </trkpt>
      <trkpt lat="44.44476" lon="6.13014">
        <ele>1152.7</ele>
        <time>2020-09-05T08:31:45.000Z</time>
      </trkpt>
      <trkpt lat="44.4447" lon="6.13014">
        <ele>1155.8</ele>
        <time>2020-09-05T08:31:47.000Z</time>
      </trkpt>
      <trkpt lat="44.44465" lon="6.13011">
        <ele>1156.7</ele>
        <time>2020-09-05T08:31:48.000Z</time>
      </trkpt>
      <trkpt lat="44.44458" lon="6.13005">
        <ele>1162.3</ele>
        <time>2020-09-05T08:31:51.000Z</time>
      </trkpt>
      <trkpt lat="44.4446" lon="6.12999">
        <ele>1166.3</ele>
        <time>2020-09-05T08:31:56.000Z</time>
      </trkpt>
      <trkpt lat="44.44465" lon="6.13001">
        <ele>1169.4</ele>
        <time>2020-09-05T08:32:00.000Z</time>
      </trkpt>
      <trkpt lat="44.44462" lon="6.13007">
        <ele>1171.1</ele>
        <time>2020-09-05T08:32:03.000Z</time>
      </trkpt>
      <trkpt lat="44.44457" lon="6.13007">
        <ele>1173</ele>
        <time>2020-09-05T08:32:04.000Z</time>
      </trkpt>
      <trkpt lat="44.44447" lon="6.13005">
        <ele>1174.9</ele>
        <time>2020-09-05T08:32:06.000Z</time>
      </trkpt>
      <trkpt lat="44.44432" lon="6.13004">
        <ele>1176.6</ele>
        <time>2020-09-05T08:32:08.000Z</time>
      </trkpt>
      <trkpt lat="44.44415" lon="6.13005">
        <ele>1179.1</ele>
        <time>2020-09-05T08:32:10.000Z</time>
      </trkpt>
      <trkpt lat="44.44406" lon="6.13006">
        <ele>1180.3</ele>
        <time>2020-09-05T08:32:11.000Z</time>
      </trkpt>
      <trkpt lat="44.4439" lon="6.1301">
        <ele>1179.7</ele>
        <time>2020-09-05T08:32:13.000Z</time>
      </trkpt>
      <trkpt lat="44.44384" lon="6.13009">
        <ele>1182.4</ele>
        <time>2020-09-05T08:32:14.234Z</time>
      </trkpt>
      <trkpt lat="44.44379" lon="6.13004">
        <ele>1183.8</ele>
        <time>2020-09-05T08:32:16.000Z</time>
      </trkpt>
      <trkpt lat="44.44375" lon="6.13001">
        <ele>1184.2</ele>
        <time>2020-09-05T08:32:17.000Z</time>
      </trkpt>
      <trkpt lat="44.44369" lon="6.12997">
        <ele>1184.9</ele>
        <time>2020-09-05T08:32:18.000Z</time>
      </trkpt>
      <trkpt lat="44.44353" lon="6.12987">
        <ele>1189</ele>
        <time>2020-09-05T08:32:20.000Z</time>
      </trkpt>
      <trkpt lat="44.44346" lon="6.12982">
        <ele>1189.5</ele>
        <time>2020-09-05T08:32:21.000Z</time>
      </trkpt>
      <trkpt lat="44.4434" lon="6.12981">
        <ele>1189.7</ele>
        <time>2020-09-05T08:32:22.000Z</time>
      </trkpt>
      <trkpt lat="44.44335" lon="6.12982">
        <ele>1191.4</ele>
        <time>2020-09-05T08:32:23.000Z</time>
      </trkpt>
      <trkpt lat="44.44328" lon="6.12982">
        <ele>1192.3</ele>
        <time>2020-09-05T08:32:25.000Z</time>
      </trkpt>
      <trkpt lat="44.44323" lon="6.12984">
        <ele>1194</ele>
        <time>2020-09-05T08:32:26.938Z</time>
      </trkpt>
      <trkpt lat="44.44324" lon="6.12993">
        <ele>1196.6</ele>
        <time>2020-09-05T08:32:29.915Z</time>
      </trkpt>
      <trkpt lat="44.44327" lon="6.13007">
        <ele>1199.2</ele>
        <time>2020-09-05T08:32:33.001Z</time>
      </trkpt>
      <trkpt lat="44.44338" lon="6.13019">
        <ele>1200.2</ele>
        <time>2020-09-05T08:32:34.000Z</time>
      </trkpt>
      <trkpt lat="44.44344" lon="6.13028">
        <ele>1200.7</ele>
        <time>2020-09-05T08:32:35.000Z</time>
      </trkpt>
      <trkpt lat="44.44357" lon="6.13044">
        <ele>1204</ele>
        <time>2020-09-05T08:32:37.000Z</time>
      </trkpt>
      <trkpt lat="44.44369" lon="6.13059">
        <ele>1205.8</ele>
        <time>2020-09-05T08:32:39.000Z</time>
      </trkpt>
      <trkpt lat="44.44373" lon="6.13066">
        <ele>1206.7</ele>
        <time>2020-09-05T08:32:40.000Z</time>
      </trkpt>
      <trkpt lat="44.44377" lon="6.13075">
        <ele>1211.6</ele>
        <time>2020-09-05T08:32:42.000Z</time>
      </trkpt>
      <trkpt lat="44.44367" lon="6.13085">
        <ele>1212.9</ele>
        <time>2020-09-05T08:32:45.702Z</time>
      </trkpt>
      <trkpt lat="44.44357" lon="6.1309">
        <ele>1218.8</ele>
        <time>2020-09-05T08:32:47.000Z</time>
      </trkpt>
      <trkpt lat="44.4435" lon="6.1309">
        <ele>1221.9</ele>
        <time>2020-09-05T08:32:48.000Z</time>
      </trkpt>
      <trkpt lat="44.44337" lon="6.13084">
        <ele>1221</ele>
        <time>2020-09-05T08:32:50.000Z</time>
      </trkpt>
      <trkpt lat="44.44331" lon="6.13082">
        <ele>1223.5</ele>
        <time>2020-09-05T08:32:51.000Z</time>
      </trkpt>
      <trkpt lat="44.44325" lon="6.13082">
        <ele>1224.9</ele>
        <time>2020-09-05T08:32:52.000Z</time>
      </trkpt>
      <trkpt lat="44.44319" lon="6.13084">
        <ele>1224.9</ele>
        <time>2020-09-05T08:32:53.000Z</time>
      </trkpt>
      <trkpt lat="44.44305" lon="6.13088">
        <ele>1226.2</ele>
        <time>2020-09-05T08:32:55.000Z</time>
      </trkpt>
      <trkpt lat="44.44298" lon="6.13087">
        <ele>1225.3</ele>
        <time>2020-09-05T08:32:56.000Z</time>
      </trkpt>
      <trkpt lat="44.44292" lon="6.13085">
        <ele>1224.9</ele>
        <time>2020-09-05T08:32:57.000Z</time>
      </trkpt>
      <trkpt lat="44.4428" lon="6.1308">
        <ele>1225.6</ele>
        <time>2020-09-05T08:32:59.000Z</time>
      </trkpt>
      <trkpt lat="44.44268" lon="6.13081">
        <ele>1227.3</ele>
        <time>2020-09-05T08:33:01.000Z</time>
      </trkpt>
      <trkpt lat="44.44255" lon="6.13078">
        <ele>1228.6</ele>
        <time>2020-09-05T08:33:03.000Z</time>
      </trkpt>
      <trkpt lat="44.4425" lon="6.13074">
        <ele>1229.6</ele>
        <time>2020-09-05T08:33:04.000Z</time>
      </trkpt>
      <trkpt lat="44.4424" lon="6.13068">
        <ele>1232.8</ele>
        <time>2020-09-05T08:33:06.000Z</time>
      </trkpt>
      <trkpt lat="44.44236" lon="6.13077">
        <ele>1235.4</ele>
        <time>2020-09-05T08:33:09.000Z</time>
      </trkpt>
      <trkpt lat="44.44228" lon="6.13076">
        <ele>1237.2</ele>
        <time>2020-09-05T08:33:12.000Z</time>
      </trkpt>
      <trkpt lat="44.44225" lon="6.13086">
        <ele>1240.2</ele>
        <time>2020-09-05T08:33:14.834Z</time>
      </trkpt>
      <trkpt lat="44.44221" lon="6.1309">
        <ele>1240.8</ele>
        <time>2020-09-05T08:33:16.154Z</time>
      </trkpt>
      <trkpt lat="44.44214" lon="6.13093">
        <ele>1241.1</ele>
        <time>2020-09-05T08:33:18.384Z</time>
      </trkpt>
      <trkpt lat="44.44208" lon="6.13091">
        <ele>1242.9</ele>
        <time>2020-09-05T08:33:20.909Z</time>
      </trkpt>
      <trkpt lat="44.44202" lon="6.13084">
        <ele>1244.4</ele>
        <time>2020-09-05T08:33:23.668Z</time>
      </trkpt>
      <trkpt lat="44.44206" lon="6.13092">
        <ele>1245.8</ele>
        <time>2020-09-05T08:33:27.714Z</time>
      </trkpt>
      <trkpt lat="44.44209" lon="6.13099">
        <ele>1246.4</ele>
        <time>2020-09-05T08:33:29.529Z</time>
      </trkpt>
      <trkpt lat="44.44207" lon="6.13109">
        <ele>1252.9</ele>
        <time>2020-09-05T08:33:32.873Z</time>
      </trkpt>
      <trkpt lat="44.44202" lon="6.13117">
        <ele>1256.4</ele>
        <time>2020-09-05T08:33:35.000Z</time>
      </trkpt>
      <trkpt lat="44.44196" lon="6.13123">
        <ele>1259.8</ele>
        <time>2020-09-05T08:33:37.787Z</time>
      </trkpt>
      <trkpt lat="44.44196" lon="6.1313">
        <ele>1264.8</ele>
        <time>2020-09-05T08:33:40.384Z</time>
      </trkpt>
      <trkpt lat="44.44188" lon="6.1313">
        <ele>1267.6</ele>
        <time>2020-09-05T08:33:44.000Z</time>
      </trkpt>
      <trkpt lat="44.44181" lon="6.13131">
        <ele>1268.5</ele>
        <time>2020-09-05T08:33:46.691Z</time>
      </trkpt>
      <trkpt lat="44.44183" lon="6.13137">
        <ele>1273.2</ele>
        <time>2020-09-05T08:33:49.507Z</time>
      </trkpt>
      <trkpt lat="44.44188" lon="6.13146">
        <ele>1275.8</ele>
        <time>2020-09-05T08:33:52.145Z</time>
      </trkpt>
      <trkpt lat="44.44191" lon="6.13152">
        <ele>1275.9</ele>
        <time>2020-09-05T08:33:53.201Z</time>
      </trkpt>
      <trkpt lat="44.44195" lon="6.13158">
        <ele>1277.7</ele>
        <time>2020-09-05T08:33:58.834Z</time>
      </trkpt>
      <trkpt lat="44.44189" lon="6.13164">
        <ele>1277.5</ele>
        <time>2020-09-05T08:34:01.000Z</time>
      </trkpt>
      <trkpt lat="44.44178" lon="6.13167">
        <ele>1278.2</ele>
        <time>2020-09-05T08:34:02.000Z</time>
      </trkpt>
      <trkpt lat="44.44162" lon="6.1317">
        <ele>1281.9</ele>
        <time>2020-09-05T08:34:04.000Z</time>
      </trkpt>
      <trkpt lat="44.44166" lon="6.13172">
        <ele>1288.3</ele>
        <time>2020-09-05T08:34:08.000Z</time>
      </trkpt>
      <trkpt lat="44.44172" lon="6.13176">
        <ele>1291.1</ele>
        <time>2020-09-05T08:34:09.000Z</time>
      </trkpt>
      <trkpt lat="44.44179" lon="6.1318">
        <ele>1292.3</ele>
        <time>2020-09-05T08:34:11.000Z</time>
      </trkpt>
      <trkpt lat="44.44176" lon="6.13176">
        <ele>1291.9</ele>
        <time>2020-09-05T08:34:12.000Z</time>
      </trkpt>
      <trkpt lat="44.44167" lon="6.13171">
        <ele>1292.7</ele>
        <time>2020-09-05T08:34:13.997Z</time>
      </trkpt>
      <trkpt lat="44.4417" lon="6.1318">
        <ele>1293.8</ele>
        <time>2020-09-05T08:34:17.000Z</time>
      </trkpt>
      <trkpt lat="44.44173" lon="6.13185">
        <ele>1294.5</ele>
        <time>2020-09-05T08:34:19.060Z</time>
      </trkpt>
      <trkpt lat="44.44172" lon="6.13193">
        <ele>1293.7</ele>
        <time>2020-09-05T08:34:25.000Z</time>
      </trkpt>
      <trkpt lat="44.44171" lon="6.132">
        <ele>1301.6</ele>
        <time>2020-09-05T08:34:32.447Z</time>
      </trkpt>
      <trkpt lat="44.44168" lon="6.13207">
        <ele>1301.7</ele>
        <time>2020-09-05T08:34:36.280Z</time>
      </trkpt>
      <trkpt lat="44.44162" lon="6.13214">
        <ele>1304.7</ele>
        <time>2020-09-05T08:34:39.000Z</time>
      </trkpt>
      <trkpt lat="44.4415" lon="6.13214">
        <ele>1305.4</ele>
        <time>2020-09-05T08:34:40.000Z</time>
      </trkpt>
      <trkpt lat="44.4414" lon="6.13215">
        <ele>1305.2</ele>
        <time>2020-09-05T08:34:41.000Z</time>
      </trkpt>
      <trkpt lat="44.44127" lon="6.1322">
        <ele>1311.3</ele>
        <time>2020-09-05T08:34:43.000Z</time>
      </trkpt>
      <trkpt lat="44.4412" lon="6.13227">
        <ele>1309.5</ele>
        <time>2020-09-05T08:34:46.000Z</time>
      </trkpt>
      <trkpt lat="44.4413" lon="6.1324">
        <ele>1315.7</ele>
        <time>2020-09-05T08:34:50.000Z</time>
      </trkpt>
      <trkpt lat="44.44137" lon="6.13247">
        <ele>1317.3</ele>
        <time>2020-09-05T08:34:52.000Z</time>
      </trkpt>
      <trkpt lat="44.44135" lon="6.13256">
        <ele>1318.7</ele>
        <time>2020-09-05T08:34:54.233Z</time>
      </trkpt>
      <trkpt lat="44.44132" lon="6.13261">
        <ele>1319.5</ele>
        <time>2020-09-05T08:34:55.482Z</time>
      </trkpt>
      <trkpt lat="44.44127" lon="6.13267">
        <ele>1320.7</ele>
        <time>2020-09-05T08:34:56.979Z</time>
      </trkpt>
      <trkpt lat="44.44122" lon="6.13266">
        <ele>1320.9</ele>
        <time>2020-09-05T08:34:58.416Z</time>
      </trkpt>
      <trkpt lat="44.44116" lon="6.13264">
        <ele>1321.4</ele>
        <time>2020-09-05T08:34:59.956Z</time>
      </trkpt>
      <trkpt lat="44.44111" lon="6.13265">
        <ele>1321.7</ele>
        <time>2020-09-05T08:35:01.000Z</time>
      </trkpt>
      <trkpt lat="44.44106" lon="6.13266">
        <ele>1323.5</ele>
        <time>2020-09-05T08:35:02.000Z</time>
      </trkpt>
      <trkpt lat="44.441" lon="6.13268">
        <ele>1324.5</ele>
        <time>2020-09-05T08:35:03.000Z</time>
      </trkpt>
      <trkpt lat="44.44093" lon="6.13269">
        <ele>1326.8</ele>
        <time>2020-09-05T08:35:04.000Z</time>
      </trkpt>
      <trkpt lat="44.44079" lon="6.13269">
        <ele>1328.9</ele>
        <time>2020-09-05T08:35:06.000Z</time>
      </trkpt>
      <trkpt lat="44.44068" lon="6.13273">
        <ele>1331.1</ele>
        <time>2020-09-05T08:35:08.000Z</time>
      </trkpt>
      <trkpt lat="44.44072" lon="6.13278">
        <ele>1333.9</ele>
        <time>2020-09-05T08:35:13.000Z</time>
      </trkpt>
      <trkpt lat="44.44067" lon="6.13282">
        <ele>1341.6</ele>
        <time>2020-09-05T08:35:19.000Z</time>
      </trkpt>
      <trkpt lat="44.44062" lon="6.13279">
        <ele>1346.6</ele>
        <time>2020-09-05T08:35:21.000Z</time>
      </trkpt>
      <trkpt lat="44.44056" lon="6.1328">
        <ele>1347.4</ele>
        <time>2020-09-05T08:35:22.000Z</time>
      </trkpt>
      <trkpt lat="44.44041" lon="6.13284">
        <ele>1347.3</ele>
        <time>2020-09-05T08:35:24.000Z</time>
      </trkpt>
      <trkpt lat="44.44032" lon="6.13287">
        <ele>1349.5</ele>
        <time>2020-09-05T08:35:25.000Z</time>
      </trkpt>
      <trkpt lat="44.44017" lon="6.13294">
        <ele>1351.2</ele>
        <time>2020-09-05T08:35:27.000Z</time>
      </trkpt>
      <trkpt lat="44.44011" lon="6.13297">
        <ele>1351.9</ele>
        <time>2020-09-05T08:35:29.174Z</time>
      </trkpt>
      <trkpt lat="44.44018" lon="6.13298">
        <ele>1358.2</ele>
        <time>2020-09-05T08:35:32.639Z</time>
      </trkpt>
      <trkpt lat="44.4403" lon="6.13307">
        <ele>1361.8</ele>
        <time>2020-09-05T08:35:34.000Z</time>
      </trkpt>
      <trkpt lat="44.44038" lon="6.13312">
        <ele>1362.4</ele>
        <time>2020-09-05T08:35:35.000Z</time>
      </trkpt>
      <trkpt lat="44.44045" lon="6.13316">
        <ele>1362.9</ele>
        <time>2020-09-05T08:35:36.000Z</time>
      </trkpt>
      <trkpt lat="44.44051" lon="6.13319">
        <ele>1363.8</ele>
        <time>2020-09-05T08:35:37.000Z</time>
      </trkpt>
      <trkpt lat="44.44055" lon="6.13323">
        <ele>1364.1</ele>
        <time>2020-09-05T08:35:38.811Z</time>
      </trkpt>
      <trkpt lat="44.44063" lon="6.13326">
        <ele>1365.1</ele>
        <time>2020-09-05T08:35:40.000Z</time>
      </trkpt>
      <trkpt lat="44.44058" lon="6.13327">
        <ele>1368.3</ele>
        <time>2020-09-05T08:35:43.000Z</time>
      </trkpt>
      <trkpt lat="44.4405" lon="6.13326">
        <ele>1368.2</ele>
        <time>2020-09-05T08:35:44.000Z</time>
      </trkpt>
      <trkpt lat="44.44043" lon="6.13327">
        <ele>1369.3</ele>
        <time>2020-09-05T08:35:45.000Z</time>
      </trkpt>
      <trkpt lat="44.44035" lon="6.13328">
        <ele>1370.4</ele>
        <time>2020-09-05T08:35:46.000Z</time>
      </trkpt>
      <trkpt lat="44.44025" lon="6.13328">
        <ele>1373.1</ele>
        <time>2020-09-05T08:35:47.000Z</time>
      </trkpt>
      <trkpt lat="44.44015" lon="6.13328">
        <ele>1374.2</ele>
        <time>2020-09-05T08:35:48.000Z</time>
      </trkpt>
      <trkpt lat="44.43999" lon="6.13326">
        <ele>1378</ele>
        <time>2020-09-05T08:35:50.000Z</time>
      </trkpt>
      <trkpt lat="44.4399" lon="6.13328">
        <ele>1377.4</ele>
        <time>2020-09-05T08:35:52.000Z</time>
      </trkpt>
      <trkpt lat="44.43985" lon="6.1333">
        <ele>1379.3</ele>
        <time>2020-09-05T08:35:53.000Z</time>
      </trkpt>
      <trkpt lat="44.4398" lon="6.1333">
        <ele>1381.4</ele>
        <time>2020-09-05T08:35:54.000Z</time>
      </trkpt>
      <trkpt lat="44.43971" lon="6.1333">
        <ele>1384.6</ele>
        <time>2020-09-05T08:35:56.000Z</time>
      </trkpt>
      <trkpt lat="44.43962" lon="6.13329">
        <ele>1384.9</ele>
        <time>2020-09-05T08:35:57.000Z</time>
      </trkpt>
      <trkpt lat="44.43955" lon="6.13327">
        <ele>1385.5</ele>
        <time>2020-09-05T08:35:58.000Z</time>
      </trkpt>
      <trkpt lat="44.43945" lon="6.13317">
        <ele>1387.6</ele>
        <time>2020-09-05T08:36:00.000Z</time>
      </trkpt>
      <trkpt lat="44.4394" lon="6.13314">
        <ele>1388.3</ele>
        <time>2020-09-05T08:36:01.000Z</time>
      </trkpt>
      <trkpt lat="44.43927" lon="6.1331">
        <ele>1392.6</ele>
        <time>2020-09-05T08:36:03.000Z</time>
      </trkpt>
      <trkpt lat="44.43919" lon="6.13307">
        <ele>1395.2</ele>
        <time>2020-09-05T08:36:04.000Z</time>
      </trkpt>
      <trkpt lat="44.43904" lon="6.13308">
        <ele>1396.3</ele>
        <time>2020-09-05T08:36:06.000Z</time>
      </trkpt>
      <trkpt lat="44.4389" lon="6.13302">
        <ele>1400.1</ele>
        <time>2020-09-05T08:36:08.000Z</time>
      </trkpt>
      <trkpt lat="44.43885" lon="6.13298">
        <ele>1399.5</ele>
        <time>2020-09-05T08:36:09.000Z</time>
      </trkpt>
      <trkpt lat="44.43877" lon="6.13289">
        <ele>1398.6</ele>
        <time>2020-09-05T08:36:11.000Z</time>
      </trkpt>
      <trkpt lat="44.43874" lon="6.13282">
        <ele>1398.7</ele>
        <time>2020-09-05T08:36:12.000Z</time>
      </trkpt>
      <trkpt lat="44.43868" lon="6.1327">
        <ele>1397.4</ele>
        <time>2020-09-05T08:36:14.000Z</time>
      </trkpt>
      <trkpt lat="44.43865" lon="6.13265">
        <ele>1397.7</ele>
        <time>2020-09-05T08:36:15.000Z</time>
      </trkpt>
      <trkpt lat="44.43861" lon="6.13268">
        <ele>1398.9</ele>
        <time>2020-09-05T08:36:17.000Z</time>
      </trkpt>
      <trkpt lat="44.43862" lon="6.13275">
        <ele>1401</ele>
        <time>2020-09-05T08:36:19.000Z</time>
      </trkpt>
      <trkpt lat="44.43857" lon="6.1328">
        <ele>1402.9</ele>
        <time>2020-09-05T08:36:22.000Z</time>
      </trkpt>
      <trkpt lat="44.43849" lon="6.13285">
        <ele>1403.9</ele>
        <time>2020-09-05T08:36:26.000Z</time>
      </trkpt>
      <trkpt lat="44.4384" lon="6.13282">
        <ele>1403.3</ele>
        <time>2020-09-05T08:36:28.184Z</time>
      </trkpt>
      <trkpt lat="44.43826" lon="6.13276">
        <ele>1406.2</ele>
        <time>2020-09-05T08:36:30.000Z</time>
      </trkpt>
      <trkpt lat="44.43811" lon="6.13277">
        <ele>1404.4</ele>
        <time>2020-09-05T08:36:32.000Z</time>
      </trkpt>
      <trkpt lat="44.43795" lon="6.13282">
        <ele>1405.2</ele>
        <time>2020-09-05T08:36:34.000Z</time>
      </trkpt>
      <trkpt lat="44.43789" lon="6.13289">
        <ele>1405</ele>
        <time>2020-09-05T08:36:35.000Z</time>
      </trkpt>
      <trkpt lat="44.43783" lon="6.13297">
        <ele>1407</ele>
        <time>2020-09-05T08:36:36.000Z</time>
      </trkpt>
      <trkpt lat="44.43779" lon="6.13303">
        <ele>1407.4</ele>
        <time>2020-09-05T08:36:37.000Z</time>
      </trkpt>
      <trkpt lat="44.43779" lon="6.1331">
        <ele>1408.5</ele>
        <time>2020-09-05T08:36:39.000Z</time>
      </trkpt>
      <trkpt lat="44.43775" lon="6.13305">
        <ele>1427.4</ele>
        <time>2020-09-05T08:44:28.184Z</time>
      </trkpt>
      <trkpt lat="44.4378" lon="6.13297">
        <ele>1423.9</ele>
        <time>2020-09-05T08:44:31.000Z</time>
      </trkpt>
      <trkpt lat="44.43785" lon="6.13245">
        <ele>1422</ele>
        <time>2020-09-05T08:44:33.000Z</time>
      </trkpt>
      <trkpt lat="44.43784" lon="6.13215">
        <ele>1420</ele>
        <time>2020-09-05T08:44:34.000Z</time>
      </trkpt>
      <trkpt lat="44.43783" lon="6.13183">
        <ele>1419.1</ele>
        <time>2020-09-05T08:44:35.000Z</time>
      </trkpt>
      <trkpt lat="44.43778" lon="6.13128">
        <ele>1417.7</ele>
        <time>2020-09-05T08:44:37.000Z</time>
      </trkpt>
      <trkpt lat="44.43776" lon="6.13102">
        <ele>1418.8</ele>
        <time>2020-09-05T08:44:38.000Z</time>
      </trkpt>
      <trkpt lat="44.43774" lon="6.13078">
        <ele>1419.2</ele>
        <time>2020-09-05T08:44:39.000Z</time>
      </trkpt>
      <trkpt lat="44.43768" lon="6.13049">
        <ele>1417.2</ele>
        <time>2020-09-05T08:44:41.000Z</time>
      </trkpt>
      <trkpt lat="44.43765" lon="6.13037">
        <ele>1417.4</ele>
        <time>2020-09-05T08:44:42.000Z</time>
      </trkpt>
      <trkpt lat="44.43757" lon="6.13017">
        <ele>1416.5</ele>
        <time>2020-09-05T08:44:44.000Z</time>
      </trkpt>
      <trkpt lat="44.43752" lon="6.1301">
        <ele>1416.6</ele>
        <time>2020-09-05T08:44:45.000Z</time>
      </trkpt>
      <trkpt lat="44.43742" lon="6.12998">
        <ele>1418.7</ele>
        <time>2020-09-05T08:44:47.000Z</time>
      </trkpt>
      <trkpt lat="44.43737" lon="6.12994">
        <ele>1417.4</ele>
        <time>2020-09-05T08:44:48.000Z</time>
      </trkpt>
      <trkpt lat="44.43732" lon="6.1299">
        <ele>1418.5</ele>
        <time>2020-09-05T08:44:49.000Z</time>
      </trkpt>
      <trkpt lat="44.43727" lon="6.12986">
        <ele>1419.6</ele>
        <time>2020-09-05T08:44:50.000Z</time>
      </trkpt>
      <trkpt lat="44.43716" lon="6.12982">
        <ele>1421.7</ele>
        <time>2020-09-05T08:44:52.000Z</time>
      </trkpt>
      <trkpt lat="44.43704" lon="6.12974">
        <ele>1423</ele>
        <time>2020-09-05T08:44:54.000Z</time>
      </trkpt>
      <trkpt lat="44.43698" lon="6.12959">
        <ele>1422.6</ele>
        <time>2020-09-05T08:44:56.000Z</time>
      </trkpt>
      <trkpt lat="44.43697" lon="6.1295">
        <ele>1425</ele>
        <time>2020-09-05T08:44:57.000Z</time>
      </trkpt>
      <trkpt lat="44.43697" lon="6.1294">
        <ele>1424.2</ele>
        <time>2020-09-05T08:44:58.000Z</time>
      </trkpt>
      <trkpt lat="44.43695" lon="6.12929">
        <ele>1425.4</ele>
        <time>2020-09-05T08:44:59.000Z</time>
      </trkpt>
      <trkpt lat="44.43692" lon="6.12919">
        <ele>1426.5</ele>
        <time>2020-09-05T08:45:00.000Z</time>
      </trkpt>
      <trkpt lat="44.43681" lon="6.129">
        <ele>1426.3</ele>
        <time>2020-09-05T08:45:02.000Z</time>
      </trkpt>
      <trkpt lat="44.43669" lon="6.12879">
        <ele>1427.5</ele>
        <time>2020-09-05T08:45:04.000Z</time>
      </trkpt>
      <trkpt lat="44.43659" lon="6.12859">
        <ele>1429.3</ele>
        <time>2020-09-05T08:45:06.000Z</time>
      </trkpt>
      <trkpt lat="44.43645" lon="6.12845">
        <ele>1432.7</ele>
        <time>2020-09-05T08:45:08.000Z</time>
      </trkpt>
      <trkpt lat="44.43629" lon="6.12834">
        <ele>1434.6</ele>
        <time>2020-09-05T08:45:10.000Z</time>
      </trkpt>
      <trkpt lat="44.43619" lon="6.1283">
        <ele>1435.1</ele>
        <time>2020-09-05T08:45:11.000Z</time>
      </trkpt>
      <trkpt lat="44.4361" lon="6.12826">
        <ele>1437.1</ele>
        <time>2020-09-05T08:45:12.000Z</time>
      </trkpt>
      <trkpt lat="44.43594" lon="6.12811">
        <ele>1437.4</ele>
        <time>2020-09-05T08:45:14.000Z</time>
      </trkpt>
      <trkpt lat="44.43584" lon="6.12789">
        <ele>1439.7</ele>
        <time>2020-09-05T08:45:16.000Z</time>
      </trkpt>
      <trkpt lat="44.43579" lon="6.12776">
        <ele>1441.6</ele>
        <time>2020-09-05T08:45:17.000Z</time>
      </trkpt>
      <trkpt lat="44.43575" lon="6.12764">
        <ele>1441.6</ele>
        <time>2020-09-05T08:45:18.000Z</time>
      </trkpt>
      <trkpt lat="44.43567" lon="6.12742">
        <ele>1445.7</ele>
        <time>2020-09-05T08:45:20.000Z</time>
      </trkpt>
      <trkpt lat="44.43562" lon="6.12725">
        <ele>1446.7</ele>
        <time>2020-09-05T08:45:22.000Z</time>
      </trkpt>
      <trkpt lat="44.43564" lon="6.12711">
        <ele>1447.6</ele>
        <time>2020-09-05T08:45:24.000Z</time>
      </trkpt>
      <trkpt lat="44.43565" lon="6.12697">
        <ele>1448.2</ele>
        <time>2020-09-05T08:45:27.000Z</time>
      </trkpt>
      <trkpt lat="44.43565" lon="6.12676">
        <ele>1448.1</ele>
        <time>2020-09-05T08:45:29.000Z</time>
      </trkpt>
      <trkpt lat="44.43564" lon="6.12643">
        <ele>1446.1</ele>
        <time>2020-09-05T08:45:31.000Z</time>
      </trkpt>
      <trkpt lat="44.43561" lon="6.1261">
        <ele>1444.6</ele>
        <time>2020-09-05T08:45:33.000Z</time>
      </trkpt>
      <trkpt lat="44.43559" lon="6.12581">
        <ele>1442.4</ele>
        <time>2020-09-05T08:45:35.000Z</time>
      </trkpt>
      <trkpt lat="44.43558" lon="6.12569">
        <ele>1442.3</ele>
        <time>2020-09-05T08:45:36.000Z</time>
      </trkpt>
      <trkpt lat="44.43557" lon="6.12543">
        <ele>1442.3</ele>
        <time>2020-09-05T08:45:38.000Z</time>
      </trkpt>
      <trkpt lat="44.43556" lon="6.1253">
        <ele>1442.4</ele>
        <time>2020-09-05T08:45:39.000Z</time>
      </trkpt>
      <trkpt lat="44.43556" lon="6.12517">
        <ele>1440.3</ele>
        <time>2020-09-05T08:45:40.000Z</time>
      </trkpt>
      <trkpt lat="44.43555" lon="6.12504">
        <ele>1441.3</ele>
        <time>2020-09-05T08:45:41.000Z</time>
      </trkpt>
      <trkpt lat="44.43553" lon="6.12482">
        <ele>1441.1</ele>
        <time>2020-09-05T08:45:43.000Z</time>
      </trkpt>
      <trkpt lat="44.43551" lon="6.12472">
        <ele>1441.3</ele>
        <time>2020-09-05T08:45:44.000Z</time>
      </trkpt>
      <trkpt lat="44.43544" lon="6.12454">
        <ele>1442.8</ele>
        <time>2020-09-05T08:45:46.000Z</time>
      </trkpt>
      <trkpt lat="44.4354" lon="6.1244">
        <ele>1445.4</ele>
        <time>2020-09-05T08:45:48.000Z</time>
      </trkpt>
      <trkpt lat="44.43545" lon="6.12431">
        <ele>1442.6</ele>
        <time>2020-09-05T08:45:50.000Z</time>
      </trkpt>
      <trkpt lat="44.43547" lon="6.12424">
        <ele>1442.1</ele>
        <time>2020-09-05T08:45:51.000Z</time>
      </trkpt>
      <trkpt lat="44.43548" lon="6.12413">
        <ele>1441</ele>
        <time>2020-09-05T08:45:53.000Z</time>
      </trkpt>
      <trkpt lat="44.43546" lon="6.12393">
        <ele>1438.1</ele>
        <time>2020-09-05T08:45:55.000Z</time>
      </trkpt>
      <trkpt lat="44.43546" lon="6.12383">
        <ele>1438.1</ele>
        <time>2020-09-05T08:45:56.000Z</time>
      </trkpt>
      <trkpt lat="44.43548" lon="6.12372">
        <ele>1436.3</ele>
        <time>2020-09-05T08:45:57.000Z</time>
      </trkpt>
      <trkpt lat="44.4355" lon="6.1236">
        <ele>1436.7</ele>
        <time>2020-09-05T08:45:58.000Z</time>
      </trkpt>
      <trkpt lat="44.43554" lon="6.12339">
        <ele>1439.2</ele>
        <time>2020-09-05T08:46:00.000Z</time>
      </trkpt>
      <trkpt lat="44.43556" lon="6.12328">
        <ele>1439</ele>
        <time>2020-09-05T08:46:01.000Z</time>
      </trkpt>
      <trkpt lat="44.43561" lon="6.12306">
        <ele>1438.2</ele>
        <time>2020-09-05T08:46:03.000Z</time>
      </trkpt>
      <trkpt lat="44.43564" lon="6.12294">
        <ele>1437.2</ele>
        <time>2020-09-05T08:46:04.000Z</time>
      </trkpt>
      <trkpt lat="44.43566" lon="6.12282">
        <ele>1436.5</ele>
        <time>2020-09-05T08:46:05.000Z</time>
      </trkpt>
      <trkpt lat="44.43569" lon="6.12268">
        <ele>1435.7</ele>
        <time>2020-09-05T08:46:06.000Z</time>
      </trkpt>
      <trkpt lat="44.43573" lon="6.12232">
        <ele>1433.7</ele>
        <time>2020-09-05T08:46:08.000Z</time>
      </trkpt>
      <trkpt lat="44.43568" lon="6.12234">
        <ele>1433.1</ele>
        <time>2020-09-05T08:46:11.000Z</time>
      </trkpt>
      <trkpt lat="44.43564" lon="6.12237">
        <ele>1434.1</ele>
        <time>2020-09-05T08:46:13.000Z</time>
      </trkpt>
      <trkpt lat="44.43562" lon="6.12244">
        <ele>1432.2</ele>
        <time>2020-09-05T08:46:25.000Z</time>
      </trkpt>
      <trkpt lat="44.4357" lon="6.12242">
        <ele>1432.9</ele>
        <time>2020-09-05T08:46:32.037Z</time>
      </trkpt>
      <trkpt lat="44.43575" lon="6.12237">
        <ele>1430.2</ele>
        <time>2020-09-05T08:46:34.000Z</time>
      </trkpt>
      <trkpt lat="44.43577" lon="6.12231">
        <ele>1431.1</ele>
        <time>2020-09-05T08:46:35.718Z</time>
      </trkpt>
      <trkpt lat="44.43581" lon="6.12223">
        <ele>1431.4</ele>
        <time>2020-09-05T08:46:37.000Z</time>
      </trkpt>
      <trkpt lat="44.43585" lon="6.12209">
        <ele>1431.6</ele>
        <time>2020-09-05T08:46:39.254Z</time>
      </trkpt>
      <trkpt lat="44.43586" lon="6.12198">
        <ele>1431.2</ele>
        <time>2020-09-05T08:46:41.000Z</time>
      </trkpt>
      <trkpt lat="44.43593" lon="6.12182">
        <ele>1434.1</ele>
        <time>2020-09-05T08:46:44.000Z</time>
      </trkpt>
      <trkpt lat="44.43597" lon="6.1217">
        <ele>1432</ele>
        <time>2020-09-05T08:46:47.000Z</time>
      </trkpt>
      <trkpt lat="44.43599" lon="6.12176">
        <ele>1431.8</ele>
        <time>2020-09-05T08:46:52.000Z</time>
      </trkpt>
      <trkpt lat="44.43604" lon="6.12175">
        <ele>1435.2</ele>
        <time>2020-09-05T08:46:58.000Z</time>
      </trkpt>
      <trkpt lat="44.43609" lon="6.12168">
        <ele>1430.8</ele>
        <time>2020-09-05T08:47:04.292Z</time>
      </trkpt>
      <trkpt lat="44.43615" lon="6.12159">
        <ele>1429.1</ele>
        <time>2020-09-05T08:47:07.000Z</time>
      </trkpt>
      <trkpt lat="44.43617" lon="6.12151">
        <ele>1429.9</ele>
        <time>2020-09-05T08:47:10.959Z</time>
      </trkpt>
      <trkpt lat="44.43622" lon="6.1215">
        <ele>1429.9</ele>
        <time>2020-09-05T08:47:15.565Z</time>
      </trkpt>
      <trkpt lat="44.43631" lon="6.12131">
        <ele>1426.5</ele>
        <time>2020-09-05T08:47:19.000Z</time>
      </trkpt>
      <trkpt lat="44.43635" lon="6.12122">
        <ele>1425.9</ele>
        <time>2020-09-05T08:47:20.000Z</time>
      </trkpt>
      <trkpt lat="44.43649" lon="6.12096">
        <ele>1426.6</ele>
        <time>2020-09-05T08:47:21.000Z</time>
      </trkpt>
      <trkpt lat="44.43657" lon="6.12082">
        <ele>1424.7</ele>
        <time>2020-09-05T08:47:29.000Z</time>
      </trkpt>
      <trkpt lat="44.43662" lon="6.12081">
        <ele>1423.2</ele>
        <time>2020-09-05T08:47:32.000Z</time>
      </trkpt>
      <trkpt lat="44.43667" lon="6.12078">
        <ele>1422.6</ele>
        <time>2020-09-05T08:47:35.000Z</time>
      </trkpt>
      <trkpt lat="44.43672" lon="6.12079">
        <ele>1417.3</ele>
        <time>2020-09-05T08:48:02.000Z</time>
      </trkpt>
      <trkpt lat="44.43672" lon="6.12071">
        <ele>1414.5</ele>
        <time>2020-09-05T08:48:08.022Z</time>
      </trkpt>
      <trkpt lat="44.43677" lon="6.12067">
        <ele>1414</ele>
        <time>2020-09-05T08:48:12.966Z</time>
      </trkpt>
      <trkpt lat="44.43691" lon="6.12061">
        <ele>1411.4</ele>
        <time>2020-09-05T08:48:14.000Z</time>
      </trkpt>
      <trkpt lat="44.43701" lon="6.12057">
        <ele>1410.4</ele>
        <time>2020-09-05T08:48:15.000Z</time>
      </trkpt>
      <trkpt lat="44.43721" lon="6.12051">
        <ele>1409.2</ele>
        <time>2020-09-05T08:48:17.000Z</time>
      </trkpt>
      <trkpt lat="44.43729" lon="6.12048">
        <ele>1407.9</ele>
        <time>2020-09-05T08:48:18.000Z</time>
      </trkpt>
      <trkpt lat="44.43736" lon="6.12046">
        <ele>1404.7</ele>
        <time>2020-09-05T08:48:19.000Z</time>
      </trkpt>
      <trkpt lat="44.43747" lon="6.1204">
        <ele>1398.1</ele>
        <time>2020-09-05T08:48:21.000Z</time>
      </trkpt>
      <trkpt lat="44.43756" lon="6.12035">
        <ele>1395</ele>
        <time>2020-09-05T08:48:23.000Z</time>
      </trkpt>
      <trkpt lat="44.43767" lon="6.12031">
        <ele>1393.9</ele>
        <time>2020-09-05T08:48:25.000Z</time>
      </trkpt>
      <trkpt lat="44.43782" lon="6.12024">
        <ele>1391.4</ele>
        <time>2020-09-05T08:48:27.000Z</time>
      </trkpt>
      <trkpt lat="44.43789" lon="6.1202">
        <ele>1391.1</ele>
        <time>2020-09-05T08:48:28.000Z</time>
      </trkpt>
      <trkpt lat="44.43793" lon="6.12016">
        <ele>1390.8</ele>
        <time>2020-09-05T08:48:29.000Z</time>
      </trkpt>
      <trkpt lat="44.43797" lon="6.12011">
        <ele>1391.2</ele>
        <time>2020-09-05T08:48:31.000Z</time>
      </trkpt>
      <trkpt lat="44.43793" lon="6.12">
        <ele>1386.2</ele>
        <time>2020-09-05T08:48:34.000Z</time>
      </trkpt>
      <trkpt lat="44.4379" lon="6.11989">
        <ele>1383.7</ele>
        <time>2020-09-05T08:48:36.000Z</time>
      </trkpt>
      <trkpt lat="44.43786" lon="6.11971">
        <ele>1381.2</ele>
        <time>2020-09-05T08:48:39.000Z</time>
      </trkpt>
      <trkpt lat="44.43784" lon="6.11961">
        <ele>1378.2</ele>
        <time>2020-09-05T08:48:41.000Z</time>
      </trkpt>
      <trkpt lat="44.43783" lon="6.11953">
        <ele>1377.4</ele>
        <time>2020-09-05T08:48:42.840Z</time>
      </trkpt>
      <trkpt lat="44.43783" lon="6.11939">
        <ele>1378.6</ele>
        <time>2020-09-05T08:48:45.935Z</time>
      </trkpt>
      <trkpt lat="44.43786" lon="6.1193">
        <ele>1375.1</ele>
        <time>2020-09-05T08:48:48.000Z</time>
      </trkpt>
      <trkpt lat="44.43791" lon="6.11918">
        <ele>1374.4</ele>
        <time>2020-09-05T08:48:50.000Z</time>
      </trkpt>
      <trkpt lat="44.43795" lon="6.11913">
        <ele>1373.6</ele>
        <time>2020-09-05T08:48:51.372Z</time>
      </trkpt>
      <trkpt lat="44.43799" lon="6.11909">
        <ele>1373.6</ele>
        <time>2020-09-05T08:48:52.738Z</time>
      </trkpt>
      <trkpt lat="44.43804" lon="6.11901">
        <ele>1373.5</ele>
        <time>2020-09-05T08:48:55.414Z</time>
      </trkpt>
      <trkpt lat="44.43809" lon="6.11899">
        <ele>1371.7</ele>
        <time>2020-09-05T08:48:58.000Z</time>
      </trkpt>
      <trkpt lat="44.43814" lon="6.11899">
        <ele>1371.2</ele>
        <time>2020-09-05T08:49:01.003Z</time>
      </trkpt>
      <trkpt lat="44.4382" lon="6.11894">
        <ele>1368.3</ele>
        <time>2020-09-05T08:49:04.000Z</time>
      </trkpt>
      <trkpt lat="44.43824" lon="6.11882">
        <ele>1366.1</ele>
        <time>2020-09-05T08:49:06.600Z</time>
      </trkpt>
      <trkpt lat="44.43822" lon="6.11875">
        <ele>1366.6</ele>
        <time>2020-09-05T08:49:07.999Z</time>
      </trkpt>
      <trkpt lat="44.4382" lon="6.11869">
        <ele>1363.7</ele>
        <time>2020-09-05T08:49:09.099Z</time>
      </trkpt>
      <trkpt lat="44.43815" lon="6.11855">
        <ele>1364.2</ele>
        <time>2020-09-05T08:49:10.000Z</time>
      </trkpt>
      <trkpt lat="44.43813" lon="6.11838">
        <ele>1362.8</ele>
        <time>2020-09-05T08:49:12.000Z</time>
      </trkpt>
      <trkpt lat="44.43815" lon="6.1183">
        <ele>1360.7</ele>
        <time>2020-09-05T08:49:15.000Z</time>
      </trkpt>
      <trkpt lat="44.43818" lon="6.11825">
        <ele>1362.9</ele>
        <time>2020-09-05T08:49:16.434Z</time>
      </trkpt>
      <trkpt lat="44.43821" lon="6.1182">
        <ele>1364.3</ele>
        <time>2020-09-05T08:49:17.555Z</time>
      </trkpt>
      <trkpt lat="44.4383" lon="6.11809">
        <ele>1364.4</ele>
        <time>2020-09-05T08:49:19.000Z</time>
      </trkpt>
      <trkpt lat="44.43837" lon="6.11803">
        <ele>1363.9</ele>
        <time>2020-09-05T08:49:21.000Z</time>
      </trkpt>
      <trkpt lat="44.43843" lon="6.11803">
        <ele>1363.2</ele>
        <time>2020-09-05T08:49:22.000Z</time>
      </trkpt>
      <trkpt lat="44.4385" lon="6.11804">
        <ele>1360.7</ele>
        <time>2020-09-05T08:49:23.398Z</time>
      </trkpt>
      <trkpt lat="44.43858" lon="6.11804">
        <ele>1359</ele>
        <time>2020-09-05T08:49:25.017Z</time>
      </trkpt>
      <trkpt lat="44.43862" lon="6.118">
        <ele>1358.5</ele>
        <time>2020-09-05T08:49:26.000Z</time>
      </trkpt>
      <trkpt lat="44.43866" lon="6.11792">
        <ele>1353.8</ele>
        <time>2020-09-05T08:49:28.095Z</time>
      </trkpt>
      <trkpt lat="44.4386" lon="6.11787">
        <ele>1351.4</ele>
        <time>2020-09-05T08:49:30.355Z</time>
      </trkpt>
      <trkpt lat="44.43855" lon="6.11783">
        <ele>1351.3</ele>
        <time>2020-09-05T08:49:32.075Z</time>
      </trkpt>
      <trkpt lat="44.43848" lon="6.11777">
        <ele>1352.9</ele>
        <time>2020-09-05T08:49:34.000Z</time>
      </trkpt>
      <trkpt lat="44.43841" lon="6.1177">
        <ele>1352.4</ele>
        <time>2020-09-05T08:49:37.000Z</time>
      </trkpt>
      <trkpt lat="44.4384" lon="6.11758">
        <ele>1352.5</ele>
        <time>2020-09-05T08:49:54.000Z</time>
      </trkpt>
      <trkpt lat="44.43841" lon="6.11744">
        <ele>1352</ele>
        <time>2020-09-05T08:49:55.820Z</time>
      </trkpt>
      <trkpt lat="44.43845" lon="6.11727">
        <ele>1352.3</ele>
        <time>2020-09-05T08:49:57.000Z</time>
      </trkpt>
      <trkpt lat="44.43849" lon="6.11715">
        <ele>1352.6</ele>
        <time>2020-09-05T08:49:58.000Z</time>
      </trkpt>
      <trkpt lat="44.43854" lon="6.11703">
        <ele>1352.9</ele>
        <time>2020-09-05T08:49:59.000Z</time>
      </trkpt>
      <trkpt lat="44.43858" lon="6.1168">
        <ele>1352.2</ele>
        <time>2020-09-05T08:50:01.000Z</time>
      </trkpt>
      <trkpt lat="44.43861" lon="6.11671">
        <ele>1353.9</ele>
        <time>2020-09-05T08:50:02.000Z</time>
      </trkpt>
      <trkpt lat="44.43871" lon="6.11667">
        <ele>1353.3</ele>
        <time>2020-09-05T08:50:04.000Z</time>
      </trkpt>
      <trkpt lat="44.43876" lon="6.11669">
        <ele>1353.1</ele>
        <time>2020-09-05T08:50:05.000Z</time>
      </trkpt>
      <trkpt lat="44.43904" lon="6.11676">
        <ele>1348.2</ele>
        <time>2020-09-05T08:50:09.000Z</time>
      </trkpt>
      <trkpt lat="44.4392" lon="6.11671">
        <ele>1347.3</ele>
        <time>2020-09-05T08:50:11.000Z</time>
      </trkpt>
      <trkpt lat="44.43926" lon="6.1167">
        <ele>1347.1</ele>
        <time>2020-09-05T08:50:12.000Z</time>
      </trkpt>
      <trkpt lat="44.43933" lon="6.11662">
        <ele>1346</ele>
        <time>2020-09-05T08:50:15.000Z</time>
      </trkpt>
      <trkpt lat="44.43937" lon="6.11644">
        <ele>1345.1</ele>
        <time>2020-09-05T08:50:18.000Z</time>
      </trkpt>
      <trkpt lat="44.43936" lon="6.11631">
        <ele>1342.6</ele>
        <time>2020-09-05T08:50:20.000Z</time>
      </trkpt>
      <trkpt lat="44.43935" lon="6.11624">
        <ele>1342.9</ele>
        <time>2020-09-05T08:50:21.000Z</time>
      </trkpt>
      <trkpt lat="44.43933" lon="6.11608">
        <ele>1340.6</ele>
        <time>2020-09-05T08:50:23.000Z</time>
      </trkpt>
      <trkpt lat="44.43934" lon="6.11586">
        <ele>1339.6</ele>
        <time>2020-09-05T08:50:25.000Z</time>
      </trkpt>
      <trkpt lat="44.43936" lon="6.11571">
        <ele>1339.2</ele>
        <time>2020-09-05T08:50:26.000Z</time>
      </trkpt>
      <trkpt lat="44.43941" lon="6.11536">
        <ele>1338.3</ele>
        <time>2020-09-05T08:50:28.000Z</time>
      </trkpt>
      <trkpt lat="44.43945" lon="6.11515">
        <ele>1339.6</ele>
        <time>2020-09-05T08:50:29.325Z</time>
      </trkpt>
      <trkpt lat="44.43951" lon="6.11491">
        <ele>1338.6</ele>
        <time>2020-09-05T08:50:31.000Z</time>
      </trkpt>
      <trkpt lat="44.43953" lon="6.11464">
        <ele>1337.8</ele>
        <time>2020-09-05T08:50:33.000Z</time>
      </trkpt>
      <trkpt lat="44.43953" lon="6.11451">
        <ele>1338.3</ele>
        <time>2020-09-05T08:50:34.000Z</time>
      </trkpt>
      <trkpt lat="44.43953" lon="6.11428">
        <ele>1334.6</ele>
        <time>2020-09-05T08:50:36.000Z</time>
      </trkpt>
      <trkpt lat="44.43952" lon="6.11416">
        <ele>1333.9</ele>
        <time>2020-09-05T08:50:37.000Z</time>
      </trkpt>
      <trkpt lat="44.4395" lon="6.11401">
        <ele>1331.2</ele>
        <time>2020-09-05T08:50:39.000Z</time>
      </trkpt>
      <trkpt lat="44.43951" lon="6.11395">
        <ele>1328.7</ele>
        <time>2020-09-05T08:50:40.000Z</time>
      </trkpt>
      <trkpt lat="44.43951" lon="6.1138">
        <ele>1327.8</ele>
        <time>2020-09-05T08:50:42.000Z</time>
      </trkpt>
      <trkpt lat="44.43949" lon="6.11374">
        <ele>1328.4</ele>
        <time>2020-09-05T08:50:43.000Z</time>
      </trkpt>
      <trkpt lat="44.43944" lon="6.11363">
        <ele>1328.7</ele>
        <time>2020-09-05T08:50:46.000Z</time>
      </trkpt>
      <trkpt lat="44.4395" lon="6.11363">
        <ele>1323.6</ele>
        <time>2020-09-05T08:50:49.000Z</time>
      </trkpt>
      <trkpt lat="44.43944" lon="6.11351">
        <ele>1317.6</ele>
        <time>2020-09-05T08:50:53.000Z</time>
      </trkpt>
      <trkpt lat="44.43942" lon="6.11343">
        <ele>1315.8</ele>
        <time>2020-09-05T08:50:55.000Z</time>
      </trkpt>
      <trkpt lat="44.43946" lon="6.11336">
        <ele>1311.4</ele>
        <time>2020-09-05T08:50:57.000Z</time>
      </trkpt>
      <trkpt lat="44.43952" lon="6.11329">
        <ele>1309.5</ele>
        <time>2020-09-05T08:50:59.000Z</time>
      </trkpt>
      <trkpt lat="44.43957" lon="6.1132">
        <ele>1308.2</ele>
        <time>2020-09-05T08:51:01.000Z</time>
      </trkpt>
      <trkpt lat="44.43958" lon="6.11311">
        <ele>1307.9</ele>
        <time>2020-09-05T08:51:02.905Z</time>
      </trkpt>
      <trkpt lat="44.43955" lon="6.11301">
        <ele>1301.3</ele>
        <time>2020-09-05T08:51:05.000Z</time>
      </trkpt>
      <trkpt lat="44.43952" lon="6.11288">
        <ele>1298.5</ele>
        <time>2020-09-05T08:51:07.699Z</time>
      </trkpt>
      <trkpt lat="44.43952" lon="6.11282">
        <ele>1296.8</ele>
        <time>2020-09-05T08:51:09.000Z</time>
      </trkpt>
      <trkpt lat="44.43961" lon="6.11276">
        <ele>1296.1</ele>
        <time>2020-09-05T08:51:12.122Z</time>
      </trkpt>
      <trkpt lat="44.43966" lon="6.11277">
        <ele>1293.4</ele>
        <time>2020-09-05T08:51:13.000Z</time>
      </trkpt>
      <trkpt lat="44.43972" lon="6.11273">
        <ele>1291.7</ele>
        <time>2020-09-05T08:51:15.079Z</time>
      </trkpt>
      <trkpt lat="44.43972" lon="6.11267">
        <ele>1286.8</ele>
        <time>2020-09-05T08:51:17.000Z</time>
      </trkpt>
      <trkpt lat="44.43971" lon="6.11257">
        <ele>1286.3</ele>
        <time>2020-09-05T08:51:19.059Z</time>
      </trkpt>
      <trkpt lat="44.43969" lon="6.11249">
        <ele>1284.4</ele>
        <time>2020-09-05T08:51:20.779Z</time>
      </trkpt>
      <trkpt lat="44.43968" lon="6.11239">
        <ele>1282.4</ele>
        <time>2020-09-05T08:51:23.000Z</time>
      </trkpt>
      <trkpt lat="44.43964" lon="6.11231">
        <ele>1281.3</ele>
        <time>2020-09-05T08:51:24.598Z</time>
      </trkpt>
      <trkpt lat="44.43962" lon="6.11222">
        <ele>1278</ele>
        <time>2020-09-05T08:51:26.000Z</time>
      </trkpt>
      <trkpt lat="44.4397" lon="6.11207">
        <ele>1270.4</ele>
        <time>2020-09-05T08:51:29.000Z</time>
      </trkpt>
      <trkpt lat="44.43977" lon="6.11206">
        <ele>1265.1</ele>
        <time>2020-09-05T08:51:30.000Z</time>
      </trkpt>
      <trkpt lat="44.43984" lon="6.11205">
        <ele>1265.2</ele>
        <time>2020-09-05T08:51:31.000Z</time>
      </trkpt>
      <trkpt lat="44.43992" lon="6.11205">
        <ele>1264.8</ele>
        <time>2020-09-05T08:51:32.000Z</time>
      </trkpt>
      <trkpt lat="44.44" lon="6.11207">
        <ele>1264.6</ele>
        <time>2020-09-05T08:51:33.000Z</time>
      </trkpt>
      <trkpt lat="44.44012" lon="6.11209">
        <ele>1261.4</ele>
        <time>2020-09-05T08:51:35.000Z</time>
      </trkpt>
      <trkpt lat="44.44019" lon="6.11201">
        <ele>1258.8</ele>
        <time>2020-09-05T08:51:37.000Z</time>
      </trkpt>
      <trkpt lat="44.44028" lon="6.11188">
        <ele>1255.2</ele>
        <time>2020-09-05T08:51:39.000Z</time>
      </trkpt>
      <trkpt lat="44.44034" lon="6.11183">
        <ele>1253.7</ele>
        <time>2020-09-05T08:51:40.000Z</time>
      </trkpt>
      <trkpt lat="44.44043" lon="6.11179">
        <ele>1253.3</ele>
        <time>2020-09-05T08:51:42.000Z</time>
      </trkpt>
      <trkpt lat="44.44049" lon="6.1118">
        <ele>1254.3</ele>
        <time>2020-09-05T08:51:43.000Z</time>
      </trkpt>
      <trkpt lat="44.44058" lon="6.11182">
        <ele>1252.1</ele>
        <time>2020-09-05T08:51:44.000Z</time>
      </trkpt>
      <trkpt lat="44.44071" lon="6.11188">
        <ele>1249.8</ele>
        <time>2020-09-05T08:51:45.000Z</time>
      </trkpt>
      <trkpt lat="44.44098" lon="6.112">
        <ele>1248.4</ele>
        <time>2020-09-05T08:51:47.000Z</time>
      </trkpt>
      <trkpt lat="44.4412" lon="6.11205">
        <ele>1248.3</ele>
        <time>2020-09-05T08:51:49.000Z</time>
      </trkpt>
      <trkpt lat="44.44129" lon="6.11206">
        <ele>1248</ele>
        <time>2020-09-05T08:51:50.000Z</time>
      </trkpt>
      <trkpt lat="44.44139" lon="6.11206">
        <ele>1248.3</ele>
        <time>2020-09-05T08:51:51.000Z</time>
      </trkpt>
      <trkpt lat="44.44155" lon="6.1121">
        <ele>1248</ele>
        <time>2020-09-05T08:51:53.000Z</time>
      </trkpt>
      <trkpt lat="44.44163" lon="6.11213">
        <ele>1248.3</ele>
        <time>2020-09-05T08:51:54.000Z</time>
      </trkpt>
      <trkpt lat="44.4417" lon="6.11214">
        <ele>1247.6</ele>
        <time>2020-09-05T08:51:55.000Z</time>
      </trkpt>
      <trkpt lat="44.44183" lon="6.11214">
        <ele>1246.4</ele>
        <time>2020-09-05T08:51:57.000Z</time>
      </trkpt>
      <trkpt lat="44.44188" lon="6.11214">
        <ele>1244.7</ele>
        <time>2020-09-05T08:51:58.000Z</time>
      </trkpt>
      <trkpt lat="44.442" lon="6.11214">
        <ele>1241.9</ele>
        <time>2020-09-05T08:52:00.000Z</time>
      </trkpt>
      <trkpt lat="44.44206" lon="6.11209">
        <ele>1236.1</ele>
        <time>2020-09-05T08:52:02.000Z</time>
      </trkpt>
      <trkpt lat="44.44208" lon="6.11203">
        <ele>1231.2</ele>
        <time>2020-09-05T08:52:04.000Z</time>
      </trkpt>
      <trkpt lat="44.44214" lon="6.11205">
        <ele>1229</ele>
        <time>2020-09-05T08:52:06.000Z</time>
      </trkpt>
      <trkpt lat="44.44219" lon="6.112">
        <ele>1226.5</ele>
        <time>2020-09-05T08:52:08.000Z</time>
      </trkpt>
      <trkpt lat="44.44219" lon="6.11175">
        <ele>1222.3</ele>
        <time>2020-09-05T08:52:11.000Z</time>
      </trkpt>
      <trkpt lat="44.44215" lon="6.11161">
        <ele>1221.6</ele>
        <time>2020-09-05T08:52:12.000Z</time>
      </trkpt>
      <trkpt lat="44.44214" lon="6.11136">
        <ele>1215.7</ele>
        <time>2020-09-05T08:52:14.000Z</time>
      </trkpt>
      <trkpt lat="44.44213" lon="6.11124">
        <ele>1214.4</ele>
        <time>2020-09-05T08:52:15.000Z</time>
      </trkpt>
      <trkpt lat="44.44212" lon="6.11114">
        <ele>1214.5</ele>
        <time>2020-09-05T08:52:16.000Z</time>
      </trkpt>
      <trkpt lat="44.44213" lon="6.11105">
        <ele>1215.8</ele>
        <time>2020-09-05T08:52:17.000Z</time>
      </trkpt>
      <trkpt lat="44.44213" lon="6.11096">
        <ele>1215.2</ele>
        <time>2020-09-05T08:52:18.896Z</time>
      </trkpt>
      <trkpt lat="44.4421" lon="6.11087">
        <ele>1210.5</ele>
        <time>2020-09-05T08:52:23.559Z</time>
      </trkpt>
      <trkpt lat="44.44208" lon="6.11073">
        <ele>1208.4</ele>
        <time>2020-09-05T08:52:25.000Z</time>
      </trkpt>
      <trkpt lat="44.44206" lon="6.11065">
        <ele>1206.5</ele>
        <time>2020-09-05T08:52:26.000Z</time>
      </trkpt>
      <trkpt lat="44.44198" lon="6.11051">
        <ele>1201.6</ele>
        <time>2020-09-05T08:52:28.000Z</time>
      </trkpt>
      <trkpt lat="44.44196" lon="6.11043">
        <ele>1198.9</ele>
        <time>2020-09-05T08:52:29.000Z</time>
      </trkpt>
      <trkpt lat="44.44193" lon="6.11035">
        <ele>1198.9</ele>
        <time>2020-09-05T08:52:30.000Z</time>
      </trkpt>
      <trkpt lat="44.44191" lon="6.11028">
        <ele>1197.9</ele>
        <time>2020-09-05T08:52:31.000Z</time>
      </trkpt>
      <trkpt lat="44.44181" lon="6.11016">
        <ele>1196.4</ele>
        <time>2020-09-05T08:52:33.000Z</time>
      </trkpt>
      <trkpt lat="44.44176" lon="6.10999">
        <ele>1192.7</ele>
        <time>2020-09-05T08:52:35.000Z</time>
      </trkpt>
      <trkpt lat="44.44171" lon="6.10981">
        <ele>1191.3</ele>
        <time>2020-09-05T08:52:37.000Z</time>
      </trkpt>
      <trkpt lat="44.44169" lon="6.1097">
        <ele>1188.5</ele>
        <time>2020-09-05T08:52:38.000Z</time>
      </trkpt>
      <trkpt lat="44.44166" lon="6.10957">
        <ele>1187.7</ele>
        <time>2020-09-05T08:52:39.000Z</time>
      </trkpt>
      <trkpt lat="44.44161" lon="6.10934">
        <ele>1184.7</ele>
        <time>2020-09-05T08:52:41.000Z</time>
      </trkpt>
      <trkpt lat="44.44158" lon="6.10919">
        <ele>1184</ele>
        <time>2020-09-05T08:52:43.000Z</time>
      </trkpt>
      <trkpt lat="44.44155" lon="6.10912">
        <ele>1183.2</ele>
        <time>2020-09-05T08:52:44.000Z</time>
      </trkpt>
      <trkpt lat="44.44151" lon="6.10906">
        <ele>1182.3</ele>
        <time>2020-09-05T08:52:45.000Z</time>
      </trkpt>
      <trkpt lat="44.44149" lon="6.109">
        <ele>1180.4</ele>
        <time>2020-09-05T08:52:46.000Z</time>
      </trkpt>
      <trkpt lat="44.44141" lon="6.10889">
        <ele>1179.4</ele>
        <time>2020-09-05T08:52:48.000Z</time>
      </trkpt>
      <trkpt lat="44.44135" lon="6.1089">
        <ele>1176.1</ele>
        <time>2020-09-05T08:52:50.000Z</time>
      </trkpt>
      <trkpt lat="44.44131" lon="6.10889">
        <ele>1174</ele>
        <time>2020-09-05T08:52:52.000Z</time>
      </trkpt>
      <trkpt lat="44.44128" lon="6.10885">
        <ele>1170.8</ele>
        <time>2020-09-05T08:52:53.000Z</time>
      </trkpt>
      <trkpt lat="44.44125" lon="6.10875">
        <ele>1168.5</ele>
        <time>2020-09-05T08:52:54.000Z</time>
      </trkpt>
      <trkpt lat="44.44121" lon="6.10855">
        <ele>1164.6</ele>
        <time>2020-09-05T08:52:56.000Z</time>
      </trkpt>
      <trkpt lat="44.44115" lon="6.10839">
        <ele>1162.4</ele>
        <time>2020-09-05T08:52:58.000Z</time>
      </trkpt>
      <trkpt lat="44.44113" lon="6.10824">
        <ele>1158.3</ele>
        <time>2020-09-05T08:53:01.000Z</time>
      </trkpt>
      <trkpt lat="44.44108" lon="6.10814">
        <ele>1154</ele>
        <time>2020-09-05T08:53:04.000Z</time>
      </trkpt>
      <trkpt lat="44.44104" lon="6.10801">
        <ele>1151.8</ele>
        <time>2020-09-05T08:53:06.000Z</time>
      </trkpt>
      <trkpt lat="44.44105" lon="6.10794">
        <ele>1150.7</ele>
        <time>2020-09-05T08:53:07.000Z</time>
      </trkpt>
      <trkpt lat="44.44105" lon="6.10786">
        <ele>1148.9</ele>
        <time>2020-09-05T08:53:08.000Z</time>
      </trkpt>
      <trkpt lat="44.44103" lon="6.10768">
        <ele>1146.5</ele>
        <time>2020-09-05T08:53:10.000Z</time>
      </trkpt>
      <trkpt lat="44.44101" lon="6.10757">
        <ele>1145.8</ele>
        <time>2020-09-05T08:53:11.000Z</time>
      </trkpt>
      <trkpt lat="44.44098" lon="6.10745">
        <ele>1145.2</ele>
        <time>2020-09-05T08:53:12.000Z</time>
      </trkpt>
      <trkpt lat="44.44091" lon="6.10725">
        <ele>1140.9</ele>
        <time>2020-09-05T08:53:14.000Z</time>
      </trkpt>
      <trkpt lat="44.44087" lon="6.1072">
        <ele>1141</ele>
        <time>2020-09-05T08:53:15.000Z</time>
      </trkpt>
      <trkpt lat="44.44089" lon="6.10736">
        <ele>1135.2</ele>
        <time>2020-09-05T08:54:14.000Z</time>
      </trkpt>
      <trkpt lat="44.4409" lon="6.10755">
        <ele>1134.3</ele>
        <time>2020-09-05T08:54:16.000Z</time>
      </trkpt>
      <trkpt lat="44.44091" lon="6.10769">
        <ele>1133.7</ele>
        <time>2020-09-05T08:54:18.000Z</time>
      </trkpt>
      <trkpt lat="44.44094" lon="6.10783">
        <ele>1133.7</ele>
        <time>2020-09-05T08:54:20.000Z</time>
      </trkpt>
      <trkpt lat="44.44097" lon="6.10794">
        <ele>1135.1</ele>
        <time>2020-09-05T08:54:22.000Z</time>
      </trkpt>
      <trkpt lat="44.44098" lon="6.10802">
        <ele>1135.1</ele>
        <time>2020-09-05T08:54:23.000Z</time>
      </trkpt>
      <trkpt lat="44.44098" lon="6.10809">
        <ele>1133.7</ele>
        <time>2020-09-05T08:54:24.000Z</time>
      </trkpt>
      <trkpt lat="44.441" lon="6.10822">
        <ele>1135.1</ele>
        <time>2020-09-05T08:54:27.000Z</time>
      </trkpt>
      <trkpt lat="44.44104" lon="6.10851">
        <ele>1138</ele>
        <time>2020-09-05T08:54:30.000Z</time>
      </trkpt>
      <trkpt lat="44.44105" lon="6.10864">
        <ele>1138</ele>
        <time>2020-09-05T08:54:31.000Z</time>
      </trkpt>
      <trkpt lat="44.44108" lon="6.10877">
        <ele>1139.8</ele>
        <time>2020-09-05T08:54:32.000Z</time>
      </trkpt>
      <trkpt lat="44.44111" lon="6.10887">
        <ele>1140.6</ele>
        <time>2020-09-05T08:54:33.000Z</time>
      </trkpt>
      <trkpt lat="44.44116" lon="6.10895">
        <ele>1143.5</ele>
        <time>2020-09-05T08:54:34.000Z</time>
      </trkpt>
      <trkpt lat="44.44128" lon="6.10899">
        <ele>1148.2</ele>
        <time>2020-09-05T08:54:36.000Z</time>
      </trkpt>
      <trkpt lat="44.44134" lon="6.10898">
        <ele>1148.7</ele>
        <time>2020-09-05T08:54:37.000Z</time>
      </trkpt>
      <trkpt lat="44.44139" lon="6.10901">
        <ele>1149.6</ele>
        <time>2020-09-05T08:54:38.000Z</time>
      </trkpt>
      <trkpt lat="44.44147" lon="6.10915">
        <ele>1149.4</ele>
        <time>2020-09-05T08:54:40.000Z</time>
      </trkpt>
      <trkpt lat="44.44151" lon="6.10924">
        <ele>1151.5</ele>
        <time>2020-09-05T08:54:41.000Z</time>
      </trkpt>
      <trkpt lat="44.44155" lon="6.10946">
        <ele>1153</ele>
        <time>2020-09-05T08:54:43.000Z</time>
      </trkpt>
      <trkpt lat="44.4416" lon="6.1097">
        <ele>1154.5</ele>
        <time>2020-09-05T08:54:45.000Z</time>
      </trkpt>
      <trkpt lat="44.44166" lon="6.10999">
        <ele>1158.1</ele>
        <time>2020-09-05T08:54:47.000Z</time>
      </trkpt>
      <trkpt lat="44.44172" lon="6.11021">
        <ele>1160.3</ele>
        <time>2020-09-05T08:54:49.000Z</time>
      </trkpt>
      <trkpt lat="44.44178" lon="6.1103">
        <ele>1159.8</ele>
        <time>2020-09-05T08:54:50.000Z</time>
      </trkpt>
      <trkpt lat="44.4419" lon="6.11044">
        <ele>1160.6</ele>
        <time>2020-09-05T08:54:52.000Z</time>
      </trkpt>
      <trkpt lat="44.44196" lon="6.11054">
        <ele>1165.2</ele>
        <time>2020-09-05T08:54:53.000Z</time>
      </trkpt>
      <trkpt lat="44.44197" lon="6.11081">
        <ele>1171.2</ele>
        <time>2020-09-05T08:54:55.000Z</time>
      </trkpt>
      <trkpt lat="44.44196" lon="6.1111">
        <ele>1173.6</ele>
        <time>2020-09-05T08:54:57.000Z</time>
      </trkpt>
      <trkpt lat="44.44194" lon="6.11145">
        <ele>1175.7</ele>
        <time>2020-09-05T08:54:59.000Z</time>
      </trkpt>
      <trkpt lat="44.44195" lon="6.11175">
        <ele>1181</ele>
        <time>2020-09-05T08:55:01.000Z</time>
      </trkpt>
      <trkpt lat="44.44198" lon="6.11187">
        <ele>1181.6</ele>
        <time>2020-09-05T08:55:02.000Z</time>
      </trkpt>
      <trkpt lat="44.442" lon="6.11196">
        <ele>1182.3</ele>
        <time>2020-09-05T08:55:03.000Z</time>
      </trkpt>
      <trkpt lat="44.44194" lon="6.112">
        <ele>1184.3</ele>
        <time>2020-09-05T08:55:06.000Z</time>
      </trkpt>
      <trkpt lat="44.44186" lon="6.112">
        <ele>1189.6</ele>
        <time>2020-09-05T08:55:09.000Z</time>
      </trkpt>
      <trkpt lat="44.44178" lon="6.11208">
        <ele>1193</ele>
        <time>2020-09-05T08:55:12.000Z</time>
      </trkpt>
      <trkpt lat="44.44171" lon="6.11208">
        <ele>1195.8</ele>
        <time>2020-09-05T08:55:13.000Z</time>
      </trkpt>
      <trkpt lat="44.44155" lon="6.11206">
        <ele>1199</ele>
        <time>2020-09-05T08:55:15.000Z</time>
      </trkpt>
      <trkpt lat="44.44141" lon="6.112">
        <ele>1200.1</ele>
        <time>2020-09-05T08:55:17.000Z</time>
      </trkpt>
      <trkpt lat="44.44135" lon="6.11198">
        <ele>1199.7</ele>
        <time>2020-09-05T08:55:18.000Z</time>
      </trkpt>
      <trkpt lat="44.44119" lon="6.11194">
        <ele>1204.3</ele>
        <time>2020-09-05T08:55:20.000Z</time>
      </trkpt>
      <trkpt lat="44.44107" lon="6.11193">
        <ele>1204.7</ele>
        <time>2020-09-05T08:55:21.000Z</time>
      </trkpt>
      <trkpt lat="44.44083" lon="6.11192">
        <ele>1207.7</ele>
        <time>2020-09-05T08:55:23.000Z</time>
      </trkpt>
      <trkpt lat="44.44071" lon="6.11189">
        <ele>1208</ele>
        <time>2020-09-05T08:55:24.000Z</time>
      </trkpt>
      <trkpt lat="44.44054" lon="6.11186">
        <ele>1207</ele>
        <time>2020-09-05T08:55:26.000Z</time>
      </trkpt>
      <trkpt lat="44.44044" lon="6.1119">
        <ele>1204.8</ele>
        <time>2020-09-05T08:55:28.000Z</time>
      </trkpt>
      <trkpt lat="44.44039" lon="6.11194">
        <ele>1205.5</ele>
        <time>2020-09-05T08:55:29.000Z</time>
      </trkpt>
      <trkpt lat="44.44029" lon="6.11203">
        <ele>1205.7</ele>
        <time>2020-09-05T08:55:31.000Z</time>
      </trkpt>
      <trkpt lat="44.44015" lon="6.11207">
        <ele>1205.8</ele>
        <time>2020-09-05T08:55:33.000Z</time>
      </trkpt>
      <trkpt lat="44.44008" lon="6.11208">
        <ele>1206.9</ele>
        <time>2020-09-05T08:55:34.000Z</time>
      </trkpt>
      <trkpt lat="44.44001" lon="6.11206">
        <ele>1205.8</ele>
        <time>2020-09-05T08:55:35.000Z</time>
      </trkpt>
      <trkpt lat="44.43994" lon="6.11202">
        <ele>1206</ele>
        <time>2020-09-05T08:55:36.000Z</time>
      </trkpt>
      <trkpt lat="44.43986" lon="6.11199">
        <ele>1208.4</ele>
        <time>2020-09-05T08:55:37.000Z</time>
      </trkpt>
      <trkpt lat="44.43972" lon="6.11201">
        <ele>1212</ele>
        <time>2020-09-05T08:55:39.000Z</time>
      </trkpt>
      <trkpt lat="44.43963" lon="6.11209">
        <ele>1214.1</ele>
        <time>2020-09-05T08:55:41.000Z</time>
      </trkpt>
      <trkpt lat="44.43961" lon="6.11217">
        <ele>1220</ele>
        <time>2020-09-05T08:55:43.000Z</time>
      </trkpt>
      <trkpt lat="44.43964" lon="6.11226">
        <ele>1222.7</ele>
        <time>2020-09-05T08:55:45.239Z</time>
      </trkpt>
      <trkpt lat="44.43968" lon="6.11236">
        <ele>1228.9</ele>
        <time>2020-09-05T08:55:47.000Z</time>
      </trkpt>
      <trkpt lat="44.43972" lon="6.11243">
        <ele>1228.7</ele>
        <time>2020-09-05T08:55:48.000Z</time>
      </trkpt>
      <trkpt lat="44.4398" lon="6.11261">
        <ele>1232.7</ele>
        <time>2020-09-05T08:55:50.000Z</time>
      </trkpt>
      <trkpt lat="44.43983" lon="6.11272">
        <ele>1235.2</ele>
        <time>2020-09-05T08:55:51.000Z</time>
      </trkpt>
      <trkpt lat="44.43985" lon="6.1128">
        <ele>1233.9</ele>
        <time>2020-09-05T08:55:52.000Z</time>
      </trkpt>
      <trkpt lat="44.43976" lon="6.11283">
        <ele>1237.8</ele>
        <time>2020-09-05T08:55:55.000Z</time>
      </trkpt>
      <trkpt lat="44.43968" lon="6.11283">
        <ele>1239.9</ele>
        <time>2020-09-05T08:55:56.000Z</time>
      </trkpt>
      <trkpt lat="44.4396" lon="6.11284">
        <ele>1242.1</ele>
        <time>2020-09-05T08:55:57.232Z</time>
      </trkpt>
      <trkpt lat="44.43953" lon="6.11285">
        <ele>1244.2</ele>
        <time>2020-09-05T08:55:59.000Z</time>
      </trkpt>
      <trkpt lat="44.43951" lon="6.11299">
        <ele>1248.2</ele>
        <time>2020-09-05T08:56:02.000Z</time>
      </trkpt>
      <trkpt lat="44.43951" lon="6.11311">
        <ele>1250.8</ele>
        <time>2020-09-05T08:56:04.000Z</time>
      </trkpt>
      <trkpt lat="44.4395" lon="6.11323">
        <ele>1257.6</ele>
        <time>2020-09-05T08:56:07.000Z</time>
      </trkpt>
      <trkpt lat="44.43946" lon="6.11328">
        <ele>1263.5</ele>
        <time>2020-09-05T08:56:09.000Z</time>
      </trkpt>
      <trkpt lat="44.43944" lon="6.11335">
        <ele>1272.2</ele>
        <time>2020-09-05T08:56:12.000Z</time>
      </trkpt>
      <trkpt lat="44.43942" lon="6.11343">
        <ele>1278.7</ele>
        <time>2020-09-05T08:56:16.000Z</time>
      </trkpt>
      <trkpt lat="44.43939" lon="6.1135">
        <ele>1280.6</ele>
        <time>2020-09-05T08:56:18.000Z</time>
      </trkpt>
      <trkpt lat="44.43938" lon="6.1136">
        <ele>1284.2</ele>
        <time>2020-09-05T08:56:21.000Z</time>
      </trkpt>
      <trkpt lat="44.43938" lon="6.11373">
        <ele>1283.8</ele>
        <time>2020-09-05T08:56:24.000Z</time>
      </trkpt>
      <trkpt lat="44.4394" lon="6.11386">
        <ele>1283</ele>
        <time>2020-09-05T08:56:26.000Z</time>
      </trkpt>
      <trkpt lat="44.43941" lon="6.11395">
        <ele>1284.4</ele>
        <time>2020-09-05T08:56:27.000Z</time>
      </trkpt>
      <trkpt lat="44.43941" lon="6.11407">
        <ele>1285.3</ele>
        <time>2020-09-05T08:56:28.000Z</time>
      </trkpt>
      <trkpt lat="44.43942" lon="6.11433">
        <ele>1284.8</ele>
        <time>2020-09-05T08:56:30.000Z</time>
      </trkpt>
      <trkpt lat="44.43942" lon="6.11448">
        <ele>1285.8</ele>
        <time>2020-09-05T08:56:31.000Z</time>
      </trkpt>
      <trkpt lat="44.43942" lon="6.11466">
        <ele>1285</ele>
        <time>2020-09-05T08:56:32.000Z</time>
      </trkpt>
      <trkpt lat="44.43941" lon="6.11499">
        <ele>1287.6</ele>
        <time>2020-09-05T08:56:34.000Z</time>
      </trkpt>
      <trkpt lat="44.4394" lon="6.11515">
        <ele>1289.8</ele>
        <time>2020-09-05T08:56:35.000Z</time>
      </trkpt>
      <trkpt lat="44.43933" lon="6.11544">
        <ele>1291.8</ele>
        <time>2020-09-05T08:56:37.000Z</time>
      </trkpt>
      <trkpt lat="44.43927" lon="6.11564">
        <ele>1292.8</ele>
        <time>2020-09-05T08:56:38.737Z</time>
      </trkpt>
      <trkpt lat="44.43922" lon="6.11583">
        <ele>1293.9</ele>
        <time>2020-09-05T08:56:40.000Z</time>
      </trkpt>
      <trkpt lat="44.43923" lon="6.11597">
        <ele>1292.9</ele>
        <time>2020-09-05T08:56:41.000Z</time>
      </trkpt>
      <trkpt lat="44.43924" lon="6.1162">
        <ele>1296</ele>
        <time>2020-09-05T08:56:43.000Z</time>
      </trkpt>
      <trkpt lat="44.43923" lon="6.11629">
        <ele>1299.1</ele>
        <time>2020-09-05T08:56:45.000Z</time>
      </trkpt>
      <trkpt lat="44.43894" lon="6.11667">
        <ele>1309.1</ele>
        <time>2020-09-05T08:56:52.000Z</time>
      </trkpt>
      <trkpt lat="44.43878" lon="6.11665">
        <ele>1311.4</ele>
        <time>2020-09-05T08:56:54.000Z</time>
      </trkpt>
      <trkpt lat="44.43869" lon="6.11661">
        <ele>1312</ele>
        <time>2020-09-05T08:56:55.000Z</time>
      </trkpt>
      <trkpt lat="44.43854" lon="6.11659">
        <ele>1312</ele>
        <time>2020-09-05T08:56:57.000Z</time>
      </trkpt>
      <trkpt lat="44.43841" lon="6.11663">
        <ele>1313.4</ele>
        <time>2020-09-05T08:56:59.000Z</time>
      </trkpt>
      <trkpt lat="44.43837" lon="6.11667">
        <ele>1313.5</ele>
        <time>2020-09-05T08:57:00.000Z</time>
      </trkpt>
      <trkpt lat="44.43834" lon="6.11674">
        <ele>1314.7</ele>
        <time>2020-09-05T08:57:02.000Z</time>
      </trkpt>
      <trkpt lat="44.43829" lon="6.11687">
        <ele>1316.2</ele>
        <time>2020-09-05T08:57:05.000Z</time>
      </trkpt>
      <trkpt lat="44.43828" lon="6.11697">
        <ele>1316.6</ele>
        <time>2020-09-05T08:57:06.000Z</time>
      </trkpt>
      <trkpt lat="44.43827" lon="6.11706">
        <ele>1318.8</ele>
        <time>2020-09-05T08:57:07.000Z</time>
      </trkpt>
      <trkpt lat="44.43825" lon="6.11717">
        <ele>1319.6</ele>
        <time>2020-09-05T08:57:08.000Z</time>
      </trkpt>
      <trkpt lat="44.43822" lon="6.11743">
        <ele>1323.4</ele>
        <time>2020-09-05T08:57:10.000Z</time>
      </trkpt>
      <trkpt lat="44.43825" lon="6.11761">
        <ele>1324.7</ele>
        <time>2020-09-05T08:57:12.000Z</time>
      </trkpt>
      <trkpt lat="44.43828" lon="6.11768">
        <ele>1324.6</ele>
        <time>2020-09-05T08:57:13.000Z</time>
      </trkpt>
      <trkpt lat="44.43834" lon="6.1178">
        <ele>1323.7</ele>
        <time>2020-09-05T08:57:15.000Z</time>
      </trkpt>
      <trkpt lat="44.43836" lon="6.1179">
        <ele>1328.9</ele>
        <time>2020-09-05T08:57:17.000Z</time>
      </trkpt>
      <trkpt lat="44.43829" lon="6.11795">
        <ele>1332.5</ele>
        <time>2020-09-05T08:57:20.000Z</time>
      </trkpt>
      <trkpt lat="44.43816" lon="6.11799">
        <ele>1335.6</ele>
        <time>2020-09-05T08:57:22.000Z</time>
      </trkpt>
      <trkpt lat="44.43803" lon="6.11803">
        <ele>1335.2</ele>
        <time>2020-09-05T08:57:24.000Z</time>
      </trkpt>
      <trkpt lat="44.43796" lon="6.11806">
        <ele>1335.7</ele>
        <time>2020-09-05T08:57:25.000Z</time>
      </trkpt>
      <trkpt lat="44.4379" lon="6.1181">
        <ele>1336.2</ele>
        <time>2020-09-05T08:57:26.000Z</time>
      </trkpt>
      <trkpt lat="44.43784" lon="6.11815">
        <ele>1337.2</ele>
        <time>2020-09-05T08:57:28.122Z</time>
      </trkpt>
      <trkpt lat="44.43787" lon="6.11824">
        <ele>1338.7</ele>
        <time>2020-09-05T08:57:29.000Z</time>
      </trkpt>
      <trkpt lat="44.43787" lon="6.11833">
        <ele>1340.9</ele>
        <time>2020-09-05T08:57:30.000Z</time>
      </trkpt>
      <trkpt lat="44.43787" lon="6.11853">
        <ele>1341</ele>
        <time>2020-09-05T08:57:32.000Z</time>
      </trkpt>
      <trkpt lat="44.43786" lon="6.1186">
        <ele>1343</ele>
        <time>2020-09-05T08:57:33.000Z</time>
      </trkpt>
      <trkpt lat="44.43788" lon="6.1188">
        <ele>1343.6</ele>
        <time>2020-09-05T08:57:35.000Z</time>
      </trkpt>
      <trkpt lat="44.4379" lon="6.11899">
        <ele>1344.4</ele>
        <time>2020-09-05T08:57:37.000Z</time>
      </trkpt>
      <trkpt lat="44.4379" lon="6.11907">
        <ele>1343.6</ele>
        <time>2020-09-05T08:57:38.000Z</time>
      </trkpt>
      <trkpt lat="44.43791" lon="6.11915">
        <ele>1344.8</ele>
        <time>2020-09-05T08:57:39.000Z</time>
      </trkpt>
      <trkpt lat="44.4379" lon="6.11906">
        <ele>1349.8</ele>
        <time>2020-09-05T08:57:42.000Z</time>
      </trkpt>
      <trkpt lat="44.43782" lon="6.11897">
        <ele>1351.7</ele>
        <time>2020-09-05T08:57:45.000Z</time>
      </trkpt>
      <trkpt lat="44.43775" lon="6.11914">
        <ele>1355</ele>
        <time>2020-09-05T08:57:54.000Z</time>
      </trkpt>
      <trkpt lat="44.43773" lon="6.11927">
        <ele>1355</ele>
        <time>2020-09-05T08:57:56.000Z</time>
      </trkpt>
      <trkpt lat="44.43776" lon="6.11918">
        <ele>1355.1</ele>
        <time>2020-09-05T08:57:58.940Z</time>
      </trkpt>
      <trkpt lat="44.43783" lon="6.11913">
        <ele>1355.1</ele>
        <time>2020-09-05T08:58:01.809Z</time>
      </trkpt>
      <trkpt lat="44.43786" lon="6.11923">
        <ele>1360.7</ele>
        <time>2020-09-05T08:58:04.079Z</time>
      </trkpt>
      <trkpt lat="44.43785" lon="6.11931">
        <ele>1361.9</ele>
        <time>2020-09-05T08:58:05.000Z</time>
      </trkpt>
      <trkpt lat="44.43783" lon="6.11941">
        <ele>1362.8</ele>
        <time>2020-09-05T08:58:06.503Z</time>
      </trkpt>
      <trkpt lat="44.43782" lon="6.11948">
        <ele>1365.5</ele>
        <time>2020-09-05T08:58:07.605Z</time>
      </trkpt>
      <trkpt lat="44.43782" lon="6.11959">
        <ele>1368</ele>
        <time>2020-09-05T08:58:09.000Z</time>
      </trkpt>
      <trkpt lat="44.43781" lon="6.11971">
        <ele>1368.6</ele>
        <time>2020-09-05T08:58:10.242Z</time>
      </trkpt>
      <trkpt lat="44.43768" lon="6.12002">
        <ele>1371.5</ele>
        <time>2020-09-05T08:58:12.000Z</time>
      </trkpt>
      <trkpt lat="44.43753" lon="6.12019">
        <ele>1374.8</ele>
        <time>2020-09-05T08:58:14.000Z</time>
      </trkpt>
      <trkpt lat="44.43746" lon="6.12023">
        <ele>1376.5</ele>
        <time>2020-09-05T08:58:15.000Z</time>
      </trkpt>
      <trkpt lat="44.43733" lon="6.1203">
        <ele>1379.8</ele>
        <time>2020-09-05T08:58:17.000Z</time>
      </trkpt>
      <trkpt lat="44.43727" lon="6.12032">
        <ele>1381</ele>
        <time>2020-09-05T08:58:18.000Z</time>
      </trkpt>
      <trkpt lat="44.43712" lon="6.12037">
        <ele>1381.9</ele>
        <time>2020-09-05T08:58:20.000Z</time>
      </trkpt>
      <trkpt lat="44.43703" lon="6.12039">
        <ele>1383.4</ele>
        <time>2020-09-05T08:58:21.000Z</time>
      </trkpt>
      <trkpt lat="44.43688" lon="6.12044">
        <ele>1385.7</ele>
        <time>2020-09-05T08:58:23.000Z</time>
      </trkpt>
      <trkpt lat="44.4368" lon="6.12047">
        <ele>1387.1</ele>
        <time>2020-09-05T08:58:24.000Z</time>
      </trkpt>
      <trkpt lat="44.43675" lon="6.12051">
        <ele>1388.4</ele>
        <time>2020-09-05T08:58:25.000Z</time>
      </trkpt>
      <trkpt lat="44.43674" lon="6.12064">
        <ele>1391.4</ele>
        <time>2020-09-05T08:58:27.000Z</time>
      </trkpt>
      <trkpt lat="44.43669" lon="6.12082">
        <ele>1395.1</ele>
        <time>2020-09-05T08:58:30.000Z</time>
      </trkpt>
      <trkpt lat="44.43665" lon="6.12077">
        <ele>1404.9</ele>
        <time>2020-09-05T08:58:47.000Z</time>
      </trkpt>
      <trkpt lat="44.4366" lon="6.12081">
        <ele>1404.3</ele>
        <time>2020-09-05T08:58:54.000Z</time>
      </trkpt>
      <trkpt lat="44.43649" lon="6.12092">
        <ele>1408.6</ele>
        <time>2020-09-05T08:58:57.000Z</time>
      </trkpt>
      <trkpt lat="44.4364" lon="6.12101">
        <ele>1409</ele>
        <time>2020-09-05T08:58:58.717Z</time>
      </trkpt>
      <trkpt lat="44.43633" lon="6.1211">
        <ele>1416.7</ele>
        <time>2020-09-05T08:59:02.000Z</time>
      </trkpt>
      <trkpt lat="44.43625" lon="6.12122">
        <ele>1417.8</ele>
        <time>2020-09-05T08:59:03.000Z</time>
      </trkpt>
      <trkpt lat="44.43615" lon="6.1214">
        <ele>1419.7</ele>
        <time>2020-09-05T08:59:05.000Z</time>
      </trkpt>
      <trkpt lat="44.43612" lon="6.12146">
        <ele>1419.7</ele>
        <time>2020-09-05T08:59:06.604Z</time>
      </trkpt>
      <trkpt lat="44.43608" lon="6.12149">
        <ele>1420</ele>
        <time>2020-09-05T08:59:07.665Z</time>
      </trkpt>
      <trkpt lat="44.43602" lon="6.1215">
        <ele>1419.2</ele>
        <time>2020-09-05T08:59:08.669Z</time>
      </trkpt>
      <trkpt lat="44.43594" lon="6.12152">
        <ele>1420.3</ele>
        <time>2020-09-05T08:59:10.066Z</time>
      </trkpt>
      <trkpt lat="44.43591" lon="6.12158">
        <ele>1421.6</ele>
        <time>2020-09-05T08:59:11.000Z</time>
      </trkpt>
      <trkpt lat="44.43588" lon="6.12168">
        <ele>1421.2</ele>
        <time>2020-09-05T08:59:13.154Z</time>
      </trkpt>
      <trkpt lat="44.43582" lon="6.12176">
        <ele>1421.7</ele>
        <time>2020-09-05T08:59:15.753Z</time>
      </trkpt>
      <trkpt lat="44.43573" lon="6.12184">
        <ele>1422.1</ele>
        <time>2020-09-05T08:59:17.000Z</time>
      </trkpt>
      <trkpt lat="44.43563" lon="6.12194">
        <ele>1422.1</ele>
        <time>2020-09-05T08:59:19.000Z</time>
      </trkpt>
      <trkpt lat="44.4356" lon="6.12199">
        <ele>1422.7</ele>
        <time>2020-09-05T08:59:20.000Z</time>
      </trkpt>
      <trkpt lat="44.4356" lon="6.12206">
        <ele>1423.9</ele>
        <time>2020-09-05T08:59:27.000Z</time>
      </trkpt>
      <trkpt lat="44.43561" lon="6.12214">
        <ele>1425.3</ele>
        <time>2020-09-05T08:59:30.000Z</time>
      </trkpt>
      <trkpt lat="44.43561" lon="6.12231">
        <ele>1427.2</ele>
        <time>2020-09-05T08:59:31.000Z</time>
      </trkpt>
      <trkpt lat="44.43563" lon="6.12251">
        <ele>1428.8</ele>
        <time>2020-09-05T08:59:32.000Z</time>
      </trkpt>
      <trkpt lat="44.43559" lon="6.12282">
        <ele>1428.4</ele>
        <time>2020-09-05T08:59:34.000Z</time>
      </trkpt>
      <trkpt lat="44.43554" lon="6.12297">
        <ele>1429.5</ele>
        <time>2020-09-05T08:59:35.347Z</time>
      </trkpt>
      <trkpt lat="44.43548" lon="6.12319">
        <ele>1431.7</ele>
        <time>2020-09-05T08:59:37.000Z</time>
      </trkpt>
      <trkpt lat="44.43539" lon="6.12342">
        <ele>1431.7</ele>
        <time>2020-09-05T08:59:39.000Z</time>
      </trkpt>
      <trkpt lat="44.43535" lon="6.12364">
        <ele>1432.8</ele>
        <time>2020-09-05T08:59:41.000Z</time>
      </trkpt>
      <trkpt lat="44.43534" lon="6.12372">
        <ele>1432.8</ele>
        <time>2020-09-05T08:59:42.000Z</time>
      </trkpt>
      <trkpt lat="44.43535" lon="6.12389">
        <ele>1434.3</ele>
        <time>2020-09-05T08:59:44.000Z</time>
      </trkpt>
      <trkpt lat="44.43535" lon="6.12398">
        <ele>1434.9</ele>
        <time>2020-09-05T08:59:45.000Z</time>
      </trkpt>
      <trkpt lat="44.43531" lon="6.12421">
        <ele>1434.6</ele>
        <time>2020-09-05T08:59:47.000Z</time>
      </trkpt>
      <trkpt lat="44.4353" lon="6.12429">
        <ele>1433.9</ele>
        <time>2020-09-05T08:59:48.000Z</time>
      </trkpt>
      <trkpt lat="44.43533" lon="6.12453">
        <ele>1433.6</ele>
        <time>2020-09-05T08:59:50.000Z</time>
      </trkpt>
      <trkpt lat="44.43538" lon="6.12468">
        <ele>1434.3</ele>
        <time>2020-09-05T08:59:51.000Z</time>
      </trkpt>
      <trkpt lat="44.43541" lon="6.12484">
        <ele>1434.2</ele>
        <time>2020-09-05T08:59:52.000Z</time>
      </trkpt>
      <trkpt lat="44.43547" lon="6.12518">
        <ele>1432.1</ele>
        <time>2020-09-05T08:59:54.000Z</time>
      </trkpt>
      <trkpt lat="44.43548" lon="6.12536">
        <ele>1432.7</ele>
        <time>2020-09-05T08:59:55.000Z</time>
      </trkpt>
      <trkpt lat="44.4355" lon="6.12576">
        <ele>1434.5</ele>
        <time>2020-09-05T08:59:57.000Z</time>
      </trkpt>
      <trkpt lat="44.43552" lon="6.12613">
        <ele>1436.3</ele>
        <time>2020-09-05T08:59:59.000Z</time>
      </trkpt>
      <trkpt lat="44.43554" lon="6.1263">
        <ele>1438.8</ele>
        <time>2020-09-05T09:00:00.000Z</time>
      </trkpt>
      <trkpt lat="44.43554" lon="6.12648">
        <ele>1440.6</ele>
        <time>2020-09-05T09:00:01.000Z</time>
      </trkpt>
      <trkpt lat="44.43553" lon="6.12665">
        <ele>1444.6</ele>
        <time>2020-09-05T09:00:02.000Z</time>
      </trkpt>
      <trkpt lat="44.43552" lon="6.12678">
        <ele>1446.3</ele>
        <time>2020-09-05T09:00:03.000Z</time>
      </trkpt>
      <trkpt lat="44.43554" lon="6.12684">
        <ele>1447.1</ele>
        <time>2020-09-05T09:00:05.000Z</time>
      </trkpt>
      <trkpt lat="44.43557" lon="6.1269">
        <ele>1456</ele>
        <time>2020-09-05T09:00:28.000Z</time>
      </trkpt>
      <trkpt lat="44.43558" lon="6.12697">
        <ele>1455.8</ele>
        <time>2020-09-05T09:12:27.000Z</time>
      </trkpt>
      <trkpt lat="44.43555" lon="6.12706">
        <ele>1455.3</ele>
        <time>2020-09-05T09:12:29.000Z</time>
      </trkpt>
      <trkpt lat="44.4355" lon="6.12709">
        <ele>1455.1</ele>
        <time>2020-09-05T09:12:31.188Z</time>
      </trkpt>
      <trkpt lat="44.43546" lon="6.12701">
        <ele>1456.2</ele>
        <time>2020-09-05T09:12:33.000Z</time>
      </trkpt>
      <trkpt lat="44.43535" lon="6.12681">
        <ele>1455.9</ele>
        <time>2020-09-05T09:12:35.000Z</time>
      </trkpt>
      <trkpt lat="44.43519" lon="6.12644">
        <ele>1454.6</ele>
        <time>2020-09-05T09:12:37.000Z</time>
      </trkpt>
      <trkpt lat="44.43511" lon="6.12626">
        <ele>1455</ele>
        <time>2020-09-05T09:12:38.000Z</time>
      </trkpt>
      <trkpt lat="44.43502" lon="6.12608">
        <ele>1454.2</ele>
        <time>2020-09-05T09:12:39.000Z</time>
      </trkpt>
      <trkpt lat="44.43489" lon="6.12577">
        <ele>1456.4</ele>
        <time>2020-09-05T09:12:41.000Z</time>
      </trkpt>
      <trkpt lat="44.4348" lon="6.12549">
        <ele>1457.6</ele>
        <time>2020-09-05T09:12:43.000Z</time>
      </trkpt>
      <trkpt lat="44.43476" lon="6.12534">
        <ele>1455.6</ele>
        <time>2020-09-05T09:12:44.205Z</time>
      </trkpt>
      <trkpt lat="44.4347" lon="6.125">
        <ele>1455.1</ele>
        <time>2020-09-05T09:12:46.000Z</time>
      </trkpt>
      <trkpt lat="44.43467" lon="6.12482">
        <ele>1455.4</ele>
        <time>2020-09-05T09:12:47.000Z</time>
      </trkpt>
      <trkpt lat="44.43464" lon="6.12465">
        <ele>1453.4</ele>
        <time>2020-09-05T09:12:48.000Z</time>
      </trkpt>
      <trkpt lat="44.43451" lon="6.12437">
        <ele>1454</ele>
        <time>2020-09-05T09:12:50.000Z</time>
      </trkpt>
      <trkpt lat="44.43443" lon="6.12425">
        <ele>1453.5</ele>
        <time>2020-09-05T09:12:51.000Z</time>
      </trkpt>
      <trkpt lat="44.43426" lon="6.12406">
        <ele>1453.2</ele>
        <time>2020-09-05T09:12:53.000Z</time>
      </trkpt>
      <trkpt lat="44.43407" lon="6.12395">
        <ele>1453.2</ele>
        <time>2020-09-05T09:12:55.000Z</time>
      </trkpt>
      <trkpt lat="44.43398" lon="6.1239">
        <ele>1452.6</ele>
        <time>2020-09-05T09:12:56.000Z</time>
      </trkpt>
      <trkpt lat="44.43389" lon="6.12388">
        <ele>1453.5</ele>
        <time>2020-09-05T09:12:57.000Z</time>
      </trkpt>
      <trkpt lat="44.4337" lon="6.12383">
        <ele>1454.5</ele>
        <time>2020-09-05T09:12:59.000Z</time>
      </trkpt>
      <trkpt lat="44.43354" lon="6.12376">
        <ele>1453.1</ele>
        <time>2020-09-05T09:13:01.000Z</time>
      </trkpt>
      <trkpt lat="44.43347" lon="6.12375">
        <ele>1452.8</ele>
        <time>2020-09-05T09:13:02.000Z</time>
      </trkpt>
      <trkpt lat="44.43335" lon="6.12378">
        <ele>1454</ele>
        <time>2020-09-05T09:13:04.000Z</time>
      </trkpt>
      <trkpt lat="44.43324" lon="6.12394">
        <ele>1456.4</ele>
        <time>2020-09-05T09:13:06.000Z</time>
      </trkpt>
      <trkpt lat="44.43305" lon="6.12403">
        <ele>1459.1</ele>
        <time>2020-09-05T09:13:08.000Z</time>
      </trkpt>
      <trkpt lat="44.43299" lon="6.12407">
        <ele>1458.9</ele>
        <time>2020-09-05T09:13:09.000Z</time>
      </trkpt>
      <trkpt lat="44.43291" lon="6.12414">
        <ele>1457.6</ele>
        <time>2020-09-05T09:13:11.000Z</time>
      </trkpt>
      <trkpt lat="44.43291" lon="6.12403">
        <ele>1459.7</ele>
        <time>2020-09-05T09:13:14.000Z</time>
      </trkpt>
      <trkpt lat="44.43297" lon="6.1239">
        <ele>1459.2</ele>
        <time>2020-09-05T09:13:17.000Z</time>
      </trkpt>
      <trkpt lat="44.43302" lon="6.12387">
        <ele>1458.8</ele>
        <time>2020-09-05T09:13:18.000Z</time>
      </trkpt>
      <trkpt lat="44.43314" lon="6.12394">
        <ele>1462.3</ele>
        <time>2020-09-05T09:13:20.000Z</time>
      </trkpt>
      <trkpt lat="44.43325" lon="6.12394">
        <ele>1463.3</ele>
        <time>2020-09-05T09:13:22.000Z</time>
      </trkpt>
      <trkpt lat="44.4333" lon="6.12388">
        <ele>1460.3</ele>
        <time>2020-09-05T09:13:23.000Z</time>
      </trkpt>
      <trkpt lat="44.43334" lon="6.1238">
        <ele>1462.6</ele>
        <time>2020-09-05T09:13:24.000Z</time>
      </trkpt>
      <trkpt lat="44.43337" lon="6.12359">
        <ele>1462.4</ele>
        <time>2020-09-05T09:13:26.000Z</time>
      </trkpt>
      <trkpt lat="44.43338" lon="6.12347">
        <ele>1462.3</ele>
        <time>2020-09-05T09:13:27.000Z</time>
      </trkpt>
      <trkpt lat="44.43341" lon="6.12338">
        <ele>1461.4</ele>
        <time>2020-09-05T09:13:28.000Z</time>
      </trkpt>
      <trkpt lat="44.43358" lon="6.1233">
        <ele>1464</ele>
        <time>2020-09-05T09:13:30.000Z</time>
      </trkpt>
      <trkpt lat="44.43367" lon="6.1233">
        <ele>1467.2</ele>
        <time>2020-09-05T09:13:31.000Z</time>
      </trkpt>
      <trkpt lat="44.43375" lon="6.12336">
        <ele>1470.2</ele>
        <time>2020-09-05T09:13:32.259Z</time>
      </trkpt>
      <trkpt lat="44.43386" lon="6.12346">
        <ele>1471.1</ele>
        <time>2020-09-05T09:13:34.000Z</time>
      </trkpt>
      <trkpt lat="44.43398" lon="6.12347">
        <ele>1470.8</ele>
        <time>2020-09-05T09:13:36.000Z</time>
      </trkpt>
      <trkpt lat="44.43414" lon="6.12327">
        <ele>1473</ele>
        <time>2020-09-05T09:13:38.000Z</time>
      </trkpt>
      <trkpt lat="44.43434" lon="6.12315">
        <ele>1473.3</ele>
        <time>2020-09-05T09:13:40.000Z</time>
      </trkpt>
      <trkpt lat="44.4345" lon="6.1232">
        <ele>1475.8</ele>
        <time>2020-09-05T09:13:42.000Z</time>
      </trkpt>
      <trkpt lat="44.43456" lon="6.12318">
        <ele>1477.9</ele>
        <time>2020-09-05T09:13:44.000Z</time>
      </trkpt>
      <trkpt lat="44.43448" lon="6.12307">
        <ele>1480</ele>
        <time>2020-09-05T09:13:47.000Z</time>
      </trkpt>
      <trkpt lat="44.43426" lon="6.123">
        <ele>1481.9</ele>
        <time>2020-09-05T09:13:49.000Z</time>
      </trkpt>
      <trkpt lat="44.43404" lon="6.12292">
        <ele>1482</ele>
        <time>2020-09-05T09:13:51.000Z</time>
      </trkpt>
      <trkpt lat="44.43372" lon="6.12282">
        <ele>1485.2</ele>
        <time>2020-09-05T09:13:53.000Z</time>
      </trkpt>
      <trkpt lat="44.43357" lon="6.12272">
        <ele>1487</ele>
        <time>2020-09-05T09:13:55.000Z</time>
      </trkpt>
      <trkpt lat="44.43342" lon="6.12256">
        <ele>1488.8</ele>
        <time>2020-09-05T09:13:57.000Z</time>
      </trkpt>
      <trkpt lat="44.43327" lon="6.12241">
        <ele>1489.8</ele>
        <time>2020-09-05T09:13:59.000Z</time>
      </trkpt>
      <trkpt lat="44.43316" lon="6.12235">
        <ele>1489.4</ele>
        <time>2020-09-05T09:14:01.000Z</time>
      </trkpt>
      <trkpt lat="44.43308" lon="6.12233">
        <ele>1490.6</ele>
        <time>2020-09-05T09:14:03.000Z</time>
      </trkpt>
      <trkpt lat="44.43297" lon="6.12241">
        <ele>1492.9</ele>
        <time>2020-09-05T09:14:05.000Z</time>
      </trkpt>
      <trkpt lat="44.43288" lon="6.12246">
        <ele>1492.9</ele>
        <time>2020-09-05T09:14:06.000Z</time>
      </trkpt>
      <trkpt lat="44.43265" lon="6.12248">
        <ele>1495.7</ele>
        <time>2020-09-05T09:14:08.000Z</time>
      </trkpt>
      <trkpt lat="44.43247" lon="6.12243">
        <ele>1497.2</ele>
        <time>2020-09-05T09:14:10.000Z</time>
      </trkpt>
      <trkpt lat="44.43231" lon="6.12244">
        <ele>1498.5</ele>
        <time>2020-09-05T09:14:12.000Z</time>
      </trkpt>
      <trkpt lat="44.4322" lon="6.12255">
        <ele>1499.6</ele>
        <time>2020-09-05T09:14:14.000Z</time>
      </trkpt>
      <trkpt lat="44.43207" lon="6.12271">
        <ele>1495.2</ele>
        <time>2020-09-05T09:14:16.000Z</time>
      </trkpt>
      <trkpt lat="44.432" lon="6.12281">
        <ele>1494.6</ele>
        <time>2020-09-05T09:14:17.000Z</time>
      </trkpt>
      <trkpt lat="44.43184" lon="6.12304">
        <ele>1495.7</ele>
        <time>2020-09-05T09:14:19.000Z</time>
      </trkpt>
      <trkpt lat="44.43166" lon="6.12329">
        <ele>1499.5</ele>
        <time>2020-09-05T09:14:21.000Z</time>
      </trkpt>
      <trkpt lat="44.43157" lon="6.12339">
        <ele>1501.8</ele>
        <time>2020-09-05T09:14:22.000Z</time>
      </trkpt>
      <trkpt lat="44.43142" lon="6.12356">
        <ele>1504.3</ele>
        <time>2020-09-05T09:14:24.000Z</time>
      </trkpt>
      <trkpt lat="44.43136" lon="6.12358">
        <ele>1505.6</ele>
        <time>2020-09-05T09:14:25.000Z</time>
      </trkpt>
      <trkpt lat="44.43131" lon="6.12356">
        <ele>1505.4</ele>
        <time>2020-09-05T09:14:26.000Z</time>
      </trkpt>
      <trkpt lat="44.43128" lon="6.12339">
        <ele>1504.8</ele>
        <time>2020-09-05T09:14:28.000Z</time>
      </trkpt>
      <trkpt lat="44.43151" lon="6.12297">
        <ele>1506</ele>
        <time>2020-09-05T09:14:30.000Z</time>
      </trkpt>
      <trkpt lat="44.43165" lon="6.12277">
        <ele>1507.3</ele>
        <time>2020-09-05T09:14:31.000Z</time>
      </trkpt>
      <trkpt lat="44.43176" lon="6.12261">
        <ele>1508.1</ele>
        <time>2020-09-05T09:14:32.000Z</time>
      </trkpt>
      <trkpt lat="44.43193" lon="6.12232">
        <ele>1513.2</ele>
        <time>2020-09-05T09:14:34.000Z</time>
      </trkpt>
      <trkpt lat="44.43199" lon="6.1221">
        <ele>1517.8</ele>
        <time>2020-09-05T09:14:36.000Z</time>
      </trkpt>
      <trkpt lat="44.43202" lon="6.12202">
        <ele>1519.7</ele>
        <time>2020-09-05T09:14:37.000Z</time>
      </trkpt>
      <trkpt lat="44.43208" lon="6.12196">
        <ele>1521.8</ele>
        <time>2020-09-05T09:14:38.000Z</time>
      </trkpt>
      <trkpt lat="44.43221" lon="6.12192">
        <ele>1523.9</ele>
        <time>2020-09-05T09:14:40.000Z</time>
      </trkpt>
      <trkpt lat="44.43233" lon="6.12186">
        <ele>1527.4</ele>
        <time>2020-09-05T09:14:41.000Z</time>
      </trkpt>
      <trkpt lat="44.43251" lon="6.12176">
        <ele>1529.4</ele>
        <time>2020-09-05T09:14:42.000Z</time>
      </trkpt>
      <trkpt lat="44.43263" lon="6.12167">
        <ele>1529.1</ele>
        <time>2020-09-05T09:14:43.000Z</time>
      </trkpt>
      <trkpt lat="44.43279" lon="6.12156">
        <ele>1530.9</ele>
        <time>2020-09-05T09:14:44.000Z</time>
      </trkpt>
      <trkpt lat="44.43307" lon="6.12138">
        <ele>1534.9</ele>
        <time>2020-09-05T09:14:46.000Z</time>
      </trkpt>
      <trkpt lat="44.43317" lon="6.12131">
        <ele>1536.4</ele>
        <time>2020-09-05T09:14:47.000Z</time>
      </trkpt>
      <trkpt lat="44.43331" lon="6.12111">
        <ele>1537.9</ele>
        <time>2020-09-05T09:14:49.000Z</time>
      </trkpt>
      <trkpt lat="44.43344" lon="6.12097">
        <ele>1541.5</ele>
        <time>2020-09-05T09:14:51.000Z</time>
      </trkpt>
      <trkpt lat="44.43349" lon="6.12096">
        <ele>1541.4</ele>
        <time>2020-09-05T09:14:52.000Z</time>
      </trkpt>
      <trkpt lat="44.43366" lon="6.12104">
        <ele>1542.6</ele>
        <time>2020-09-05T09:14:54.000Z</time>
      </trkpt>
      <trkpt lat="44.43375" lon="6.12109">
        <ele>1542.3</ele>
        <time>2020-09-05T09:14:55.000Z</time>
      </trkpt>
      <trkpt lat="44.43383" lon="6.12117">
        <ele>1542.4</ele>
        <time>2020-09-05T09:14:56.000Z</time>
      </trkpt>
      <trkpt lat="44.4339" lon="6.12123">
        <ele>1544.7</ele>
        <time>2020-09-05T09:14:57.000Z</time>
      </trkpt>
      <trkpt lat="44.43394" lon="6.12125">
        <ele>1546.5</ele>
        <time>2020-09-05T09:14:58.000Z</time>
      </trkpt>
      <trkpt lat="44.43399" lon="6.12114">
        <ele>1549.9</ele>
        <time>2020-09-05T09:15:00.000Z</time>
      </trkpt>
      <trkpt lat="44.43392" lon="6.12105">
        <ele>1551.4</ele>
        <time>2020-09-05T09:15:02.000Z</time>
      </trkpt>
      <trkpt lat="44.43375" lon="6.12089">
        <ele>1552.1</ele>
        <time>2020-09-05T09:15:04.000Z</time>
      </trkpt>
      <trkpt lat="44.43354" lon="6.1207">
        <ele>1554.5</ele>
        <time>2020-09-05T09:15:06.000Z</time>
      </trkpt>
      <trkpt lat="44.43333" lon="6.12056">
        <ele>1554.6</ele>
        <time>2020-09-05T09:15:08.000Z</time>
      </trkpt>
      <trkpt lat="44.43324" lon="6.12053">
        <ele>1554.8</ele>
        <time>2020-09-05T09:15:09.000Z</time>
      </trkpt>
      <trkpt lat="44.43318" lon="6.12052">
        <ele>1554.2</ele>
        <time>2020-09-05T09:15:10.000Z</time>
      </trkpt>
      <trkpt lat="44.43308" lon="6.12061">
        <ele>1553.9</ele>
        <time>2020-09-05T09:15:12.000Z</time>
      </trkpt>
      <trkpt lat="44.433" lon="6.12068">
        <ele>1553.3</ele>
        <time>2020-09-05T09:15:13.000Z</time>
      </trkpt>
      <trkpt lat="44.43276" lon="6.1208">
        <ele>1553.8</ele>
        <time>2020-09-05T09:15:15.000Z</time>
      </trkpt>
      <trkpt lat="44.43262" lon="6.12087">
        <ele>1556.7</ele>
        <time>2020-09-05T09:15:16.000Z</time>
      </trkpt>
      <trkpt lat="44.4323" lon="6.12102">
        <ele>1557.1</ele>
        <time>2020-09-05T09:15:18.000Z</time>
      </trkpt>
      <trkpt lat="44.43213" lon="6.1211">
        <ele>1558.4</ele>
        <time>2020-09-05T09:15:19.000Z</time>
      </trkpt>
      <trkpt lat="44.43186" lon="6.12127">
        <ele>1559.9</ele>
        <time>2020-09-05T09:15:21.000Z</time>
      </trkpt>
      <trkpt lat="44.43175" lon="6.12134">
        <ele>1559.7</ele>
        <time>2020-09-05T09:15:22.000Z</time>
      </trkpt>
      <trkpt lat="44.43158" lon="6.12153">
        <ele>1560.2</ele>
        <time>2020-09-05T09:15:24.000Z</time>
      </trkpt>
      <trkpt lat="44.43149" lon="6.12172">
        <ele>1561.6</ele>
        <time>2020-09-05T09:15:25.687Z</time>
      </trkpt>
      <trkpt lat="44.4314" lon="6.12195">
        <ele>1564.8</ele>
        <time>2020-09-05T09:15:27.000Z</time>
      </trkpt>
      <trkpt lat="44.43127" lon="6.12229">
        <ele>1569.6</ele>
        <time>2020-09-05T09:15:29.000Z</time>
      </trkpt>
      <trkpt lat="44.43111" lon="6.12258">
        <ele>1571.5</ele>
        <time>2020-09-05T09:15:31.000Z</time>
      </trkpt>
      <trkpt lat="44.43104" lon="6.1227">
        <ele>1571.9</ele>
        <time>2020-09-05T09:15:32.000Z</time>
      </trkpt>
      <trkpt lat="44.43094" lon="6.12284">
        <ele>1574.6</ele>
        <time>2020-09-05T09:15:34.000Z</time>
      </trkpt>
      <trkpt lat="44.43094" lon="6.12268">
        <ele>1580.1</ele>
        <time>2020-09-05T09:15:39.000Z</time>
      </trkpt>
      <trkpt lat="44.431" lon="6.12258">
        <ele>1581.2</ele>
        <time>2020-09-05T09:15:40.000Z</time>
      </trkpt>
      <trkpt lat="44.43107" lon="6.12244">
        <ele>1582.2</ele>
        <time>2020-09-05T09:15:41.000Z</time>
      </trkpt>
      <trkpt lat="44.43113" lon="6.12229">
        <ele>1582.2</ele>
        <time>2020-09-05T09:15:42.000Z</time>
      </trkpt>
      <trkpt lat="44.4312" lon="6.12209">
        <ele>1582.7</ele>
        <time>2020-09-05T09:15:43.336Z</time>
      </trkpt>
      <trkpt lat="44.4313" lon="6.12179">
        <ele>1582.8</ele>
        <time>2020-09-05T09:15:45.000Z</time>
      </trkpt>
      <trkpt lat="44.43135" lon="6.12162">
        <ele>1582.6</ele>
        <time>2020-09-05T09:15:46.000Z</time>
      </trkpt>
      <trkpt lat="44.43141" lon="6.12146">
        <ele>1583.1</ele>
        <time>2020-09-05T09:15:47.000Z</time>
      </trkpt>
      <trkpt lat="44.43151" lon="6.12122">
        <ele>1584.2</ele>
        <time>2020-09-05T09:15:49.000Z</time>
      </trkpt>
      <trkpt lat="44.43156" lon="6.12113">
        <ele>1585.4</ele>
        <time>2020-09-05T09:15:50.000Z</time>
      </trkpt>
      <trkpt lat="44.4316" lon="6.12106">
        <ele>1584.1</ele>
        <time>2020-09-05T09:15:51.000Z</time>
      </trkpt>
      <trkpt lat="44.43162" lon="6.121">
        <ele>1585.3</ele>
        <time>2020-09-05T09:15:52.000Z</time>
      </trkpt>
      <trkpt lat="44.43166" lon="6.12093">
        <ele>1593.2</ele>
        <time>2020-09-05T09:15:56.000Z</time>
      </trkpt>
      <trkpt lat="44.43167" lon="6.12086">
        <ele>1601.1</ele>
        <time>2020-09-05T09:16:05.000Z</time>
      </trkpt>
      <trkpt lat="44.43174" lon="6.12073">
        <ele>1603.9</ele>
        <time>2020-09-05T09:16:07.000Z</time>
      </trkpt>
      <trkpt lat="44.43191" lon="6.12056">
        <ele>1603.4</ele>
        <time>2020-09-05T09:16:09.000Z</time>
      </trkpt>
      <trkpt lat="44.43214" lon="6.12039">
        <ele>1604.6</ele>
        <time>2020-09-05T09:16:11.000Z</time>
      </trkpt>
      <trkpt lat="44.43229" lon="6.1203">
        <ele>1606.2</ele>
        <time>2020-09-05T09:16:12.000Z</time>
      </trkpt>
      <trkpt lat="44.4325" lon="6.12013">
        <ele>1608.5</ele>
        <time>2020-09-05T09:16:14.000Z</time>
      </trkpt>
      <trkpt lat="44.43259" lon="6.12004">
        <ele>1609.4</ele>
        <time>2020-09-05T09:16:15.000Z</time>
      </trkpt>
      <trkpt lat="44.43264" lon="6.11997">
        <ele>1608.6</ele>
        <time>2020-09-05T09:16:16.000Z</time>
      </trkpt>
      <trkpt lat="44.43265" lon="6.11991">
        <ele>1607.6</ele>
        <time>2020-09-05T09:16:17.000Z</time>
      </trkpt>
      <trkpt lat="44.43267" lon="6.11972">
        <ele>1608.1</ele>
        <time>2020-09-05T09:16:19.000Z</time>
      </trkpt>
      <trkpt lat="44.43261" lon="6.11956">
        <ele>1610.1</ele>
        <time>2020-09-05T09:16:20.000Z</time>
      </trkpt>
      <trkpt lat="44.4325" lon="6.11927">
        <ele>1610.9</ele>
        <time>2020-09-05T09:16:22.000Z</time>
      </trkpt>
      <trkpt lat="44.43236" lon="6.11913">
        <ele>1610.7</ele>
        <time>2020-09-05T09:16:24.000Z</time>
      </trkpt>
      <trkpt lat="44.4323" lon="6.11911">
        <ele>1612.1</ele>
        <time>2020-09-05T09:16:25.000Z</time>
      </trkpt>
      <trkpt lat="44.43225" lon="6.11909">
        <ele>1614.8</ele>
        <time>2020-09-05T09:16:27.000Z</time>
      </trkpt>
      <trkpt lat="44.4322" lon="6.11915">
        <ele>1619.4</ele>
        <time>2020-09-05T09:16:35.000Z</time>
      </trkpt>
      <trkpt lat="44.43228" lon="6.11915">
        <ele>1625.7</ele>
        <time>2020-09-05T09:16:50.000Z</time>
      </trkpt>
      <trkpt lat="44.43235" lon="6.11917">
        <ele>1623.2</ele>
        <time>2020-09-05T09:16:53.000Z</time>
      </trkpt>
      <trkpt lat="44.43241" lon="6.11918">
        <ele>1622.4</ele>
        <time>2020-09-05T09:16:56.241Z</time>
      </trkpt>
      <trkpt lat="44.43245" lon="6.11912">
        <ele>1620.2</ele>
        <time>2020-09-05T09:16:59.000Z</time>
      </trkpt>
      <trkpt lat="44.43249" lon="6.11903">
        <ele>1619.5</ele>
        <time>2020-09-05T09:17:01.000Z</time>
      </trkpt>
      <trkpt lat="44.43252" lon="6.11898">
        <ele>1619.4</ele>
        <time>2020-09-05T09:17:02.274Z</time>
      </trkpt>
      <trkpt lat="44.43257" lon="6.11888">
        <ele>1618.6</ele>
        <time>2020-09-05T09:17:04.000Z</time>
      </trkpt>
      <trkpt lat="44.43259" lon="6.11882">
        <ele>1619</ele>
        <time>2020-09-05T09:17:05.000Z</time>
      </trkpt>
      <trkpt lat="44.43265" lon="6.11866">
        <ele>1618.2</ele>
        <time>2020-09-05T09:17:07.000Z</time>
      </trkpt>
      <trkpt lat="44.4327" lon="6.1186">
        <ele>1618.2</ele>
        <time>2020-09-05T09:17:08.000Z</time>
      </trkpt>
      <trkpt lat="44.43276" lon="6.11855">
        <ele>1617</ele>
        <time>2020-09-05T09:17:09.000Z</time>
      </trkpt>
      <trkpt lat="44.43285" lon="6.11844">
        <ele>1619.3</ele>
        <time>2020-09-05T09:17:11.000Z</time>
      </trkpt>
      <trkpt lat="44.43284" lon="6.11831">
        <ele>1617.5</ele>
        <time>2020-09-05T09:17:13.000Z</time>
      </trkpt>
      <trkpt lat="44.43278" lon="6.11818">
        <ele>1618.6</ele>
        <time>2020-09-05T09:17:15.000Z</time>
      </trkpt>
      <trkpt lat="44.43272" lon="6.11808">
        <ele>1617.4</ele>
        <time>2020-09-05T09:17:18.000Z</time>
      </trkpt>
      <trkpt lat="44.43267" lon="6.11801">
        <ele>1617.4</ele>
        <time>2020-09-05T09:17:20.000Z</time>
      </trkpt>
      <trkpt lat="44.43262" lon="6.11794">
        <ele>1617.8</ele>
        <time>2020-09-05T09:17:22.000Z</time>
      </trkpt>
      <trkpt lat="44.43253" lon="6.11783">
        <ele>1618.3</ele>
        <time>2020-09-05T09:17:25.000Z</time>
      </trkpt>
      <trkpt lat="44.43249" lon="6.11778">
        <ele>1618.1</ele>
        <time>2020-09-05T09:17:26.000Z</time>
      </trkpt>
      <trkpt lat="44.43248" lon="6.11762">
        <ele>1614.3</ele>
        <time>2020-09-05T09:17:29.000Z</time>
      </trkpt>
      <trkpt lat="44.43247" lon="6.11753">
        <ele>1615.1</ele>
        <time>2020-09-05T09:17:31.000Z</time>
      </trkpt>
      <trkpt lat="44.43244" lon="6.11748">
        <ele>1613.1</ele>
        <time>2020-09-05T09:17:33.000Z</time>
      </trkpt>
      <trkpt lat="44.43242" lon="6.11741">
        <ele>1608.2</ele>
        <time>2020-09-05T09:17:36.000Z</time>
      </trkpt>
      <trkpt lat="44.43237" lon="6.11734">
        <ele>1603.2</ele>
        <time>2020-09-05T09:17:40.000Z</time>
      </trkpt>
      <trkpt lat="44.43234" lon="6.11729">
        <ele>1603.1</ele>
        <time>2020-09-05T09:18:08.000Z</time>
      </trkpt>
      <trkpt lat="44.4323" lon="6.11724">
        <ele>1603.1</ele>
        <time>2020-09-05T09:18:18.943Z</time>
      </trkpt>
      <trkpt lat="44.43225" lon="6.11721">
        <ele>1603.1</ele>
        <time>2020-09-05T09:18:24.240Z</time>
      </trkpt>
      <trkpt lat="44.43221" lon="6.11714">
        <ele>1595.6</ele>
        <time>2020-09-05T09:18:28.000Z</time>
      </trkpt>
      <trkpt lat="44.43218" lon="6.11705">
        <ele>1594.2</ele>
        <time>2020-09-05T09:18:31.267Z</time>
      </trkpt>
      <trkpt lat="44.43219" lon="6.11698">
        <ele>1594.2</ele>
        <time>2020-09-05T09:18:34.482Z</time>
      </trkpt>
      <trkpt lat="44.4322" lon="6.11689">
        <ele>1583.3</ele>
        <time>2020-09-05T09:18:37.928Z</time>
      </trkpt>
      <trkpt lat="44.43223" lon="6.11679">
        <ele>1580</ele>
        <time>2020-09-05T09:18:40.000Z</time>
      </trkpt>
      <trkpt lat="44.43224" lon="6.11671">
        <ele>1580.4</ele>
        <time>2020-09-05T09:18:41.890Z</time>
      </trkpt>
      <trkpt lat="44.43226" lon="6.11663">
        <ele>1579.5</ele>
        <time>2020-09-05T09:18:43.000Z</time>
      </trkpt>
      <trkpt lat="44.43228" lon="6.11654">
        <ele>1580.1</ele>
        <time>2020-09-05T09:18:45.328Z</time>
      </trkpt>
      <trkpt lat="44.43228" lon="6.11646">
        <ele>1578</ele>
        <time>2020-09-05T09:18:46.610Z</time>
      </trkpt>
      <trkpt lat="44.43227" lon="6.11631">
        <ele>1575.5</ele>
        <time>2020-09-05T09:18:48.000Z</time>
      </trkpt>
      <trkpt lat="44.43224" lon="6.11607">
        <ele>1575.3</ele>
        <time>2020-09-05T09:18:49.000Z</time>
      </trkpt>
      <trkpt lat="44.43221" lon="6.11579">
        <ele>1571.6</ele>
        <time>2020-09-05T09:18:51.000Z</time>
      </trkpt>
      <trkpt lat="44.43216" lon="6.11543">
        <ele>1570.8</ele>
        <time>2020-09-05T09:18:53.000Z</time>
      </trkpt>
      <trkpt lat="44.43211" lon="6.11525">
        <ele>1567.7</ele>
        <time>2020-09-05T09:18:55.000Z</time>
      </trkpt>
      <trkpt lat="44.4321" lon="6.11518">
        <ele>1564.4</ele>
        <time>2020-09-05T09:18:56.000Z</time>
      </trkpt>
      <trkpt lat="44.43208" lon="6.11502">
        <ele>1559.8</ele>
        <time>2020-09-05T09:18:58.000Z</time>
      </trkpt>
      <trkpt lat="44.43207" lon="6.11493">
        <ele>1558.2</ele>
        <time>2020-09-05T09:18:59.000Z</time>
      </trkpt>
      <trkpt lat="44.43206" lon="6.11484">
        <ele>1556.9</ele>
        <time>2020-09-05T09:19:00.000Z</time>
      </trkpt>
      <trkpt lat="44.43205" lon="6.11469">
        <ele>1557.2</ele>
        <time>2020-09-05T09:19:02.000Z</time>
      </trkpt>
      <trkpt lat="44.43203" lon="6.11458">
        <ele>1555</ele>
        <time>2020-09-05T09:19:04.635Z</time>
      </trkpt>
      <trkpt lat="44.43203" lon="6.11447">
        <ele>1552.6</ele>
        <time>2020-09-05T09:19:07.000Z</time>
      </trkpt>
      <trkpt lat="44.432" lon="6.11441">
        <ele>1547</ele>
        <time>2020-09-05T09:19:09.935Z</time>
      </trkpt>
      <trkpt lat="44.43195" lon="6.11439">
        <ele>1546.5</ele>
        <time>2020-09-05T09:19:12.000Z</time>
      </trkpt>
      <trkpt lat="44.4319" lon="6.1143">
        <ele>1545.4</ele>
        <time>2020-09-05T09:19:14.000Z</time>
      </trkpt>
      <trkpt lat="44.43188" lon="6.11423">
        <ele>1545.6</ele>
        <time>2020-09-05T09:19:15.000Z</time>
      </trkpt>
      <trkpt lat="44.43184" lon="6.11404">
        <ele>1543.8</ele>
        <time>2020-09-05T09:19:17.000Z</time>
      </trkpt>
      <trkpt lat="44.43183" lon="6.11393">
        <ele>1543.9</ele>
        <time>2020-09-05T09:19:18.000Z</time>
      </trkpt>
      <trkpt lat="44.43182" lon="6.11383">
        <ele>1543.3</ele>
        <time>2020-09-05T09:19:19.000Z</time>
      </trkpt>
      <trkpt lat="44.4318" lon="6.11374">
        <ele>1542.8</ele>
        <time>2020-09-05T09:19:20.970Z</time>
      </trkpt>
      <trkpt lat="44.43175" lon="6.11368">
        <ele>1541.3</ele>
        <time>2020-09-05T09:19:23.000Z</time>
      </trkpt>
      <trkpt lat="44.43172" lon="6.11363">
        <ele>1540.5</ele>
        <time>2020-09-05T09:19:24.000Z</time>
      </trkpt>
      <trkpt lat="44.43169" lon="6.11357">
        <ele>1540.6</ele>
        <time>2020-09-05T09:19:25.288Z</time>
      </trkpt>
      <trkpt lat="44.43165" lon="6.11348">
        <ele>1540</ele>
        <time>2020-09-05T09:19:27.747Z</time>
      </trkpt>
      <trkpt lat="44.43164" lon="6.11341">
        <ele>1539.3</ele>
        <time>2020-09-05T09:19:29.000Z</time>
      </trkpt>
      <trkpt lat="44.43159" lon="6.11328">
        <ele>1533.6</ele>
        <time>2020-09-05T09:19:31.000Z</time>
      </trkpt>
      <trkpt lat="44.43157" lon="6.11316">
        <ele>1532.7</ele>
        <time>2020-09-05T09:19:34.174Z</time>
      </trkpt>
      <trkpt lat="44.43153" lon="6.11308">
        <ele>1531.3</ele>
        <time>2020-09-05T09:19:35.000Z</time>
      </trkpt>
      <trkpt lat="44.43148" lon="6.11301">
        <ele>1530</ele>
        <time>2020-09-05T09:19:37.000Z</time>
      </trkpt>
      <trkpt lat="44.43144" lon="6.11294">
        <ele>1530</ele>
        <time>2020-09-05T09:19:38.000Z</time>
      </trkpt>
      <trkpt lat="44.43141" lon="6.11289">
        <ele>1526.2</ele>
        <time>2020-09-05T09:19:39.000Z</time>
      </trkpt>
      <trkpt lat="44.43136" lon="6.11283">
        <ele>1525.8</ele>
        <time>2020-09-05T09:19:41.848Z</time>
      </trkpt>
      <trkpt lat="44.43132" lon="6.11279">
        <ele>1524.1</ele>
        <time>2020-09-05T09:19:43.000Z</time>
      </trkpt>
      <trkpt lat="44.43127" lon="6.1127">
        <ele>1523.6</ele>
        <time>2020-09-05T09:19:44.696Z</time>
      </trkpt>
      <trkpt lat="44.43124" lon="6.11265">
        <ele>1522.9</ele>
        <time>2020-09-05T09:19:46.177Z</time>
      </trkpt>
      <trkpt lat="44.43118" lon="6.11259">
        <ele>1519.6</ele>
        <time>2020-09-05T09:19:48.656Z</time>
      </trkpt>
      <trkpt lat="44.43116" lon="6.11254">
        <ele>1517.1</ele>
        <time>2020-09-05T09:19:50.992Z</time>
      </trkpt>
      <trkpt lat="44.43115" lon="6.11248">
        <ele>1511.7</ele>
        <time>2020-09-05T09:19:52.000Z</time>
      </trkpt>
      <trkpt lat="44.4311" lon="6.11231">
        <ele>1512.9</ele>
        <time>2020-09-05T09:19:55.000Z</time>
      </trkpt>
      <trkpt lat="44.43106" lon="6.11219">
        <ele>1513.3</ele>
        <time>2020-09-05T09:19:58.000Z</time>
      </trkpt>
      <trkpt lat="44.43098" lon="6.11211">
        <ele>1513.8</ele>
        <time>2020-09-05T09:20:01.000Z</time>
      </trkpt>
      <trkpt lat="44.43094" lon="6.11207">
        <ele>1519.4</ele>
        <time>2020-09-05T09:20:46.000Z</time>
      </trkpt>
      <trkpt lat="44.43089" lon="6.11205">
        <ele>1520.6</ele>
        <time>2020-09-05T09:20:53.359Z</time>
      </trkpt>
      <trkpt lat="44.43084" lon="6.11206">
        <ele>1520</ele>
        <time>2020-09-05T09:20:59.000Z</time>
      </trkpt>
      <trkpt lat="44.43082" lon="6.11194">
        <ele>1513.1</ele>
        <time>2020-09-05T09:22:40.008Z</time>
      </trkpt>
      <trkpt lat="44.4308" lon="6.11188">
        <ele>1510.4</ele>
        <time>2020-09-05T09:22:42.526Z</time>
      </trkpt>
      <trkpt lat="44.43082" lon="6.11181">
        <ele>1510.6</ele>
        <time>2020-09-05T09:22:45.000Z</time>
      </trkpt>
      <trkpt lat="44.43078" lon="6.11147">
        <ele>1505.6</ele>
        <time>2020-09-05T09:22:48.000Z</time>
      </trkpt>
      <trkpt lat="44.43075" lon="6.11131">
        <ele>1504.7</ele>
        <time>2020-09-05T09:22:49.000Z</time>
      </trkpt>
      <trkpt lat="44.4307" lon="6.11118">
        <ele>1504.9</ele>
        <time>2020-09-05T09:22:50.000Z</time>
      </trkpt>
      <trkpt lat="44.43062" lon="6.11096">
        <ele>1505.4</ele>
        <time>2020-09-05T09:22:52.000Z</time>
      </trkpt>
      <trkpt lat="44.4306" lon="6.1109">
        <ele>1505.6</ele>
        <time>2020-09-05T09:22:53.000Z</time>
      </trkpt>
      <trkpt lat="44.43059" lon="6.11083">
        <ele>1504.6</ele>
        <time>2020-09-05T09:22:56.000Z</time>
      </trkpt>
      <trkpt lat="44.43058" lon="6.11069">
        <ele>1501</ele>
        <time>2020-09-05T09:22:59.000Z</time>
      </trkpt>
      <trkpt lat="44.43055" lon="6.11056">
        <ele>1501.1</ele>
        <time>2020-09-05T09:23:01.000Z</time>
      </trkpt>
      <trkpt lat="44.4305" lon="6.11049">
        <ele>1499.8</ele>
        <time>2020-09-05T09:23:02.000Z</time>
      </trkpt>
      <trkpt lat="44.43046" lon="6.11044">
        <ele>1500.1</ele>
        <time>2020-09-05T09:23:03.000Z</time>
      </trkpt>
      <trkpt lat="44.43043" lon="6.11035">
        <ele>1500.2</ele>
        <time>2020-09-05T09:23:05.000Z</time>
      </trkpt>
      <trkpt lat="44.43039" lon="6.11028">
        <ele>1500.7</ele>
        <time>2020-09-05T09:23:06.000Z</time>
      </trkpt>
      <trkpt lat="44.43033" lon="6.11019">
        <ele>1501.2</ele>
        <time>2020-09-05T09:23:07.000Z</time>
      </trkpt>
      <trkpt lat="44.43021" lon="6.11004">
        <ele>1501.1</ele>
        <time>2020-09-05T09:23:09.000Z</time>
      </trkpt>
      <trkpt lat="44.43007" lon="6.10991">
        <ele>1501.3</ele>
        <time>2020-09-05T09:23:11.000Z</time>
      </trkpt>
      <trkpt lat="44.42992" lon="6.10977">
        <ele>1501.9</ele>
        <time>2020-09-05T09:23:13.000Z</time>
      </trkpt>
      <trkpt lat="44.42987" lon="6.1097">
        <ele>1502.3</ele>
        <time>2020-09-05T09:23:14.000Z</time>
      </trkpt>
      <trkpt lat="44.42977" lon="6.10953">
        <ele>1503.7</ele>
        <time>2020-09-05T09:23:16.000Z</time>
      </trkpt>
      <trkpt lat="44.42973" lon="6.10945">
        <ele>1502.1</ele>
        <time>2020-09-05T09:23:17.000Z</time>
      </trkpt>
      <trkpt lat="44.42965" lon="6.1093">
        <ele>1502.3</ele>
        <time>2020-09-05T09:23:19.000Z</time>
      </trkpt>
      <trkpt lat="44.42962" lon="6.10923">
        <ele>1502.5</ele>
        <time>2020-09-05T09:23:20.000Z</time>
      </trkpt>
      <trkpt lat="44.42954" lon="6.10905">
        <ele>1503</ele>
        <time>2020-09-05T09:23:22.000Z</time>
      </trkpt>
      <trkpt lat="44.42951" lon="6.10896">
        <ele>1502.8</ele>
        <time>2020-09-05T09:23:23.000Z</time>
      </trkpt>
      <trkpt lat="44.42947" lon="6.10881">
        <ele>1503.5</ele>
        <time>2020-09-05T09:23:25.000Z</time>
      </trkpt>
      <trkpt lat="44.42944" lon="6.10874">
        <ele>1503.4</ele>
        <time>2020-09-05T09:23:26.000Z</time>
      </trkpt>
      <trkpt lat="44.42933" lon="6.10859">
        <ele>1506.4</ele>
        <time>2020-09-05T09:23:28.000Z</time>
      </trkpt>
      <trkpt lat="44.42927" lon="6.10852">
        <ele>1506.2</ele>
        <time>2020-09-05T09:23:29.000Z</time>
      </trkpt>
      <trkpt lat="44.42919" lon="6.10839">
        <ele>1506.7</ele>
        <time>2020-09-05T09:23:31.000Z</time>
      </trkpt>
      <trkpt lat="44.42916" lon="6.10831">
        <ele>1506.7</ele>
        <time>2020-09-05T09:23:32.000Z</time>
      </trkpt>
      <trkpt lat="44.42908" lon="6.10818">
        <ele>1506.7</ele>
        <time>2020-09-05T09:23:34.000Z</time>
      </trkpt>
      <trkpt lat="44.42899" lon="6.10806">
        <ele>1503</ele>
        <time>2020-09-05T09:23:36.000Z</time>
      </trkpt>
      <trkpt lat="44.42895" lon="6.10799">
        <ele>1502.5</ele>
        <time>2020-09-05T09:23:37.000Z</time>
      </trkpt>
      <trkpt lat="44.42887" lon="6.10786">
        <ele>1501.2</ele>
        <time>2020-09-05T09:23:39.000Z</time>
      </trkpt>
      <trkpt lat="44.42881" lon="6.10779">
        <ele>1500.5</ele>
        <time>2020-09-05T09:23:40.000Z</time>
      </trkpt>
      <trkpt lat="44.42875" lon="6.10772">
        <ele>1500.9</ele>
        <time>2020-09-05T09:23:41.000Z</time>
      </trkpt>
      <trkpt lat="44.42862" lon="6.10763">
        <ele>1501.5</ele>
        <time>2020-09-05T09:23:43.000Z</time>
      </trkpt>
      <trkpt lat="44.42856" lon="6.10752">
        <ele>1502.6</ele>
        <time>2020-09-05T09:23:49.000Z</time>
      </trkpt>
      <trkpt lat="44.42852" lon="6.10744">
        <ele>1504</ele>
        <time>2020-09-05T09:23:51.000Z</time>
      </trkpt>
      <trkpt lat="44.42848" lon="6.10738">
        <ele>1505.4</ele>
        <time>2020-09-05T09:23:53.000Z</time>
      </trkpt>
      <trkpt lat="44.42847" lon="6.10729">
        <ele>1504.3</ele>
        <time>2020-09-05T09:23:55.309Z</time>
      </trkpt>
      <trkpt lat="44.42845" lon="6.10716">
        <ele>1504.4</ele>
        <time>2020-09-05T09:23:57.000Z</time>
      </trkpt>
      <trkpt lat="44.42845" lon="6.10706">
        <ele>1504.6</ele>
        <time>2020-09-05T09:23:59.000Z</time>
      </trkpt>
      <trkpt lat="44.42844" lon="6.10698">
        <ele>1507.8</ele>
        <time>2020-09-05T09:24:02.000Z</time>
      </trkpt>
      <trkpt lat="44.42844" lon="6.1069">
        <ele>1510.8</ele>
        <time>2020-09-05T09:24:09.000Z</time>
      </trkpt>
      <trkpt lat="44.4284" lon="6.1068">
        <ele>1512.9</ele>
        <time>2020-09-05T09:24:13.000Z</time>
      </trkpt>
      <trkpt lat="44.42838" lon="6.10669">
        <ele>1513.5</ele>
        <time>2020-09-05T09:24:16.000Z</time>
      </trkpt>
      <trkpt lat="44.42838" lon="6.10659">
        <ele>1517.3</ele>
        <time>2020-09-05T09:24:19.000Z</time>
      </trkpt>
      <trkpt lat="44.42835" lon="6.10654">
        <ele>1519.1</ele>
        <time>2020-09-05T09:24:26.000Z</time>
      </trkpt>
      <trkpt lat="44.42834" lon="6.10647">
        <ele>1520</ele>
        <time>2020-09-05T09:24:34.626Z</time>
      </trkpt>
      <trkpt lat="44.42832" lon="6.10639">
        <ele>1522.9</ele>
        <time>2020-09-05T09:24:38.000Z</time>
      </trkpt>
      <trkpt lat="44.42832" lon="6.1063">
        <ele>1525.8</ele>
        <time>2020-09-05T09:24:48.000Z</time>
      </trkpt>
      <trkpt lat="44.4283" lon="6.10624">
        <ele>1527.3</ele>
        <time>2020-09-05T09:24:51.000Z</time>
      </trkpt>
      <trkpt lat="44.42827" lon="6.10619">
        <ele>1534.6</ele>
        <time>2020-09-05T09:25:10.024Z</time>
      </trkpt>
      <trkpt lat="44.42825" lon="6.10612">
        <ele>1533.6</ele>
        <time>2020-09-05T09:25:12.000Z</time>
      </trkpt>
      <trkpt lat="44.42826" lon="6.10603">
        <ele>1534.4</ele>
        <time>2020-09-05T09:25:16.000Z</time>
      </trkpt>
      <trkpt lat="44.42827" lon="6.10597">
        <ele>1534.6</ele>
        <time>2020-09-05T09:25:21.000Z</time>
      </trkpt>
      <trkpt lat="44.42828" lon="6.10589">
        <ele>1532.6</ele>
        <time>2020-09-05T09:25:47.419Z</time>
      </trkpt>
      <trkpt lat="44.4283" lon="6.10583">
        <ele>1534.7</ele>
        <time>2020-09-05T09:25:49.000Z</time>
      </trkpt>
      <trkpt lat="44.42833" lon="6.10578">
        <ele>1535.2</ele>
        <time>2020-09-05T09:25:51.000Z</time>
      </trkpt>
      <trkpt lat="44.42837" lon="6.10564">
        <ele>1533.6</ele>
        <time>2020-09-05T09:25:54.000Z</time>
      </trkpt>
      <trkpt lat="44.4284" lon="6.10558">
        <ele>1532.4</ele>
        <time>2020-09-05T09:25:56.000Z</time>
      </trkpt>
      <trkpt lat="44.42843" lon="6.10551">
        <ele>1531.6</ele>
        <time>2020-09-05T09:25:58.000Z</time>
      </trkpt>
      <trkpt lat="44.42847" lon="6.10539">
        <ele>1528.5</ele>
        <time>2020-09-05T09:26:02.000Z</time>
      </trkpt>
      <trkpt lat="44.42849" lon="6.10528">
        <ele>1527.4</ele>
        <time>2020-09-05T09:26:05.000Z</time>
      </trkpt>
      <trkpt lat="44.42852" lon="6.1052">
        <ele>1524.9</ele>
        <time>2020-09-05T09:26:07.000Z</time>
      </trkpt>
      <trkpt lat="44.42855" lon="6.10511">
        <ele>1523.8</ele>
        <time>2020-09-05T09:26:09.000Z</time>
      </trkpt>
      <trkpt lat="44.42858" lon="6.10502">
        <ele>1523.5</ele>
        <time>2020-09-05T09:26:11.000Z</time>
      </trkpt>
      <trkpt lat="44.42862" lon="6.10494">
        <ele>1522.9</ele>
        <time>2020-09-05T09:26:13.000Z</time>
      </trkpt>
      <trkpt lat="44.42866" lon="6.1048">
        <ele>1521</ele>
        <time>2020-09-05T09:26:16.000Z</time>
      </trkpt>
      <trkpt lat="44.42868" lon="6.10464">
        <ele>1520.9</ele>
        <time>2020-09-05T09:26:19.000Z</time>
      </trkpt>
      <trkpt lat="44.42871" lon="6.10455">
        <ele>1519.8</ele>
        <time>2020-09-05T09:26:21.000Z</time>
      </trkpt>
      <trkpt lat="44.42872" lon="6.10442">
        <ele>1518.8</ele>
        <time>2020-09-05T09:26:23.000Z</time>
      </trkpt>
      <trkpt lat="44.42872" lon="6.10427">
        <ele>1519.5</ele>
        <time>2020-09-05T09:26:25.000Z</time>
      </trkpt>
      <trkpt lat="44.42872" lon="6.10412">
        <ele>1519.9</ele>
        <time>2020-09-05T09:26:28.000Z</time>
      </trkpt>
      <trkpt lat="44.42874" lon="6.10406">
        <ele>1514.3</ele>
        <time>2020-09-05T09:26:30.000Z</time>
      </trkpt>
      <trkpt lat="44.42877" lon="6.10399">
        <ele>1517.8</ele>
        <time>2020-09-05T09:26:33.000Z</time>
      </trkpt>
      <trkpt lat="44.42876" lon="6.10393">
        <ele>1516.9</ele>
        <time>2020-09-05T09:26:38.000Z</time>
      </trkpt>
      <trkpt lat="44.42876" lon="6.10382">
        <ele>1514.6</ele>
        <time>2020-09-05T09:26:48.000Z</time>
      </trkpt>
      <trkpt lat="44.42876" lon="6.10376">
        <ele>1517</ele>
        <time>2020-09-05T09:26:49.242Z</time>
      </trkpt>
      <trkpt lat="44.42874" lon="6.10369">
        <ele>1516.8</ele>
        <time>2020-09-05T09:26:51.000Z</time>
      </trkpt>
      <trkpt lat="44.42873" lon="6.10356">
        <ele>1517.8</ele>
        <time>2020-09-05T09:26:53.000Z</time>
      </trkpt>
      <trkpt lat="44.42873" lon="6.10347">
        <ele>1518.4</ele>
        <time>2020-09-05T09:26:54.000Z</time>
      </trkpt>
      <trkpt lat="44.42871" lon="6.10336">
        <ele>1518.6</ele>
        <time>2020-09-05T09:26:55.000Z</time>
      </trkpt>
      <trkpt lat="44.42867" lon="6.10323">
        <ele>1519.4</ele>
        <time>2020-09-05T09:26:56.000Z</time>
      </trkpt>
      <trkpt lat="44.4286" lon="6.10298">
        <ele>1519.5</ele>
        <time>2020-09-05T09:26:58.000Z</time>
      </trkpt>
      <trkpt lat="44.42855" lon="6.10286">
        <ele>1520.8</ele>
        <time>2020-09-05T09:26:59.000Z</time>
      </trkpt>
      <trkpt lat="44.42851" lon="6.10277">
        <ele>1519</ele>
        <time>2020-09-05T09:27:00.000Z</time>
      </trkpt>
      <trkpt lat="44.42852" lon="6.10269">
        <ele>1515.6</ele>
        <time>2020-09-05T09:27:04.000Z</time>
      </trkpt>
      <trkpt lat="44.42846" lon="6.10257">
        <ele>1515.5</ele>
        <time>2020-09-05T09:27:08.000Z</time>
      </trkpt>
      <trkpt lat="44.4284" lon="6.10247">
        <ele>1515</ele>
        <time>2020-09-05T09:27:10.000Z</time>
      </trkpt>
      <trkpt lat="44.42837" lon="6.10242">
        <ele>1515</ele>
        <time>2020-09-05T09:27:11.000Z</time>
      </trkpt>
      <trkpt lat="44.42835" lon="6.10236">
        <ele>1513.7</ele>
        <time>2020-09-05T09:27:12.000Z</time>
      </trkpt>
      <trkpt lat="44.42833" lon="6.10227">
        <ele>1512.8</ele>
        <time>2020-09-05T09:27:14.000Z</time>
      </trkpt>
      <trkpt lat="44.4283" lon="6.10219">
        <ele>1511.3</ele>
        <time>2020-09-05T09:27:16.000Z</time>
      </trkpt>
      <trkpt lat="44.42828" lon="6.10207">
        <ele>1511.3</ele>
        <time>2020-09-05T09:27:20.000Z</time>
      </trkpt>
      <trkpt lat="44.42827" lon="6.10199">
        <ele>1510</ele>
        <time>2020-09-05T09:27:22.000Z</time>
      </trkpt>
      <trkpt lat="44.42823" lon="6.10185">
        <ele>1507.9</ele>
        <time>2020-09-05T09:27:25.000Z</time>
      </trkpt>
      <trkpt lat="44.42819" lon="6.10176">
        <ele>1509</ele>
        <time>2020-09-05T09:27:27.000Z</time>
      </trkpt>
      <trkpt lat="44.42815" lon="6.10163">
        <ele>1509.4</ele>
        <time>2020-09-05T09:27:29.000Z</time>
      </trkpt>
      <trkpt lat="44.4281" lon="6.10152">
        <ele>1509.9</ele>
        <time>2020-09-05T09:27:30.000Z</time>
      </trkpt>
      <trkpt lat="44.42803" lon="6.10147">
        <ele>1512.5</ele>
        <time>2020-09-05T09:27:32.000Z</time>
      </trkpt>
      <trkpt lat="44.42796" lon="6.10143">
        <ele>1516.2</ele>
        <time>2020-09-05T09:27:34.000Z</time>
      </trkpt>
      <trkpt lat="44.42791" lon="6.1014">
        <ele>1518.6</ele>
        <time>2020-09-05T09:27:36.000Z</time>
      </trkpt>
      <trkpt lat="44.42787" lon="6.10137">
        <ele>1519.4</ele>
        <time>2020-09-05T09:27:38.000Z</time>
      </trkpt>
      <trkpt lat="44.42781" lon="6.10131">
        <ele>1519.5</ele>
        <time>2020-09-05T09:27:40.000Z</time>
      </trkpt>
      <trkpt lat="44.42773" lon="6.1012">
        <ele>1517.6</ele>
        <time>2020-09-05T09:27:42.000Z</time>
      </trkpt>
      <trkpt lat="44.4277" lon="6.10115">
        <ele>1517.9</ele>
        <time>2020-09-05T09:27:43.000Z</time>
      </trkpt>
      <trkpt lat="44.42764" lon="6.10092">
        <ele>1517.7</ele>
        <time>2020-09-05T09:27:48.221Z</time>
      </trkpt>
      <trkpt lat="44.42756" lon="6.1007">
        <ele>1511</ele>
        <time>2020-09-05T09:27:52.000Z</time>
      </trkpt>
      <trkpt lat="44.42754" lon="6.10063">
        <ele>1511.1</ele>
        <time>2020-09-05T09:27:53.000Z</time>
      </trkpt>
      <trkpt lat="44.42751" lon="6.10054">
        <ele>1506.1</ele>
        <time>2020-09-05T09:27:56.000Z</time>
      </trkpt>
      <trkpt lat="44.42747" lon="6.10039">
        <ele>1504.4</ele>
        <time>2020-09-05T09:27:58.000Z</time>
      </trkpt>
      <trkpt lat="44.42744" lon="6.10029">
        <ele>1501.6</ele>
        <time>2020-09-05T09:27:59.000Z</time>
      </trkpt>
      <trkpt lat="44.4274" lon="6.10019">
        <ele>1501.6</ele>
        <time>2020-09-05T09:28:00.000Z</time>
      </trkpt>
      <trkpt lat="44.42737" lon="6.10009">
        <ele>1502.2</ele>
        <time>2020-09-05T09:28:01.000Z</time>
      </trkpt>
      <trkpt lat="44.42734" lon="6.09998">
        <ele>1501.1</ele>
        <time>2020-09-05T09:28:02.000Z</time>
      </trkpt>
      <trkpt lat="44.42734" lon="6.09983">
        <ele>1503.3</ele>
        <time>2020-09-05T09:28:04.000Z</time>
      </trkpt>
      <trkpt lat="44.42737" lon="6.09972">
        <ele>1504.2</ele>
        <time>2020-09-05T09:28:06.000Z</time>
      </trkpt>
      <trkpt lat="44.42743" lon="6.09956">
        <ele>1503.6</ele>
        <time>2020-09-05T09:28:08.000Z</time>
      </trkpt>
      <trkpt lat="44.42746" lon="6.09938">
        <ele>1504.8</ele>
        <time>2020-09-05T09:28:10.000Z</time>
      </trkpt>
      <trkpt lat="44.42745" lon="6.0993">
        <ele>1505.4</ele>
        <time>2020-09-05T09:28:11.000Z</time>
      </trkpt>
      <trkpt lat="44.42743" lon="6.09915">
        <ele>1507.6</ele>
        <time>2020-09-05T09:28:13.000Z</time>
      </trkpt>
      <trkpt lat="44.42745" lon="6.09909">
        <ele>1505.9</ele>
        <time>2020-09-05T09:28:14.236Z</time>
      </trkpt>
      <trkpt lat="44.42749" lon="6.09905">
        <ele>1504.3</ele>
        <time>2020-09-05T09:28:16.000Z</time>
      </trkpt>
      <trkpt lat="44.42752" lon="6.09885">
        <ele>1504.4</ele>
        <time>2020-09-05T09:28:19.000Z</time>
      </trkpt>
      <trkpt lat="44.42753" lon="6.09879">
        <ele>1504.1</ele>
        <time>2020-09-05T09:28:20.000Z</time>
      </trkpt>
      <trkpt lat="44.42754" lon="6.0987">
        <ele>1504.4</ele>
        <time>2020-09-05T09:28:21.659Z</time>
      </trkpt>
      <trkpt lat="44.42754" lon="6.09862">
        <ele>1504.7</ele>
        <time>2020-09-05T09:28:23.161Z</time>
      </trkpt>
      <trkpt lat="44.42753" lon="6.09855">
        <ele>1503.1</ele>
        <time>2020-09-05T09:28:24.893Z</time>
      </trkpt>
      <trkpt lat="44.42752" lon="6.09848">
        <ele>1502.8</ele>
        <time>2020-09-05T09:28:26.000Z</time>
      </trkpt>
      <trkpt lat="44.42752" lon="6.09841">
        <ele>1503.1</ele>
        <time>2020-09-05T09:28:27.783Z</time>
      </trkpt>
      <trkpt lat="44.42752" lon="6.0983">
        <ele>1502.8</ele>
        <time>2020-09-05T09:28:30.662Z</time>
      </trkpt>
      <trkpt lat="44.42754" lon="6.09822">
        <ele>1503.1</ele>
        <time>2020-09-05T09:28:32.000Z</time>
      </trkpt>
      <trkpt lat="44.42754" lon="6.09811">
        <ele>1501.7</ele>
        <time>2020-09-05T09:28:34.000Z</time>
      </trkpt>
      <trkpt lat="44.42753" lon="6.09804">
        <ele>1502.7</ele>
        <time>2020-09-05T09:28:37.000Z</time>
      </trkpt>
      <trkpt lat="44.4275" lon="6.09795">
        <ele>1500.5</ele>
        <time>2020-09-05T09:28:39.999Z</time>
      </trkpt>
      <trkpt lat="44.42751" lon="6.09784">
        <ele>1499.9</ele>
        <time>2020-09-05T09:28:42.481Z</time>
      </trkpt>
      <trkpt lat="44.42751" lon="6.09776">
        <ele>1501.1</ele>
        <time>2020-09-05T09:28:44.000Z</time>
      </trkpt>
      <trkpt lat="44.42749" lon="6.09767">
        <ele>1500</ele>
        <time>2020-09-05T09:28:46.776Z</time>
      </trkpt>
      <trkpt lat="44.42749" lon="6.09759">
        <ele>1499.6</ele>
        <time>2020-09-05T09:28:48.000Z</time>
      </trkpt>
      <trkpt lat="44.42749" lon="6.09753">
        <ele>1498.8</ele>
        <time>2020-09-05T09:28:49.277Z</time>
      </trkpt>
      <trkpt lat="44.42754" lon="6.09732">
        <ele>1502.3</ele>
        <time>2020-09-05T09:28:51.000Z</time>
      </trkpt>
      <trkpt lat="44.42756" lon="6.09722">
        <ele>1500.5</ele>
        <time>2020-09-05T09:28:52.000Z</time>
      </trkpt>
      <trkpt lat="44.4276" lon="6.09704">
        <ele>1500.2</ele>
        <time>2020-09-05T09:28:54.000Z</time>
      </trkpt>
      <trkpt lat="44.42762" lon="6.0969">
        <ele>1500</ele>
        <time>2020-09-05T09:28:56.000Z</time>
      </trkpt>
      <trkpt lat="44.42758" lon="6.09678">
        <ele>1497.5</ele>
        <time>2020-09-05T09:28:58.000Z</time>
      </trkpt>
      <trkpt lat="44.42755" lon="6.0967">
        <ele>1496.9</ele>
        <time>2020-09-05T09:28:59.000Z</time>
      </trkpt>
      <trkpt lat="44.42759" lon="6.09662">
        <ele>1493</ele>
        <time>2020-09-05T09:29:02.000Z</time>
      </trkpt>
      <trkpt lat="44.42761" lon="6.09648">
        <ele>1491.8</ele>
        <time>2020-09-05T09:29:04.000Z</time>
      </trkpt>
      <trkpt lat="44.42762" lon="6.09641">
        <ele>1492.1</ele>
        <time>2020-09-05T09:29:05.000Z</time>
      </trkpt>
      <trkpt lat="44.4276" lon="6.09635">
        <ele>1488.6</ele>
        <time>2020-09-05T09:29:07.000Z</time>
      </trkpt>
      <trkpt lat="44.42759" lon="6.09627">
        <ele>1488</ele>
        <time>2020-09-05T09:29:10.000Z</time>
      </trkpt>
      <trkpt lat="44.42762" lon="6.0962">
        <ele>1488.5</ele>
        <time>2020-09-05T09:29:13.000Z</time>
      </trkpt>
      <trkpt lat="44.42766" lon="6.09613">
        <ele>1488.2</ele>
        <time>2020-09-05T09:29:16.000Z</time>
      </trkpt>
      <trkpt lat="44.42767" lon="6.09604">
        <ele>1485.9</ele>
        <time>2020-09-05T09:29:18.000Z</time>
      </trkpt>
      <trkpt lat="44.4277" lon="6.09588">
        <ele>1486.8</ele>
        <time>2020-09-05T09:29:20.000Z</time>
      </trkpt>
      <trkpt lat="44.42771" lon="6.09571">
        <ele>1488.6</ele>
        <time>2020-09-05T09:29:22.000Z</time>
      </trkpt>
      <trkpt lat="44.42773" lon="6.0956">
        <ele>1490.4</ele>
        <time>2020-09-05T09:29:24.000Z</time>
      </trkpt>
      <trkpt lat="44.42772" lon="6.09549">
        <ele>1491.7</ele>
        <time>2020-09-05T09:29:26.000Z</time>
      </trkpt>
      <trkpt lat="44.42773" lon="6.09537">
        <ele>1493.3</ele>
        <time>2020-09-05T09:29:29.000Z</time>
      </trkpt>
      <trkpt lat="44.42777" lon="6.09531">
        <ele>1498.5</ele>
        <time>2020-09-05T09:29:31.000Z</time>
      </trkpt>
      <trkpt lat="44.42778" lon="6.0952">
        <ele>1502.6</ele>
        <time>2020-09-05T09:29:34.000Z</time>
      </trkpt>
      <trkpt lat="44.42779" lon="6.09511">
        <ele>1503.5</ele>
        <time>2020-09-05T09:29:36.000Z</time>
      </trkpt>
      <trkpt lat="44.4278" lon="6.095">
        <ele>1507.4</ele>
        <time>2020-09-05T09:29:40.000Z</time>
      </trkpt>
      <trkpt lat="44.42782" lon="6.09488">
        <ele>1508.6</ele>
        <time>2020-09-05T09:29:44.000Z</time>
      </trkpt>
      <trkpt lat="44.42784" lon="6.09481">
        <ele>1509.8</ele>
        <time>2020-09-05T09:29:46.000Z</time>
      </trkpt>
      <trkpt lat="44.42786" lon="6.09472">
        <ele>1511.9</ele>
        <time>2020-09-05T09:29:48.000Z</time>
      </trkpt>
      <trkpt lat="44.42786" lon="6.09461">
        <ele>1513.3</ele>
        <time>2020-09-05T09:29:50.000Z</time>
      </trkpt>
      <trkpt lat="44.42786" lon="6.0945">
        <ele>1514.3</ele>
        <time>2020-09-05T09:29:52.000Z</time>
      </trkpt>
      <trkpt lat="44.42785" lon="6.09441">
        <ele>1515.2</ele>
        <time>2020-09-05T09:29:54.000Z</time>
      </trkpt>
      <trkpt lat="44.42785" lon="6.09431">
        <ele>1514.8</ele>
        <time>2020-09-05T09:29:56.000Z</time>
      </trkpt>
      <trkpt lat="44.42784" lon="6.09422">
        <ele>1514.9</ele>
        <time>2020-09-05T09:29:58.000Z</time>
      </trkpt>
      <trkpt lat="44.42786" lon="6.09405">
        <ele>1519.4</ele>
        <time>2020-09-05T09:30:01.000Z</time>
      </trkpt>
      <trkpt lat="44.42784" lon="6.09397">
        <ele>1521.9</ele>
        <time>2020-09-05T09:30:04.000Z</time>
      </trkpt>
      <trkpt lat="44.42784" lon="6.09382">
        <ele>1519.9</ele>
        <time>2020-09-05T09:30:07.000Z</time>
      </trkpt>
      <trkpt lat="44.42781" lon="6.09365">
        <ele>1518.4</ele>
        <time>2020-09-05T09:30:10.000Z</time>
      </trkpt>
      <trkpt lat="44.42775" lon="6.0935">
        <ele>1514.9</ele>
        <time>2020-09-05T09:30:13.000Z</time>
      </trkpt>
      <trkpt lat="44.42772" lon="6.09343">
        <ele>1513.8</ele>
        <time>2020-09-05T09:30:15.000Z</time>
      </trkpt>
      <trkpt lat="44.42768" lon="6.09338">
        <ele>1513.8</ele>
        <time>2020-09-05T09:30:19.000Z</time>
      </trkpt>
      <trkpt lat="44.42762" lon="6.09334">
        <ele>1510.7</ele>
        <time>2020-09-05T09:30:21.559Z</time>
      </trkpt>
      <trkpt lat="44.42758" lon="6.09331">
        <ele>1512.5</ele>
        <time>2020-09-05T09:30:23.882Z</time>
      </trkpt>
      <trkpt lat="44.42753" lon="6.09328">
        <ele>1513.3</ele>
        <time>2020-09-05T09:30:26.856Z</time>
      </trkpt>
      <trkpt lat="44.42751" lon="6.09321">
        <ele>1510.7</ele>
        <time>2020-09-05T09:30:49.016Z</time>
      </trkpt>
      <trkpt lat="44.42745" lon="6.09315">
        <ele>1504.8</ele>
        <time>2020-09-05T09:30:53.000Z</time>
      </trkpt>
      <trkpt lat="44.4274" lon="6.09311">
        <ele>1502.9</ele>
        <time>2020-09-05T09:30:56.046Z</time>
      </trkpt>
      <trkpt lat="44.42735" lon="6.09308">
        <ele>1502.1</ele>
        <time>2020-09-05T09:30:58.722Z</time>
      </trkpt>
      <trkpt lat="44.42729" lon="6.09303">
        <ele>1501.4</ele>
        <time>2020-09-05T09:31:03.000Z</time>
      </trkpt>
      <trkpt lat="44.42725" lon="6.093">
        <ele>1499.6</ele>
        <time>2020-09-05T09:31:07.000Z</time>
      </trkpt>
      <trkpt lat="44.42721" lon="6.09295">
        <ele>1498.7</ele>
        <time>2020-09-05T09:31:12.764Z</time>
      </trkpt>
      <trkpt lat="44.42718" lon="6.0929">
        <ele>1498</ele>
        <time>2020-09-05T09:31:18.321Z</time>
      </trkpt>
      <trkpt lat="44.42717" lon="6.09284">
        <ele>1494.4</ele>
        <time>2020-09-05T09:31:32.701Z</time>
      </trkpt>
      <trkpt lat="44.42714" lon="6.09279">
        <ele>1493.4</ele>
        <time>2020-09-05T09:31:43.000Z</time>
      </trkpt>
      <trkpt lat="44.42711" lon="6.09274">
        <ele>1488.4</ele>
        <time>2020-09-05T09:31:49.942Z</time>
      </trkpt>
      <trkpt lat="44.42706" lon="6.09273">
        <ele>1485.7</ele>
        <time>2020-09-05T09:31:55.000Z</time>
      </trkpt>
      <trkpt lat="44.427" lon="6.09273">
        <ele>1484.6</ele>
        <time>2020-09-05T09:32:00.000Z</time>
      </trkpt>
      <trkpt lat="44.42696" lon="6.09269">
        <ele>1481.8</ele>
        <time>2020-09-05T09:32:06.740Z</time>
      </trkpt>
      <trkpt lat="44.42692" lon="6.09264">
        <ele>1476.5</ele>
        <time>2020-09-05T09:32:12.657Z</time>
      </trkpt>
      <trkpt lat="44.42688" lon="6.09258">
        <ele>1474.1</ele>
        <time>2020-09-05T09:32:18.897Z</time>
      </trkpt>
      <trkpt lat="44.42686" lon="6.09251">
        <ele>1475.3</ele>
        <time>2020-09-05T09:32:22.779Z</time>
      </trkpt>
      <trkpt lat="44.42682" lon="6.09245">
        <ele>1470.9</ele>
        <time>2020-09-05T09:32:30.161Z</time>
      </trkpt>
      <trkpt lat="44.42678" lon="6.09242">
        <ele>1470.3</ele>
        <time>2020-09-05T09:32:38.160Z</time>
      </trkpt>
      <trkpt lat="44.42673" lon="6.09244">
        <ele>1467</ele>
        <time>2020-09-05T09:32:41.862Z</time>
      </trkpt>
      <trkpt lat="44.42668" lon="6.09245">
        <ele>1465.4</ele>
        <time>2020-09-05T09:32:46.000Z</time>
      </trkpt>
      <trkpt lat="44.42664" lon="6.0924">
        <ele>1461</ele>
        <time>2020-09-05T09:32:49.824Z</time>
      </trkpt>
      <trkpt lat="44.4266" lon="6.09236">
        <ele>1460.1</ele>
        <time>2020-09-05T09:32:52.000Z</time>
      </trkpt>
      <trkpt lat="44.4265" lon="6.0923">
        <ele>1460.1</ele>
        <time>2020-09-05T09:32:54.686Z</time>
      </trkpt>
      <trkpt lat="44.42645" lon="6.09227">
        <ele>1460.5</ele>
        <time>2020-09-05T09:32:56.174Z</time>
      </trkpt>
      <trkpt lat="44.42638" lon="6.09225">
        <ele>1455.1</ele>
        <time>2020-09-05T09:32:57.000Z</time>
      </trkpt>
      <trkpt lat="44.42633" lon="6.09221">
        <ele>1452.4</ele>
        <time>2020-09-05T09:32:59.000Z</time>
      </trkpt>
      <trkpt lat="44.42629" lon="6.09218">
        <ele>1449.4</ele>
        <time>2020-09-05T09:33:03.000Z</time>
      </trkpt>
      <trkpt lat="44.42619" lon="6.09225">
        <ele>1446.8</ele>
        <time>2020-09-05T09:33:34.000Z</time>
      </trkpt>
      <trkpt lat="44.42624" lon="6.09221">
        <ele>1446.9</ele>
        <time>2020-09-05T09:33:36.252Z</time>
      </trkpt>
      <trkpt lat="44.42619" lon="6.09212">
        <ele>1445.7</ele>
        <time>2020-09-05T09:34:20.000Z</time>
      </trkpt>
      <trkpt lat="44.42611" lon="6.092">
        <ele>1446.3</ele>
        <time>2020-09-05T09:34:23.000Z</time>
      </trkpt>
      <trkpt lat="44.42604" lon="6.092">
        <ele>1447.3</ele>
        <time>2020-09-05T09:34:26.000Z</time>
      </trkpt>
      <trkpt lat="44.42594" lon="6.09195">
        <ele>1447.8</ele>
        <time>2020-09-05T09:34:27.000Z</time>
      </trkpt>
      <trkpt lat="44.42585" lon="6.0919">
        <ele>1447.9</ele>
        <time>2020-09-05T09:34:28.000Z</time>
      </trkpt>
      <trkpt lat="44.4257" lon="6.09179">
        <ele>1444.7</ele>
        <time>2020-09-05T09:34:30.000Z</time>
      </trkpt>
      <trkpt lat="44.42564" lon="6.09177">
        <ele>1443.8</ele>
        <time>2020-09-05T09:34:31.000Z</time>
      </trkpt>
      <trkpt lat="44.42551" lon="6.09174">
        <ele>1446.1</ele>
        <time>2020-09-05T09:34:33.000Z</time>
      </trkpt>
      <trkpt lat="44.42545" lon="6.09172">
        <ele>1448.7</ele>
        <time>2020-09-05T09:34:34.000Z</time>
      </trkpt>
      <trkpt lat="44.4254" lon="6.09171">
        <ele>1450.3</ele>
        <time>2020-09-05T09:34:35.000Z</time>
      </trkpt>
      <trkpt lat="44.42527" lon="6.09165">
        <ele>1447.1</ele>
        <time>2020-09-05T09:34:37.000Z</time>
      </trkpt>
      <trkpt lat="44.42515" lon="6.09153">
        <ele>1448.1</ele>
        <time>2020-09-05T09:34:39.000Z</time>
      </trkpt>
      <trkpt lat="44.42504" lon="6.09145">
        <ele>1447.1</ele>
        <time>2020-09-05T09:34:41.000Z</time>
      </trkpt>
      <trkpt lat="44.42498" lon="6.0914">
        <ele>1444.5</ele>
        <time>2020-09-05T09:34:43.000Z</time>
      </trkpt>
      <trkpt lat="44.42491" lon="6.09134">
        <ele>1447.4</ele>
        <time>2020-09-05T09:35:30.000Z</time>
      </trkpt>
      <trkpt lat="44.42488" lon="6.09126">
        <ele>1445.3</ele>
        <time>2020-09-05T09:35:31.000Z</time>
      </trkpt>
      <trkpt lat="44.42485" lon="6.09118">
        <ele>1442.6</ele>
        <time>2020-09-05T09:35:32.000Z</time>
      </trkpt>
      <trkpt lat="44.42477" lon="6.09102">
        <ele>1440.4</ele>
        <time>2020-09-05T09:35:34.000Z</time>
      </trkpt>
      <trkpt lat="44.42472" lon="6.09092">
        <ele>1439.2</ele>
        <time>2020-09-05T09:35:35.000Z</time>
      </trkpt>
      <trkpt lat="44.42466" lon="6.09075">
        <ele>1439</ele>
        <time>2020-09-05T09:35:37.000Z</time>
      </trkpt>
      <trkpt lat="44.4246" lon="6.09072">
        <ele>1438</ele>
        <time>2020-09-05T09:35:39.000Z</time>
      </trkpt>
      <trkpt lat="44.4245" lon="6.09053">
        <ele>1440.6</ele>
        <time>2020-09-05T09:35:42.000Z</time>
      </trkpt>
      <trkpt lat="44.42439" lon="6.09037">
        <ele>1443.2</ele>
        <time>2020-09-05T09:35:44.000Z</time>
      </trkpt>
      <trkpt lat="44.42413" lon="6.09008">
        <ele>1444.4</ele>
        <time>2020-09-05T09:35:46.000Z</time>
      </trkpt>
      <trkpt lat="44.42402" lon="6.08994">
        <ele>1440.6</ele>
        <time>2020-09-05T09:35:50.000Z</time>
      </trkpt>
      <trkpt lat="44.42398" lon="6.08986">
        <ele>1442.6</ele>
        <time>2020-09-05T09:35:51.000Z</time>
      </trkpt>
      <trkpt lat="44.42393" lon="6.0897">
        <ele>1446</ele>
        <time>2020-09-05T09:35:53.000Z</time>
      </trkpt>
      <trkpt lat="44.42391" lon="6.08961">
        <ele>1445.9</ele>
        <time>2020-09-05T09:35:54.000Z</time>
      </trkpt>
      <trkpt lat="44.4239" lon="6.08952">
        <ele>1445.9</ele>
        <time>2020-09-05T09:35:55.000Z</time>
      </trkpt>
      <trkpt lat="44.42389" lon="6.08937">
        <ele>1446.4</ele>
        <time>2020-09-05T09:35:57.000Z</time>
      </trkpt>
      <trkpt lat="44.42384" lon="6.08919">
        <ele>1445.8</ele>
        <time>2020-09-05T09:35:59.000Z</time>
      </trkpt>
      <trkpt lat="44.42374" lon="6.08903">
        <ele>1443.7</ele>
        <time>2020-09-05T09:36:01.000Z</time>
      </trkpt>
      <trkpt lat="44.4237" lon="6.08897">
        <ele>1444.8</ele>
        <time>2020-09-05T09:36:02.000Z</time>
      </trkpt>
      <trkpt lat="44.42358" lon="6.08882">
        <ele>1447.7</ele>
        <time>2020-09-05T09:36:04.000Z</time>
      </trkpt>
      <trkpt lat="44.42345" lon="6.08871">
        <ele>1448.5</ele>
        <time>2020-09-05T09:36:06.000Z</time>
      </trkpt>
      <trkpt lat="44.42333" lon="6.08859">
        <ele>1449.1</ele>
        <time>2020-09-05T09:36:08.000Z</time>
      </trkpt>
      <trkpt lat="44.42318" lon="6.08852">
        <ele>1452.3</ele>
        <time>2020-09-05T09:36:10.000Z</time>
      </trkpt>
      <trkpt lat="44.42311" lon="6.08851">
        <ele>1454.1</ele>
        <time>2020-09-05T09:36:11.000Z</time>
      </trkpt>
      <trkpt lat="44.42296" lon="6.08844">
        <ele>1456.4</ele>
        <time>2020-09-05T09:36:13.000Z</time>
      </trkpt>
      <trkpt lat="44.42276" lon="6.08839">
        <ele>1458</ele>
        <time>2020-09-05T09:36:15.000Z</time>
      </trkpt>
      <trkpt lat="44.42263" lon="6.08835">
        <ele>1456.9</ele>
        <time>2020-09-05T09:36:17.000Z</time>
      </trkpt>
      <trkpt lat="44.42258" lon="6.0883">
        <ele>1456.3</ele>
        <time>2020-09-05T09:36:18.000Z</time>
      </trkpt>
      <trkpt lat="44.42247" lon="6.08824">
        <ele>1457.5</ele>
        <time>2020-09-05T09:36:20.000Z</time>
      </trkpt>
      <trkpt lat="44.42238" lon="6.08821">
        <ele>1461</ele>
        <time>2020-09-05T09:36:22.000Z</time>
      </trkpt>
      <trkpt lat="44.42227" lon="6.08824">
        <ele>1463.6</ele>
        <time>2020-09-05T09:36:24.000Z</time>
      </trkpt>
      <trkpt lat="44.42222" lon="6.08826">
        <ele>1463.9</ele>
        <time>2020-09-05T09:36:25.000Z</time>
      </trkpt>
      <trkpt lat="44.42214" lon="6.08823">
        <ele>1466.3</ele>
        <time>2020-09-05T09:36:27.000Z</time>
      </trkpt>
      <trkpt lat="44.422" lon="6.08815">
        <ele>1467.2</ele>
        <time>2020-09-05T09:36:29.000Z</time>
      </trkpt>
      <trkpt lat="44.42195" lon="6.08811">
        <ele>1466.9</ele>
        <time>2020-09-05T09:36:30.000Z</time>
      </trkpt>
      <trkpt lat="44.42186" lon="6.08805">
        <ele>1465</ele>
        <time>2020-09-05T09:36:32.000Z</time>
      </trkpt>
      <trkpt lat="44.42177" lon="6.08801">
        <ele>1465.3</ele>
        <time>2020-09-05T09:36:34.000Z</time>
      </trkpt>
      <trkpt lat="44.42171" lon="6.08797">
        <ele>1462.8</ele>
        <time>2020-09-05T09:36:36.000Z</time>
      </trkpt>
      <trkpt lat="44.42159" lon="6.08781">
        <ele>1462.4</ele>
        <time>2020-09-05T09:36:39.000Z</time>
      </trkpt>
      <trkpt lat="44.42149" lon="6.08769">
        <ele>1461.1</ele>
        <time>2020-09-05T09:36:41.000Z</time>
      </trkpt>
      <trkpt lat="44.42144" lon="6.08765">
        <ele>1460.1</ele>
        <time>2020-09-05T09:36:42.000Z</time>
      </trkpt>
      <trkpt lat="44.42132" lon="6.08755">
        <ele>1458.9</ele>
        <time>2020-09-05T09:36:44.000Z</time>
      </trkpt>
      <trkpt lat="44.42126" lon="6.08751">
        <ele>1456.7</ele>
        <time>2020-09-05T09:36:45.000Z</time>
      </trkpt>
      <trkpt lat="44.42121" lon="6.08749">
        <ele>1457.2</ele>
        <time>2020-09-05T09:36:46.000Z</time>
      </trkpt>
      <trkpt lat="44.42114" lon="6.08747">
        <ele>1453.7</ele>
        <time>2020-09-05T09:36:47.000Z</time>
      </trkpt>
      <trkpt lat="44.421" lon="6.08744">
        <ele>1450.2</ele>
        <time>2020-09-05T09:36:49.000Z</time>
      </trkpt>
      <trkpt lat="44.42085" lon="6.0874">
        <ele>1447.3</ele>
        <time>2020-09-05T09:36:51.000Z</time>
      </trkpt>
      <trkpt lat="44.42078" lon="6.08736">
        <ele>1445.1</ele>
        <time>2020-09-05T09:36:52.000Z</time>
      </trkpt>
      <trkpt lat="44.42061" lon="6.08731">
        <ele>1446.9</ele>
        <time>2020-09-05T09:36:54.000Z</time>
      </trkpt>
      <trkpt lat="44.42057" lon="6.08729">
        <ele>1446.5</ele>
        <time>2020-09-05T09:36:55.000Z</time>
      </trkpt>
      <trkpt lat="44.42053" lon="6.08726">
        <ele>1446.7</ele>
        <time>2020-09-05T09:36:56.000Z</time>
      </trkpt>
      <trkpt lat="44.42048" lon="6.08723">
        <ele>1446.3</ele>
        <time>2020-09-05T09:36:57.000Z</time>
      </trkpt>
      <trkpt lat="44.42038" lon="6.08715">
        <ele>1446.6</ele>
        <time>2020-09-05T09:36:59.000Z</time>
      </trkpt>
      <trkpt lat="44.4203" lon="6.08705">
        <ele>1448.6</ele>
        <time>2020-09-05T09:37:01.000Z</time>
      </trkpt>
      <trkpt lat="44.42022" lon="6.08704">
        <ele>1450.3</ele>
        <time>2020-09-05T09:37:03.000Z</time>
      </trkpt>
      <trkpt lat="44.42015" lon="6.087">
        <ele>1451.5</ele>
        <time>2020-09-05T09:37:05.000Z</time>
      </trkpt>
      <trkpt lat="44.42011" lon="6.08698">
        <ele>1451.4</ele>
        <time>2020-09-05T09:37:06.000Z</time>
      </trkpt>
      <trkpt lat="44.41998" lon="6.08698">
        <ele>1448.2</ele>
        <time>2020-09-05T09:37:08.000Z</time>
      </trkpt>
      <trkpt lat="44.41992" lon="6.08698">
        <ele>1448.1</ele>
        <time>2020-09-05T09:37:09.000Z</time>
      </trkpt>
      <trkpt lat="44.41987" lon="6.08701">
        <ele>1448.1</ele>
        <time>2020-09-05T09:37:10.791Z</time>
      </trkpt>
      <trkpt lat="44.41986" lon="6.08695">
        <ele>1444.1</ele>
        <time>2020-09-05T09:37:22.000Z</time>
      </trkpt>
      <trkpt lat="44.41983" lon="6.0869">
        <ele>1442.6</ele>
        <time>2020-09-05T09:37:29.000Z</time>
      </trkpt>
      <trkpt lat="44.41977" lon="6.08691">
        <ele>1443.9</ele>
        <time>2020-09-05T09:37:33.866Z</time>
      </trkpt>
      <trkpt lat="44.41964" lon="6.08685">
        <ele>1440.2</ele>
        <time>2020-09-05T09:37:37.000Z</time>
      </trkpt>
      <trkpt lat="44.41956" lon="6.08683">
        <ele>1441.7</ele>
        <time>2020-09-05T09:37:38.000Z</time>
      </trkpt>
      <trkpt lat="44.41963" lon="6.08688">
        <ele>1443.1</ele>
        <time>2020-09-05T09:37:41.000Z</time>
      </trkpt>
      <trkpt lat="44.41958" lon="6.08686">
        <ele>1442.4</ele>
        <time>2020-09-05T09:37:42.000Z</time>
      </trkpt>
      <trkpt lat="44.41946" lon="6.0868">
        <ele>1440.3</ele>
        <time>2020-09-05T09:37:43.541Z</time>
      </trkpt>
      <trkpt lat="44.41938" lon="6.08675">
        <ele>1438.6</ele>
        <time>2020-09-05T09:37:44.837Z</time>
      </trkpt>
      <trkpt lat="44.41929" lon="6.08668">
        <ele>1434.5</ele>
        <time>2020-09-05T09:37:46.535Z</time>
      </trkpt>
      <trkpt lat="44.41921" lon="6.08663">
        <ele>1433.4</ele>
        <time>2020-09-05T09:37:48.000Z</time>
      </trkpt>
      <trkpt lat="44.41911" lon="6.08657">
        <ele>1430.6</ele>
        <time>2020-09-05T09:37:50.000Z</time>
      </trkpt>
      <trkpt lat="44.41901" lon="6.08655">
        <ele>1429.3</ele>
        <time>2020-09-05T09:37:53.000Z</time>
      </trkpt>
      <trkpt lat="44.41896" lon="6.08654">
        <ele>1428.1</ele>
        <time>2020-09-05T09:37:54.732Z</time>
      </trkpt>
      <trkpt lat="44.41888" lon="6.08653">
        <ele>1427.7</ele>
        <time>2020-09-05T09:37:57.175Z</time>
      </trkpt>
      <trkpt lat="44.41882" lon="6.08656">
        <ele>1427.2</ele>
        <time>2020-09-05T09:37:59.000Z</time>
      </trkpt>
      <trkpt lat="44.41876" lon="6.08655">
        <ele>1426.4</ele>
        <time>2020-09-05T09:38:01.123Z</time>
      </trkpt>
      <trkpt lat="44.41868" lon="6.08653">
        <ele>1425.6</ele>
        <time>2020-09-05T09:38:03.000Z</time>
      </trkpt>
      <trkpt lat="44.41861" lon="6.08651">
        <ele>1424.1</ele>
        <time>2020-09-05T09:38:04.745Z</time>
      </trkpt>
      <trkpt lat="44.41857" lon="6.0865">
        <ele>1425.1</ele>
        <time>2020-09-05T09:38:06.106Z</time>
      </trkpt>
      <trkpt lat="44.4185" lon="6.08649">
        <ele>1423.4</ele>
        <time>2020-09-05T09:38:08.844Z</time>
      </trkpt>
      <trkpt lat="44.41845" lon="6.08651">
        <ele>1422.5</ele>
        <time>2020-09-05T09:38:12.448Z</time>
      </trkpt>
      <trkpt lat="44.4184" lon="6.0865">
        <ele>1419.9</ele>
        <time>2020-09-05T09:38:18.000Z</time>
      </trkpt>
      <trkpt lat="44.41837" lon="6.08644">
        <ele>1423.7</ele>
        <time>2020-09-05T09:40:49.000Z</time>
      </trkpt>
      <trkpt lat="44.41833" lon="6.0864">
        <ele>1423</ele>
        <time>2020-09-05T09:42:19.000Z</time>
      </trkpt>
      <trkpt lat="44.41836" lon="6.08632">
        <ele>1413.9</ele>
        <time>2020-09-05T09:42:34.000Z</time>
      </trkpt>
      <trkpt lat="44.41857" lon="6.08628">
        <ele>1416.6</ele>
        <time>2020-09-05T09:42:36.000Z</time>
      </trkpt>
      <trkpt lat="44.41866" lon="6.08627">
        <ele>1416.8</ele>
        <time>2020-09-05T09:42:37.000Z</time>
      </trkpt>
      <trkpt lat="44.41879" lon="6.08627">
        <ele>1414.2</ele>
        <time>2020-09-05T09:42:39.000Z</time>
      </trkpt>
      <trkpt lat="44.41885" lon="6.08626">
        <ele>1412.5</ele>
        <time>2020-09-05T09:42:40.000Z</time>
      </trkpt>
      <trkpt lat="44.4189" lon="6.08621">
        <ele>1412.3</ele>
        <time>2020-09-05T09:42:41.316Z</time>
      </trkpt>
      <trkpt lat="44.41895" lon="6.08608">
        <ele>1410.7</ele>
        <time>2020-09-05T09:42:43.000Z</time>
      </trkpt>
      <trkpt lat="44.41903" lon="6.08596">
        <ele>1409.6</ele>
        <time>2020-09-05T09:42:45.000Z</time>
      </trkpt>
      <trkpt lat="44.41908" lon="6.08593">
        <ele>1407.8</ele>
        <time>2020-09-05T09:42:46.000Z</time>
      </trkpt>
      <trkpt lat="44.41913" lon="6.08592">
        <ele>1405.5</ele>
        <time>2020-09-05T09:42:47.000Z</time>
      </trkpt>
      <trkpt lat="44.41925" lon="6.08587">
        <ele>1404.6</ele>
        <time>2020-09-05T09:42:49.000Z</time>
      </trkpt>
      <trkpt lat="44.4193" lon="6.08584">
        <ele>1404.5</ele>
        <time>2020-09-05T09:42:50.000Z</time>
      </trkpt>
      <trkpt lat="44.41943" lon="6.08582">
        <ele>1402.3</ele>
        <time>2020-09-05T09:42:52.000Z</time>
      </trkpt>
      <trkpt lat="44.41953" lon="6.08579">
        <ele>1402.4</ele>
        <time>2020-09-05T09:42:54.000Z</time>
      </trkpt>
      <trkpt lat="44.41961" lon="6.08579">
        <ele>1400.9</ele>
        <time>2020-09-05T09:42:56.000Z</time>
      </trkpt>
      <trkpt lat="44.41973" lon="6.08583">
        <ele>1399.1</ele>
        <time>2020-09-05T09:42:58.000Z</time>
      </trkpt>
      <trkpt lat="44.41978" lon="6.08583">
        <ele>1399.7</ele>
        <time>2020-09-05T09:42:59.000Z</time>
      </trkpt>
      <trkpt lat="44.41989" lon="6.08577">
        <ele>1398.3</ele>
        <time>2020-09-05T09:43:01.000Z</time>
      </trkpt>
      <trkpt lat="44.41994" lon="6.08573">
        <ele>1396.9</ele>
        <time>2020-09-05T09:43:02.000Z</time>
      </trkpt>
      <trkpt lat="44.42006" lon="6.0857">
        <ele>1392.2</ele>
        <time>2020-09-05T09:43:04.000Z</time>
      </trkpt>
      <trkpt lat="44.42012" lon="6.08569">
        <ele>1392.6</ele>
        <time>2020-09-05T09:43:05.000Z</time>
      </trkpt>
      <trkpt lat="44.42019" lon="6.08571">
        <ele>1392.7</ele>
        <time>2020-09-05T09:43:06.000Z</time>
      </trkpt>
    </trkseg>
  </trk>
  <trk>
    <name><![CDATA[col de blaux curban_2]]></name>
    <trkseg>
      <trkpt lat="44.42019" lon="6.08571">
        <ele>1392.7</ele>
        <time>2020-09-05T09:43:06.000Z</time>
      </trkpt>
      <trkpt lat="44.42034" lon="6.08579">
        <ele>1389.2</ele>
        <time>2020-09-05T09:43:08.000Z</time>
      </trkpt>
      <trkpt lat="44.4204" lon="6.08576">
        <ele>1388</ele>
        <time>2020-09-05T09:43:10.000Z</time>
      </trkpt>
      <trkpt lat="44.42037" lon="6.0857">
        <ele>1388.2</ele>
        <time>2020-09-05T09:43:11.000Z</time>
      </trkpt>
      <trkpt lat="44.42051" lon="6.08564">
        <ele>1386.2</ele>
        <time>2020-09-05T09:43:14.000Z</time>
      </trkpt>
      <trkpt lat="44.4206" lon="6.08559">
        <ele>1385.2</ele>
        <time>2020-09-05T09:43:15.775Z</time>
      </trkpt>
      <trkpt lat="44.42065" lon="6.0855">
        <ele>1383.8</ele>
        <time>2020-09-05T09:43:19.914Z</time>
      </trkpt>
      <trkpt lat="44.42071" lon="6.08548">
        <ele>1381.2</ele>
        <time>2020-09-05T09:43:21.499Z</time>
      </trkpt>
      <trkpt lat="44.42096" lon="6.08541">
        <ele>1379.3</ele>
        <time>2020-09-05T09:43:23.000Z</time>
      </trkpt>
      <trkpt lat="44.42112" lon="6.0853">
        <ele>1380.2</ele>
        <time>2020-09-05T09:43:25.000Z</time>
      </trkpt>
      <trkpt lat="44.4212" lon="6.08524">
        <ele>1379.6</ele>
        <time>2020-09-05T09:43:26.000Z</time>
      </trkpt>
      <trkpt lat="44.42134" lon="6.08509">
        <ele>1377.1</ele>
        <time>2020-09-05T09:43:28.000Z</time>
      </trkpt>
      <trkpt lat="44.42142" lon="6.08487">
        <ele>1375.5</ele>
        <time>2020-09-05T09:43:30.000Z</time>
      </trkpt>
      <trkpt lat="44.42146" lon="6.08476">
        <ele>1375.5</ele>
        <time>2020-09-05T09:43:31.000Z</time>
      </trkpt>
      <trkpt lat="44.42147" lon="6.0846">
        <ele>1375.1</ele>
        <time>2020-09-05T09:43:33.000Z</time>
      </trkpt>
      <trkpt lat="44.42144" lon="6.08446">
        <ele>1374.1</ele>
        <time>2020-09-05T09:43:35.000Z</time>
      </trkpt>
      <trkpt lat="44.42144" lon="6.08438">
        <ele>1374.4</ele>
        <time>2020-09-05T09:43:36.000Z</time>
      </trkpt>
      <trkpt lat="44.4215" lon="6.08428">
        <ele>1372.8</ele>
        <time>2020-09-05T09:43:39.000Z</time>
      </trkpt>
      <trkpt lat="44.42154" lon="6.08423">
        <ele>1372.3</ele>
        <time>2020-09-05T09:43:41.000Z</time>
      </trkpt>
      <trkpt lat="44.42153" lon="6.08413">
        <ele>1372.5</ele>
        <time>2020-09-05T09:43:43.000Z</time>
      </trkpt>
      <trkpt lat="44.42146" lon="6.084">
        <ele>1372.6</ele>
        <time>2020-09-05T09:43:45.000Z</time>
      </trkpt>
      <trkpt lat="44.42141" lon="6.08389">
        <ele>1371.7</ele>
        <time>2020-09-05T09:43:46.000Z</time>
      </trkpt>
      <trkpt lat="44.42133" lon="6.08368">
        <ele>1371.1</ele>
        <time>2020-09-05T09:43:48.000Z</time>
      </trkpt>
      <trkpt lat="44.42129" lon="6.08361">
        <ele>1370.9</ele>
        <time>2020-09-05T09:43:49.000Z</time>
      </trkpt>
      <trkpt lat="44.42127" lon="6.08355">
        <ele>1371.7</ele>
        <time>2020-09-05T09:43:50.000Z</time>
      </trkpt>
      <trkpt lat="44.42122" lon="6.08344">
        <ele>1372.1</ele>
        <time>2020-09-05T09:43:52.000Z</time>
      </trkpt>
      <trkpt lat="44.42118" lon="6.08337">
        <ele>1372.6</ele>
        <time>2020-09-05T09:43:53.000Z</time>
      </trkpt>
      <trkpt lat="44.4211" lon="6.08322">
        <ele>1371.1</ele>
        <time>2020-09-05T09:43:55.000Z</time>
      </trkpt>
      <trkpt lat="44.42107" lon="6.08315">
        <ele>1370.8</ele>
        <time>2020-09-05T09:43:56.000Z</time>
      </trkpt>
      <trkpt lat="44.42104" lon="6.08308">
        <ele>1370.3</ele>
        <time>2020-09-05T09:43:57.000Z</time>
      </trkpt>
      <trkpt lat="44.42101" lon="6.08303">
        <ele>1370.7</ele>
        <time>2020-09-05T09:43:58.000Z</time>
      </trkpt>
      <trkpt lat="44.42099" lon="6.08297">
        <ele>1371</ele>
        <time>2020-09-05T09:43:59.000Z</time>
      </trkpt>
      <trkpt lat="44.42096" lon="6.08291">
        <ele>1366.8</ele>
        <time>2020-09-05T09:44:06.000Z</time>
      </trkpt>
      <trkpt lat="44.42093" lon="6.08285">
        <ele>1365.6</ele>
        <time>2020-09-05T09:44:09.000Z</time>
      </trkpt>
      <trkpt lat="44.42092" lon="6.08279">
        <ele>1366.7</ele>
        <time>2020-09-05T09:44:13.000Z</time>
      </trkpt>
      <trkpt lat="44.42094" lon="6.08272">
        <ele>1365.6</ele>
        <time>2020-09-05T09:44:16.000Z</time>
      </trkpt>
      <trkpt lat="44.42085" lon="6.08269">
        <ele>1367.5</ele>
        <time>2020-09-05T09:44:20.000Z</time>
      </trkpt>
      <trkpt lat="44.42073" lon="6.0827">
        <ele>1368.3</ele>
        <time>2020-09-05T09:44:23.000Z</time>
      </trkpt>
      <trkpt lat="44.42067" lon="6.08269">
        <ele>1369.2</ele>
        <time>2020-09-05T09:44:24.000Z</time>
      </trkpt>
      <trkpt lat="44.42061" lon="6.08264">
        <ele>1370.2</ele>
        <time>2020-09-05T09:44:25.000Z</time>
      </trkpt>
      <trkpt lat="44.42056" lon="6.08261">
        <ele>1370.3</ele>
        <time>2020-09-05T09:44:26.000Z</time>
      </trkpt>
      <trkpt lat="44.42051" lon="6.08257">
        <ele>1370.1</ele>
        <time>2020-09-05T09:44:27.000Z</time>
      </trkpt>
      <trkpt lat="44.42043" lon="6.08244">
        <ele>1371.1</ele>
        <time>2020-09-05T09:44:29.000Z</time>
      </trkpt>
      <trkpt lat="44.42044" lon="6.08233">
        <ele>1371.8</ele>
        <time>2020-09-05T09:44:30.000Z</time>
      </trkpt>
      <trkpt lat="44.4205" lon="6.08217">
        <ele>1372.9</ele>
        <time>2020-09-05T09:44:32.000Z</time>
      </trkpt>
      <trkpt lat="44.42051" lon="6.08206">
        <ele>1374.4</ele>
        <time>2020-09-05T09:44:34.000Z</time>
      </trkpt>
      <trkpt lat="44.4205" lon="6.08198">
        <ele>1375.4</ele>
        <time>2020-09-05T09:44:35.000Z</time>
      </trkpt>
      <trkpt lat="44.42045" lon="6.08182">
        <ele>1377.4</ele>
        <time>2020-09-05T09:44:37.000Z</time>
      </trkpt>
      <trkpt lat="44.42045" lon="6.0817">
        <ele>1379</ele>
        <time>2020-09-05T09:44:40.000Z</time>
      </trkpt>
      <trkpt lat="44.42046" lon="6.08162">
        <ele>1379.8</ele>
        <time>2020-09-05T09:44:42.000Z</time>
      </trkpt>
      <trkpt lat="44.42044" lon="6.08152">
        <ele>1383.4</ele>
        <time>2020-09-05T09:44:45.000Z</time>
      </trkpt>
      <trkpt lat="44.42042" lon="6.08144">
        <ele>1383.8</ele>
        <time>2020-09-05T09:44:47.000Z</time>
      </trkpt>
      <trkpt lat="44.42045" lon="6.08137">
        <ele>1384.6</ele>
        <time>2020-09-05T09:44:50.000Z</time>
      </trkpt>
      <trkpt lat="44.42048" lon="6.08128">
        <ele>1384.4</ele>
        <time>2020-09-05T09:44:52.000Z</time>
      </trkpt>
      <trkpt lat="44.42049" lon="6.08118">
        <ele>1385.4</ele>
        <time>2020-09-05T09:44:54.000Z</time>
      </trkpt>
      <trkpt lat="44.4205" lon="6.08109">
        <ele>1387.1</ele>
        <time>2020-09-05T09:44:56.000Z</time>
      </trkpt>
      <trkpt lat="44.42052" lon="6.08101">
        <ele>1387</ele>
        <time>2020-09-05T09:44:57.000Z</time>
      </trkpt>
      <trkpt lat="44.42056" lon="6.08084">
        <ele>1387.1</ele>
        <time>2020-09-05T09:44:59.000Z</time>
      </trkpt>
      <trkpt lat="44.4206" lon="6.08075">
        <ele>1389.8</ele>
        <time>2020-09-05T09:45:01.000Z</time>
      </trkpt>
      <trkpt lat="44.4206" lon="6.08065">
        <ele>1390.1</ele>
        <time>2020-09-05T09:45:03.000Z</time>
      </trkpt>
      <trkpt lat="44.42061" lon="6.08055">
        <ele>1388.9</ele>
        <time>2020-09-05T09:45:05.000Z</time>
      </trkpt>
      <trkpt lat="44.42062" lon="6.08042">
        <ele>1389.3</ele>
        <time>2020-09-05T09:45:09.000Z</time>
      </trkpt>
      <trkpt lat="44.42062" lon="6.08035">
        <ele>1390.4</ele>
        <time>2020-09-05T09:45:11.000Z</time>
      </trkpt>
      <trkpt lat="44.42061" lon="6.08028">
        <ele>1393.3</ele>
        <time>2020-09-05T09:45:13.000Z</time>
      </trkpt>
      <trkpt lat="44.42059" lon="6.08021">
        <ele>1400.7</ele>
        <time>2020-09-05T09:45:31.000Z</time>
      </trkpt>
      <trkpt lat="44.42058" lon="6.08012">
        <ele>1401.5</ele>
        <time>2020-09-05T09:45:34.000Z</time>
      </trkpt>
      <trkpt lat="44.42052" lon="6.07999">
        <ele>1400.8</ele>
        <time>2020-09-05T09:45:36.000Z</time>
      </trkpt>
      <trkpt lat="44.42051" lon="6.0799">
        <ele>1400.5</ele>
        <time>2020-09-05T09:45:37.000Z</time>
      </trkpt>
      <trkpt lat="44.42047" lon="6.07982">
        <ele>1401.3</ele>
        <time>2020-09-05T09:45:39.000Z</time>
      </trkpt>
      <trkpt lat="44.42043" lon="6.07978">
        <ele>1403.4</ele>
        <time>2020-09-05T09:45:41.236Z</time>
      </trkpt>
      <trkpt lat="44.42045" lon="6.07968">
        <ele>1405</ele>
        <time>2020-09-05T09:45:45.000Z</time>
      </trkpt>
      <trkpt lat="44.42044" lon="6.07961">
        <ele>1406.3</ele>
        <time>2020-09-05T09:45:50.000Z</time>
      </trkpt>
      <trkpt lat="44.42034" lon="6.07949">
        <ele>1408.3</ele>
        <time>2020-09-05T09:45:54.000Z</time>
      </trkpt>
      <trkpt lat="44.42018" lon="6.07941">
        <ele>1410.8</ele>
        <time>2020-09-05T09:45:56.000Z</time>
      </trkpt>
      <trkpt lat="44.42006" lon="6.07933">
        <ele>1412.5</ele>
        <time>2020-09-05T09:45:58.000Z</time>
      </trkpt>
      <trkpt lat="44.42002" lon="6.0793">
        <ele>1414.3</ele>
        <time>2020-09-05T09:45:59.000Z</time>
      </trkpt>
      <trkpt lat="44.41998" lon="6.07924">
        <ele>1417.2</ele>
        <time>2020-09-05T09:46:07.550Z</time>
      </trkpt>
      <trkpt lat="44.41989" lon="6.07911">
        <ele>1415.5</ele>
        <time>2020-09-05T09:46:09.000Z</time>
      </trkpt>
      <trkpt lat="44.41982" lon="6.07902">
        <ele>1414.9</ele>
        <time>2020-09-05T09:46:10.000Z</time>
      </trkpt>
      <trkpt lat="44.41975" lon="6.07895">
        <ele>1415.7</ele>
        <time>2020-09-05T09:46:11.000Z</time>
      </trkpt>
      <trkpt lat="44.4196" lon="6.07883">
        <ele>1421.8</ele>
        <time>2020-09-05T09:46:13.000Z</time>
      </trkpt>
      <trkpt lat="44.41952" lon="6.07872">
        <ele>1421.6</ele>
        <time>2020-09-05T09:46:15.000Z</time>
      </trkpt>
      <trkpt lat="44.41957" lon="6.07868">
        <ele>1423.1</ele>
        <time>2020-09-05T09:46:18.545Z</time>
      </trkpt>
      <trkpt lat="44.41951" lon="6.07861">
        <ele>1424.3</ele>
        <time>2020-09-05T09:46:22.000Z</time>
      </trkpt>
      <trkpt lat="44.41948" lon="6.07857">
        <ele>1425.8</ele>
        <time>2020-09-05T09:46:30.000Z</time>
      </trkpt>
      <trkpt lat="44.41946" lon="6.07851">
        <ele>1426</ele>
        <time>2020-09-05T09:46:35.000Z</time>
      </trkpt>
      <trkpt lat="44.41933" lon="6.0783">
        <ele>1425</ele>
        <time>2020-09-05T09:46:37.000Z</time>
      </trkpt>
      <trkpt lat="44.41927" lon="6.07823">
        <ele>1425.7</ele>
        <time>2020-09-05T09:46:38.000Z</time>
      </trkpt>
      <trkpt lat="44.41923" lon="6.07817">
        <ele>1424.6</ele>
        <time>2020-09-05T09:46:39.000Z</time>
      </trkpt>
      <trkpt lat="44.41912" lon="6.0781">
        <ele>1424.3</ele>
        <time>2020-09-05T09:46:41.000Z</time>
      </trkpt>
      <trkpt lat="44.41907" lon="6.07807">
        <ele>1424.8</ele>
        <time>2020-09-05T09:46:42.000Z</time>
      </trkpt>
      <trkpt lat="44.41903" lon="6.07803">
        <ele>1425.3</ele>
        <time>2020-09-05T09:46:43.000Z</time>
      </trkpt>
      <trkpt lat="44.41896" lon="6.07792">
        <ele>1429.5</ele>
        <time>2020-09-05T09:46:46.000Z</time>
      </trkpt>
      <trkpt lat="44.41893" lon="6.07787">
        <ele>1431.7</ele>
        <time>2020-09-05T09:46:47.000Z</time>
      </trkpt>
      <trkpt lat="44.41885" lon="6.07776">
        <ele>1429.6</ele>
        <time>2020-09-05T09:46:49.000Z</time>
      </trkpt>
      <trkpt lat="44.41877" lon="6.07763">
        <ele>1431.1</ele>
        <time>2020-09-05T09:46:51.000Z</time>
      </trkpt>
      <trkpt lat="44.41873" lon="6.07757">
        <ele>1431.7</ele>
        <time>2020-09-05T09:46:52.000Z</time>
      </trkpt>
      <trkpt lat="44.41866" lon="6.07747">
        <ele>1430.1</ele>
        <time>2020-09-05T09:46:54.000Z</time>
      </trkpt>
      <trkpt lat="44.41859" lon="6.07745">
        <ele>1429.5</ele>
        <time>2020-09-05T09:46:57.000Z</time>
      </trkpt>
      <trkpt lat="44.41852" lon="6.07736">
        <ele>1431</ele>
        <time>2020-09-05T09:46:59.000Z</time>
      </trkpt>
      <trkpt lat="44.41848" lon="6.07728">
        <ele>1431.9</ele>
        <time>2020-09-05T09:47:00.000Z</time>
      </trkpt>
      <trkpt lat="44.41838" lon="6.07714">
        <ele>1434.5</ele>
        <time>2020-09-05T09:47:02.000Z</time>
      </trkpt>
      <trkpt lat="44.41834" lon="6.07709">
        <ele>1436.8</ele>
        <time>2020-09-05T09:47:03.000Z</time>
      </trkpt>
      <trkpt lat="44.4183" lon="6.07705">
        <ele>1438.1</ele>
        <time>2020-09-05T09:47:04.000Z</time>
      </trkpt>
      <trkpt lat="44.41822" lon="6.07691">
        <ele>1443.3</ele>
        <time>2020-09-05T09:47:07.000Z</time>
      </trkpt>
      <trkpt lat="44.4181" lon="6.07679">
        <ele>1445.8</ele>
        <time>2020-09-05T09:47:09.000Z</time>
      </trkpt>
      <trkpt lat="44.41798" lon="6.07673">
        <ele>1447.4</ele>
        <time>2020-09-05T09:47:11.000Z</time>
      </trkpt>
      <trkpt lat="44.41789" lon="6.07669">
        <ele>1447.4</ele>
        <time>2020-09-05T09:47:14.000Z</time>
      </trkpt>
      <trkpt lat="44.41794" lon="6.07669">
        <ele>1447.6</ele>
        <time>2020-09-05T09:47:17.000Z</time>
      </trkpt>
      <trkpt lat="44.41785" lon="6.07666">
        <ele>1453.3</ele>
        <time>2020-09-05T09:47:23.946Z</time>
      </trkpt>
      <trkpt lat="44.41778" lon="6.07663">
        <ele>1454.9</ele>
        <time>2020-09-05T09:47:26.129Z</time>
      </trkpt>
      <trkpt lat="44.41772" lon="6.07654">
        <ele>1451.9</ele>
        <time>2020-09-05T09:47:28.580Z</time>
      </trkpt>
      <trkpt lat="44.41768" lon="6.0765">
        <ele>1450.1</ele>
        <time>2020-09-05T09:47:29.920Z</time>
      </trkpt>
      <trkpt lat="44.41762" lon="6.07638">
        <ele>1445.7</ele>
        <time>2020-09-05T09:47:32.000Z</time>
      </trkpt>
      <trkpt lat="44.41758" lon="6.07627">
        <ele>1443.6</ele>
        <time>2020-09-05T09:47:33.362Z</time>
      </trkpt>
      <trkpt lat="44.41753" lon="6.07618">
        <ele>1442.7</ele>
        <time>2020-09-05T09:47:34.724Z</time>
      </trkpt>
      <trkpt lat="44.41743" lon="6.07605">
        <ele>1440</ele>
        <time>2020-09-05T09:47:36.000Z</time>
      </trkpt>
      <trkpt lat="44.41736" lon="6.076">
        <ele>1437.5</ele>
        <time>2020-09-05T09:47:37.000Z</time>
      </trkpt>
      <trkpt lat="44.41724" lon="6.07588">
        <ele>1435.1</ele>
        <time>2020-09-05T09:47:39.000Z</time>
      </trkpt>
      <trkpt lat="44.41721" lon="6.07581">
        <ele>1435.2</ele>
        <time>2020-09-05T09:47:40.000Z</time>
      </trkpt>
      <trkpt lat="44.41719" lon="6.07574">
        <ele>1435.2</ele>
        <time>2020-09-05T09:47:41.000Z</time>
      </trkpt>
      <trkpt lat="44.41713" lon="6.07562">
        <ele>1429.4</ele>
        <time>2020-09-05T09:47:43.000Z</time>
      </trkpt>
      <trkpt lat="44.41709" lon="6.07557">
        <ele>1427.5</ele>
        <time>2020-09-05T09:47:44.000Z</time>
      </trkpt>
      <trkpt lat="44.41699" lon="6.07547">
        <ele>1425.6</ele>
        <time>2020-09-05T09:47:46.928Z</time>
      </trkpt>
      <trkpt lat="44.41696" lon="6.07537">
        <ele>1422.8</ele>
        <time>2020-09-05T09:47:48.000Z</time>
      </trkpt>
      <trkpt lat="44.41692" lon="6.07528">
        <ele>1422.5</ele>
        <time>2020-09-05T09:47:49.000Z</time>
      </trkpt>
      <trkpt lat="44.41685" lon="6.07512">
        <ele>1421.2</ele>
        <time>2020-09-05T09:47:51.000Z</time>
      </trkpt>
      <trkpt lat="44.41676" lon="6.07499">
        <ele>1420.4</ele>
        <time>2020-09-05T09:47:53.000Z</time>
      </trkpt>
      <trkpt lat="44.41672" lon="6.07493">
        <ele>1419.9</ele>
        <time>2020-09-05T09:47:54.000Z</time>
      </trkpt>
      <trkpt lat="44.41668" lon="6.07488">
        <ele>1418.2</ele>
        <time>2020-09-05T09:47:55.000Z</time>
      </trkpt>
      <trkpt lat="44.41666" lon="6.07474">
        <ele>1415.6</ele>
        <time>2020-09-05T09:47:58.000Z</time>
      </trkpt>
      <trkpt lat="44.41666" lon="6.07462">
        <ele>1414.9</ele>
        <time>2020-09-05T09:48:00.120Z</time>
      </trkpt>
      <trkpt lat="44.41668" lon="6.07452">
        <ele>1414.7</ele>
        <time>2020-09-05T09:48:02.762Z</time>
      </trkpt>
      <trkpt lat="44.41672" lon="6.07443">
        <ele>1412.7</ele>
        <time>2020-09-05T09:48:06.000Z</time>
      </trkpt>
      <trkpt lat="44.41676" lon="6.07439">
        <ele>1408.7</ele>
        <time>2020-09-05T09:48:18.000Z</time>
      </trkpt>
      <trkpt lat="44.41678" lon="6.07431">
        <ele>1405.7</ele>
        <time>2020-09-05T09:48:23.000Z</time>
      </trkpt>
      <trkpt lat="44.41681" lon="6.07425">
        <ele>1404.3</ele>
        <time>2020-09-05T09:48:26.000Z</time>
      </trkpt>
      <trkpt lat="44.41681" lon="6.07418">
        <ele>1402.4</ele>
        <time>2020-09-05T09:48:29.256Z</time>
      </trkpt>
      <trkpt lat="44.41686" lon="6.074">
        <ele>1398.8</ele>
        <time>2020-09-05T09:48:32.000Z</time>
      </trkpt>
      <trkpt lat="44.41689" lon="6.07394">
        <ele>1399</ele>
        <time>2020-09-05T09:48:33.000Z</time>
      </trkpt>
      <trkpt lat="44.41696" lon="6.07384">
        <ele>1398.9</ele>
        <time>2020-09-05T09:48:35.000Z</time>
      </trkpt>
      <trkpt lat="44.417" lon="6.07375">
        <ele>1398.4</ele>
        <time>2020-09-05T09:48:38.000Z</time>
      </trkpt>
      <trkpt lat="44.41701" lon="6.07365">
        <ele>1395.3</ele>
        <time>2020-09-05T09:48:46.000Z</time>
      </trkpt>
      <trkpt lat="44.417" lon="6.07352">
        <ele>1397.1</ele>
        <time>2020-09-05T09:48:49.000Z</time>
      </trkpt>
      <trkpt lat="44.41698" lon="6.07342">
        <ele>1397.9</ele>
        <time>2020-09-05T09:48:51.000Z</time>
      </trkpt>
      <trkpt lat="44.41695" lon="6.07328">
        <ele>1397.8</ele>
        <time>2020-09-05T09:48:54.000Z</time>
      </trkpt>
      <trkpt lat="44.41693" lon="6.07316">
        <ele>1396</ele>
        <time>2020-09-05T09:48:57.000Z</time>
      </trkpt>
      <trkpt lat="44.41689" lon="6.07309">
        <ele>1396.5</ele>
        <time>2020-09-05T09:48:59.000Z</time>
      </trkpt>
      <trkpt lat="44.41684" lon="6.07301">
        <ele>1391.7</ele>
        <time>2020-09-05T09:49:01.000Z</time>
      </trkpt>
      <trkpt lat="44.41682" lon="6.07289">
        <ele>1390.3</ele>
        <time>2020-09-05T09:49:03.000Z</time>
      </trkpt>
      <trkpt lat="44.4168" lon="6.07277">
        <ele>1389.3</ele>
        <time>2020-09-05T09:49:05.000Z</time>
      </trkpt>
      <trkpt lat="44.4168" lon="6.07269">
        <ele>1387.4</ele>
        <time>2020-09-05T09:49:07.000Z</time>
      </trkpt>
      <trkpt lat="44.41681" lon="6.07262">
        <ele>1387.3</ele>
        <time>2020-09-05T09:49:08.000Z</time>
      </trkpt>
      <trkpt lat="44.41681" lon="6.07253">
        <ele>1387.1</ele>
        <time>2020-09-05T09:49:09.000Z</time>
      </trkpt>
      <trkpt lat="44.41681" lon="6.07234">
        <ele>1385.9</ele>
        <time>2020-09-05T09:49:11.000Z</time>
      </trkpt>
      <trkpt lat="44.41679" lon="6.07226">
        <ele>1387.7</ele>
        <time>2020-09-05T09:49:13.000Z</time>
      </trkpt>
      <trkpt lat="44.41677" lon="6.07218">
        <ele>1388.1</ele>
        <time>2020-09-05T09:49:15.000Z</time>
      </trkpt>
      <trkpt lat="44.4167" lon="6.072">
        <ele>1389.9</ele>
        <time>2020-09-05T09:49:18.000Z</time>
      </trkpt>
      <trkpt lat="44.41666" lon="6.07193">
        <ele>1390.9</ele>
        <time>2020-09-05T09:49:19.000Z</time>
      </trkpt>
      <trkpt lat="44.41661" lon="6.07179">
        <ele>1389.9</ele>
        <time>2020-09-05T09:49:21.000Z</time>
      </trkpt>
      <trkpt lat="44.41658" lon="6.07173">
        <ele>1388.6</ele>
        <time>2020-09-05T09:49:22.000Z</time>
      </trkpt>
      <trkpt lat="44.41654" lon="6.07166">
        <ele>1387</ele>
        <time>2020-09-05T09:49:24.000Z</time>
      </trkpt>
      <trkpt lat="44.41647" lon="6.07154">
        <ele>1386.1</ele>
        <time>2020-09-05T09:49:27.000Z</time>
      </trkpt>
      <trkpt lat="44.4164" lon="6.07151">
        <ele>1386.5</ele>
        <time>2020-09-05T09:49:29.685Z</time>
      </trkpt>
      <trkpt lat="44.41635" lon="6.07144">
        <ele>1381.9</ele>
        <time>2020-09-05T09:49:31.000Z</time>
      </trkpt>
      <trkpt lat="44.4163" lon="6.07139">
        <ele>1381.2</ele>
        <time>2020-09-05T09:49:32.000Z</time>
      </trkpt>
      <trkpt lat="44.41618" lon="6.07131">
        <ele>1380.8</ele>
        <time>2020-09-05T09:49:34.000Z</time>
      </trkpt>
      <trkpt lat="44.41612" lon="6.0713">
        <ele>1379.8</ele>
        <time>2020-09-05T09:49:35.000Z</time>
      </trkpt>
      <trkpt lat="44.41607" lon="6.07123">
        <ele>1376.1</ele>
        <time>2020-09-05T09:49:37.759Z</time>
      </trkpt>
      <trkpt lat="44.41599" lon="6.0712">
        <ele>1372.7</ele>
        <time>2020-09-05T09:49:40.000Z</time>
      </trkpt>
      <trkpt lat="44.41591" lon="6.07119">
        <ele>1373.8</ele>
        <time>2020-09-05T09:49:42.000Z</time>
      </trkpt>
      <trkpt lat="44.41589" lon="6.07109">
        <ele>1373.7</ele>
        <time>2020-09-05T09:49:44.548Z</time>
      </trkpt>
      <trkpt lat="44.41587" lon="6.07102">
        <ele>1373.5</ele>
        <time>2020-09-05T09:49:46.050Z</time>
      </trkpt>
      <trkpt lat="44.41585" lon="6.0707">
        <ele>1370.9</ele>
        <time>2020-09-05T09:49:47.000Z</time>
      </trkpt>
      <trkpt lat="44.41583" lon="6.0705">
        <ele>1370.8</ele>
        <time>2020-09-05T09:49:48.000Z</time>
      </trkpt>
      <trkpt lat="44.41581" lon="6.07023">
        <ele>1369.5</ele>
        <time>2020-09-05T09:49:50.000Z</time>
      </trkpt>
      <trkpt lat="44.41579" lon="6.0701">
        <ele>1368.6</ele>
        <time>2020-09-05T09:49:52.000Z</time>
      </trkpt>
      <trkpt lat="44.41576" lon="6.07004">
        <ele>1368.2</ele>
        <time>2020-09-05T09:49:53.000Z</time>
      </trkpt>
      <trkpt lat="44.41571" lon="6.06992">
        <ele>1366.3</ele>
        <time>2020-09-05T09:49:55.000Z</time>
      </trkpt>
      <trkpt lat="44.4157" lon="6.06973">
        <ele>1363.8</ele>
        <time>2020-09-05T09:49:58.000Z</time>
      </trkpt>
      <trkpt lat="44.41567" lon="6.06963">
        <ele>1363.7</ele>
        <time>2020-09-05T09:50:00.040Z</time>
      </trkpt>
      <trkpt lat="44.41563" lon="6.06952">
        <ele>1361.4</ele>
        <time>2020-09-05T09:50:02.758Z</time>
      </trkpt>
      <trkpt lat="44.41556" lon="6.06939">
        <ele>1361.8</ele>
        <time>2020-09-05T09:50:05.000Z</time>
      </trkpt>
      <trkpt lat="44.41549" lon="6.06923">
        <ele>1358.4</ele>
        <time>2020-09-05T09:50:07.000Z</time>
      </trkpt>
      <trkpt lat="44.41546" lon="6.06917">
        <ele>1358</ele>
        <time>2020-09-05T09:50:08.000Z</time>
      </trkpt>
      <trkpt lat="44.41546" lon="6.0691">
        <ele>1357.4</ele>
        <time>2020-09-05T09:50:09.000Z</time>
      </trkpt>
      <trkpt lat="44.41547" lon="6.06893">
        <ele>1353.6</ele>
        <time>2020-09-05T09:50:11.000Z</time>
      </trkpt>
      <trkpt lat="44.41545" lon="6.06877">
        <ele>1353.8</ele>
        <time>2020-09-05T09:50:13.000Z</time>
      </trkpt>
      <trkpt lat="44.41551" lon="6.06869">
        <ele>1352.9</ele>
        <time>2020-09-05T09:50:16.019Z</time>
      </trkpt>
      <trkpt lat="44.41555" lon="6.0686">
        <ele>1350.8</ele>
        <time>2020-09-05T09:50:17.000Z</time>
      </trkpt>
      <trkpt lat="44.41557" lon="6.06854">
        <ele>1346.4</ele>
        <time>2020-09-05T09:50:18.000Z</time>
      </trkpt>
      <trkpt lat="44.41558" lon="6.06845">
        <ele>1343.2</ele>
        <time>2020-09-05T09:50:22.003Z</time>
      </trkpt>
      <trkpt lat="44.41561" lon="6.06835">
        <ele>1339</ele>
        <time>2020-09-05T09:50:23.000Z</time>
      </trkpt>
      <trkpt lat="44.41562" lon="6.06826">
        <ele>1338.1</ele>
        <time>2020-09-05T09:50:24.000Z</time>
      </trkpt>
      <trkpt lat="44.41563" lon="6.0682">
        <ele>1337.4</ele>
        <time>2020-09-05T09:50:25.000Z</time>
      </trkpt>
      <trkpt lat="44.41565" lon="6.06808">
        <ele>1335.4</ele>
        <time>2020-09-05T09:50:28.000Z</time>
      </trkpt>
      <trkpt lat="44.41567" lon="6.06801">
        <ele>1335.5</ele>
        <time>2020-09-05T09:50:29.929Z</time>
      </trkpt>
      <trkpt lat="44.41562" lon="6.06797">
        <ele>1331</ele>
        <time>2020-09-05T09:50:32.000Z</time>
      </trkpt>
      <trkpt lat="44.41545" lon="6.06799">
        <ele>1329.8</ele>
        <time>2020-09-05T09:50:34.000Z</time>
      </trkpt>
      <trkpt lat="44.41537" lon="6.068">
        <ele>1330.6</ele>
        <time>2020-09-05T09:50:35.000Z</time>
      </trkpt>
      <trkpt lat="44.4153" lon="6.068">
        <ele>1329.7</ele>
        <time>2020-09-05T09:50:36.000Z</time>
      </trkpt>
      <trkpt lat="44.41522" lon="6.06801">
        <ele>1329.5</ele>
        <time>2020-09-05T09:50:38.000Z</time>
      </trkpt>
      <trkpt lat="44.41516" lon="6.06807">
        <ele>1328.6</ele>
        <time>2020-09-05T09:50:41.047Z</time>
      </trkpt>
      <trkpt lat="44.41508" lon="6.06809">
        <ele>1330.2</ele>
        <time>2020-09-05T09:50:44.731Z</time>
      </trkpt>
      <trkpt lat="44.41501" lon="6.06805">
        <ele>1332.7</ele>
        <time>2020-09-05T09:50:53.000Z</time>
      </trkpt>
      <trkpt lat="44.41495" lon="6.06799">
        <ele>1333.5</ele>
        <time>2020-09-05T09:50:57.000Z</time>
      </trkpt>
      <trkpt lat="44.41487" lon="6.06797">
        <ele>1331.9</ele>
        <time>2020-09-05T09:51:01.848Z</time>
      </trkpt>
      <trkpt lat="44.41478" lon="6.06795">
        <ele>1330.5</ele>
        <time>2020-09-05T09:51:04.526Z</time>
      </trkpt>
      <trkpt lat="44.41464" lon="6.0678">
        <ele>1331.1</ele>
        <time>2020-09-05T09:51:07.000Z</time>
      </trkpt>
      <trkpt lat="44.41457" lon="6.06771">
        <ele>1330.3</ele>
        <time>2020-09-05T09:51:08.000Z</time>
      </trkpt>
      <trkpt lat="44.41446" lon="6.0676">
        <ele>1329.7</ele>
        <time>2020-09-05T09:51:10.000Z</time>
      </trkpt>
      <trkpt lat="44.41437" lon="6.06748">
        <ele>1328.7</ele>
        <time>2020-09-05T09:51:12.000Z</time>
      </trkpt>
      <trkpt lat="44.41431" lon="6.0674">
        <ele>1329.6</ele>
        <time>2020-09-05T09:51:13.000Z</time>
      </trkpt>
      <trkpt lat="44.41424" lon="6.06732">
        <ele>1329.9</ele>
        <time>2020-09-05T09:51:14.000Z</time>
      </trkpt>
      <trkpt lat="44.41406" lon="6.06718">
        <ele>1328.8</ele>
        <time>2020-09-05T09:51:16.000Z</time>
      </trkpt>
      <trkpt lat="44.41399" lon="6.06712">
        <ele>1328.3</ele>
        <time>2020-09-05T09:51:17.000Z</time>
      </trkpt>
      <trkpt lat="44.41393" lon="6.06694">
        <ele>1327.4</ele>
        <time>2020-09-05T09:51:19.000Z</time>
      </trkpt>
      <trkpt lat="44.41389" lon="6.06679">
        <ele>1325.2</ele>
        <time>2020-09-05T09:51:21.000Z</time>
      </trkpt>
      <trkpt lat="44.41383" lon="6.0667">
        <ele>1321.6</ele>
        <time>2020-09-05T09:51:24.000Z</time>
      </trkpt>
      <trkpt lat="44.41377" lon="6.06668">
        <ele>1320</ele>
        <time>2020-09-05T09:51:34.736Z</time>
      </trkpt>
      <trkpt lat="44.41371" lon="6.06659">
        <ele>1322</ele>
        <time>2020-09-05T09:51:37.370Z</time>
      </trkpt>
      <trkpt lat="44.41361" lon="6.06649">
        <ele>1322.6</ele>
        <time>2020-09-05T09:51:39.000Z</time>
      </trkpt>
      <trkpt lat="44.41352" lon="6.06642">
        <ele>1324.6</ele>
        <time>2020-09-05T09:51:41.000Z</time>
      </trkpt>
      <trkpt lat="44.41348" lon="6.06638">
        <ele>1321.4</ele>
        <time>2020-09-05T09:51:42.295Z</time>
      </trkpt>
      <trkpt lat="44.41343" lon="6.06632">
        <ele>1321</ele>
        <time>2020-09-05T09:51:44.000Z</time>
      </trkpt>
      <trkpt lat="44.41338" lon="6.06629">
        <ele>1318.6</ele>
        <time>2020-09-05T09:51:46.000Z</time>
      </trkpt>
      <trkpt lat="44.41331" lon="6.06624">
        <ele>1316.1</ele>
        <time>2020-09-05T09:51:48.000Z</time>
      </trkpt>
      <trkpt lat="44.41324" lon="6.06622">
        <ele>1319.5</ele>
        <time>2020-09-05T09:51:58.000Z</time>
      </trkpt>
      <trkpt lat="44.41319" lon="6.06614">
        <ele>1319.3</ele>
        <time>2020-09-05T09:52:03.000Z</time>
      </trkpt>
      <trkpt lat="44.41314" lon="6.06606">
        <ele>1318.8</ele>
        <time>2020-09-05T09:52:06.000Z</time>
      </trkpt>
      <trkpt lat="44.41307" lon="6.06599">
        <ele>1319.5</ele>
        <time>2020-09-05T09:52:08.000Z</time>
      </trkpt>
      <trkpt lat="44.41301" lon="6.06596">
        <ele>1318.1</ele>
        <time>2020-09-05T09:52:10.000Z</time>
      </trkpt>
      <trkpt lat="44.41287" lon="6.06587">
        <ele>1320.5</ele>
        <time>2020-09-05T09:52:13.000Z</time>
      </trkpt>
      <trkpt lat="44.41281" lon="6.06585">
        <ele>1321.5</ele>
        <time>2020-09-05T09:52:14.000Z</time>
      </trkpt>
      <trkpt lat="44.41277" lon="6.06583">
        <ele>1323.7</ele>
        <time>2020-09-05T09:52:16.000Z</time>
      </trkpt>
      <trkpt lat="44.41269" lon="6.06583">
        <ele>1324.1</ele>
        <time>2020-09-05T09:52:19.000Z</time>
      </trkpt>
      <trkpt lat="44.41255" lon="6.06581">
        <ele>1323.4</ele>
        <time>2020-09-05T09:52:22.000Z</time>
      </trkpt>
      <trkpt lat="44.41249" lon="6.06582">
        <ele>1324.3</ele>
        <time>2020-09-05T09:52:23.000Z</time>
      </trkpt>
      <trkpt lat="44.41238" lon="6.0658">
        <ele>1325.5</ele>
        <time>2020-09-05T09:52:25.000Z</time>
      </trkpt>
      <trkpt lat="44.41233" lon="6.0658">
        <ele>1325.3</ele>
        <time>2020-09-05T09:52:30.000Z</time>
      </trkpt>
      <trkpt lat="44.41228" lon="6.0658">
        <ele>1329.2</ele>
        <time>2020-09-05T09:52:34.000Z</time>
      </trkpt>
      <trkpt lat="44.41221" lon="6.06582">
        <ele>1331.6</ele>
        <time>2020-09-05T09:52:42.741Z</time>
      </trkpt>
      <trkpt lat="44.41216" lon="6.06581">
        <ele>1331.8</ele>
        <time>2020-09-05T09:52:44.000Z</time>
      </trkpt>
      <trkpt lat="44.41213" lon="6.06575">
        <ele>1330.8</ele>
        <time>2020-09-05T09:52:46.942Z</time>
      </trkpt>
      <trkpt lat="44.41211" lon="6.06567">
        <ele>1328.7</ele>
        <time>2020-09-05T09:52:49.253Z</time>
      </trkpt>
      <trkpt lat="44.41209" lon="6.06559">
        <ele>1327.6</ele>
        <time>2020-09-05T09:52:51.704Z</time>
      </trkpt>
      <trkpt lat="44.41206" lon="6.06549">
        <ele>1328.3</ele>
        <time>2020-09-05T09:52:54.000Z</time>
      </trkpt>
      <trkpt lat="44.41203" lon="6.06542">
        <ele>1327.5</ele>
        <time>2020-09-05T09:52:55.882Z</time>
      </trkpt>
      <trkpt lat="44.41201" lon="6.06535">
        <ele>1327.4</ele>
        <time>2020-09-05T09:52:56.926Z</time>
      </trkpt>
      <trkpt lat="44.412" lon="6.06529">
        <ele>1326.4</ele>
        <time>2020-09-05T09:52:58.124Z</time>
      </trkpt>
      <trkpt lat="44.41201" lon="6.06521">
        <ele>1322.9</ele>
        <time>2020-09-05T09:52:59.563Z</time>
      </trkpt>
      <trkpt lat="44.41204" lon="6.06516">
        <ele>1320.8</ele>
        <time>2020-09-05T09:53:01.120Z</time>
      </trkpt>
      <trkpt lat="44.41207" lon="6.06505">
        <ele>1320.1</ele>
        <time>2020-09-05T09:53:03.960Z</time>
      </trkpt>
      <trkpt lat="44.41212" lon="6.06493">
        <ele>1313.8</ele>
        <time>2020-09-05T09:53:08.821Z</time>
      </trkpt>
      <trkpt lat="44.41216" lon="6.06486">
        <ele>1312</ele>
        <time>2020-09-05T09:53:10.941Z</time>
      </trkpt>
      <trkpt lat="44.4122" lon="6.06479">
        <ele>1309.8</ele>
        <time>2020-09-05T09:53:12.844Z</time>
      </trkpt>
      <trkpt lat="44.41221" lon="6.06472">
        <ele>1308.7</ele>
        <time>2020-09-05T09:53:15.000Z</time>
      </trkpt>
      <trkpt lat="44.41219" lon="6.06465">
        <ele>1308.6</ele>
        <time>2020-09-05T09:53:18.000Z</time>
      </trkpt>
      <trkpt lat="44.4122" lon="6.06458">
        <ele>1307.8</ele>
        <time>2020-09-05T09:53:20.000Z</time>
      </trkpt>
      <trkpt lat="44.41221" lon="6.06448">
        <ele>1305.8</ele>
        <time>2020-09-05T09:53:23.000Z</time>
      </trkpt>
      <trkpt lat="44.41221" lon="6.06439">
        <ele>1301.9</ele>
        <time>2020-09-05T09:53:25.723Z</time>
      </trkpt>
      <trkpt lat="44.41221" lon="6.06429">
        <ele>1296.4</ele>
        <time>2020-09-05T09:53:28.602Z</time>
      </trkpt>
      <trkpt lat="44.4122" lon="6.06418">
        <ele>1294.1</ele>
        <time>2020-09-05T09:53:30.941Z</time>
      </trkpt>
      <trkpt lat="44.41219" lon="6.06411">
        <ele>1293.9</ele>
        <time>2020-09-05T09:53:32.000Z</time>
      </trkpt>
      <trkpt lat="44.41217" lon="6.064">
        <ele>1292.6</ele>
        <time>2020-09-05T09:53:33.880Z</time>
      </trkpt>
      <trkpt lat="44.41211" lon="6.06383">
        <ele>1292.7</ele>
        <time>2020-09-05T09:53:35.000Z</time>
      </trkpt>
      <trkpt lat="44.41208" lon="6.06377">
        <ele>1291.8</ele>
        <time>2020-09-05T09:53:36.000Z</time>
      </trkpt>
      <trkpt lat="44.41205" lon="6.06368">
        <ele>1291.5</ele>
        <time>2020-09-05T09:53:37.464Z</time>
      </trkpt>
      <trkpt lat="44.41201" lon="6.06361">
        <ele>1290.8</ele>
        <time>2020-09-05T09:53:39.179Z</time>
      </trkpt>
      <trkpt lat="44.41195" lon="6.06349">
        <ele>1288.5</ele>
        <time>2020-09-05T09:53:42.188Z</time>
      </trkpt>
      <trkpt lat="44.41188" lon="6.06345">
        <ele>1287.6</ele>
        <time>2020-09-05T09:53:44.026Z</time>
      </trkpt>
      <trkpt lat="44.4118" lon="6.06336">
        <ele>1289.6</ele>
        <time>2020-09-05T09:53:45.000Z</time>
      </trkpt>
      <trkpt lat="44.41175" lon="6.06329">
        <ele>1288.8</ele>
        <time>2020-09-05T09:53:46.000Z</time>
      </trkpt>
      <trkpt lat="44.41167" lon="6.06315">
        <ele>1285.1</ele>
        <time>2020-09-05T09:53:48.000Z</time>
      </trkpt>
      <trkpt lat="44.41161" lon="6.06309">
        <ele>1283</ele>
        <time>2020-09-05T09:53:49.832Z</time>
      </trkpt>
      <trkpt lat="44.41157" lon="6.06304">
        <ele>1274</ele>
        <time>2020-09-05T09:53:52.000Z</time>
      </trkpt>
      <trkpt lat="44.4115" lon="6.06295">
        <ele>1273.2</ele>
        <time>2020-09-05T09:53:54.672Z</time>
      </trkpt>
      <trkpt lat="44.41146" lon="6.06292">
        <ele>1273.5</ele>
        <time>2020-09-05T09:53:55.912Z</time>
      </trkpt>
      <trkpt lat="44.41141" lon="6.06291">
        <ele>1275.2</ele>
        <time>2020-09-05T09:53:57.000Z</time>
      </trkpt>
      <trkpt lat="44.41136" lon="6.06287">
        <ele>1275.1</ele>
        <time>2020-09-05T09:53:58.000Z</time>
      </trkpt>
      <trkpt lat="44.41131" lon="6.06284">
        <ele>1275.7</ele>
        <time>2020-09-05T09:53:59.000Z</time>
      </trkpt>
      <trkpt lat="44.4112" lon="6.0628">
        <ele>1278.5</ele>
        <time>2020-09-05T09:54:01.000Z</time>
      </trkpt>
      <trkpt lat="44.41115" lon="6.06279">
        <ele>1279.2</ele>
        <time>2020-09-05T09:54:02.000Z</time>
      </trkpt>
      <trkpt lat="44.41105" lon="6.06276">
        <ele>1280.2</ele>
        <time>2020-09-05T09:54:04.988Z</time>
      </trkpt>
      <trkpt lat="44.41088" lon="6.06267">
        <ele>1287</ele>
        <time>2020-09-05T09:54:08.000Z</time>
      </trkpt>
      <trkpt lat="44.4108" lon="6.06265">
        <ele>1288.6</ele>
        <time>2020-09-05T09:54:09.000Z</time>
      </trkpt>
      <trkpt lat="44.41074" lon="6.06262">
        <ele>1289.8</ele>
        <time>2020-09-05T09:54:10.000Z</time>
      </trkpt>
      <trkpt lat="44.41064" lon="6.06257">
        <ele>1289.6</ele>
        <time>2020-09-05T09:54:12.000Z</time>
      </trkpt>
      <trkpt lat="44.41055" lon="6.06256">
        <ele>1290.6</ele>
        <time>2020-09-05T09:54:14.000Z</time>
      </trkpt>
      <trkpt lat="44.4105" lon="6.06254">
        <ele>1291</ele>
        <time>2020-09-05T09:54:15.335Z</time>
      </trkpt>
      <trkpt lat="44.41045" lon="6.06251">
        <ele>1291.6</ele>
        <time>2020-09-05T09:54:17.033Z</time>
      </trkpt>
      <trkpt lat="44.41038" lon="6.06249">
        <ele>1293.3</ele>
        <time>2020-09-05T09:54:19.000Z</time>
      </trkpt>
      <trkpt lat="44.41033" lon="6.06245">
        <ele>1293.8</ele>
        <time>2020-09-05T09:54:23.000Z</time>
      </trkpt>
      <trkpt lat="44.41029" lon="6.0624">
        <ele>1292.5</ele>
        <time>2020-09-05T09:54:25.000Z</time>
      </trkpt>
      <trkpt lat="44.41027" lon="6.06233">
        <ele>1291.9</ele>
        <time>2020-09-05T09:54:27.019Z</time>
      </trkpt>
      <trkpt lat="44.41028" lon="6.06225">
        <ele>1290.4</ele>
        <time>2020-09-05T09:54:30.053Z</time>
      </trkpt>
      <trkpt lat="44.41031" lon="6.06218">
        <ele>1291.8</ele>
        <time>2020-09-05T09:54:32.000Z</time>
      </trkpt>
      <trkpt lat="44.41034" lon="6.06212">
        <ele>1291.9</ele>
        <time>2020-09-05T09:54:33.895Z</time>
      </trkpt>
      <trkpt lat="44.41038" lon="6.06206">
        <ele>1289.9</ele>
        <time>2020-09-05T09:54:35.628Z</time>
      </trkpt>
      <trkpt lat="44.41041" lon="6.06198">
        <ele>1290.7</ele>
        <time>2020-09-05T09:54:38.072Z</time>
      </trkpt>
      <trkpt lat="44.41043" lon="6.06193">
        <ele>1290.5</ele>
        <time>2020-09-05T09:54:39.898Z</time>
      </trkpt>
      <trkpt lat="44.41047" lon="6.06188">
        <ele>1292</ele>
        <time>2020-09-05T09:54:41.000Z</time>
      </trkpt>
      <trkpt lat="44.41051" lon="6.06183">
        <ele>1291.1</ele>
        <time>2020-09-05T09:54:42.854Z</time>
      </trkpt>
      <trkpt lat="44.41059" lon="6.06175">
        <ele>1289.1</ele>
        <time>2020-09-05T09:54:46.000Z</time>
      </trkpt>
      <trkpt lat="44.4106" lon="6.06168">
        <ele>1288.1</ele>
        <time>2020-09-05T09:54:48.152Z</time>
      </trkpt>
      <trkpt lat="44.41062" lon="6.06151">
        <ele>1288.8</ele>
        <time>2020-09-05T09:54:51.090Z</time>
      </trkpt>
      <trkpt lat="44.41059" lon="6.06141">
        <ele>1286.2</ele>
        <time>2020-09-05T09:54:53.750Z</time>
      </trkpt>
      <trkpt lat="44.41056" lon="6.06136">
        <ele>1286.8</ele>
        <time>2020-09-05T09:54:55.000Z</time>
      </trkpt>
      <trkpt lat="44.41049" lon="6.0613">
        <ele>1281.8</ele>
        <time>2020-09-05T09:54:57.273Z</time>
      </trkpt>
      <trkpt lat="44.41036" lon="6.06125">
        <ele>1279.6</ele>
        <time>2020-09-05T09:55:00.000Z</time>
      </trkpt>
      <trkpt lat="44.41029" lon="6.06122">
        <ele>1279.7</ele>
        <time>2020-09-05T09:55:01.965Z</time>
      </trkpt>
      <trkpt lat="44.4102" lon="6.06123">
        <ele>1281.4</ele>
        <time>2020-09-05T09:55:05.000Z</time>
      </trkpt>
      <trkpt lat="44.41011" lon="6.06125">
        <ele>1281</ele>
        <time>2020-09-05T09:55:07.839Z</time>
      </trkpt>
      <trkpt lat="44.41008" lon="6.0612">
        <ele>1280.5</ele>
        <time>2020-09-05T09:55:09.041Z</time>
      </trkpt>
      <trkpt lat="44.41003" lon="6.06118">
        <ele>1280.9</ele>
        <time>2020-09-05T09:55:10.578Z</time>
      </trkpt>
      <trkpt lat="44.40998" lon="6.0612">
        <ele>1280.2</ele>
        <time>2020-09-05T09:55:11.800Z</time>
      </trkpt>
      <trkpt lat="44.40988" lon="6.06119">
        <ele>1278.2</ele>
        <time>2020-09-05T09:55:13.000Z</time>
      </trkpt>
      <trkpt lat="44.40978" lon="6.06125">
        <ele>1270.1</ele>
        <time>2020-09-05T09:55:16.000Z</time>
      </trkpt>
      <trkpt lat="44.40969" lon="6.06118">
        <ele>1263.1</ele>
        <time>2020-09-05T09:55:20.000Z</time>
      </trkpt>
      <trkpt lat="44.40963" lon="6.06118">
        <ele>1263.7</ele>
        <time>2020-09-05T09:55:21.000Z</time>
      </trkpt>
      <trkpt lat="44.4095" lon="6.06114">
        <ele>1264</ele>
        <time>2020-09-05T09:55:23.000Z</time>
      </trkpt>
      <trkpt lat="44.40946" lon="6.06112">
        <ele>1267</ele>
        <time>2020-09-05T09:55:34.000Z</time>
      </trkpt>
      <trkpt lat="44.40941" lon="6.06112">
        <ele>1269</ele>
        <time>2020-09-05T09:55:49.000Z</time>
      </trkpt>
      <trkpt lat="44.40944" lon="6.06103">
        <ele>1269.4</ele>
        <time>2020-09-05T09:58:42.000Z</time>
      </trkpt>
      <trkpt lat="44.40951" lon="6.06098">
        <ele>1268.6</ele>
        <time>2020-09-05T09:58:45.000Z</time>
      </trkpt>
      <trkpt lat="44.40959" lon="6.06089">
        <ele>1265.8</ele>
        <time>2020-09-05T09:58:48.000Z</time>
      </trkpt>
      <trkpt lat="44.40968" lon="6.06081">
        <ele>1262.2</ele>
        <time>2020-09-05T09:58:51.000Z</time>
      </trkpt>
      <trkpt lat="44.40976" lon="6.06075">
        <ele>1261.5</ele>
        <time>2020-09-05T09:58:53.000Z</time>
      </trkpt>
      <trkpt lat="44.40983" lon="6.0607">
        <ele>1258.5</ele>
        <time>2020-09-05T09:58:55.000Z</time>
      </trkpt>
      <trkpt lat="44.40989" lon="6.06054">
        <ele>1257.3</ele>
        <time>2020-09-05T09:58:58.000Z</time>
      </trkpt>
      <trkpt lat="44.40994" lon="6.06048">
        <ele>1257.5</ele>
        <time>2020-09-05T09:58:59.000Z</time>
      </trkpt>
      <trkpt lat="44.40998" lon="6.06044">
        <ele>1257.2</ele>
        <time>2020-09-05T09:59:00.000Z</time>
      </trkpt>
      <trkpt lat="44.41007" lon="6.06036">
        <ele>1257.4</ele>
        <time>2020-09-05T09:59:02.000Z</time>
      </trkpt>
      <trkpt lat="44.41012" lon="6.06038">
        <ele>1256.9</ele>
        <time>2020-09-05T09:59:03.509Z</time>
      </trkpt>
      <trkpt lat="44.41017" lon="6.0604">
        <ele>1256.6</ele>
        <time>2020-09-05T09:59:04.966Z</time>
      </trkpt>
      <trkpt lat="44.41025" lon="6.06041">
        <ele>1256.7</ele>
        <time>2020-09-05T09:59:07.000Z</time>
      </trkpt>
      <trkpt lat="44.41035" lon="6.06037">
        <ele>1256.2</ele>
        <time>2020-09-05T09:59:10.000Z</time>
      </trkpt>
      <trkpt lat="44.41044" lon="6.0603">
        <ele>1257.7</ele>
        <time>2020-09-05T09:59:12.945Z</time>
      </trkpt>
      <trkpt lat="44.41054" lon="6.06025">
        <ele>1255.9</ele>
        <time>2020-09-05T09:59:16.052Z</time>
      </trkpt>
      <trkpt lat="44.41057" lon="6.06017">
        <ele>1255</ele>
        <time>2020-09-05T10:00:41.000Z</time>
      </trkpt>
      <trkpt lat="44.41055" lon="6.06006">
        <ele>1250.5</ele>
        <time>2020-09-05T10:00:45.000Z</time>
      </trkpt>
      <trkpt lat="44.4105" lon="6.05997">
        <ele>1250.6</ele>
        <time>2020-09-05T10:00:46.000Z</time>
      </trkpt>
      <trkpt lat="44.41046" lon="6.05989">
        <ele>1249.5</ele>
        <time>2020-09-05T10:00:47.000Z</time>
      </trkpt>
      <trkpt lat="44.41044" lon="6.05981">
        <ele>1247.3</ele>
        <time>2020-09-05T10:00:48.455Z</time>
      </trkpt>
      <trkpt lat="44.41043" lon="6.05969">
        <ele>1244.8</ele>
        <time>2020-09-05T10:00:50.000Z</time>
      </trkpt>
      <trkpt lat="44.41041" lon="6.0596">
        <ele>1242.4</ele>
        <time>2020-09-05T10:00:51.000Z</time>
      </trkpt>
      <trkpt lat="44.41042" lon="6.05947">
        <ele>1240.7</ele>
        <time>2020-09-05T10:00:53.000Z</time>
      </trkpt>
      <trkpt lat="44.41048" lon="6.05942">
        <ele>1236.6</ele>
        <time>2020-09-05T10:00:57.691Z</time>
      </trkpt>
      <trkpt lat="44.41049" lon="6.05932">
        <ele>1235.2</ele>
        <time>2020-09-05T10:00:59.000Z</time>
      </trkpt>
      <trkpt lat="44.41047" lon="6.05919">
        <ele>1236.8</ele>
        <time>2020-09-05T10:01:00.907Z</time>
      </trkpt>
      <trkpt lat="44.41044" lon="6.05907">
        <ele>1238</ele>
        <time>2020-09-05T10:01:02.000Z</time>
      </trkpt>
      <trkpt lat="44.41045" lon="6.05899">
        <ele>1239.3</ele>
        <time>2020-09-05T10:01:03.804Z</time>
      </trkpt>
      <trkpt lat="44.4104" lon="6.05886">
        <ele>1238.8</ele>
        <time>2020-09-05T10:01:05.000Z</time>
      </trkpt>
      <trkpt lat="44.41037" lon="6.05877">
        <ele>1239.9</ele>
        <time>2020-09-05T10:01:07.820Z</time>
      </trkpt>
      <trkpt lat="44.41032" lon="6.05868">
        <ele>1233.7</ele>
        <time>2020-09-05T10:01:45.000Z</time>
      </trkpt>
      <trkpt lat="44.41026" lon="6.05858">
        <ele>1233.8</ele>
        <time>2020-09-05T10:01:46.000Z</time>
      </trkpt>
      <trkpt lat="44.41021" lon="6.05848">
        <ele>1230</ele>
        <time>2020-09-05T10:01:47.000Z</time>
      </trkpt>
      <trkpt lat="44.41018" lon="6.05841">
        <ele>1229.3</ele>
        <time>2020-09-05T10:01:48.567Z</time>
      </trkpt>
      <trkpt lat="44.41019" lon="6.05833">
        <ele>1219.5</ele>
        <time>2020-09-05T10:01:56.000Z</time>
      </trkpt>
      <trkpt lat="44.41017" lon="6.05813">
        <ele>1213.3</ele>
        <time>2020-09-05T10:02:00.000Z</time>
      </trkpt>
      <trkpt lat="44.41017" lon="6.0582">
        <ele>1213.4</ele>
        <time>2020-09-05T10:02:02.000Z</time>
      </trkpt>
      <trkpt lat="44.4101" lon="6.05813">
        <ele>1214.1</ele>
        <time>2020-09-05T10:02:04.036Z</time>
      </trkpt>
      <trkpt lat="44.41002" lon="6.05794">
        <ele>1216.3</ele>
        <time>2020-09-05T10:02:05.000Z</time>
      </trkpt>
      <trkpt lat="44.4099" lon="6.05767">
        <ele>1217.3</ele>
        <time>2020-09-05T10:02:07.000Z</time>
      </trkpt>
      <trkpt lat="44.40985" lon="6.05748">
        <ele>1217.9</ele>
        <time>2020-09-05T10:02:09.000Z</time>
      </trkpt>
      <trkpt lat="44.40974" lon="6.05733">
        <ele>1220.4</ele>
        <time>2020-09-05T10:02:11.000Z</time>
      </trkpt>
      <trkpt lat="44.40958" lon="6.05723">
        <ele>1222.9</ele>
        <time>2020-09-05T10:02:13.000Z</time>
      </trkpt>
      <trkpt lat="44.40942" lon="6.05711">
        <ele>1223.3</ele>
        <time>2020-09-05T10:02:15.000Z</time>
      </trkpt>
      <trkpt lat="44.40934" lon="6.05703">
        <ele>1223.5</ele>
        <time>2020-09-05T10:02:16.000Z</time>
      </trkpt>
      <trkpt lat="44.40927" lon="6.05697">
        <ele>1224.9</ele>
        <time>2020-09-05T10:02:17.000Z</time>
      </trkpt>
      <trkpt lat="44.40917" lon="6.05689">
        <ele>1228.1</ele>
        <time>2020-09-05T10:02:19.000Z</time>
      </trkpt>
      <trkpt lat="44.40907" lon="6.0568">
        <ele>1234.6</ele>
        <time>2020-09-05T10:02:22.000Z</time>
      </trkpt>
      <trkpt lat="44.40901" lon="6.05678">
        <ele>1236.4</ele>
        <time>2020-09-05T10:02:23.000Z</time>
      </trkpt>
      <trkpt lat="44.40895" lon="6.05675">
        <ele>1238.4</ele>
        <time>2020-09-05T10:02:24.254Z</time>
      </trkpt>
      <trkpt lat="44.40887" lon="6.05673">
        <ele>1239.4</ele>
        <time>2020-09-05T10:02:26.000Z</time>
      </trkpt>
      <trkpt lat="44.4087" lon="6.05666">
        <ele>1240.1</ele>
        <time>2020-09-05T10:02:29.000Z</time>
      </trkpt>
      <trkpt lat="44.40858" lon="6.05658">
        <ele>1240</ele>
        <time>2020-09-05T10:02:31.000Z</time>
      </trkpt>
      <trkpt lat="44.40852" lon="6.05655">
        <ele>1239.2</ele>
        <time>2020-09-05T10:02:32.000Z</time>
      </trkpt>
      <trkpt lat="44.40839" lon="6.05653">
        <ele>1240.7</ele>
        <time>2020-09-05T10:02:34.000Z</time>
      </trkpt>
      <trkpt lat="44.40833" lon="6.05652">
        <ele>1242.9</ele>
        <time>2020-09-05T10:02:35.000Z</time>
      </trkpt>
      <trkpt lat="44.40826" lon="6.05651">
        <ele>1244.9</ele>
        <time>2020-09-05T10:02:36.000Z</time>
      </trkpt>
      <trkpt lat="44.40818" lon="6.05649">
        <ele>1247.4</ele>
        <time>2020-09-05T10:02:37.000Z</time>
      </trkpt>
      <trkpt lat="44.40802" lon="6.05646">
        <ele>1251.6</ele>
        <time>2020-09-05T10:02:39.000Z</time>
      </trkpt>
      <trkpt lat="44.40791" lon="6.05645">
        <ele>1252.3</ele>
        <time>2020-09-05T10:02:40.331Z</time>
      </trkpt>
      <trkpt lat="44.40777" lon="6.05642">
        <ele>1254.9</ele>
        <time>2020-09-05T10:02:42.000Z</time>
      </trkpt>
      <trkpt lat="44.4077" lon="6.05641">
        <ele>1255.8</ele>
        <time>2020-09-05T10:02:43.000Z</time>
      </trkpt>
      <trkpt lat="44.40763" lon="6.05641">
        <ele>1257.6</ele>
        <time>2020-09-05T10:02:44.000Z</time>
      </trkpt>
      <trkpt lat="44.40756" lon="6.05638">
        <ele>1259.1</ele>
        <time>2020-09-05T10:02:45.000Z</time>
      </trkpt>
      <trkpt lat="44.40747" lon="6.05632">
        <ele>1262.9</ele>
        <time>2020-09-05T10:02:47.000Z</time>
      </trkpt>
      <trkpt lat="44.40741" lon="6.05631">
        <ele>1266.2</ele>
        <time>2020-09-05T10:02:49.000Z</time>
      </trkpt>
      <trkpt lat="44.40735" lon="6.05629">
        <ele>1265.7</ele>
        <time>2020-09-05T10:02:50.000Z</time>
      </trkpt>
      <trkpt lat="44.40716" lon="6.05622">
        <ele>1270.6</ele>
        <time>2020-09-05T10:02:52.000Z</time>
      </trkpt>
      <trkpt lat="44.40693" lon="6.05615">
        <ele>1274.7</ele>
        <time>2020-09-05T10:02:54.000Z</time>
      </trkpt>
      <trkpt lat="44.40675" lon="6.05615">
        <ele>1277.7</ele>
        <time>2020-09-05T10:02:56.000Z</time>
      </trkpt>
      <trkpt lat="44.40669" lon="6.05616">
        <ele>1277.9</ele>
        <time>2020-09-05T10:02:57.000Z</time>
      </trkpt>
      <trkpt lat="44.40662" lon="6.05618">
        <ele>1279.4</ele>
        <time>2020-09-05T10:02:58.000Z</time>
      </trkpt>
      <trkpt lat="44.4065" lon="6.05621">
        <ele>1279.5</ele>
        <time>2020-09-05T10:03:00.000Z</time>
      </trkpt>
      <trkpt lat="44.40643" lon="6.05623">
        <ele>1281</ele>
        <time>2020-09-05T10:03:03.106Z</time>
      </trkpt>
      <trkpt lat="44.40636" lon="6.05622">
        <ele>1283.9</ele>
        <time>2020-09-05T10:03:05.000Z</time>
      </trkpt>
      <trkpt lat="44.40627" lon="6.05612">
        <ele>1291.7</ele>
        <time>2020-09-05T10:03:19.000Z</time>
      </trkpt>
      <trkpt lat="44.40616" lon="6.0559">
        <ele>1292</ele>
        <time>2020-09-05T10:03:21.000Z</time>
      </trkpt>
      <trkpt lat="44.40607" lon="6.05582">
        <ele>1294.2</ele>
        <time>2020-09-05T10:03:25.000Z</time>
      </trkpt>
      <trkpt lat="44.40595" lon="6.05574">
        <ele>1295.5</ele>
        <time>2020-09-05T10:03:28.000Z</time>
      </trkpt>
      <trkpt lat="44.40591" lon="6.0557">
        <ele>1294.5</ele>
        <time>2020-09-05T10:03:29.381Z</time>
      </trkpt>
      <trkpt lat="44.40582" lon="6.05567">
        <ele>1294.6</ele>
        <time>2020-09-05T10:03:31.000Z</time>
      </trkpt>
      <trkpt lat="44.40576" lon="6.05568">
        <ele>1297.6</ele>
        <time>2020-09-05T10:03:34.000Z</time>
      </trkpt>
      <trkpt lat="44.4057" lon="6.0557">
        <ele>1298.8</ele>
        <time>2020-09-05T10:03:36.000Z</time>
      </trkpt>
      <trkpt lat="44.40562" lon="6.05568">
        <ele>1300.1</ele>
        <time>2020-09-05T10:03:38.000Z</time>
      </trkpt>
      <trkpt lat="44.40555" lon="6.05567">
        <ele>1301.3</ele>
        <time>2020-09-05T10:03:40.000Z</time>
      </trkpt>
      <trkpt lat="44.4055" lon="6.05566">
        <ele>1301.3</ele>
        <time>2020-09-05T10:03:42.000Z</time>
      </trkpt>
      <trkpt lat="44.40543" lon="6.05563">
        <ele>1303</ele>
        <time>2020-09-05T10:03:44.000Z</time>
      </trkpt>
      <trkpt lat="44.40538" lon="6.05559">
        <ele>1306.1</ele>
        <time>2020-09-05T10:03:46.000Z</time>
      </trkpt>
      <trkpt lat="44.40533" lon="6.05555">
        <ele>1306.3</ele>
        <time>2020-09-05T10:03:51.215Z</time>
      </trkpt>
      <trkpt lat="44.40531" lon="6.0555">
        <ele>1310.1</ele>
        <time>2020-09-05T10:04:03.000Z</time>
      </trkpt>
      <trkpt lat="44.40526" lon="6.05552">
        <ele>1309</ele>
        <time>2020-09-05T10:04:22.000Z</time>
      </trkpt>
      <trkpt lat="44.40532" lon="6.05549">
        <ele>1309.5</ele>
        <time>2020-09-05T10:04:41.000Z</time>
      </trkpt>
      <trkpt lat="44.40528" lon="6.05554">
        <ele>1314.2</ele>
        <time>2020-09-05T10:05:01.000Z</time>
      </trkpt>
      <trkpt lat="44.40524" lon="6.05559">
        <ele>1322.5</ele>
        <time>2020-09-05T10:05:47.721Z</time>
      </trkpt>
      <trkpt lat="44.40528" lon="6.0556">
        <ele>1323.2</ele>
        <time>2020-09-05T10:08:13.437Z</time>
      </trkpt>
      <trkpt lat="44.40521" lon="6.05563">
        <ele>1323.6</ele>
        <time>2020-09-05T10:08:20.000Z</time>
      </trkpt>
      <trkpt lat="44.40525" lon="6.05559">
        <ele>1329.9</ele>
        <time>2020-09-05T10:08:56.000Z</time>
      </trkpt>
      <trkpt lat="44.4053" lon="6.05556">
        <ele>1326.2</ele>
        <time>2020-09-05T10:09:17.369Z</time>
      </trkpt>
      <trkpt lat="44.40528" lon="6.05548">
        <ele>1315.8</ele>
        <time>2020-09-05T10:12:35.000Z</time>
      </trkpt>
      <trkpt lat="44.40523" lon="6.0555">
        <ele>1318.6</ele>
        <time>2020-09-05T10:12:42.213Z</time>
      </trkpt>
      <trkpt lat="44.40516" lon="6.05552">
        <ele>1325.8</ele>
        <time>2020-09-05T10:12:56.000Z</time>
      </trkpt>
      <trkpt lat="44.40509" lon="6.05552">
        <ele>1326</ele>
        <time>2020-09-05T10:13:05.000Z</time>
      </trkpt>
      <trkpt lat="44.40504" lon="6.05551">
        <ele>1326</ele>
        <time>2020-09-05T10:13:12.399Z</time>
      </trkpt>
      <trkpt lat="44.40499" lon="6.05552">
        <ele>1325.9</ele>
        <time>2020-09-05T10:13:20.000Z</time>
      </trkpt>
      <trkpt lat="44.40491" lon="6.05553">
        <ele>1328.8</ele>
        <time>2020-09-05T10:13:31.534Z</time>
      </trkpt>
      <trkpt lat="44.40486" lon="6.05538">
        <ele>1311.7</ele>
        <time>2020-09-05T10:13:50.000Z</time>
      </trkpt>
      <trkpt lat="44.40479" lon="6.05541">
        <ele>1316.9</ele>
        <time>2020-09-05T10:14:01.653Z</time>
      </trkpt>
      <trkpt lat="44.40474" lon="6.05544">
        <ele>1319.4</ele>
        <time>2020-09-05T10:14:08.000Z</time>
      </trkpt>
      <trkpt lat="44.4047" lon="6.0555">
        <ele>1320.1</ele>
        <time>2020-09-05T10:14:14.713Z</time>
      </trkpt>
      <trkpt lat="44.40465" lon="6.05553">
        <ele>1321.4</ele>
        <time>2020-09-05T10:14:29.570Z</time>
      </trkpt>
      <trkpt lat="44.40467" lon="6.05559">
        <ele>1332.4</ele>
        <time>2020-09-05T10:14:50.000Z</time>
      </trkpt>
      <trkpt lat="44.40465" lon="6.05553">
        <ele>1330.3</ele>
        <time>2020-09-05T10:16:39.000Z</time>
      </trkpt>
      <trkpt lat="44.4046" lon="6.05553">
        <ele>1327.3</ele>
        <time>2020-09-05T10:17:40.000Z</time>
      </trkpt>
      <trkpt lat="44.40454" lon="6.05548">
        <ele>1324.2</ele>
        <time>2020-09-05T10:17:55.000Z</time>
      </trkpt>
      <trkpt lat="44.40455" lon="6.05555">
        <ele>1324.8</ele>
        <time>2020-09-05T10:19:12.000Z</time>
      </trkpt>
      <trkpt lat="44.40459" lon="6.05555">
        <ele>1325.5</ele>
        <time>2020-09-05T10:21:03.000Z</time>
      </trkpt>
      <trkpt lat="44.40456" lon="6.05559">
        <ele>1323.1</ele>
        <time>2020-09-05T10:21:14.911Z</time>
      </trkpt>
      <trkpt lat="44.40449" lon="6.05557">
        <ele>1323.2</ele>
        <time>2020-09-05T10:21:17.652Z</time>
      </trkpt>
      <trkpt lat="44.40444" lon="6.05557">
        <ele>1322.8</ele>
        <time>2020-09-05T10:21:20.093Z</time>
      </trkpt>
      <trkpt lat="44.40438" lon="6.05558">
        <ele>1320</ele>
        <time>2020-09-05T10:21:22.000Z</time>
      </trkpt>
      <trkpt lat="44.40432" lon="6.0556">
        <ele>1322.5</ele>
        <time>2020-09-05T10:21:24.035Z</time>
      </trkpt>
      <trkpt lat="44.40412" lon="6.05565">
        <ele>1321.5</ele>
        <time>2020-09-05T10:21:26.435Z</time>
      </trkpt>
      <trkpt lat="44.40407" lon="6.05564">
        <ele>1321.4</ele>
        <time>2020-09-05T10:21:29.351Z</time>
      </trkpt>
      <trkpt lat="44.40401" lon="6.05568">
        <ele>1319.5</ele>
        <time>2020-09-05T10:21:32.000Z</time>
      </trkpt>
      <trkpt lat="44.40395" lon="6.05573">
        <ele>1317.2</ele>
        <time>2020-09-05T10:21:34.000Z</time>
      </trkpt>
      <trkpt lat="44.40393" lon="6.05578">
        <ele>1315.9</ele>
        <time>2020-09-05T10:21:35.774Z</time>
      </trkpt>
      <trkpt lat="44.4039" lon="6.05584">
        <ele>1316.2</ele>
        <time>2020-09-05T10:21:37.000Z</time>
      </trkpt>
      <trkpt lat="44.40386" lon="6.0559">
        <ele>1315.5</ele>
        <time>2020-09-05T10:21:39.000Z</time>
      </trkpt>
      <trkpt lat="44.4038" lon="6.056">
        <ele>1314.5</ele>
        <time>2020-09-05T10:21:41.000Z</time>
      </trkpt>
      <trkpt lat="44.40376" lon="6.05607">
        <ele>1314.3</ele>
        <time>2020-09-05T10:21:42.811Z</time>
      </trkpt>
      <trkpt lat="44.40373" lon="6.05612">
        <ele>1314.6</ele>
        <time>2020-09-05T10:21:45.000Z</time>
      </trkpt>
      <trkpt lat="44.40369" lon="6.05615">
        <ele>1312.1</ele>
        <time>2020-09-05T10:21:57.000Z</time>
      </trkpt>
      <trkpt lat="44.40365" lon="6.05617">
        <ele>1312.1</ele>
        <time>2020-09-05T10:22:40.460Z</time>
      </trkpt>
      <trkpt lat="44.40366" lon="6.05623">
        <ele>1312.8</ele>
        <time>2020-09-05T10:23:01.000Z</time>
      </trkpt>
      <trkpt lat="44.40373" lon="6.05617">
        <ele>1313</ele>
        <time>2020-09-05T10:23:10.687Z</time>
      </trkpt>
      <trkpt lat="44.40384" lon="6.05602">
        <ele>1311.9</ele>
        <time>2020-09-05T10:23:13.000Z</time>
      </trkpt>
      <trkpt lat="44.40385" lon="6.05596">
        <ele>1314</ele>
        <time>2020-09-05T10:26:30.000Z</time>
      </trkpt>
      <trkpt lat="44.40383" lon="6.05588">
        <ele>1313.4</ele>
        <time>2020-09-05T10:26:34.000Z</time>
      </trkpt>
      <trkpt lat="44.4038" lon="6.0558">
        <ele>1313.5</ele>
        <time>2020-09-05T10:26:37.515Z</time>
      </trkpt>
      <trkpt lat="44.40378" lon="6.05573">
        <ele>1312.3</ele>
        <time>2020-09-05T10:26:39.000Z</time>
      </trkpt>
      <trkpt lat="44.40377" lon="6.05563">
        <ele>1311.3</ele>
        <time>2020-09-05T10:26:41.000Z</time>
      </trkpt>
      <trkpt lat="44.40374" lon="6.05552">
        <ele>1309.9</ele>
        <time>2020-09-05T10:26:44.000Z</time>
      </trkpt>
      <trkpt lat="44.4037" lon="6.05545">
        <ele>1310.5</ele>
        <time>2020-09-05T10:26:46.000Z</time>
      </trkpt>
      <trkpt lat="44.40362" lon="6.05539">
        <ele>1309.8</ele>
        <time>2020-09-05T10:26:48.000Z</time>
      </trkpt>
      <trkpt lat="44.40358" lon="6.05537">
        <ele>1309.1</ele>
        <time>2020-09-05T10:26:49.000Z</time>
      </trkpt>
      <trkpt lat="44.40346" lon="6.05532">
        <ele>1307</ele>
        <time>2020-09-05T10:26:52.000Z</time>
      </trkpt>
      <trkpt lat="44.40339" lon="6.05525">
        <ele>1306.2</ele>
        <time>2020-09-05T10:26:54.000Z</time>
      </trkpt>
      <trkpt lat="44.40335" lon="6.05521">
        <ele>1306.7</ele>
        <time>2020-09-05T10:26:55.000Z</time>
      </trkpt>
      <trkpt lat="44.40331" lon="6.05515">
        <ele>1306.3</ele>
        <time>2020-09-05T10:26:56.000Z</time>
      </trkpt>
      <trkpt lat="44.40324" lon="6.05506">
        <ele>1304.7</ele>
        <time>2020-09-05T10:26:58.000Z</time>
      </trkpt>
      <trkpt lat="44.40314" lon="6.05498">
        <ele>1301.1</ele>
        <time>2020-09-05T10:27:01.000Z</time>
      </trkpt>
      <trkpt lat="44.4031" lon="6.05496">
        <ele>1299.1</ele>
        <time>2020-09-05T10:27:02.615Z</time>
      </trkpt>
      <trkpt lat="44.40302" lon="6.05492">
        <ele>1297.6</ele>
        <time>2020-09-05T10:27:05.116Z</time>
      </trkpt>
      <trkpt lat="44.40292" lon="6.05482">
        <ele>1295.9</ele>
        <time>2020-09-05T10:27:07.000Z</time>
      </trkpt>
      <trkpt lat="44.40284" lon="6.0547">
        <ele>1294.2</ele>
        <time>2020-09-05T10:27:09.000Z</time>
      </trkpt>
      <trkpt lat="44.40282" lon="6.05462">
        <ele>1294.3</ele>
        <time>2020-09-05T10:27:10.866Z</time>
      </trkpt>
      <trkpt lat="44.40279" lon="6.05455">
        <ele>1291.1</ele>
        <time>2020-09-05T10:27:12.000Z</time>
      </trkpt>
      <trkpt lat="44.40276" lon="6.05449">
        <ele>1289.5</ele>
        <time>2020-09-05T10:27:13.348Z</time>
      </trkpt>
      <trkpt lat="44.40274" lon="6.05439">
        <ele>1286.6</ele>
        <time>2020-09-05T10:27:15.988Z</time>
      </trkpt>
      <trkpt lat="44.40271" lon="6.05432">
        <ele>1286</ele>
        <time>2020-09-05T10:27:17.965Z</time>
      </trkpt>
      <trkpt lat="44.40268" lon="6.05421">
        <ele>1285.7</ele>
        <time>2020-09-05T10:27:20.694Z</time>
      </trkpt>
      <trkpt lat="44.40261" lon="6.05413">
        <ele>1286.4</ele>
        <time>2020-09-05T10:27:24.129Z</time>
      </trkpt>
      <trkpt lat="44.40257" lon="6.05411">
        <ele>1288.8</ele>
        <time>2020-09-05T10:27:25.000Z</time>
      </trkpt>
      <trkpt lat="44.40252" lon="6.05408">
        <ele>1289.7</ele>
        <time>2020-09-05T10:27:26.000Z</time>
      </trkpt>
      <trkpt lat="44.40247" lon="6.05406">
        <ele>1288.6</ele>
        <time>2020-09-05T10:27:27.790Z</time>
      </trkpt>
      <trkpt lat="44.40236" lon="6.05401">
        <ele>1285.4</ele>
        <time>2020-09-05T10:27:30.550Z</time>
      </trkpt>
      <trkpt lat="44.40232" lon="6.05397">
        <ele>1285.5</ele>
        <time>2020-09-05T10:27:31.672Z</time>
      </trkpt>
      <trkpt lat="44.40228" lon="6.05392">
        <ele>1284.3</ele>
        <time>2020-09-05T10:27:32.811Z</time>
      </trkpt>
      <trkpt lat="44.40224" lon="6.05386">
        <ele>1283.1</ele>
        <time>2020-09-05T10:27:34.000Z</time>
      </trkpt>
      <trkpt lat="44.40219" lon="6.05377">
        <ele>1282.1</ele>
        <time>2020-09-05T10:27:36.000Z</time>
      </trkpt>
      <trkpt lat="44.40216" lon="6.0537">
        <ele>1280.5</ele>
        <time>2020-09-05T10:27:38.000Z</time>
      </trkpt>
      <trkpt lat="44.40212" lon="6.05361">
        <ele>1282.1</ele>
        <time>2020-09-05T10:27:39.670Z</time>
      </trkpt>
      <trkpt lat="44.40208" lon="6.05353">
        <ele>1279.4</ele>
        <time>2020-09-05T10:27:41.000Z</time>
      </trkpt>
      <trkpt lat="44.40203" lon="6.05346">
        <ele>1279</ele>
        <time>2020-09-05T10:27:42.469Z</time>
      </trkpt>
      <trkpt lat="44.40199" lon="6.0534">
        <ele>1278.8</ele>
        <time>2020-09-05T10:27:43.770Z</time>
      </trkpt>
      <trkpt lat="44.40194" lon="6.05333">
        <ele>1276.8</ele>
        <time>2020-09-05T10:27:45.189Z</time>
      </trkpt>
      <trkpt lat="44.40191" lon="6.05328">
        <ele>1276.3</ele>
        <time>2020-09-05T10:27:46.568Z</time>
      </trkpt>
      <trkpt lat="44.40184" lon="6.05321">
        <ele>1275.6</ele>
        <time>2020-09-05T10:27:48.811Z</time>
      </trkpt>
      <trkpt lat="44.4018" lon="6.05318">
        <ele>1273.5</ele>
        <time>2020-09-05T10:27:50.000Z</time>
      </trkpt>
      <trkpt lat="44.40174" lon="6.05313">
        <ele>1272.4</ele>
        <time>2020-09-05T10:27:52.173Z</time>
      </trkpt>
      <trkpt lat="44.40172" lon="6.05307">
        <ele>1269.1</ele>
        <time>2020-09-05T10:27:53.993Z</time>
      </trkpt>
      <trkpt lat="44.40166" lon="6.05298">
        <ele>1266.7</ele>
        <time>2020-09-05T10:27:56.206Z</time>
      </trkpt>
      <trkpt lat="44.40163" lon="6.05294">
        <ele>1266.8</ele>
        <time>2020-09-05T10:27:57.626Z</time>
      </trkpt>
      <trkpt lat="44.40158" lon="6.05291">
        <ele>1266.1</ele>
        <time>2020-09-05T10:27:59.000Z</time>
      </trkpt>
      <trkpt lat="44.40148" lon="6.05288">
        <ele>1267.2</ele>
        <time>2020-09-05T10:28:01.625Z</time>
      </trkpt>
      <trkpt lat="44.4013" lon="6.05286">
        <ele>1263.8</ele>
        <time>2020-09-05T10:28:03.000Z</time>
      </trkpt>
      <trkpt lat="44.40113" lon="6.05278">
        <ele>1264.1</ele>
        <time>2020-09-05T10:28:05.000Z</time>
      </trkpt>
      <trkpt lat="44.401" lon="6.05269">
        <ele>1263.7</ele>
        <time>2020-09-05T10:28:07.000Z</time>
      </trkpt>
      <trkpt lat="44.40095" lon="6.05265">
        <ele>1263.5</ele>
        <time>2020-09-05T10:28:08.703Z</time>
      </trkpt>
      <trkpt lat="44.4009" lon="6.0526">
        <ele>1264.3</ele>
        <time>2020-09-05T10:28:10.000Z</time>
      </trkpt>
      <trkpt lat="44.40085" lon="6.05256">
        <ele>1264.3</ele>
        <time>2020-09-05T10:28:11.738Z</time>
      </trkpt>
      <trkpt lat="44.40077" lon="6.05252">
        <ele>1263.9</ele>
        <time>2020-09-05T10:28:13.000Z</time>
      </trkpt>
      <trkpt lat="44.4007" lon="6.05249">
        <ele>1263.8</ele>
        <time>2020-09-05T10:28:14.000Z</time>
      </trkpt>
      <trkpt lat="44.40061" lon="6.05245">
        <ele>1263.9</ele>
        <time>2020-09-05T10:28:15.000Z</time>
      </trkpt>
      <trkpt lat="44.40043" lon="6.0524">
        <ele>1262.9</ele>
        <time>2020-09-05T10:28:17.000Z</time>
      </trkpt>
      <trkpt lat="44.40034" lon="6.05239">
        <ele>1262.6</ele>
        <time>2020-09-05T10:28:18.000Z</time>
      </trkpt>
      <trkpt lat="44.40015" lon="6.05238">
        <ele>1263.1</ele>
        <time>2020-09-05T10:28:20.000Z</time>
      </trkpt>
      <trkpt lat="44.40008" lon="6.05236">
        <ele>1262.5</ele>
        <time>2020-09-05T10:28:21.000Z</time>
      </trkpt>
      <trkpt lat="44.3999" lon="6.05231">
        <ele>1261.6</ele>
        <time>2020-09-05T10:28:23.000Z</time>
      </trkpt>
      <trkpt lat="44.3998" lon="6.0523">
        <ele>1259.8</ele>
        <time>2020-09-05T10:28:24.000Z</time>
      </trkpt>
      <trkpt lat="44.39965" lon="6.05231">
        <ele>1258</ele>
        <time>2020-09-05T10:28:26.000Z</time>
      </trkpt>
      <trkpt lat="44.39959" lon="6.0523">
        <ele>1257.4</ele>
        <time>2020-09-05T10:28:27.000Z</time>
      </trkpt>
      <trkpt lat="44.39953" lon="6.05225">
        <ele>1256</ele>
        <time>2020-09-05T10:28:28.000Z</time>
      </trkpt>
      <trkpt lat="44.39949" lon="6.0522">
        <ele>1255.2</ele>
        <time>2020-09-05T10:28:29.000Z</time>
      </trkpt>
      <trkpt lat="44.3994" lon="6.05207">
        <ele>1255.3</ele>
        <time>2020-09-05T10:28:31.000Z</time>
      </trkpt>
      <trkpt lat="44.39935" lon="6.05201">
        <ele>1254.6</ele>
        <time>2020-09-05T10:28:32.000Z</time>
      </trkpt>
      <trkpt lat="44.39927" lon="6.0519">
        <ele>1254.2</ele>
        <time>2020-09-05T10:28:34.000Z</time>
      </trkpt>
      <trkpt lat="44.39923" lon="6.05181">
        <ele>1254.3</ele>
        <time>2020-09-05T10:28:36.000Z</time>
      </trkpt>
      <trkpt lat="44.3992" lon="6.0517">
        <ele>1253.5</ele>
        <time>2020-09-05T10:28:38.000Z</time>
      </trkpt>
      <trkpt lat="44.39917" lon="6.05165">
        <ele>1254.6</ele>
        <time>2020-09-05T10:28:39.000Z</time>
      </trkpt>
      <trkpt lat="44.3991" lon="6.05155">
        <ele>1254</ele>
        <time>2020-09-05T10:28:41.000Z</time>
      </trkpt>
      <trkpt lat="44.39905" lon="6.05154">
        <ele>1254.9</ele>
        <time>2020-09-05T10:28:43.451Z</time>
      </trkpt>
      <trkpt lat="44.39897" lon="6.05148">
        <ele>1253.5</ele>
        <time>2020-09-05T10:28:45.000Z</time>
      </trkpt>
      <trkpt lat="44.39892" lon="6.05142">
        <ele>1253.1</ele>
        <time>2020-09-05T10:28:46.609Z</time>
      </trkpt>
      <trkpt lat="44.3989" lon="6.05136">
        <ele>1252.5</ele>
        <time>2020-09-05T10:28:48.107Z</time>
      </trkpt>
      <trkpt lat="44.39888" lon="6.05128">
        <ele>1251.5</ele>
        <time>2020-09-05T10:28:49.726Z</time>
      </trkpt>
      <trkpt lat="44.39884" lon="6.05112">
        <ele>1249.2</ele>
        <time>2020-09-05T10:28:51.000Z</time>
      </trkpt>
      <trkpt lat="44.39876" lon="6.05094">
        <ele>1249.2</ele>
        <time>2020-09-05T10:28:53.000Z</time>
      </trkpt>
      <trkpt lat="44.39871" lon="6.05086">
        <ele>1247.9</ele>
        <time>2020-09-05T10:28:54.000Z</time>
      </trkpt>
      <trkpt lat="44.39862" lon="6.05072">
        <ele>1248.1</ele>
        <time>2020-09-05T10:28:56.000Z</time>
      </trkpt>
      <trkpt lat="44.39861" lon="6.05063">
        <ele>1247.6</ele>
        <time>2020-09-05T10:28:57.000Z</time>
      </trkpt>
      <trkpt lat="44.39858" lon="6.05055">
        <ele>1248.2</ele>
        <time>2020-09-05T10:28:58.000Z</time>
      </trkpt>
      <trkpt lat="44.39853" lon="6.05045">
        <ele>1247.4</ele>
        <time>2020-09-05T10:29:00.000Z</time>
      </trkpt>
      <trkpt lat="44.39851" lon="6.05033">
        <ele>1244.1</ele>
        <time>2020-09-05T10:29:03.000Z</time>
      </trkpt>
      <trkpt lat="44.39851" lon="6.05025">
        <ele>1243.5</ele>
        <time>2020-09-05T10:29:07.000Z</time>
      </trkpt>
      <trkpt lat="44.39847" lon="6.05019">
        <ele>1241.4</ele>
        <time>2020-09-05T10:29:24.274Z</time>
      </trkpt>
      <trkpt lat="44.39858" lon="6.05008">
        <ele>1236.6</ele>
        <time>2020-09-05T10:29:27.000Z</time>
      </trkpt>
      <trkpt lat="44.39868" lon="6.04996">
        <ele>1235.3</ele>
        <time>2020-09-05T10:29:29.000Z</time>
      </trkpt>
      <trkpt lat="44.39869" lon="6.04986">
        <ele>1229.4</ele>
        <time>2020-09-05T10:29:32.000Z</time>
      </trkpt>
      <trkpt lat="44.3988" lon="6.0497">
        <ele>1228.7</ele>
        <time>2020-09-05T10:29:34.000Z</time>
      </trkpt>
      <trkpt lat="44.3989" lon="6.04955">
        <ele>1224.3</ele>
        <time>2020-09-05T10:29:36.000Z</time>
      </trkpt>
      <trkpt lat="44.399" lon="6.04943">
        <ele>1223.6</ele>
        <time>2020-09-05T10:29:38.000Z</time>
      </trkpt>
      <trkpt lat="44.39902" lon="6.04935">
        <ele>1222.9</ele>
        <time>2020-09-05T10:29:39.000Z</time>
      </trkpt>
      <trkpt lat="44.39914" lon="6.04911">
        <ele>1217.5</ele>
        <time>2020-09-05T10:29:43.000Z</time>
      </trkpt>
      <trkpt lat="44.3992" lon="6.049">
        <ele>1216.5</ele>
        <time>2020-09-05T10:29:44.000Z</time>
      </trkpt>
      <trkpt lat="44.39928" lon="6.0489">
        <ele>1212.9</ele>
        <time>2020-09-05T10:29:45.000Z</time>
      </trkpt>
      <trkpt lat="44.39943" lon="6.04877">
        <ele>1204.9</ele>
        <time>2020-09-05T10:29:47.000Z</time>
      </trkpt>
      <trkpt lat="44.39955" lon="6.04869">
        <ele>1206.4</ele>
        <time>2020-09-05T10:29:49.000Z</time>
      </trkpt>
      <trkpt lat="44.39964" lon="6.04855">
        <ele>1202.6</ele>
        <time>2020-09-05T10:29:51.000Z</time>
      </trkpt>
      <trkpt lat="44.39972" lon="6.04842">
        <ele>1198.9</ele>
        <time>2020-09-05T10:29:53.000Z</time>
      </trkpt>
      <trkpt lat="44.39977" lon="6.04836">
        <ele>1198.5</ele>
        <time>2020-09-05T10:29:54.000Z</time>
      </trkpt>
      <trkpt lat="44.39979" lon="6.04829">
        <ele>1199.4</ele>
        <time>2020-09-05T10:29:55.000Z</time>
      </trkpt>
      <trkpt lat="44.39983" lon="6.04823">
        <ele>1200.4</ele>
        <time>2020-09-05T10:29:56.000Z</time>
      </trkpt>
      <trkpt lat="44.39994" lon="6.04809">
        <ele>1195.6</ele>
        <time>2020-09-05T10:29:58.000Z</time>
      </trkpt>
      <trkpt lat="44.39998" lon="6.04801">
        <ele>1192.7</ele>
        <time>2020-09-05T10:29:59.000Z</time>
      </trkpt>
      <trkpt lat="44.40008" lon="6.04783">
        <ele>1191.6</ele>
        <time>2020-09-05T10:30:01.000Z</time>
      </trkpt>
      <trkpt lat="44.40014" lon="6.04776">
        <ele>1191.3</ele>
        <time>2020-09-05T10:30:02.000Z</time>
      </trkpt>
      <trkpt lat="44.4002" lon="6.04771">
        <ele>1190.8</ele>
        <time>2020-09-05T10:30:03.000Z</time>
      </trkpt>
      <trkpt lat="44.40032" lon="6.04766">
        <ele>1190</ele>
        <time>2020-09-05T10:30:05.000Z</time>
      </trkpt>
      <trkpt lat="44.40043" lon="6.04759">
        <ele>1191.4</ele>
        <time>2020-09-05T10:30:07.000Z</time>
      </trkpt>
      <trkpt lat="44.40046" lon="6.04752">
        <ele>1192.7</ele>
        <time>2020-09-05T10:30:08.000Z</time>
      </trkpt>
      <trkpt lat="44.4005" lon="6.04738">
        <ele>1192.7</ele>
        <time>2020-09-05T10:30:10.000Z</time>
      </trkpt>
      <trkpt lat="44.40048" lon="6.04727">
        <ele>1191.4</ele>
        <time>2020-09-05T10:30:12.000Z</time>
      </trkpt>
      <trkpt lat="44.40044" lon="6.04716">
        <ele>1188</ele>
        <time>2020-09-05T10:30:14.000Z</time>
      </trkpt>
      <trkpt lat="44.40046" lon="6.04707">
        <ele>1188</ele>
        <time>2020-09-05T10:30:15.223Z</time>
      </trkpt>
      <trkpt lat="44.40049" lon="6.04697">
        <ele>1183</ele>
        <time>2020-09-05T10:30:17.000Z</time>
      </trkpt>
      <trkpt lat="44.40053" lon="6.04691">
        <ele>1178.3</ele>
        <time>2020-09-05T10:30:19.920Z</time>
      </trkpt>
      <trkpt lat="44.40056" lon="6.04685">
        <ele>1174.4</ele>
        <time>2020-09-05T10:30:21.000Z</time>
      </trkpt>
      <trkpt lat="44.40069" lon="6.04672">
        <ele>1165.7</ele>
        <time>2020-09-05T10:30:28.000Z</time>
      </trkpt>
      <trkpt lat="44.40076" lon="6.04664">
        <ele>1166.4</ele>
        <time>2020-09-05T10:30:29.000Z</time>
      </trkpt>
      <trkpt lat="44.40082" lon="6.04658">
        <ele>1164.7</ele>
        <time>2020-09-05T10:30:30.000Z</time>
      </trkpt>
      <trkpt lat="44.40078" lon="6.04665">
        <ele>1161.5</ele>
        <time>2020-09-05T10:30:32.000Z</time>
      </trkpt>
      <trkpt lat="44.40082" lon="6.04651">
        <ele>1161.1</ele>
        <time>2020-09-05T10:30:33.625Z</time>
      </trkpt>
      <trkpt lat="44.40093" lon="6.04618">
        <ele>1157.9</ele>
        <time>2020-09-05T10:30:34.847Z</time>
      </trkpt>
      <trkpt lat="44.40095" lon="6.04611">
        <ele>1156.9</ele>
        <time>2020-09-05T10:30:36.067Z</time>
      </trkpt>
      <trkpt lat="44.40096" lon="6.04605">
        <ele>1157.5</ele>
        <time>2020-09-05T10:30:37.000Z</time>
      </trkpt>
      <trkpt lat="44.40097" lon="6.04594">
        <ele>1158.1</ele>
        <time>2020-09-05T10:30:39.000Z</time>
      </trkpt>
      <trkpt lat="44.40097" lon="6.04587">
        <ele>1158.4</ele>
        <time>2020-09-05T10:30:44.504Z</time>
      </trkpt>
      <trkpt lat="44.40094" lon="6.04578">
        <ele>1156.4</ele>
        <time>2020-09-05T10:30:47.532Z</time>
      </trkpt>
      <trkpt lat="44.40091" lon="6.04569">
        <ele>1155.3</ele>
        <time>2020-09-05T10:30:49.825Z</time>
      </trkpt>
      <trkpt lat="44.4009" lon="6.04547">
        <ele>1154</ele>
        <time>2020-09-05T10:30:51.000Z</time>
      </trkpt>
      <trkpt lat="44.40085" lon="6.04529">
        <ele>1152.3</ele>
        <time>2020-09-05T10:30:53.000Z</time>
      </trkpt>
      <trkpt lat="44.40082" lon="6.04522">
        <ele>1151.7</ele>
        <time>2020-09-05T10:30:54.000Z</time>
      </trkpt>
      <trkpt lat="44.40078" lon="6.04518">
        <ele>1151.8</ele>
        <time>2020-09-05T10:30:55.000Z</time>
      </trkpt>
      <trkpt lat="44.40067" lon="6.04512">
        <ele>1150.6</ele>
        <time>2020-09-05T10:30:57.000Z</time>
      </trkpt>
      <trkpt lat="44.40059" lon="6.0451">
        <ele>1149.8</ele>
        <time>2020-09-05T10:30:58.000Z</time>
      </trkpt>
      <trkpt lat="44.40045" lon="6.04509">
        <ele>1146.7</ele>
        <time>2020-09-05T10:31:00.000Z</time>
      </trkpt>
      <trkpt lat="44.40038" lon="6.04507">
        <ele>1146.7</ele>
        <time>2020-09-05T10:31:01.000Z</time>
      </trkpt>
      <trkpt lat="44.40031" lon="6.04505">
        <ele>1146.2</ele>
        <time>2020-09-05T10:31:02.000Z</time>
      </trkpt>
      <trkpt lat="44.40016" lon="6.04496">
        <ele>1145.3</ele>
        <time>2020-09-05T10:31:04.000Z</time>
      </trkpt>
      <trkpt lat="44.4001" lon="6.04492">
        <ele>1145.3</ele>
        <time>2020-09-05T10:31:05.000Z</time>
      </trkpt>
      <trkpt lat="44.4" lon="6.04485">
        <ele>1143.1</ele>
        <time>2020-09-05T10:31:07.000Z</time>
      </trkpt>
      <trkpt lat="44.39997" lon="6.04478">
        <ele>1147.1</ele>
        <time>2020-09-05T10:31:09.000Z</time>
      </trkpt>
      <trkpt lat="44.39994" lon="6.04472">
        <ele>1145.2</ele>
        <time>2020-09-05T10:31:18.000Z</time>
      </trkpt>
      <trkpt lat="44.39992" lon="6.04466">
        <ele>1145.2</ele>
        <time>2020-09-05T10:31:58.000Z</time>
      </trkpt>
      <trkpt lat="44.39994" lon="6.04477">
        <ele>1146.1</ele>
        <time>2020-09-05T10:32:03.000Z</time>
      </trkpt>
      <trkpt lat="44.39999" lon="6.04481">
        <ele>1148.6</ele>
        <time>2020-09-05T10:32:06.000Z</time>
      </trkpt>
      <trkpt lat="44.40003" lon="6.04475">
        <ele>1147</ele>
        <time>2020-09-05T10:32:13.000Z</time>
      </trkpt>
      <trkpt lat="44.40007" lon="6.04467">
        <ele>1149.5</ele>
        <time>2020-09-05T10:32:15.000Z</time>
      </trkpt>
      <trkpt lat="44.4001" lon="6.04459">
        <ele>1148.6</ele>
        <time>2020-09-05T10:32:17.000Z</time>
      </trkpt>
      <trkpt lat="44.40014" lon="6.0445">
        <ele>1149.5</ele>
        <time>2020-09-05T10:32:20.000Z</time>
      </trkpt>
      <trkpt lat="44.40016" lon="6.04443">
        <ele>1151.9</ele>
        <time>2020-09-05T10:32:45.000Z</time>
      </trkpt>
      <trkpt lat="44.40019" lon="6.04437">
        <ele>1146.5</ele>
        <time>2020-09-05T10:32:55.000Z</time>
      </trkpt>
      <trkpt lat="44.40021" lon="6.04431">
        <ele>1146.9</ele>
        <time>2020-09-05T10:33:00.715Z</time>
      </trkpt>
      <trkpt lat="44.40023" lon="6.04425">
        <ele>1146.4</ele>
        <time>2020-09-05T10:33:08.001Z</time>
      </trkpt>
      <trkpt lat="44.40027" lon="6.04421">
        <ele>1139.2</ele>
        <time>2020-09-05T10:33:24.595Z</time>
      </trkpt>
      <trkpt lat="44.40032" lon="6.04419">
        <ele>1135.1</ele>
        <time>2020-09-05T10:33:32.000Z</time>
      </trkpt>
      <trkpt lat="44.40028" lon="6.04426">
        <ele>1137.2</ele>
        <time>2020-09-05T10:33:47.402Z</time>
      </trkpt>
      <trkpt lat="44.40025" lon="6.04431">
        <ele>1137.4</ele>
        <time>2020-09-05T10:33:51.000Z</time>
      </trkpt>
      <trkpt lat="44.40022" lon="6.04437">
        <ele>1140.2</ele>
        <time>2020-09-05T10:33:53.637Z</time>
      </trkpt>
      <trkpt lat="44.40019" lon="6.04454">
        <ele>1140.6</ele>
        <time>2020-09-05T10:33:56.702Z</time>
      </trkpt>
      <trkpt lat="44.40014" lon="6.04465">
        <ele>1140.8</ele>
        <time>2020-09-05T10:33:57.983Z</time>
      </trkpt>
      <trkpt lat="44.4001" lon="6.04472">
        <ele>1141.5</ele>
        <time>2020-09-05T10:33:59.000Z</time>
      </trkpt>
      <trkpt lat="44.40003" lon="6.04474">
        <ele>1141.1</ele>
        <time>2020-09-05T10:34:00.783Z</time>
      </trkpt>
      <trkpt lat="44.39998" lon="6.04473">
        <ele>1140.6</ele>
        <time>2020-09-05T10:34:01.925Z</time>
      </trkpt>
      <trkpt lat="44.39992" lon="6.04466">
        <ele>1140.3</ele>
        <time>2020-09-05T10:34:04.158Z</time>
      </trkpt>
      <trkpt lat="44.39993" lon="6.04456">
        <ele>1140.3</ele>
        <time>2020-09-05T10:34:06.000Z</time>
      </trkpt>
      <trkpt lat="44.39996" lon="6.04448">
        <ele>1140.1</ele>
        <time>2020-09-05T10:34:07.743Z</time>
      </trkpt>
      <trkpt lat="44.4" lon="6.04441">
        <ele>1140.4</ele>
        <time>2020-09-05T10:34:09.043Z</time>
      </trkpt>
      <trkpt lat="44.40008" lon="6.04432">
        <ele>1140.7</ele>
        <time>2020-09-05T10:34:10.000Z</time>
      </trkpt>
      <trkpt lat="44.40018" lon="6.04419">
        <ele>1136.8</ele>
        <time>2020-09-05T10:34:12.000Z</time>
      </trkpt>
      <trkpt lat="44.40023" lon="6.04413">
        <ele>1137.7</ele>
        <time>2020-09-05T10:34:13.000Z</time>
      </trkpt>
      <trkpt lat="44.40027" lon="6.04407">
        <ele>1137.1</ele>
        <time>2020-09-05T10:34:14.000Z</time>
      </trkpt>
      <trkpt lat="44.40031" lon="6.04401">
        <ele>1137.4</ele>
        <time>2020-09-05T10:34:15.000Z</time>
      </trkpt>
      <trkpt lat="44.40036" lon="6.04393">
        <ele>1136.2</ele>
        <time>2020-09-05T10:34:16.929Z</time>
      </trkpt>
      <trkpt lat="44.40039" lon="6.04382">
        <ele>1136</ele>
        <time>2020-09-05T10:34:18.000Z</time>
      </trkpt>
      <trkpt lat="44.40041" lon="6.04374">
        <ele>1135.1</ele>
        <time>2020-09-05T10:34:19.000Z</time>
      </trkpt>
      <trkpt lat="44.4004" lon="6.04353">
        <ele>1135</ele>
        <time>2020-09-05T10:34:21.000Z</time>
      </trkpt>
      <trkpt lat="44.40037" lon="6.04343">
        <ele>1134.8</ele>
        <time>2020-09-05T10:34:22.000Z</time>
      </trkpt>
      <trkpt lat="44.40034" lon="6.04333">
        <ele>1133.5</ele>
        <time>2020-09-05T10:34:23.000Z</time>
      </trkpt>
      <trkpt lat="44.40028" lon="6.04319">
        <ele>1132.1</ele>
        <time>2020-09-05T10:34:25.000Z</time>
      </trkpt>
      <trkpt lat="44.40021" lon="6.04306">
        <ele>1130.5</ele>
        <time>2020-09-05T10:34:27.000Z</time>
      </trkpt>
      <trkpt lat="44.40017" lon="6.04287">
        <ele>1129.5</ele>
        <time>2020-09-05T10:34:29.000Z</time>
      </trkpt>
      <trkpt lat="44.40017" lon="6.04277">
        <ele>1129.2</ele>
        <time>2020-09-05T10:34:30.000Z</time>
      </trkpt>
      <trkpt lat="44.40018" lon="6.04268">
        <ele>1129.7</ele>
        <time>2020-09-05T10:34:31.000Z</time>
      </trkpt>
      <trkpt lat="44.40023" lon="6.04249">
        <ele>1127.9</ele>
        <time>2020-09-05T10:34:33.000Z</time>
      </trkpt>
      <trkpt lat="44.40027" lon="6.0424">
        <ele>1126.9</ele>
        <time>2020-09-05T10:34:34.000Z</time>
      </trkpt>
      <trkpt lat="44.40031" lon="6.0422">
        <ele>1126.2</ele>
        <time>2020-09-05T10:34:36.000Z</time>
      </trkpt>
      <trkpt lat="44.40032" lon="6.04199">
        <ele>1124.8</ele>
        <time>2020-09-05T10:34:38.000Z</time>
      </trkpt>
      <trkpt lat="44.40032" lon="6.04188">
        <ele>1124.5</ele>
        <time>2020-09-05T10:34:39.000Z</time>
      </trkpt>
      <trkpt lat="44.40032" lon="6.04166">
        <ele>1125.1</ele>
        <time>2020-09-05T10:34:41.000Z</time>
      </trkpt>
      <trkpt lat="44.40031" lon="6.04152">
        <ele>1123.9</ele>
        <time>2020-09-05T10:34:42.000Z</time>
      </trkpt>
      <trkpt lat="44.40023" lon="6.04125">
        <ele>1122.1</ele>
        <time>2020-09-05T10:34:44.000Z</time>
      </trkpt>
      <trkpt lat="44.40013" lon="6.0409">
        <ele>1120.2</ele>
        <time>2020-09-05T10:34:46.000Z</time>
      </trkpt>
      <trkpt lat="44.40004" lon="6.04055">
        <ele>1117.5</ele>
        <time>2020-09-05T10:34:48.000Z</time>
      </trkpt>
      <trkpt lat="44.4" lon="6.0404">
        <ele>1117.6</ele>
        <time>2020-09-05T10:34:49.000Z</time>
      </trkpt>
      <trkpt lat="44.39988" lon="6.04013">
        <ele>1114.3</ele>
        <time>2020-09-05T10:34:51.000Z</time>
      </trkpt>
      <trkpt lat="44.39975" lon="6.03983">
        <ele>1116.3</ele>
        <time>2020-09-05T10:34:53.000Z</time>
      </trkpt>
      <trkpt lat="44.39963" lon="6.03951">
        <ele>1116.3</ele>
        <time>2020-09-05T10:34:55.000Z</time>
      </trkpt>
      <trkpt lat="44.39959" lon="6.03934">
        <ele>1115.9</ele>
        <time>2020-09-05T10:34:56.000Z</time>
      </trkpt>
      <trkpt lat="44.39954" lon="6.03916">
        <ele>1114</ele>
        <time>2020-09-05T10:34:57.000Z</time>
      </trkpt>
      <trkpt lat="44.39947" lon="6.03883">
        <ele>1113.1</ele>
        <time>2020-09-05T10:34:59.000Z</time>
      </trkpt>
      <trkpt lat="44.39944" lon="6.03866">
        <ele>1112.6</ele>
        <time>2020-09-05T10:35:00.000Z</time>
      </trkpt>
      <trkpt lat="44.39937" lon="6.03835">
        <ele>1110.1</ele>
        <time>2020-09-05T10:35:02.000Z</time>
      </trkpt>
      <trkpt lat="44.39933" lon="6.03819">
        <ele>1108.8</ele>
        <time>2020-09-05T10:35:03.000Z</time>
      </trkpt>
      <trkpt lat="44.39929" lon="6.03803">
        <ele>1108.3</ele>
        <time>2020-09-05T10:35:04.000Z</time>
      </trkpt>
      <trkpt lat="44.39925" lon="6.03788">
        <ele>1108.5</ele>
        <time>2020-09-05T10:35:05.000Z</time>
      </trkpt>
      <trkpt lat="44.39916" lon="6.03756">
        <ele>1108.9</ele>
        <time>2020-09-05T10:35:07.000Z</time>
      </trkpt>
      <trkpt lat="44.39911" lon="6.03738">
        <ele>1107.2</ele>
        <time>2020-09-05T10:35:08.000Z</time>
      </trkpt>
      <trkpt lat="44.39903" lon="6.03709">
        <ele>1104.1</ele>
        <time>2020-09-05T10:35:10.000Z</time>
      </trkpt>
      <trkpt lat="44.39899" lon="6.03682">
        <ele>1102.8</ele>
        <time>2020-09-05T10:35:12.000Z</time>
      </trkpt>
      <trkpt lat="44.39899" lon="6.03671">
        <ele>1102.5</ele>
        <time>2020-09-05T10:35:13.000Z</time>
      </trkpt>
      <trkpt lat="44.39901" lon="6.03663">
        <ele>1100.5</ele>
        <time>2020-09-05T10:35:14.000Z</time>
      </trkpt>
      <trkpt lat="44.39907" lon="6.03652">
        <ele>1095</ele>
        <time>2020-09-05T10:35:16.000Z</time>
      </trkpt>
      <trkpt lat="44.39915" lon="6.0365">
        <ele>1091.7</ele>
        <time>2020-09-05T10:35:18.000Z</time>
      </trkpt>
      <trkpt lat="44.39929" lon="6.03655">
        <ele>1089</ele>
        <time>2020-09-05T10:35:20.000Z</time>
      </trkpt>
      <trkpt lat="44.39945" lon="6.03656">
        <ele>1088.5</ele>
        <time>2020-09-05T10:35:22.000Z</time>
      </trkpt>
      <trkpt lat="44.39961" lon="6.03659">
        <ele>1088.3</ele>
        <time>2020-09-05T10:35:24.000Z</time>
      </trkpt>
      <trkpt lat="44.39969" lon="6.03661">
        <ele>1088.8</ele>
        <time>2020-09-05T10:35:25.000Z</time>
      </trkpt>
      <trkpt lat="44.39985" lon="6.03662">
        <ele>1085.8</ele>
        <time>2020-09-05T10:35:27.000Z</time>
      </trkpt>
      <trkpt lat="44.39999" lon="6.03662">
        <ele>1083.6</ele>
        <time>2020-09-05T10:35:29.000Z</time>
      </trkpt>
      <trkpt lat="44.40005" lon="6.03661">
        <ele>1084.2</ele>
        <time>2020-09-05T10:35:30.000Z</time>
      </trkpt>
      <trkpt lat="44.40011" lon="6.0366">
        <ele>1083.9</ele>
        <time>2020-09-05T10:35:31.000Z</time>
      </trkpt>
      <trkpt lat="44.40018" lon="6.03659">
        <ele>1083.6</ele>
        <time>2020-09-05T10:35:32.000Z</time>
      </trkpt>
      <trkpt lat="44.40032" lon="6.03657">
        <ele>1079.7</ele>
        <time>2020-09-05T10:35:34.000Z</time>
      </trkpt>
      <trkpt lat="44.40039" lon="6.03655">
        <ele>1077.5</ele>
        <time>2020-09-05T10:35:35.000Z</time>
      </trkpt>
      <trkpt lat="44.40047" lon="6.0365">
        <ele>1079</ele>
        <time>2020-09-05T10:35:36.000Z</time>
      </trkpt>
      <trkpt lat="44.40065" lon="6.03638">
        <ele>1074.1</ele>
        <time>2020-09-05T10:35:38.000Z</time>
      </trkpt>
      <trkpt lat="44.40074" lon="6.03631">
        <ele>1073.7</ele>
        <time>2020-09-05T10:35:39.000Z</time>
      </trkpt>
      <trkpt lat="44.40083" lon="6.03625">
        <ele>1073.2</ele>
        <time>2020-09-05T10:35:40.000Z</time>
      </trkpt>
      <trkpt lat="44.40093" lon="6.03619">
        <ele>1070.3</ele>
        <time>2020-09-05T10:35:41.000Z</time>
      </trkpt>
      <trkpt lat="44.40104" lon="6.03614">
        <ele>1070.5</ele>
        <time>2020-09-05T10:35:42.338Z</time>
      </trkpt>
      <trkpt lat="44.40124" lon="6.03609">
        <ele>1068.4</ele>
        <time>2020-09-05T10:35:44.000Z</time>
      </trkpt>
      <trkpt lat="44.40134" lon="6.03606">
        <ele>1068.3</ele>
        <time>2020-09-05T10:35:45.000Z</time>
      </trkpt>
      <trkpt lat="44.40154" lon="6.03601">
        <ele>1066.6</ele>
        <time>2020-09-05T10:35:47.000Z</time>
      </trkpt>
      <trkpt lat="44.40175" lon="6.03603">
        <ele>1065.8</ele>
        <time>2020-09-05T10:35:49.000Z</time>
      </trkpt>
      <trkpt lat="44.40196" lon="6.03616">
        <ele>1064.1</ele>
        <time>2020-09-05T10:35:51.000Z</time>
      </trkpt>
      <trkpt lat="44.40206" lon="6.03626">
        <ele>1063.2</ele>
        <time>2020-09-05T10:35:52.000Z</time>
      </trkpt>
      <trkpt lat="44.40217" lon="6.03637">
        <ele>1062.7</ele>
        <time>2020-09-05T10:35:53.000Z</time>
      </trkpt>
      <trkpt lat="44.40229" lon="6.03648">
        <ele>1062.1</ele>
        <time>2020-09-05T10:35:54.000Z</time>
      </trkpt>
      <trkpt lat="44.40253" lon="6.03668">
        <ele>1058.1</ele>
        <time>2020-09-05T10:35:56.000Z</time>
      </trkpt>
      <trkpt lat="44.40265" lon="6.03678">
        <ele>1056.7</ele>
        <time>2020-09-05T10:35:57.000Z</time>
      </trkpt>
      <trkpt lat="44.40276" lon="6.03689">
        <ele>1055</ele>
        <time>2020-09-05T10:35:58.000Z</time>
      </trkpt>
      <trkpt lat="44.40299" lon="6.03713">
        <ele>1055.3</ele>
        <time>2020-09-05T10:36:00.000Z</time>
      </trkpt>
      <trkpt lat="44.40311" lon="6.03727">
        <ele>1054.3</ele>
        <time>2020-09-05T10:36:01.000Z</time>
      </trkpt>
      <trkpt lat="44.40333" lon="6.03753">
        <ele>1053.4</ele>
        <time>2020-09-05T10:36:03.000Z</time>
      </trkpt>
      <trkpt lat="44.40356" lon="6.03781">
        <ele>1052.3</ele>
        <time>2020-09-05T10:36:05.000Z</time>
      </trkpt>
      <trkpt lat="44.40367" lon="6.03793">
        <ele>1052</ele>
        <time>2020-09-05T10:36:06.000Z</time>
      </trkpt>
      <trkpt lat="44.40391" lon="6.0381">
        <ele>1048.7</ele>
        <time>2020-09-05T10:36:08.000Z</time>
      </trkpt>
      <trkpt lat="44.40416" lon="6.0382">
        <ele>1048</ele>
        <time>2020-09-05T10:36:10.000Z</time>
      </trkpt>
      <trkpt lat="44.40441" lon="6.03823">
        <ele>1041.2</ele>
        <time>2020-09-05T10:36:12.000Z</time>
      </trkpt>
      <trkpt lat="44.40467" lon="6.03813">
        <ele>1038.7</ele>
        <time>2020-09-05T10:36:14.000Z</time>
      </trkpt>
      <trkpt lat="44.4048" lon="6.03804">
        <ele>1037.5</ele>
        <time>2020-09-05T10:36:15.000Z</time>
      </trkpt>
      <trkpt lat="44.40493" lon="6.03793">
        <ele>1036.6</ele>
        <time>2020-09-05T10:36:16.000Z</time>
      </trkpt>
      <trkpt lat="44.4052" lon="6.03772">
        <ele>1035</ele>
        <time>2020-09-05T10:36:18.000Z</time>
      </trkpt>
      <trkpt lat="44.40529" lon="6.0376">
        <ele>1029.7</ele>
        <time>2020-09-05T10:36:19.000Z</time>
      </trkpt>
      <trkpt lat="44.40546" lon="6.03731">
        <ele>1025.2</ele>
        <time>2020-09-05T10:36:21.000Z</time>
      </trkpt>
      <trkpt lat="44.40573" lon="6.03696">
        <ele>1022.3</ele>
        <time>2020-09-05T10:36:23.000Z</time>
      </trkpt>
      <trkpt lat="44.40603" lon="6.03664">
        <ele>1022.5</ele>
        <time>2020-09-05T10:36:25.000Z</time>
      </trkpt>
      <trkpt lat="44.40616" lon="6.03652">
        <ele>1022.5</ele>
        <time>2020-09-05T10:36:26.000Z</time>
      </trkpt>
      <trkpt lat="44.40639" lon="6.03633">
        <ele>1023.9</ele>
        <time>2020-09-05T10:36:28.000Z</time>
      </trkpt>
      <trkpt lat="44.40648" lon="6.03626">
        <ele>1024.6</ele>
        <time>2020-09-05T10:36:29.000Z</time>
      </trkpt>
      <trkpt lat="44.40655" lon="6.0362">
        <ele>1024.3</ele>
        <time>2020-09-05T10:36:30.000Z</time>
      </trkpt>
      <trkpt lat="44.40662" lon="6.03619">
        <ele>1023.8</ele>
        <time>2020-09-05T10:36:32.000Z</time>
      </trkpt>
      <trkpt lat="44.40664" lon="6.03629">
        <ele>1023.5</ele>
        <time>2020-09-05T10:36:34.000Z</time>
      </trkpt>
      <trkpt lat="44.40669" lon="6.03645">
        <ele>1024.1</ele>
        <time>2020-09-05T10:36:36.000Z</time>
      </trkpt>
      <trkpt lat="44.4067" lon="6.03654">
        <ele>1024</ele>
        <time>2020-09-05T10:36:37.000Z</time>
      </trkpt>
      <trkpt lat="44.40674" lon="6.03669">
        <ele>1022.8</ele>
        <time>2020-09-05T10:36:39.000Z</time>
      </trkpt>
      <trkpt lat="44.40682" lon="6.03679">
        <ele>1021.7</ele>
        <time>2020-09-05T10:36:41.000Z</time>
      </trkpt>
      <trkpt lat="44.40688" lon="6.03683">
        <ele>1022</ele>
        <time>2020-09-05T10:36:42.000Z</time>
      </trkpt>
      <trkpt lat="44.40695" lon="6.03686">
        <ele>1023</ele>
        <time>2020-09-05T10:36:43.000Z</time>
      </trkpt>
      <trkpt lat="44.40707" lon="6.03689">
        <ele>1026.3</ele>
        <time>2020-09-05T10:36:45.000Z</time>
      </trkpt>
      <trkpt lat="44.40712" lon="6.03687">
        <ele>1022.7</ele>
        <time>2020-09-05T10:36:46.000Z</time>
      </trkpt>
      <trkpt lat="44.40717" lon="6.03684">
        <ele>1022</ele>
        <time>2020-09-05T10:36:47.000Z</time>
      </trkpt>
      <trkpt lat="44.40724" lon="6.03677">
        <ele>1019.8</ele>
        <time>2020-09-05T10:36:48.000Z</time>
      </trkpt>
      <trkpt lat="44.40733" lon="6.03668">
        <ele>1018.2</ele>
        <time>2020-09-05T10:36:49.000Z</time>
      </trkpt>
      <trkpt lat="44.4075" lon="6.03649">
        <ele>1015</ele>
        <time>2020-09-05T10:36:51.000Z</time>
      </trkpt>
      <trkpt lat="44.4076" lon="6.03642">
        <ele>1014.4</ele>
        <time>2020-09-05T10:36:52.000Z</time>
      </trkpt>
      <trkpt lat="44.4078" lon="6.03633">
        <ele>1016.6</ele>
        <time>2020-09-05T10:36:54.000Z</time>
      </trkpt>
      <trkpt lat="44.4079" lon="6.03632">
        <ele>1016.2</ele>
        <time>2020-09-05T10:36:55.000Z</time>
      </trkpt>
      <trkpt lat="44.40801" lon="6.03631">
        <ele>1016.1</ele>
        <time>2020-09-05T10:36:56.000Z</time>
      </trkpt>
      <trkpt lat="44.40822" lon="6.0363">
        <ele>1019.1</ele>
        <time>2020-09-05T10:36:58.000Z</time>
      </trkpt>
      <trkpt lat="44.40832" lon="6.03628">
        <ele>1019.7</ele>
        <time>2020-09-05T10:36:59.000Z</time>
      </trkpt>
      <trkpt lat="44.4084" lon="6.03626">
        <ele>1016.2</ele>
        <time>2020-09-05T10:37:00.000Z</time>
      </trkpt>
      <trkpt lat="44.40858" lon="6.03619">
        <ele>1009.9</ele>
        <time>2020-09-05T10:37:02.000Z</time>
      </trkpt>
      <trkpt lat="44.40877" lon="6.03606">
        <ele>1009.3</ele>
        <time>2020-09-05T10:37:04.000Z</time>
      </trkpt>
      <trkpt lat="44.40896" lon="6.03591">
        <ele>1004.3</ele>
        <time>2020-09-05T10:37:06.000Z</time>
      </trkpt>
      <trkpt lat="44.40904" lon="6.03583">
        <ele>1003</ele>
        <time>2020-09-05T10:37:07.000Z</time>
      </trkpt>
      <trkpt lat="44.40919" lon="6.03569">
        <ele>999.3</ele>
        <time>2020-09-05T10:37:09.000Z</time>
      </trkpt>
      <trkpt lat="44.40934" lon="6.03558">
        <ele>996.7</ele>
        <time>2020-09-05T10:37:11.000Z</time>
      </trkpt>
      <trkpt lat="44.4094" lon="6.03556">
        <ele>995.6</ele>
        <time>2020-09-05T10:37:12.000Z</time>
      </trkpt>
      <trkpt lat="44.40948" lon="6.03557">
        <ele>994.9</ele>
        <time>2020-09-05T10:37:13.000Z</time>
      </trkpt>
      <trkpt lat="44.40955" lon="6.03561">
        <ele>994.8</ele>
        <time>2020-09-05T10:37:14.000Z</time>
      </trkpt>
      <trkpt lat="44.40963" lon="6.03567">
        <ele>993.9</ele>
        <time>2020-09-05T10:37:15.000Z</time>
      </trkpt>
      <trkpt lat="44.40979" lon="6.03572">
        <ele>993</ele>
        <time>2020-09-05T10:37:17.000Z</time>
      </trkpt>
      <trkpt lat="44.40986" lon="6.03574">
        <ele>991.5</ele>
        <time>2020-09-05T10:37:18.000Z</time>
      </trkpt>
      <trkpt lat="44.41003" lon="6.03582">
        <ele>991</ele>
        <time>2020-09-05T10:37:20.000Z</time>
      </trkpt>
      <trkpt lat="44.41011" lon="6.03588">
        <ele>991</ele>
        <time>2020-09-05T10:37:21.000Z</time>
      </trkpt>
      <trkpt lat="44.41019" lon="6.03596">
        <ele>990.7</ele>
        <time>2020-09-05T10:37:22.000Z</time>
      </trkpt>
      <trkpt lat="44.4103" lon="6.03616">
        <ele>988.8</ele>
        <time>2020-09-05T10:37:24.000Z</time>
      </trkpt>
      <trkpt lat="44.41038" lon="6.03645">
        <ele>987</ele>
        <time>2020-09-05T10:37:26.000Z</time>
      </trkpt>
      <trkpt lat="44.41042" lon="6.0366">
        <ele>988.8</ele>
        <time>2020-09-05T10:37:27.000Z</time>
      </trkpt>
      <trkpt lat="44.41051" lon="6.03684">
        <ele>983.3</ele>
        <time>2020-09-05T10:37:29.000Z</time>
      </trkpt>
      <trkpt lat="44.41056" lon="6.03696">
        <ele>980.9</ele>
        <time>2020-09-05T10:37:30.000Z</time>
      </trkpt>
      <trkpt lat="44.41068" lon="6.0372">
        <ele>977.1</ele>
        <time>2020-09-05T10:37:32.000Z</time>
      </trkpt>
      <trkpt lat="44.41081" lon="6.03743">
        <ele>974</ele>
        <time>2020-09-05T10:37:34.000Z</time>
      </trkpt>
      <trkpt lat="44.41096" lon="6.03759">
        <ele>975.7</ele>
        <time>2020-09-05T10:37:36.000Z</time>
      </trkpt>
      <trkpt lat="44.41104" lon="6.03763">
        <ele>975.8</ele>
        <time>2020-09-05T10:37:37.000Z</time>
      </trkpt>
      <trkpt lat="44.41114" lon="6.03763">
        <ele>972.8</ele>
        <time>2020-09-05T10:37:39.000Z</time>
      </trkpt>
      <trkpt lat="44.41116" lon="6.03757">
        <ele>970.2</ele>
        <time>2020-09-05T10:37:41.000Z</time>
      </trkpt>
      <trkpt lat="44.41115" lon="6.03764">
        <ele>968.9</ele>
        <time>2020-09-05T10:37:57.000Z</time>
      </trkpt>
      <trkpt lat="44.41118" lon="6.03775">
        <ele>968.6</ele>
        <time>2020-09-05T10:37:59.000Z</time>
      </trkpt>
      <trkpt lat="44.41121" lon="6.03783">
        <ele>968.5</ele>
        <time>2020-09-05T10:38:00.305Z</time>
      </trkpt>
      <trkpt lat="44.4113" lon="6.03794">
        <ele>966.7</ele>
        <time>2020-09-05T10:38:02.000Z</time>
      </trkpt>
      <trkpt lat="44.41142" lon="6.03806">
        <ele>964</ele>
        <time>2020-09-05T10:38:04.000Z</time>
      </trkpt>
      <trkpt lat="44.4115" lon="6.0381">
        <ele>964.2</ele>
        <time>2020-09-05T10:38:06.000Z</time>
      </trkpt>
      <trkpt lat="44.41154" lon="6.03805">
        <ele>967.3</ele>
        <time>2020-09-05T10:38:07.000Z</time>
      </trkpt>
      <trkpt lat="44.4116" lon="6.038">
        <ele>966.8</ele>
        <time>2020-09-05T10:38:08.000Z</time>
      </trkpt>
      <trkpt lat="44.41168" lon="6.03794">
        <ele>964.4</ele>
        <time>2020-09-05T10:38:09.000Z</time>
      </trkpt>
      <trkpt lat="44.41174" lon="6.03787">
        <ele>960</ele>
        <time>2020-09-05T10:38:10.000Z</time>
      </trkpt>
      <trkpt lat="44.41185" lon="6.03781">
        <ele>952.6</ele>
        <time>2020-09-05T10:38:12.000Z</time>
      </trkpt>
      <trkpt lat="44.41193" lon="6.03783">
        <ele>643.2</ele>
        <time>2020-09-05T10:38:14.000Z</time>
      </trkpt>
      <trkpt lat="44.41197" lon="6.03786">
        <ele>643.2</ele>
        <time>2020-09-05T10:38:17.000Z</time>
      </trkpt>
      <trkpt lat="44.41202" lon="6.03789">
        <ele>942.5</ele>
        <time>2020-09-05T10:39:12.000Z</time>
      </trkpt>
      <trkpt lat="44.41206" lon="6.03788">
        <ele>639.3</ele>
        <time>2020-09-05T10:39:15.000Z</time>
      </trkpt>
      <trkpt lat="44.41212" lon="6.03784">
        <ele>639.3</ele>
        <time>2020-09-05T10:39:18.000Z</time>
      </trkpt>
      <trkpt lat="44.4122" lon="6.03783">
        <ele>639.3</ele>
        <time>2020-09-05T10:39:21.000Z</time>
      </trkpt>
      <trkpt lat="44.41224" lon="6.03787">
        <ele>639.3</ele>
        <time>2020-09-05T10:39:23.000Z</time>
      </trkpt>
      <trkpt lat="44.41228" lon="6.03797">
        <ele>639.3</ele>
        <time>2020-09-05T10:39:26.000Z</time>
      </trkpt>
      <trkpt lat="44.41229" lon="6.03803">
        <ele>639.3</ele>
        <time>2020-09-05T10:39:28.000Z</time>
      </trkpt>
      <trkpt lat="44.41232" lon="6.0381">
        <ele>639.3</ele>
        <time>2020-09-05T10:39:31.000Z</time>
      </trkpt>
      <trkpt lat="44.41237" lon="6.03813">
        <ele>639.3</ele>
        <time>2020-09-05T10:39:33.000Z</time>
      </trkpt>
      <trkpt lat="44.41241" lon="6.03813">
        <ele>639.3</ele>
        <time>2020-09-05T10:39:35.000Z</time>
      </trkpt>
      <trkpt lat="44.41246" lon="6.03813">
        <ele>639.3</ele>
        <time>2020-09-05T10:39:42.262Z</time>
      </trkpt>
      <trkpt lat="44.41253" lon="6.03815">
        <ele>639.3</ele>
        <time>2020-09-05T10:39:44.000Z</time>
      </trkpt>
      <trkpt lat="44.41261" lon="6.03821">
        <ele>639.3</ele>
        <time>2020-09-05T10:39:46.000Z</time>
      </trkpt>
      <trkpt lat="44.41264" lon="6.03825">
        <ele>639.3</ele>
        <time>2020-09-05T10:39:47.237Z</time>
      </trkpt>
      <trkpt lat="44.4127" lon="6.03828">
        <ele>639.3</ele>
        <time>2020-09-05T10:39:49.000Z</time>
      </trkpt>
      <trkpt lat="44.41276" lon="6.03827">
        <ele>639.3</ele>
        <time>2020-09-05T10:39:54.000Z</time>
      </trkpt>
      <trkpt lat="44.41283" lon="6.03832">
        <ele>639.3</ele>
        <time>2020-09-05T10:39:57.000Z</time>
      </trkpt>
      <trkpt lat="44.41286" lon="6.03838">
        <ele>639.3</ele>
        <time>2020-09-05T10:39:59.000Z</time>
      </trkpt>
      <trkpt lat="44.41293" lon="6.0383">
        <ele>639.3</ele>
        <time>2020-09-05T10:40:04.000Z</time>
      </trkpt>
      <trkpt lat="44.41296" lon="6.0382">
        <ele>639.3</ele>
        <time>2020-09-05T10:40:05.000Z</time>
      </trkpt>
      <trkpt lat="44.41299" lon="6.03803">
        <ele>639.3</ele>
        <time>2020-09-05T10:40:07.000Z</time>
      </trkpt>
      <trkpt lat="44.413" lon="6.03795">
        <ele>639.3</ele>
        <time>2020-09-05T10:40:08.000Z</time>
      </trkpt>
      <trkpt lat="44.41301" lon="6.03787">
        <ele>639.3</ele>
        <time>2020-09-05T10:40:09.258Z</time>
      </trkpt>
      <trkpt lat="44.41306" lon="6.03786">
        <ele>639.3</ele>
        <time>2020-09-05T10:40:11.000Z</time>
      </trkpt>
      <trkpt lat="44.41315" lon="6.03785">
        <ele>639.3</ele>
        <time>2020-09-05T10:40:13.000Z</time>
      </trkpt>
      <trkpt lat="44.41325" lon="6.03793">
        <ele>903.6</ele>
        <time>2020-09-05T10:40:16.000Z</time>
      </trkpt>
      <trkpt lat="44.41331" lon="6.03795">
        <ele>901.7</ele>
        <time>2020-09-05T10:40:17.000Z</time>
      </trkpt>
      <trkpt lat="44.41337" lon="6.03795">
        <ele>901.1</ele>
        <time>2020-09-05T10:40:20.888Z</time>
      </trkpt>
      <trkpt lat="44.41342" lon="6.03794">
        <ele>898.7</ele>
        <time>2020-09-05T10:40:21.908Z</time>
      </trkpt>
      <trkpt lat="44.41347" lon="6.03794">
        <ele>898</ele>
        <time>2020-09-05T10:40:23.151Z</time>
      </trkpt>
      <trkpt lat="44.41353" lon="6.03791">
        <ele>894.6</ele>
        <time>2020-09-05T10:40:24.788Z</time>
      </trkpt>
      <trkpt lat="44.41357" lon="6.03786">
        <ele>892.6</ele>
        <time>2020-09-05T10:40:26.047Z</time>
      </trkpt>
      <trkpt lat="44.41362" lon="6.03785">
        <ele>887.7</ele>
        <time>2020-09-05T10:40:27.000Z</time>
      </trkpt>
      <trkpt lat="44.41369" lon="6.03783">
        <ele>886.9</ele>
        <time>2020-09-05T10:40:29.006Z</time>
      </trkpt>
      <trkpt lat="44.41377" lon="6.03779">
        <ele>884.8</ele>
        <time>2020-09-05T10:40:30.000Z</time>
      </trkpt>
      <trkpt lat="44.41383" lon="6.03775">
        <ele>884.5</ele>
        <time>2020-09-05T10:40:31.000Z</time>
      </trkpt>
      <trkpt lat="44.41389" lon="6.0377">
        <ele>883.7</ele>
        <time>2020-09-05T10:40:32.000Z</time>
      </trkpt>
      <trkpt lat="44.414" lon="6.03766">
        <ele>879.7</ele>
        <time>2020-09-05T10:40:34.000Z</time>
      </trkpt>
      <trkpt lat="44.41405" lon="6.03761">
        <ele>878.4</ele>
        <time>2020-09-05T10:40:35.988Z</time>
      </trkpt>
      <trkpt lat="44.4141" lon="6.03756">
        <ele>877.9</ele>
        <time>2020-09-05T10:40:37.000Z</time>
      </trkpt>
      <trkpt lat="44.41415" lon="6.03752">
        <ele>875</ele>
        <time>2020-09-05T10:40:38.000Z</time>
      </trkpt>
      <trkpt lat="44.41425" lon="6.03745">
        <ele>874.4</ele>
        <time>2020-09-05T10:40:40.000Z</time>
      </trkpt>
      <trkpt lat="44.41434" lon="6.03737">
        <ele>872</ele>
        <time>2020-09-05T10:40:42.000Z</time>
      </trkpt>
      <trkpt lat="44.41439" lon="6.03739">
        <ele>872.8</ele>
        <time>2020-09-05T10:40:43.403Z</time>
      </trkpt>
      <trkpt lat="44.41443" lon="6.0374">
        <ele>872.3</ele>
        <time>2020-09-05T10:40:44.471Z</time>
      </trkpt>
      <trkpt lat="44.4145" lon="6.03736">
        <ele>871.6</ele>
        <time>2020-09-05T10:40:46.067Z</time>
      </trkpt>
      <trkpt lat="44.41454" lon="6.03733">
        <ele>871.8</ele>
        <time>2020-09-05T10:40:47.000Z</time>
      </trkpt>
      <trkpt lat="44.41469" lon="6.0373">
        <ele>868.2</ele>
        <time>2020-09-05T10:40:50.000Z</time>
      </trkpt>
      <trkpt lat="44.41475" lon="6.03737">
        <ele>867.5</ele>
        <time>2020-09-05T10:40:52.518Z</time>
      </trkpt>
      <trkpt lat="44.41481" lon="6.03738">
        <ele>866.4</ele>
        <time>2020-09-05T10:40:53.698Z</time>
      </trkpt>
      <trkpt lat="44.41487" lon="6.03737">
        <ele>864.2</ele>
        <time>2020-09-05T10:40:55.120Z</time>
      </trkpt>
      <trkpt lat="44.41493" lon="6.0374">
        <ele>862.4</ele>
        <time>2020-09-05T10:40:56.000Z</time>
      </trkpt>
      <trkpt lat="44.41498" lon="6.03744">
        <ele>858.9</ele>
        <time>2020-09-05T10:40:57.000Z</time>
      </trkpt>
      <trkpt lat="44.41503" lon="6.0375">
        <ele>856.7</ele>
        <time>2020-09-05T10:40:58.000Z</time>
      </trkpt>
      <trkpt lat="44.4151" lon="6.03762">
        <ele>855.4</ele>
        <time>2020-09-05T10:41:00.000Z</time>
      </trkpt>
      <trkpt lat="44.41514" lon="6.03769">
        <ele>854.4</ele>
        <time>2020-09-05T10:41:01.000Z</time>
      </trkpt>
      <trkpt lat="44.41518" lon="6.03774">
        <ele>853.7</ele>
        <time>2020-09-05T10:41:02.000Z</time>
      </trkpt>
      <trkpt lat="44.41522" lon="6.03777">
        <ele>853.7</ele>
        <time>2020-09-05T10:41:03.000Z</time>
      </trkpt>
      <trkpt lat="44.4153" lon="6.03775">
        <ele>853.1</ele>
        <time>2020-09-05T10:41:05.000Z</time>
      </trkpt>
      <trkpt lat="44.41533" lon="6.03768">
        <ele>849.8</ele>
        <time>2020-09-05T10:41:06.801Z</time>
      </trkpt>
      <trkpt lat="44.41534" lon="6.03757">
        <ele>843.5</ele>
        <time>2020-09-05T10:41:09.000Z</time>
      </trkpt>
      <trkpt lat="44.41536" lon="6.03738">
        <ele>839.2</ele>
        <time>2020-09-05T10:41:11.000Z</time>
      </trkpt>
      <trkpt lat="44.41538" lon="6.0373">
        <ele>838.7</ele>
        <time>2020-09-05T10:41:12.000Z</time>
      </trkpt>
      <trkpt lat="44.4154" lon="6.03721">
        <ele>837.4</ele>
        <time>2020-09-05T10:41:13.000Z</time>
      </trkpt>
      <trkpt lat="44.41543" lon="6.03704">
        <ele>837.1</ele>
        <time>2020-09-05T10:41:15.000Z</time>
      </trkpt>
      <trkpt lat="44.41543" lon="6.03697">
        <ele>834.9</ele>
        <time>2020-09-05T10:41:16.000Z</time>
      </trkpt>
      <trkpt lat="44.41544" lon="6.03689">
        <ele>832.3</ele>
        <time>2020-09-05T10:41:17.000Z</time>
      </trkpt>
      <trkpt lat="44.41546" lon="6.03674">
        <ele>828.5</ele>
        <time>2020-09-05T10:41:19.000Z</time>
      </trkpt>
      <trkpt lat="44.41542" lon="6.03666">
        <ele>826.9</ele>
        <time>2020-09-05T10:41:21.967Z</time>
      </trkpt>
      <trkpt lat="44.41539" lon="6.03658">
        <ele>826.2</ele>
        <time>2020-09-05T10:41:23.619Z</time>
      </trkpt>
      <trkpt lat="44.41537" lon="6.03642">
        <ele>822.7</ele>
        <time>2020-09-05T10:41:25.000Z</time>
      </trkpt>
      <trkpt lat="44.41536" lon="6.03633">
        <ele>822.2</ele>
        <time>2020-09-05T10:41:26.000Z</time>
      </trkpt>
      <trkpt lat="44.41533" lon="6.03617">
        <ele>819.4</ele>
        <time>2020-09-05T10:41:28.000Z</time>
      </trkpt>
      <trkpt lat="44.41528" lon="6.03607">
        <ele>818.3</ele>
        <time>2020-09-05T10:41:29.000Z</time>
      </trkpt>
      <trkpt lat="44.41521" lon="6.03587">
        <ele>818</ele>
        <time>2020-09-05T10:41:31.000Z</time>
      </trkpt>
      <trkpt lat="44.41514" lon="6.03577">
        <ele>816.2</ele>
        <time>2020-09-05T10:41:33.000Z</time>
      </trkpt>
      <trkpt lat="44.41503" lon="6.0357">
        <ele>812.4</ele>
        <time>2020-09-05T10:41:35.000Z</time>
      </trkpt>
      <trkpt lat="44.41514" lon="6.03564">
        <ele>806.1</ele>
        <time>2020-09-05T10:41:40.000Z</time>
      </trkpt>
      <trkpt lat="44.41527" lon="6.03561">
        <ele>801</ele>
        <time>2020-09-05T10:41:42.000Z</time>
      </trkpt>
      <trkpt lat="44.41534" lon="6.03562">
        <ele>801.2</ele>
        <time>2020-09-05T10:41:43.000Z</time>
      </trkpt>
      <trkpt lat="44.41541" lon="6.03564">
        <ele>800.2</ele>
        <time>2020-09-05T10:41:44.000Z</time>
      </trkpt>
      <trkpt lat="44.41548" lon="6.03566">
        <ele>800</ele>
        <time>2020-09-05T10:41:45.000Z</time>
      </trkpt>
      <trkpt lat="44.41558" lon="6.03574">
        <ele>798.7</ele>
        <time>2020-09-05T10:41:47.000Z</time>
      </trkpt>
      <trkpt lat="44.41555" lon="6.03559">
        <ele>794.4</ele>
        <time>2020-09-05T10:41:52.000Z</time>
      </trkpt>
      <trkpt lat="44.41552" lon="6.03552">
        <ele>792.2</ele>
        <time>2020-09-05T10:41:53.000Z</time>
      </trkpt>
      <trkpt lat="44.41545" lon="6.0354">
        <ele>787.2</ele>
        <time>2020-09-05T10:41:55.000Z</time>
      </trkpt>
      <trkpt lat="44.41535" lon="6.03536">
        <ele>785.6</ele>
        <time>2020-09-05T10:41:57.000Z</time>
      </trkpt>
      <trkpt lat="44.41531" lon="6.03532">
        <ele>783.9</ele>
        <time>2020-09-05T10:41:59.000Z</time>
      </trkpt>
      <trkpt lat="44.41542" lon="6.03526">
        <ele>779</ele>
        <time>2020-09-05T10:42:03.000Z</time>
      </trkpt>
      <trkpt lat="44.41548" lon="6.03526">
        <ele>776</ele>
        <time>2020-09-05T10:42:04.000Z</time>
      </trkpt>
      <trkpt lat="44.41557" lon="6.03529">
        <ele>775.9</ele>
        <time>2020-09-05T10:42:06.000Z</time>
      </trkpt>
      <trkpt lat="44.41564" lon="6.03537">
        <ele>775.1</ele>
        <time>2020-09-05T10:42:08.000Z</time>
      </trkpt>
      <trkpt lat="44.41569" lon="6.03541">
        <ele>775.1</ele>
        <time>2020-09-05T10:42:09.000Z</time>
      </trkpt>
      <trkpt lat="44.41581" lon="6.03547">
        <ele>773.5</ele>
        <time>2020-09-05T10:42:11.000Z</time>
      </trkpt>
      <trkpt lat="44.41585" lon="6.03551">
        <ele>772.6</ele>
        <time>2020-09-05T10:42:12.000Z</time>
      </trkpt>
      <trkpt lat="44.41592" lon="6.03549">
        <ele>768</ele>
        <time>2020-09-05T10:42:15.000Z</time>
      </trkpt>
      <trkpt lat="44.41589" lon="6.0354">
        <ele>766.8</ele>
        <time>2020-09-05T10:42:17.920Z</time>
      </trkpt>
      <trkpt lat="44.41595" lon="6.03541">
        <ele>763.6</ele>
        <time>2020-09-05T10:42:21.561Z</time>
      </trkpt>
      <trkpt lat="44.416" lon="6.03541">
        <ele>758</ele>
        <time>2020-09-05T10:42:24.000Z</time>
      </trkpt>
      <trkpt lat="44.41601" lon="6.03534">
        <ele>757.3</ele>
        <time>2020-09-05T10:42:28.000Z</time>
      </trkpt>
      <trkpt lat="44.41603" lon="6.03527">
        <ele>755.2</ele>
        <time>2020-09-05T10:42:31.158Z</time>
      </trkpt>
      <trkpt lat="44.41603" lon="6.03519">
        <ele>750.9</ele>
        <time>2020-09-05T10:42:33.678Z</time>
      </trkpt>
      <trkpt lat="44.41599" lon="6.03507">
        <ele>749.7</ele>
        <time>2020-09-05T10:42:35.000Z</time>
      </trkpt>
      <trkpt lat="44.41597" lon="6.03499">
        <ele>748.4</ele>
        <time>2020-09-05T10:42:36.000Z</time>
      </trkpt>
      <trkpt lat="44.41592" lon="6.0349">
        <ele>745.2</ele>
        <time>2020-09-05T10:42:38.000Z</time>
      </trkpt>
      <trkpt lat="44.41588" lon="6.03486">
        <ele>745.3</ele>
        <time>2020-09-05T10:42:39.306Z</time>
      </trkpt>
      <trkpt lat="44.41587" lon="6.03476">
        <ele>743.9</ele>
        <time>2020-09-05T10:42:42.000Z</time>
      </trkpt>
      <trkpt lat="44.41593" lon="6.03472">
        <ele>742.8</ele>
        <time>2020-09-05T10:42:44.804Z</time>
      </trkpt>
      <trkpt lat="44.416" lon="6.03475">
        <ele>740.9</ele>
        <time>2020-09-05T10:42:46.000Z</time>
      </trkpt>
      <trkpt lat="44.41607" lon="6.0348">
        <ele>740.4</ele>
        <time>2020-09-05T10:42:47.701Z</time>
      </trkpt>
      <trkpt lat="44.41611" lon="6.03482">
        <ele>736.3</ele>
        <time>2020-09-05T10:42:49.000Z</time>
      </trkpt>
      <trkpt lat="44.41619" lon="6.03478">
        <ele>731.6</ele>
        <time>2020-09-05T10:42:52.000Z</time>
      </trkpt>
      <trkpt lat="44.41617" lon="6.03468">
        <ele>730.9</ele>
        <time>2020-09-05T10:42:54.000Z</time>
      </trkpt>
      <trkpt lat="44.41613" lon="6.03456">
        <ele>732.1</ele>
        <time>2020-09-05T10:42:56.000Z</time>
      </trkpt>
      <trkpt lat="44.41615" lon="6.0345">
        <ele>729.5</ele>
        <time>2020-09-05T10:42:58.000Z</time>
      </trkpt>
      <trkpt lat="44.41625" lon="6.0345">
        <ele>726</ele>
        <time>2020-09-05T10:43:00.000Z</time>
      </trkpt>
      <trkpt lat="44.41637" lon="6.0345">
        <ele>725.6</ele>
        <time>2020-09-05T10:43:02.000Z</time>
      </trkpt>
      <trkpt lat="44.41643" lon="6.03444">
        <ele>723.2</ele>
        <time>2020-09-05T10:43:04.774Z</time>
      </trkpt>
      <trkpt lat="44.41636" lon="6.03433">
        <ele>721.1</ele>
        <time>2020-09-05T10:43:07.621Z</time>
      </trkpt>
      <trkpt lat="44.41633" lon="6.03426">
        <ele>721</ele>
        <time>2020-09-05T10:43:08.794Z</time>
      </trkpt>
      <trkpt lat="44.41632" lon="6.03418">
        <ele>720.9</ele>
        <time>2020-09-05T10:43:09.880Z</time>
      </trkpt>
      <trkpt lat="44.41632" lon="6.03409">
        <ele>719.3</ele>
        <time>2020-09-05T10:43:11.000Z</time>
      </trkpt>
      <trkpt lat="44.41636" lon="6.03395">
        <ele>717.6</ele>
        <time>2020-09-05T10:43:13.000Z</time>
      </trkpt>
      <trkpt lat="44.41636" lon="6.03387">
        <ele>717.6</ele>
        <time>2020-09-05T10:43:14.000Z</time>
      </trkpt>
      <trkpt lat="44.41634" lon="6.03366">
        <ele>714.9</ele>
        <time>2020-09-05T10:43:16.000Z</time>
      </trkpt>
      <trkpt lat="44.4163" lon="6.03356">
        <ele>713</ele>
        <time>2020-09-05T10:43:17.000Z</time>
      </trkpt>
      <trkpt lat="44.41627" lon="6.03347">
        <ele>711.4</ele>
        <time>2020-09-05T10:43:18.000Z</time>
      </trkpt>
      <trkpt lat="44.41621" lon="6.03333">
        <ele>712.8</ele>
        <time>2020-09-05T10:43:20.000Z</time>
      </trkpt>
      <trkpt lat="44.41618" lon="6.03327">
        <ele>712.2</ele>
        <time>2020-09-05T10:43:21.000Z</time>
      </trkpt>
      <trkpt lat="44.41611" lon="6.03315">
        <ele>711.8</ele>
        <time>2020-09-05T10:43:23.000Z</time>
      </trkpt>
      <trkpt lat="44.41607" lon="6.03309">
        <ele>711.1</ele>
        <time>2020-09-05T10:43:24.000Z</time>
      </trkpt>
      <trkpt lat="44.416" lon="6.03296">
        <ele>710</ele>
        <time>2020-09-05T10:43:26.000Z</time>
      </trkpt>
      <trkpt lat="44.41599" lon="6.03288">
        <ele>710.4</ele>
        <time>2020-09-05T10:43:28.000Z</time>
      </trkpt>
      <trkpt lat="44.41604" lon="6.03276">
        <ele>708.4</ele>
        <time>2020-09-05T10:43:30.000Z</time>
      </trkpt>
      <trkpt lat="44.41608" lon="6.03263">
        <ele>708.5</ele>
        <time>2020-09-05T10:43:33.119Z</time>
      </trkpt>
      <trkpt lat="44.41606" lon="6.03253">
        <ele>707.8</ele>
        <time>2020-09-05T10:43:34.000Z</time>
      </trkpt>
      <trkpt lat="44.41602" lon="6.03235">
        <ele>704.9</ele>
        <time>2020-09-05T10:43:36.000Z</time>
      </trkpt>
      <trkpt lat="44.41598" lon="6.03218">
        <ele>703.3</ele>
        <time>2020-09-05T10:43:38.000Z</time>
      </trkpt>
      <trkpt lat="44.41594" lon="6.03201">
        <ele>701.3</ele>
        <time>2020-09-05T10:43:40.000Z</time>
      </trkpt>
      <trkpt lat="44.41593" lon="6.03194">
        <ele>700.9</ele>
        <time>2020-09-05T10:43:41.000Z</time>
      </trkpt>
      <trkpt lat="44.41592" lon="6.03186">
        <ele>700.7</ele>
        <time>2020-09-05T10:43:43.271Z</time>
      </trkpt>
      <trkpt lat="44.4159" lon="6.03171">
        <ele>700.3</ele>
        <time>2020-09-05T10:43:45.000Z</time>
      </trkpt>
      <trkpt lat="44.41592" lon="6.03151">
        <ele>699.2</ele>
        <time>2020-09-05T10:43:47.000Z</time>
      </trkpt>
      <trkpt lat="44.4159" lon="6.03144">
        <ele>698.8</ele>
        <time>2020-09-05T10:43:48.000Z</time>
      </trkpt>
      <trkpt lat="44.41582" lon="6.0313">
        <ele>698.7</ele>
        <time>2020-09-05T10:43:50.000Z</time>
      </trkpt>
      <trkpt lat="44.4158" lon="6.03114">
        <ele>695.6</ele>
        <time>2020-09-05T10:43:52.000Z</time>
      </trkpt>
      <trkpt lat="44.4158" lon="6.03104">
        <ele>694.4</ele>
        <time>2020-09-05T10:43:53.000Z</time>
      </trkpt>
      <trkpt lat="44.41578" lon="6.03084">
        <ele>691.6</ele>
        <time>2020-09-05T10:43:55.000Z</time>
      </trkpt>
      <trkpt lat="44.41577" lon="6.03075">
        <ele>691.7</ele>
        <time>2020-09-05T10:43:56.000Z</time>
      </trkpt>
      <trkpt lat="44.41577" lon="6.03066">
        <ele>691.4</ele>
        <time>2020-09-05T10:43:57.000Z</time>
      </trkpt>
      <trkpt lat="44.41576" lon="6.03058">
        <ele>690.3</ele>
        <time>2020-09-05T10:43:58.000Z</time>
      </trkpt>
      <trkpt lat="44.41574" lon="6.03052">
        <ele>688.2</ele>
        <time>2020-09-05T10:43:59.000Z</time>
      </trkpt>
      <trkpt lat="44.41575" lon="6.03039">
        <ele>686.2</ele>
        <time>2020-09-05T10:44:02.000Z</time>
      </trkpt>
      <trkpt lat="44.41575" lon="6.03033">
        <ele>684.3</ele>
        <time>2020-09-05T10:44:03.000Z</time>
      </trkpt>
      <trkpt lat="44.4157" lon="6.03023">
        <ele>684.9</ele>
        <time>2020-09-05T10:44:05.241Z</time>
      </trkpt>
      <trkpt lat="44.41569" lon="6.03017">
        <ele>680.5</ele>
        <time>2020-09-05T10:44:09.168Z</time>
      </trkpt>
      <trkpt lat="44.41565" lon="6.02999">
        <ele>677.3</ele>
        <time>2020-09-05T10:44:11.029Z</time>
      </trkpt>
      <trkpt lat="44.4156" lon="6.02992">
        <ele>679.1</ele>
        <time>2020-09-05T10:44:12.749Z</time>
      </trkpt>
      <trkpt lat="44.41555" lon="6.02981">
        <ele>678.5</ele>
        <time>2020-09-05T10:44:15.132Z</time>
      </trkpt>
      <trkpt lat="44.41552" lon="6.0297">
        <ele>679.4</ele>
        <time>2020-09-05T10:44:17.552Z</time>
      </trkpt>
      <trkpt lat="44.41551" lon="6.02963">
        <ele>679.6</ele>
        <time>2020-09-05T10:44:18.791Z</time>
      </trkpt>
      <trkpt lat="44.41553" lon="6.02956">
        <ele>679.1</ele>
        <time>2020-09-05T10:44:20.096Z</time>
      </trkpt>
      <trkpt lat="44.41557" lon="6.02948">
        <ele>676.9</ele>
        <time>2020-09-05T10:44:22.000Z</time>
      </trkpt>
      <trkpt lat="44.41562" lon="6.02941">
        <ele>678.5</ele>
        <time>2020-09-05T10:44:25.000Z</time>
      </trkpt>
      <trkpt lat="44.41567" lon="6.02941">
        <ele>675.8</ele>
        <time>2020-09-05T10:46:01.000Z</time>
      </trkpt>
      <trkpt lat="44.41573" lon="6.02945">
        <ele>673.2</ele>
        <time>2020-09-05T10:46:05.000Z</time>
      </trkpt>
      <trkpt lat="44.41587" lon="6.0294">
        <ele>677.4</ele>
        <time>2020-09-05T10:50:21.000Z</time>
      </trkpt>
      <trkpt lat="44.41594" lon="6.02935">
        <ele>677.9</ele>
        <time>2020-09-05T10:50:22.000Z</time>
      </trkpt>
      <trkpt lat="44.416" lon="6.0293">
        <ele>677.4</ele>
        <time>2020-09-05T10:50:23.000Z</time>
      </trkpt>
      <trkpt lat="44.41605" lon="6.02925">
        <ele>675.9</ele>
        <time>2020-09-05T10:50:24.000Z</time>
      </trkpt>
      <trkpt lat="44.41617" lon="6.02915">
        <ele>676.2</ele>
        <time>2020-09-05T10:50:26.000Z</time>
      </trkpt>
      <trkpt lat="44.41625" lon="6.02913">
        <ele>675</ele>
        <time>2020-09-05T10:50:27.000Z</time>
      </trkpt>
      <trkpt lat="44.41633" lon="6.02913">
        <ele>677</ele>
        <time>2020-09-05T10:50:28.000Z</time>
      </trkpt>
      <trkpt lat="44.41651" lon="6.02919">
        <ele>677.7</ele>
        <time>2020-09-05T10:50:30.000Z</time>
      </trkpt>
      <trkpt lat="44.41669" lon="6.02927">
        <ele>679.7</ele>
        <time>2020-09-05T10:50:32.000Z</time>
      </trkpt>
      <trkpt lat="44.41687" lon="6.02936">
        <ele>680.3</ele>
        <time>2020-09-05T10:50:34.000Z</time>
      </trkpt>
      <trkpt lat="44.41696" lon="6.02941">
        <ele>679.8</ele>
        <time>2020-09-05T10:50:35.000Z</time>
      </trkpt>
      <trkpt lat="44.41705" lon="6.02945">
        <ele>679.3</ele>
        <time>2020-09-05T10:50:36.000Z</time>
      </trkpt>
      <trkpt lat="44.41721" lon="6.02957">
        <ele>680.6</ele>
        <time>2020-09-05T10:50:38.000Z</time>
      </trkpt>
      <trkpt lat="44.4173" lon="6.02964">
        <ele>681.8</ele>
        <time>2020-09-05T10:50:39.000Z</time>
      </trkpt>
      <trkpt lat="44.41737" lon="6.02969">
        <ele>681.2</ele>
        <time>2020-09-05T10:50:40.000Z</time>
      </trkpt>
      <trkpt lat="44.41751" lon="6.02973">
        <ele>680.8</ele>
        <time>2020-09-05T10:50:42.000Z</time>
      </trkpt>
      <trkpt lat="44.41767" lon="6.02979">
        <ele>681.7</ele>
        <time>2020-09-05T10:50:44.000Z</time>
      </trkpt>
      <trkpt lat="44.41775" lon="6.02983">
        <ele>681</ele>
        <time>2020-09-05T10:50:45.000Z</time>
      </trkpt>
      <trkpt lat="44.4179" lon="6.0299">
        <ele>681.4</ele>
        <time>2020-09-05T10:50:47.000Z</time>
      </trkpt>
      <trkpt lat="44.41805" lon="6.02996">
        <ele>678.7</ele>
        <time>2020-09-05T10:50:49.000Z</time>
      </trkpt>
      <trkpt lat="44.41812" lon="6.03">
        <ele>679.3</ele>
        <time>2020-09-05T10:50:50.000Z</time>
      </trkpt>
      <trkpt lat="44.4182" lon="6.03005">
        <ele>680.6</ele>
        <time>2020-09-05T10:50:51.000Z</time>
      </trkpt>
      <trkpt lat="44.41837" lon="6.03013">
        <ele>680.5</ele>
        <time>2020-09-05T10:50:53.000Z</time>
      </trkpt>
      <trkpt lat="44.41854" lon="6.03021">
        <ele>679.8</ele>
        <time>2020-09-05T10:50:55.000Z</time>
      </trkpt>
      <trkpt lat="44.41861" lon="6.03025">
        <ele>679.4</ele>
        <time>2020-09-05T10:50:56.000Z</time>
      </trkpt>
      <trkpt lat="44.41868" lon="6.03026">
        <ele>681.1</ele>
        <time>2020-09-05T10:50:57.000Z</time>
      </trkpt>
      <trkpt lat="44.41879" lon="6.0303">
        <ele>682.8</ele>
        <time>2020-09-05T10:50:59.000Z</time>
      </trkpt>
      <trkpt lat="44.41892" lon="6.03037">
        <ele>682.4</ele>
        <time>2020-09-05T10:51:01.000Z</time>
      </trkpt>
      <trkpt lat="44.41898" lon="6.03042">
        <ele>682.8</ele>
        <time>2020-09-05T10:51:02.000Z</time>
      </trkpt>
      <trkpt lat="44.41905" lon="6.03048">
        <ele>683.1</ele>
        <time>2020-09-05T10:51:03.000Z</time>
      </trkpt>
      <trkpt lat="44.41918" lon="6.03057">
        <ele>684.7</ele>
        <time>2020-09-05T10:51:05.000Z</time>
      </trkpt>
      <trkpt lat="44.41925" lon="6.03061">
        <ele>684.9</ele>
        <time>2020-09-05T10:51:06.000Z</time>
      </trkpt>
      <trkpt lat="44.4193" lon="6.03064">
        <ele>684</ele>
        <time>2020-09-05T10:51:07.000Z</time>
      </trkpt>
      <trkpt lat="44.4194" lon="6.03069">
        <ele>683.9</ele>
        <time>2020-09-05T10:51:09.000Z</time>
      </trkpt>
      <trkpt lat="44.41946" lon="6.0307">
        <ele>686.3</ele>
        <time>2020-09-05T10:51:10.000Z</time>
      </trkpt>
      <trkpt lat="44.41951" lon="6.0307">
        <ele>686.4</ele>
        <time>2020-09-05T10:51:11.000Z</time>
      </trkpt>
      <trkpt lat="44.41958" lon="6.03068">
        <ele>684.4</ele>
        <time>2020-09-05T10:51:13.000Z</time>
      </trkpt>
      <trkpt lat="44.41962" lon="6.03064">
        <ele>683.1</ele>
        <time>2020-09-05T10:51:14.000Z</time>
      </trkpt>
      <trkpt lat="44.41966" lon="6.0306">
        <ele>682.5</ele>
        <time>2020-09-05T10:51:15.000Z</time>
      </trkpt>
      <trkpt lat="44.41971" lon="6.03052">
        <ele>677.2</ele>
        <time>2020-09-05T10:51:17.000Z</time>
      </trkpt>
      <trkpt lat="44.41976" lon="6.03045">
        <ele>675.4</ele>
        <time>2020-09-05T10:51:19.000Z</time>
      </trkpt>
      <trkpt lat="44.41984" lon="6.0304">
        <ele>673.4</ele>
        <time>2020-09-05T10:51:21.000Z</time>
      </trkpt>
      <trkpt lat="44.41988" lon="6.03037">
        <ele>673.7</ele>
        <time>2020-09-05T10:51:22.273Z</time>
      </trkpt>
      <trkpt lat="44.41996" lon="6.03031">
        <ele>673.5</ele>
        <time>2020-09-05T10:51:24.000Z</time>
      </trkpt>
      <trkpt lat="44.42004" lon="6.03024">
        <ele>675.5</ele>
        <time>2020-09-05T10:51:26.000Z</time>
      </trkpt>
      <trkpt lat="44.42008" lon="6.03021">
        <ele>673.9</ele>
        <time>2020-09-05T10:51:27.000Z</time>
      </trkpt>
      <trkpt lat="44.42013" lon="6.03017">
        <ele>671.7</ele>
        <time>2020-09-05T10:51:28.000Z</time>
      </trkpt>
      <trkpt lat="44.42018" lon="6.03012">
        <ele>671.3</ele>
        <time>2020-09-05T10:51:29.000Z</time>
      </trkpt>
      <trkpt lat="44.42027" lon="6.03006">
        <ele>671.2</ele>
        <time>2020-09-05T10:51:31.000Z</time>
      </trkpt>
      <trkpt lat="44.42031" lon="6.03003">
        <ele>670.3</ele>
        <time>2020-09-05T10:51:32.000Z</time>
      </trkpt>
      <trkpt lat="44.42042" lon="6.02994">
        <ele>668.5</ele>
        <time>2020-09-05T10:51:34.000Z</time>
      </trkpt>
      <trkpt lat="44.42048" lon="6.02989">
        <ele>666.6</ele>
        <time>2020-09-05T10:51:35.000Z</time>
      </trkpt>
      <trkpt lat="44.42054" lon="6.02983">
        <ele>665.9</ele>
        <time>2020-09-05T10:51:36.000Z</time>
      </trkpt>
      <trkpt lat="44.42061" lon="6.02977">
        <ele>665.6</ele>
        <time>2020-09-05T10:51:37.000Z</time>
      </trkpt>
      <trkpt lat="44.42075" lon="6.02967">
        <ele>664.8</ele>
        <time>2020-09-05T10:51:39.000Z</time>
      </trkpt>
      <trkpt lat="44.42081" lon="6.02963">
        <ele>663.7</ele>
        <time>2020-09-05T10:51:40.000Z</time>
      </trkpt>
      <trkpt lat="44.42095" lon="6.02951">
        <ele>661.6</ele>
        <time>2020-09-05T10:51:42.000Z</time>
      </trkpt>
      <trkpt lat="44.4211" lon="6.02939">
        <ele>661</ele>
        <time>2020-09-05T10:51:44.000Z</time>
      </trkpt>
      <trkpt lat="44.42126" lon="6.02928">
        <ele>661</ele>
        <time>2020-09-05T10:51:46.000Z</time>
      </trkpt>
      <trkpt lat="44.42133" lon="6.02923">
        <ele>661</ele>
        <time>2020-09-05T10:51:47.000Z</time>
      </trkpt>
      <trkpt lat="44.42147" lon="6.02912">
        <ele>661</ele>
        <time>2020-09-05T10:51:49.000Z</time>
      </trkpt>
      <trkpt lat="44.42164" lon="6.029">
        <ele>661</ele>
        <time>2020-09-05T10:51:51.000Z</time>
      </trkpt>
      <trkpt lat="44.42171" lon="6.02895">
        <ele>661</ele>
        <time>2020-09-05T10:51:52.000Z</time>
      </trkpt>
      <trkpt lat="44.42187" lon="6.02883">
        <ele>661</ele>
        <time>2020-09-05T10:51:54.000Z</time>
      </trkpt>
      <trkpt lat="44.42195" lon="6.02877">
        <ele>661</ele>
        <time>2020-09-05T10:51:55.000Z</time>
      </trkpt>
      <trkpt lat="44.42209" lon="6.02863">
        <ele>661</ele>
        <time>2020-09-05T10:51:57.000Z</time>
      </trkpt>
      <trkpt lat="44.42217" lon="6.02857">
        <ele>661</ele>
        <time>2020-09-05T10:51:58.000Z</time>
      </trkpt>
      <trkpt lat="44.42225" lon="6.02851">
        <ele>661</ele>
        <time>2020-09-05T10:51:59.000Z</time>
      </trkpt>
      <trkpt lat="44.4223" lon="6.02846">
        <ele>661</ele>
        <time>2020-09-05T10:52:00.000Z</time>
      </trkpt>
      <trkpt lat="44.42241" lon="6.02838">
        <ele>661</ele>
        <time>2020-09-05T10:52:02.000Z</time>
      </trkpt>
      <trkpt lat="44.4225" lon="6.02832">
        <ele>661</ele>
        <time>2020-09-05T10:52:04.000Z</time>
      </trkpt>
      <trkpt lat="44.42252" lon="6.0282">
        <ele>661</ele>
        <time>2020-09-05T10:52:06.000Z</time>
      </trkpt>
      <trkpt lat="44.42242" lon="6.0281">
        <ele>661</ele>
        <time>2020-09-05T10:52:08.000Z</time>
      </trkpt>
      <trkpt lat="44.42234" lon="6.02808">
        <ele>661</ele>
        <time>2020-09-05T10:52:09.000Z</time>
      </trkpt>
      <trkpt lat="44.42216" lon="6.02802">
        <ele>661</ele>
        <time>2020-09-05T10:52:11.000Z</time>
      </trkpt>
      <trkpt lat="44.42201" lon="6.02791">
        <ele>661</ele>
        <time>2020-09-05T10:52:13.000Z</time>
      </trkpt>
      <trkpt lat="44.42196" lon="6.02783">
        <ele>661</ele>
        <time>2020-09-05T10:52:14.000Z</time>
      </trkpt>
      <trkpt lat="44.42192" lon="6.02775">
        <ele>661</ele>
        <time>2020-09-05T10:52:15.000Z</time>
      </trkpt>
      <trkpt lat="44.42187" lon="6.02759">
        <ele>661</ele>
        <time>2020-09-05T10:52:17.000Z</time>
      </trkpt>
      <trkpt lat="44.42186" lon="6.02752">
        <ele>661</ele>
        <time>2020-09-05T10:52:18.000Z</time>
      </trkpt>
      <trkpt lat="44.42185" lon="6.02744">
        <ele>661</ele>
        <time>2020-09-05T10:52:19.000Z</time>
      </trkpt>
      <trkpt lat="44.42184" lon="6.02732">
        <ele>661</ele>
        <time>2020-09-05T10:52:21.000Z</time>
      </trkpt>
      <trkpt lat="44.42178" lon="6.02721">
        <ele>661</ele>
        <time>2020-09-05T10:52:24.000Z</time>
      </trkpt>
      <trkpt lat="44.42182" lon="6.02724">
        <ele>639.3</ele>
        <time>2020-09-05T10:54:16.468Z</time>
      </trkpt>
      <trkpt lat="44.42181" lon="6.02714">
        <ele>639.3</ele>
        <time>2020-09-05T10:54:24.000Z</time>
      </trkpt>
      <trkpt lat="44.42178" lon="6.02708">
        <ele>641.6</ele>
        <time>2020-09-05T10:54:28.000Z</time>
      </trkpt>
      <trkpt lat="44.42175" lon="6.02702">
        <ele>641.6</ele>
        <time>2020-09-05T10:54:33.000Z</time>
      </trkpt>
      <trkpt lat="44.42175" lon="6.02696">
        <ele>641.6</ele>
        <time>2020-09-05T10:54:57.379Z</time>
      </trkpt>
      <trkpt lat="44.42172" lon="6.02691">
        <ele>641.6</ele>
        <time>2020-09-05T10:55:28.000Z</time>
      </trkpt>
      <trkpt lat="44.42168" lon="6.02688">
        <ele>647.9</ele>
        <time>2020-09-05T10:55:47.000Z</time>
      </trkpt>
      <trkpt lat="44.42165" lon="6.02683">
        <ele>647.9</ele>
        <time>2020-09-05T10:55:55.000Z</time>
      </trkpt>
      <trkpt lat="44.42162" lon="6.02678">
        <ele>647.9</ele>
        <time>2020-09-05T10:56:08.940Z</time>
      </trkpt>
      <trkpt lat="44.42157" lon="6.0268">
        <ele>647.9</ele>
        <time>2020-09-05T10:56:28.623Z</time>
      </trkpt>
      <trkpt lat="44.42153" lon="6.02681">
        <ele>644</ele>
        <time>2020-09-05T10:59:09.000Z</time>
      </trkpt>
      <trkpt lat="44.42142" lon="6.02686">
        <ele>650</ele>
        <time>2020-09-05T11:41:41.000Z</time>
      </trkpt>
      <trkpt lat="44.42143" lon="6.02692">
        <ele>655.1</ele>
        <time>2020-09-05T11:41:50.000Z</time>
      </trkpt>
      <trkpt lat="44.42156" lon="6.027">
        <ele>651.9</ele>
        <time>2020-09-05T11:41:56.000Z</time>
      </trkpt>
      <trkpt lat="44.42167" lon="6.02704">
        <ele>652.4</ele>
        <time>2020-09-05T11:41:59.000Z</time>
      </trkpt>
      <trkpt lat="44.42175" lon="6.02709">
        <ele>654.8</ele>
        <time>2020-09-05T11:42:05.000Z</time>
      </trkpt>
      <trkpt lat="44.42169" lon="6.02719">
        <ele>652.6</ele>
        <time>2020-09-05T11:42:11.000Z</time>
      </trkpt>
      <trkpt lat="44.4216" lon="6.02718">
        <ele>654.8</ele>
        <time>2020-09-05T11:42:16.009Z</time>
      </trkpt>
      <trkpt lat="44.42166" lon="6.02716">
        <ele>650.5</ele>
        <time>2020-09-05T11:42:23.000Z</time>
      </trkpt>
      <trkpt lat="44.42174" lon="6.02713">
        <ele>652.5</ele>
        <time>2020-09-05T11:42:29.000Z</time>
      </trkpt>
      <trkpt lat="44.4218" lon="6.02714">
        <ele>653</ele>
        <time>2020-09-05T11:42:32.000Z</time>
      </trkpt>
      <trkpt lat="44.42171" lon="6.02703">
        <ele>653.1</ele>
        <time>2020-09-05T11:42:44.000Z</time>
      </trkpt>
      <trkpt lat="44.42162" lon="6.02692">
        <ele>654.6</ele>
        <time>2020-09-05T11:42:50.000Z</time>
      </trkpt>
      <trkpt lat="44.42156" lon="6.0269">
        <ele>650.4</ele>
        <time>2020-09-05T11:42:56.000Z</time>
      </trkpt>
      <trkpt lat="44.4216" lon="6.02697">
        <ele>651.9</ele>
        <time>2020-09-05T11:43:11.000Z</time>
      </trkpt>
      <trkpt lat="44.42164" lon="6.027">
        <ele>654.3</ele>
        <time>2020-09-05T11:43:16.217Z</time>
      </trkpt>
      <trkpt lat="44.42169" lon="6.02696">
        <ele>651.2</ele>
        <time>2020-09-05T11:43:35.000Z</time>
      </trkpt>
      <trkpt lat="44.42164" lon="6.02697">
        <ele>647.5</ele>
        <time>2020-09-05T11:43:50.000Z</time>
      </trkpt>
      <trkpt lat="44.42158" lon="6.02697">
        <ele>649.4</ele>
        <time>2020-09-05T11:43:56.000Z</time>
      </trkpt>
      <trkpt lat="44.42158" lon="6.02688">
        <ele>655</ele>
        <time>2020-09-05T11:44:05.000Z</time>
      </trkpt>
      <trkpt lat="44.42162" lon="6.02689">
        <ele>655.6</ele>
        <time>2020-09-05T11:44:11.000Z</time>
      </trkpt>
      <trkpt lat="44.42168" lon="6.02694">
        <ele>656.8</ele>
        <time>2020-09-05T11:44:20.000Z</time>
      </trkpt>
      <trkpt lat="44.42163" lon="6.02686">
        <ele>661.5</ele>
        <time>2020-09-05T11:44:50.000Z</time>
      </trkpt>
      <trkpt lat="44.42171" lon="6.02691">
        <ele>657.6</ele>
        <time>2020-09-05T11:44:53.000Z</time>
      </trkpt>
      <trkpt lat="44.42178" lon="6.02702">
        <ele>655.3</ele>
        <time>2020-09-05T11:44:56.000Z</time>
      </trkpt>
      <trkpt lat="44.42184" lon="6.02713">
        <ele>656.2</ele>
        <time>2020-09-05T11:45:01.500Z</time>
      </trkpt>
      <trkpt lat="44.42177" lon="6.02711">
        <ele>659</ele>
        <time>2020-09-05T11:45:11.000Z</time>
      </trkpt>
      <trkpt lat="44.42173" lon="6.02698">
        <ele>656.1</ele>
        <time>2020-09-05T11:45:16.529Z</time>
      </trkpt>
      <trkpt lat="44.42167" lon="6.02693">
        <ele>656.8</ele>
        <time>2020-09-05T11:45:20.000Z</time>
      </trkpt>
      <trkpt lat="44.42162" lon="6.02695">
        <ele>654.1</ele>
        <time>2020-09-05T11:45:26.000Z</time>
      </trkpt>
      <trkpt lat="44.42165" lon="6.02704">
        <ele>658.5</ele>
        <time>2020-09-05T11:46:02.208Z</time>
      </trkpt>
      <trkpt lat="44.42159" lon="6.02698">
        <ele>661.1</ele>
        <time>2020-09-05T11:46:11.000Z</time>
      </trkpt>
      <trkpt lat="44.42163" lon="6.02695">
        <ele>661.5</ele>
        <time>2020-09-05T11:46:20.000Z</time>
      </trkpt>
      <trkpt lat="44.42169" lon="6.027">
        <ele>662.5</ele>
        <time>2020-09-05T11:46:26.000Z</time>
      </trkpt>
      <trkpt lat="44.42169" lon="6.02693">
        <ele>663.7</ele>
        <time>2020-09-05T11:46:37.269Z</time>
      </trkpt>
      <trkpt lat="44.42174" lon="6.02686">
        <ele>679.2</ele>
        <time>2020-09-05T11:47:26.000Z</time>
      </trkpt>
      <trkpt lat="44.42177" lon="6.02692">
        <ele>683.9</ele>
        <time>2020-09-05T11:47:38.000Z</time>
      </trkpt>
      <trkpt lat="44.4217" lon="6.02684">
        <ele>686.4</ele>
        <time>2020-09-05T11:47:47.000Z</time>
      </trkpt>
      <trkpt lat="44.42167" lon="6.0268">
        <ele>677.4</ele>
        <time>2020-09-05T11:54:41.000Z</time>
      </trkpt>
      <trkpt lat="44.42164" lon="6.02674">
        <ele>681.3</ele>
        <time>2020-09-05T11:54:59.000Z</time>
      </trkpt>
      <trkpt lat="44.42157" lon="6.02663">
        <ele>680.8</ele>
        <time>2020-09-05T11:55:05.000Z</time>
      </trkpt>
      <trkpt lat="44.42151" lon="6.02663">
        <ele>671.7</ele>
        <time>2020-09-05T12:00:20.000Z</time>
      </trkpt>
      <trkpt lat="44.42154" lon="6.02672">
        <ele>668.2</ele>
        <time>2020-09-05T12:00:32.000Z</time>
      </trkpt>
      <trkpt lat="44.4215" lon="6.02667">
        <ele>650.5</ele>
        <time>2020-09-05T12:02:23.000Z</time>
      </trkpt>
      <trkpt lat="44.42156" lon="6.02678">
        <ele>650.2</ele>
        <time>2020-09-05T12:02:32.000Z</time>
      </trkpt>
      <trkpt lat="44.42162" lon="6.02681">
        <ele>652.1</ele>
        <time>2020-09-05T12:02:53.000Z</time>
      </trkpt>
      <trkpt lat="44.42166" lon="6.02687">
        <ele>648.2</ele>
        <time>2020-09-05T12:03:04.635Z</time>
      </trkpt>
      <trkpt lat="44.42159" lon="6.02679">
        <ele>648.8</ele>
        <time>2020-09-05T12:03:19.611Z</time>
      </trkpt>
      <trkpt lat="44.42155" lon="6.02683">
        <ele>647.7</ele>
        <time>2020-09-05T12:03:26.000Z</time>
      </trkpt>
      <trkpt lat="44.42147" lon="6.0268">
        <ele>650.3</ele>
        <time>2020-09-05T12:03:29.629Z</time>
      </trkpt>
      <trkpt lat="44.42145" lon="6.02672">
        <ele>651.5</ele>
        <time>2020-09-05T12:03:34.726Z</time>
      </trkpt>
      <trkpt lat="44.42146" lon="6.0268">
        <ele>651.5</ele>
        <time>2020-09-05T12:03:44.000Z</time>
      </trkpt>
      <trkpt lat="44.42157" lon="6.02691">
        <ele>652.6</ele>
        <time>2020-09-05T12:03:49.670Z</time>
      </trkpt>
      <trkpt lat="44.42161" lon="6.02688">
        <ele>651.2</ele>
        <time>2020-09-05T12:03:53.000Z</time>
      </trkpt>
      <trkpt lat="44.42151" lon="6.02685">
        <ele>650.4</ele>
        <time>2020-09-05T12:04:04.862Z</time>
      </trkpt>
      <trkpt lat="44.42157" lon="6.02692">
        <ele>649</ele>
        <time>2020-09-05T12:04:14.000Z</time>
      </trkpt>
      <trkpt lat="44.42157" lon="6.02685">
        <ele>651</ele>
        <time>2020-09-05T12:04:19.768Z</time>
      </trkpt>
      <trkpt lat="44.42152" lon="6.02677">
        <ele>661.7</ele>
        <time>2020-09-05T12:04:29.000Z</time>
      </trkpt>
      <trkpt lat="44.42154" lon="6.02685">
        <ele>661.6</ele>
        <time>2020-09-05T12:04:38.000Z</time>
      </trkpt>
      <trkpt lat="44.42161" lon="6.02685">
        <ele>662.2</ele>
        <time>2020-09-05T12:04:41.000Z</time>
      </trkpt>
      <trkpt lat="44.42165" lon="6.02694">
        <ele>661.7</ele>
        <time>2020-09-05T12:04:49.874Z</time>
      </trkpt>
      <trkpt lat="44.4216" lon="6.02687">
        <ele>664.1</ele>
        <time>2020-09-05T12:04:53.000Z</time>
      </trkpt>
      <trkpt lat="44.42154" lon="6.0268">
        <ele>661.6</ele>
        <time>2020-09-05T12:04:59.000Z</time>
      </trkpt>
      <trkpt lat="44.42159" lon="6.02682">
        <ele>657.4</ele>
        <time>2020-09-05T12:05:09.926Z</time>
      </trkpt>
      <trkpt lat="44.42154" lon="6.02675">
        <ele>656.7</ele>
        <time>2020-09-05T12:05:20.000Z</time>
      </trkpt>
      <trkpt lat="44.42157" lon="6.0268">
        <ele>657.3</ele>
        <time>2020-09-05T12:05:29.997Z</time>
      </trkpt>
      <trkpt lat="44.42162" lon="6.02686">
        <ele>652.9</ele>
        <time>2020-09-05T12:05:35.000Z</time>
      </trkpt>
      <trkpt lat="44.42168" lon="6.02691">
        <ele>657.2</ele>
        <time>2020-09-05T12:05:56.000Z</time>
      </trkpt>
      <trkpt lat="44.42173" lon="6.02696">
        <ele>657</ele>
        <time>2020-09-05T12:06:00.226Z</time>
      </trkpt>
      <trkpt lat="44.42164" lon="6.0269">
        <ele>657.5</ele>
        <time>2020-09-05T12:06:05.000Z</time>
      </trkpt>
      <trkpt lat="44.4216" lon="6.02679">
        <ele>652.1</ele>
        <time>2020-09-05T12:06:35.000Z</time>
      </trkpt>
      <trkpt lat="44.42153" lon="6.0268">
        <ele>651.8</ele>
        <time>2020-09-05T12:06:40.307Z</time>
      </trkpt>
      <trkpt lat="44.42154" lon="6.02673">
        <ele>657.8</ele>
        <time>2020-09-05T12:06:56.000Z</time>
      </trkpt>
      <trkpt lat="44.4216" lon="6.02678">
        <ele>655.6</ele>
        <time>2020-09-05T12:07:10.264Z</time>
      </trkpt>
      <trkpt lat="44.42157" lon="6.02668">
        <ele>661.7</ele>
        <time>2020-09-05T12:08:10.388Z</time>
      </trkpt>
      <trkpt lat="44.42151" lon="6.0267">
        <ele>663.8</ele>
        <time>2020-09-05T12:08:25.427Z</time>
      </trkpt>
      <trkpt lat="44.42156" lon="6.02673">
        <ele>661.3</ele>
        <time>2020-09-05T12:08:32.000Z</time>
      </trkpt>
      <trkpt lat="44.42148" lon="6.02668">
        <ele>661.2</ele>
        <time>2020-09-05T12:08:59.000Z</time>
      </trkpt>
      <trkpt lat="44.4215" lon="6.02674">
        <ele>655.5</ele>
        <time>2020-09-05T12:09:10.575Z</time>
      </trkpt>
      <trkpt lat="44.42154" lon="6.02679">
        <ele>649.2</ele>
        <time>2020-09-05T12:09:14.000Z</time>
      </trkpt>
      <trkpt lat="44.42157" lon="6.02686">
        <ele>646</ele>
        <time>2020-09-05T12:09:20.593Z</time>
      </trkpt>
    </trkseg>
  </trk>
  <trk>
    <name><![CDATA[col de blaux curban_3]]></name>
    <trkseg>
      <trkpt lat="44.42157" lon="6.02686">
        <ele>646</ele>
        <time>2020-09-05T12:09:20.593Z</time>
      </trkpt>
      <trkpt lat="44.42163" lon="6.02688">
        <ele>649.1</ele>
        <time>2020-09-05T12:09:32.000Z</time>
      </trkpt>
      <trkpt lat="44.42158" lon="6.02681">
        <ele>652.4</ele>
        <time>2020-09-05T12:09:40.686Z</time>
      </trkpt>
      <trkpt lat="44.42153" lon="6.02673">
        <ele>651.1</ele>
        <time>2020-09-05T12:10:05.000Z</time>
      </trkpt>
      <trkpt lat="44.42157" lon="6.02676">
        <ele>655.7</ele>
        <time>2020-09-05T12:10:25.823Z</time>
      </trkpt>
      <trkpt lat="44.4216" lon="6.02682">
        <ele>647.8</ele>
        <time>2020-09-05T12:12:35.000Z</time>
      </trkpt>
      <trkpt lat="44.42165" lon="6.02686">
        <ele>644.9</ele>
        <time>2020-09-05T12:13:05.000Z</time>
      </trkpt>
      <trkpt lat="44.42159" lon="6.02684">
        <ele>643.8</ele>
        <time>2020-09-05T12:13:26.000Z</time>
      </trkpt>
      <trkpt lat="44.42158" lon="6.02679">
        <ele>653.6</ele>
        <time>2020-09-05T12:14:05.000Z</time>
      </trkpt>
      <trkpt lat="44.42154" lon="6.02673">
        <ele>656.7</ele>
        <time>2020-09-05T12:14:20.000Z</time>
      </trkpt>
      <trkpt lat="44.42165" lon="6.02676">
        <ele>657</ele>
        <time>2020-09-05T12:14:31.592Z</time>
      </trkpt>
      <trkpt lat="44.42158" lon="6.02677">
        <ele>654.2</ele>
        <time>2020-09-05T12:14:41.000Z</time>
      </trkpt>
      <trkpt lat="44.42152" lon="6.02675">
        <ele>655.2</ele>
        <time>2020-09-05T12:14:59.000Z</time>
      </trkpt>
      <trkpt lat="44.42148" lon="6.02672">
        <ele>651.3</ele>
        <time>2020-09-05T12:15:31.777Z</time>
      </trkpt>
      <trkpt lat="44.42153" lon="6.02676">
        <ele>650.6</ele>
        <time>2020-09-05T12:15:46.811Z</time>
      </trkpt>
      <trkpt lat="44.42157" lon="6.02679">
        <ele>650.1</ele>
        <time>2020-09-05T12:16:01.887Z</time>
      </trkpt>
      <trkpt lat="44.42163" lon="6.0268">
        <ele>653.4</ele>
        <time>2020-09-05T12:18:02.000Z</time>
      </trkpt>
      <trkpt lat="44.4216" lon="6.02672">
        <ele>659.4</ele>
        <time>2020-09-05T12:18:41.000Z</time>
      </trkpt>
      <trkpt lat="44.42155" lon="6.02673">
        <ele>657.9</ele>
        <time>2020-09-05T12:19:02.000Z</time>
      </trkpt>
      <trkpt lat="44.42163" lon="6.02676">
        <ele>647.9</ele>
        <time>2020-09-05T12:20:07.618Z</time>
      </trkpt>
      <trkpt lat="44.42168" lon="6.02679">
        <ele>649.1</ele>
        <time>2020-09-05T12:20:17.000Z</time>
      </trkpt>
      <trkpt lat="44.42167" lon="6.02686">
        <ele>646.9</ele>
        <time>2020-09-05T12:20:26.000Z</time>
      </trkpt>
      <trkpt lat="44.4216" lon="6.02686">
        <ele>644.4</ele>
        <time>2020-09-05T12:20:41.000Z</time>
      </trkpt>
      <trkpt lat="44.42161" lon="6.02679">
        <ele>651.6</ele>
        <time>2020-09-05T12:20:56.000Z</time>
      </trkpt>
      <trkpt lat="44.42159" lon="6.02672">
        <ele>651.8</ele>
        <time>2020-09-05T12:21:07.797Z</time>
      </trkpt>
      <trkpt lat="44.42153" lon="6.0267">
        <ele>651.6</ele>
        <time>2020-09-05T12:21:26.000Z</time>
      </trkpt>
      <trkpt lat="44.42156" lon="6.02676">
        <ele>652.4</ele>
        <time>2020-09-05T12:22:02.000Z</time>
      </trkpt>
      <trkpt lat="44.42157" lon="6.02682">
        <ele>652.3</ele>
        <time>2020-09-05T12:22:20.000Z</time>
      </trkpt>
      <trkpt lat="44.42162" lon="6.02677">
        <ele>653.9</ele>
        <time>2020-09-05T12:23:11.000Z</time>
      </trkpt>
      <trkpt lat="44.42161" lon="6.02671">
        <ele>662.4</ele>
        <time>2020-09-05T12:23:58.438Z</time>
      </trkpt>
      <trkpt lat="44.42162" lon="6.02677">
        <ele>654.5</ele>
        <time>2020-09-05T12:24:47.000Z</time>
      </trkpt>
      <trkpt lat="44.42162" lon="6.02684">
        <ele>639.3</ele>
        <time>2020-09-05T12:29:59.726Z</time>
      </trkpt>
      <trkpt lat="44.42167" lon="6.02694">
        <ele>641.6</ele>
        <time>2020-09-05T12:30:11.000Z</time>
      </trkpt>
      <trkpt lat="44.4217" lon="6.02704">
        <ele>639.3</ele>
        <time>2020-09-05T12:30:29.000Z</time>
      </trkpt>
      <trkpt lat="44.42174" lon="6.02708">
        <ele>641.6</ele>
        <time>2020-09-05T12:31:08.000Z</time>
      </trkpt>
      <trkpt lat="44.42169" lon="6.02709">
        <ele>641.6</ele>
        <time>2020-09-05T12:32:35.315Z</time>
      </trkpt>
      <trkpt lat="44.4217" lon="6.02718">
        <ele>641.6</ele>
        <time>2020-09-05T12:33:41.000Z</time>
      </trkpt>
      <trkpt lat="44.42175" lon="6.02724">
        <ele>641.6</ele>
        <time>2020-09-05T12:33:56.000Z</time>
      </trkpt>
      <trkpt lat="44.42177" lon="6.02718">
        <ele>641.6</ele>
        <time>2020-09-05T12:34:08.000Z</time>
      </trkpt>
      <trkpt lat="44.42177" lon="6.02727">
        <ele>641.6</ele>
        <time>2020-09-05T12:36:08.000Z</time>
      </trkpt>
      <trkpt lat="44.42173" lon="6.02722">
        <ele>641.6</ele>
        <time>2020-09-05T12:36:14.394Z</time>
      </trkpt>
      <trkpt lat="44.42177" lon="6.02714">
        <ele>639.3</ele>
        <time>2020-09-05T12:36:26.000Z</time>
      </trkpt>
      <trkpt lat="44.4218" lon="6.02701">
        <ele>641.6</ele>
        <time>2020-09-05T12:36:35.000Z</time>
      </trkpt>
      <trkpt lat="44.42177" lon="6.02694">
        <ele>641.6</ele>
        <time>2020-09-05T12:36:41.000Z</time>
      </trkpt>
      <trkpt lat="44.42173" lon="6.02692">
        <ele>647.9</ele>
        <time>2020-09-05T12:36:45.056Z</time>
      </trkpt>
      <trkpt lat="44.42168" lon="6.02691">
        <ele>647.9</ele>
        <time>2020-09-05T12:36:53.000Z</time>
      </trkpt>
      <trkpt lat="44.42173" lon="6.02692">
        <ele>639.7</ele>
        <time>2020-09-05T12:37:13.664Z</time>
      </trkpt>
      <trkpt lat="44.42173" lon="6.02702">
        <ele>641.6</ele>
        <time>2020-09-05T12:37:21.025Z</time>
      </trkpt>
      <trkpt lat="44.42171" lon="6.02708">
        <ele>641.6</ele>
        <time>2020-09-05T12:37:28.651Z</time>
      </trkpt>
      <trkpt lat="44.42174" lon="6.02716">
        <ele>641.6</ele>
        <time>2020-09-05T12:37:39.032Z</time>
      </trkpt>
      <trkpt lat="44.4218" lon="6.02717">
        <ele>641.6</ele>
        <time>2020-09-05T12:38:47.000Z</time>
      </trkpt>
      <trkpt lat="44.42188" lon="6.02737">
        <ele>641.6</ele>
        <time>2020-09-05T12:38:59.000Z</time>
      </trkpt>
      <trkpt lat="44.42188" lon="6.02756">
        <ele>641.6</ele>
        <time>2020-09-05T12:39:02.000Z</time>
      </trkpt>
      <trkpt lat="44.42191" lon="6.02771">
        <ele>641.6</ele>
        <time>2020-09-05T12:39:05.387Z</time>
      </trkpt>
      <trkpt lat="44.42205" lon="6.028">
        <ele>641.6</ele>
        <time>2020-09-05T12:39:11.000Z</time>
      </trkpt>
      <trkpt lat="44.42217" lon="6.02808">
        <ele>641.6</ele>
        <time>2020-09-05T12:39:14.000Z</time>
      </trkpt>
      <trkpt lat="44.42242" lon="6.02817">
        <ele>641.6</ele>
        <time>2020-09-05T12:39:20.000Z</time>
      </trkpt>
      <trkpt lat="44.42249" lon="6.0283">
        <ele>641.6</ele>
        <time>2020-09-05T12:39:26.000Z</time>
      </trkpt>
      <trkpt lat="44.42231" lon="6.02845">
        <ele>641.6</ele>
        <time>2020-09-05T12:39:29.000Z</time>
      </trkpt>
      <trkpt lat="44.42198" lon="6.02872">
        <ele>641.6</ele>
        <time>2020-09-05T12:39:32.000Z</time>
      </trkpt>
      <trkpt lat="44.42148" lon="6.02914">
        <ele>641.6</ele>
        <time>2020-09-05T12:39:38.000Z</time>
      </trkpt>
      <trkpt lat="44.42101" lon="6.02957">
        <ele>641.6</ele>
        <time>2020-09-05T12:39:44.000Z</time>
      </trkpt>
      <trkpt lat="44.42075" lon="6.02978">
        <ele>641.6</ele>
        <time>2020-09-05T12:39:47.251Z</time>
      </trkpt>
      <trkpt lat="44.42049" lon="6.03">
        <ele>641.6</ele>
        <time>2020-09-05T12:39:50.000Z</time>
      </trkpt>
      <trkpt lat="44.42002" lon="6.03035">
        <ele>666.6</ele>
        <time>2020-09-05T12:39:56.000Z</time>
      </trkpt>
      <trkpt lat="44.41982" lon="6.03061">
        <ele>669.5</ele>
        <time>2020-09-05T12:40:02.000Z</time>
      </trkpt>
      <trkpt lat="44.41982" lon="6.03072">
        <ele>670.1</ele>
        <time>2020-09-05T12:40:05.000Z</time>
      </trkpt>
      <trkpt lat="44.42021" lon="6.03126">
        <ele>656.4</ele>
        <time>2020-09-05T12:40:11.000Z</time>
      </trkpt>
      <trkpt lat="44.4208" lon="6.03205">
        <ele>664.7</ele>
        <time>2020-09-05T12:40:17.000Z</time>
      </trkpt>
      <trkpt lat="44.42094" lon="6.03292">
        <ele>668.4</ele>
        <time>2020-09-05T12:40:23.000Z</time>
      </trkpt>
      <trkpt lat="44.42106" lon="6.03328">
        <ele>671.8</ele>
        <time>2020-09-05T12:40:26.000Z</time>
      </trkpt>
      <trkpt lat="44.42137" lon="6.03389">
        <ele>671.3</ele>
        <time>2020-09-05T12:40:32.000Z</time>
      </trkpt>
      <trkpt lat="44.42161" lon="6.03415">
        <ele>672</ele>
        <time>2020-09-05T12:40:35.000Z</time>
      </trkpt>
      <trkpt lat="44.42188" lon="6.03434">
        <ele>669.8</ele>
        <time>2020-09-05T12:40:38.000Z</time>
      </trkpt>
      <trkpt lat="44.42197" lon="6.03457">
        <ele>666.2</ele>
        <time>2020-09-05T12:40:44.000Z</time>
      </trkpt>
      <trkpt lat="44.42179" lon="6.03475">
        <ele>667.4</ele>
        <time>2020-09-05T12:40:50.000Z</time>
      </trkpt>
      <trkpt lat="44.42171" lon="6.03497">
        <ele>667.8</ele>
        <time>2020-09-05T12:40:53.000Z</time>
      </trkpt>
      <trkpt lat="44.42138" lon="6.03534">
        <ele>671.9</ele>
        <time>2020-09-05T12:40:59.000Z</time>
      </trkpt>
      <trkpt lat="44.42121" lon="6.03531">
        <ele>675.2</ele>
        <time>2020-09-05T12:41:02.000Z</time>
      </trkpt>
      <trkpt lat="44.4211" lon="6.03522">
        <ele>679</ele>
        <time>2020-09-05T12:41:07.321Z</time>
      </trkpt>
      <trkpt lat="44.42116" lon="6.03525">
        <ele>682.8</ele>
        <time>2020-09-05T12:41:11.000Z</time>
      </trkpt>
      <trkpt lat="44.42106" lon="6.03539">
        <ele>682.7</ele>
        <time>2020-09-05T12:41:47.000Z</time>
      </trkpt>
      <trkpt lat="44.42099" lon="6.0356">
        <ele>683</ele>
        <time>2020-09-05T12:41:50.000Z</time>
      </trkpt>
      <trkpt lat="44.42092" lon="6.03591">
        <ele>682.9</ele>
        <time>2020-09-05T12:41:53.000Z</time>
      </trkpt>
      <trkpt lat="44.42089" lon="6.03634">
        <ele>684.7</ele>
        <time>2020-09-05T12:41:59.000Z</time>
      </trkpt>
      <trkpt lat="44.42117" lon="6.03652">
        <ele>687.8</ele>
        <time>2020-09-05T12:42:05.000Z</time>
      </trkpt>
      <trkpt lat="44.4214" lon="6.03656">
        <ele>692.2</ele>
        <time>2020-09-05T12:42:11.000Z</time>
      </trkpt>
      <trkpt lat="44.42148" lon="6.03655">
        <ele>692.9</ele>
        <time>2020-09-05T12:42:23.000Z</time>
      </trkpt>
      <trkpt lat="44.42165" lon="6.03654">
        <ele>692.9</ele>
        <time>2020-09-05T12:42:26.000Z</time>
      </trkpt>
      <trkpt lat="44.42177" lon="6.03657">
        <ele>693.2</ele>
        <time>2020-09-05T12:42:29.000Z</time>
      </trkpt>
      <trkpt lat="44.42196" lon="6.03666">
        <ele>691.3</ele>
        <time>2020-09-05T12:42:35.000Z</time>
      </trkpt>
      <trkpt lat="44.42213" lon="6.03671">
        <ele>690.2</ele>
        <time>2020-09-05T12:42:38.000Z</time>
      </trkpt>
      <trkpt lat="44.42235" lon="6.03672">
        <ele>689.8</ele>
        <time>2020-09-05T12:42:41.249Z</time>
      </trkpt>
      <trkpt lat="44.42247" lon="6.03666">
        <ele>689.7</ele>
        <time>2020-09-05T12:42:46.261Z</time>
      </trkpt>
      <trkpt lat="44.42262" lon="6.03671">
        <ele>687.8</ele>
        <time>2020-09-05T12:42:50.000Z</time>
      </trkpt>
      <trkpt lat="44.42303" lon="6.03697">
        <ele>686.9</ele>
        <time>2020-09-05T12:42:56.000Z</time>
      </trkpt>
      <trkpt lat="44.42337" lon="6.03706">
        <ele>684.2</ele>
        <time>2020-09-05T12:43:02.000Z</time>
      </trkpt>
      <trkpt lat="44.42347" lon="6.03706">
        <ele>681.2</ele>
        <time>2020-09-05T12:43:05.000Z</time>
      </trkpt>
      <trkpt lat="44.42362" lon="6.03715">
        <ele>680.3</ele>
        <time>2020-09-05T12:43:36.402Z</time>
      </trkpt>
      <trkpt lat="44.42358" lon="6.03713">
        <ele>678</ele>
        <time>2020-09-05T12:43:41.000Z</time>
      </trkpt>
      <trkpt lat="44.42392" lon="6.03744">
        <ele>676.7</ele>
        <time>2020-09-05T12:43:47.000Z</time>
      </trkpt>
      <trkpt lat="44.42454" lon="6.03801">
        <ele>678.6</ele>
        <time>2020-09-05T12:43:53.000Z</time>
      </trkpt>
      <trkpt lat="44.42464" lon="6.03806">
        <ele>678.5</ele>
        <time>2020-09-05T12:43:57.087Z</time>
      </trkpt>
      <trkpt lat="44.42465" lon="6.038">
        <ele>679.8</ele>
        <time>2020-09-05T12:44:01.626Z</time>
      </trkpt>
      <trkpt lat="44.42469" lon="6.03816">
        <ele>681.5</ele>
        <time>2020-09-05T12:44:05.000Z</time>
      </trkpt>
      <trkpt lat="44.42471" lon="6.03825">
        <ele>680.7</ele>
        <time>2020-09-05T12:44:08.313Z</time>
      </trkpt>
      <trkpt lat="44.42489" lon="6.03857">
        <ele>682.7</ele>
        <time>2020-09-05T12:44:26.000Z</time>
      </trkpt>
      <trkpt lat="44.42508" lon="6.03914">
        <ele>685.9</ele>
        <time>2020-09-05T12:44:32.000Z</time>
      </trkpt>
      <trkpt lat="44.4252" lon="6.03943">
        <ele>689.7</ele>
        <time>2020-09-05T12:44:35.280Z</time>
      </trkpt>
      <trkpt lat="44.42527" lon="6.03983">
        <ele>693.5</ele>
        <time>2020-09-05T12:44:41.000Z</time>
      </trkpt>
      <trkpt lat="44.42531" lon="6.04019">
        <ele>697.8</ele>
        <time>2020-09-05T12:44:47.000Z</time>
      </trkpt>
      <trkpt lat="44.42539" lon="6.04031">
        <ele>699.1</ele>
        <time>2020-09-05T12:44:50.000Z</time>
      </trkpt>
      <trkpt lat="44.42558" lon="6.04062">
        <ele>702.1</ele>
        <time>2020-09-05T12:44:56.000Z</time>
      </trkpt>
      <trkpt lat="44.42576" lon="6.04098">
        <ele>703.5</ele>
        <time>2020-09-05T12:45:02.000Z</time>
      </trkpt>
      <trkpt lat="44.42583" lon="6.04107">
        <ele>702.3</ele>
        <time>2020-09-05T12:45:05.000Z</time>
      </trkpt>
      <trkpt lat="44.42607" lon="6.04142">
        <ele>701.3</ele>
        <time>2020-09-05T12:45:11.000Z</time>
      </trkpt>
      <trkpt lat="44.4262" lon="6.04181">
        <ele>702.8</ele>
        <time>2020-09-05T12:45:14.287Z</time>
      </trkpt>
      <trkpt lat="44.4263" lon="6.0423">
        <ele>708.6</ele>
        <time>2020-09-05T12:45:20.000Z</time>
      </trkpt>
      <trkpt lat="44.42631" lon="6.04244">
        <ele>709.8</ele>
        <time>2020-09-05T12:45:23.000Z</time>
      </trkpt>
      <trkpt lat="44.42637" lon="6.04245">
        <ele>707.6</ele>
        <time>2020-09-05T12:45:26.000Z</time>
      </trkpt>
      <trkpt lat="44.42635" lon="6.0427">
        <ele>708.8</ele>
        <time>2020-09-05T12:45:31.663Z</time>
      </trkpt>
      <trkpt lat="44.42644" lon="6.04287">
        <ele>718</ele>
        <time>2020-09-05T12:45:35.000Z</time>
      </trkpt>
      <trkpt lat="44.42657" lon="6.04312">
        <ele>720.6</ele>
        <time>2020-09-05T12:45:39.078Z</time>
      </trkpt>
      <trkpt lat="44.4266" lon="6.04345">
        <ele>722.1</ele>
        <time>2020-09-05T12:45:44.000Z</time>
      </trkpt>
      <trkpt lat="44.42661" lon="6.04355">
        <ele>722.8</ele>
        <time>2020-09-05T12:45:49.297Z</time>
      </trkpt>
      <trkpt lat="44.42667" lon="6.04353">
        <ele>724.5</ele>
        <time>2020-09-05T12:46:02.000Z</time>
      </trkpt>
      <trkpt lat="44.42678" lon="6.0437">
        <ele>721</ele>
        <time>2020-09-05T12:46:21.250Z</time>
      </trkpt>
      <trkpt lat="44.42718" lon="6.04398">
        <ele>718.9</ele>
        <time>2020-09-05T12:46:26.000Z</time>
      </trkpt>
      <trkpt lat="44.42717" lon="6.04359">
        <ele>717.1</ele>
        <time>2020-09-05T12:46:32.000Z</time>
      </trkpt>
      <trkpt lat="44.42705" lon="6.04308">
        <ele>711.1</ele>
        <time>2020-09-05T12:46:38.000Z</time>
      </trkpt>
      <trkpt lat="44.42694" lon="6.04277">
        <ele>708.8</ele>
        <time>2020-09-05T12:46:41.000Z</time>
      </trkpt>
      <trkpt lat="44.42693" lon="6.04206">
        <ele>701.6</ele>
        <time>2020-09-05T12:46:47.000Z</time>
      </trkpt>
      <trkpt lat="44.42699" lon="6.04167">
        <ele>694.1</ele>
        <time>2020-09-05T12:46:53.000Z</time>
      </trkpt>
      <trkpt lat="44.42731" lon="6.04143">
        <ele>688.2</ele>
        <time>2020-09-05T12:46:59.000Z</time>
      </trkpt>
      <trkpt lat="44.42738" lon="6.04115">
        <ele>685.1</ele>
        <time>2020-09-05T12:47:02.000Z</time>
      </trkpt>
      <trkpt lat="44.4275" lon="6.04079">
        <ele>683</ele>
        <time>2020-09-05T12:47:05.000Z</time>
      </trkpt>
      <trkpt lat="44.42782" lon="6.04038">
        <ele>680.3</ele>
        <time>2020-09-05T12:47:11.000Z</time>
      </trkpt>
      <trkpt lat="44.42799" lon="6.04036">
        <ele>678.4</ele>
        <time>2020-09-05T12:47:14.000Z</time>
      </trkpt>
      <trkpt lat="44.4282" lon="6.04031">
        <ele>679.6</ele>
        <time>2020-09-05T12:47:20.000Z</time>
      </trkpt>
      <trkpt lat="44.42817" lon="6.04037">
        <ele>678.8</ele>
        <time>2020-09-05T12:47:26.000Z</time>
      </trkpt>
      <trkpt lat="44.42822" lon="6.04042">
        <ele>678.6</ele>
        <time>2020-09-05T12:47:41.000Z</time>
      </trkpt>
      <trkpt lat="44.42835" lon="6.04054">
        <ele>678.5</ele>
        <time>2020-09-05T12:47:44.000Z</time>
      </trkpt>
      <trkpt lat="44.42851" lon="6.04055">
        <ele>679.8</ele>
        <time>2020-09-05T12:47:47.000Z</time>
      </trkpt>
      <trkpt lat="44.42854" lon="6.04041">
        <ele>681.5</ele>
        <time>2020-09-05T12:47:50.314Z</time>
      </trkpt>
      <trkpt lat="44.4283" lon="6.03999">
        <ele>683.8</ele>
        <time>2020-09-05T12:47:56.000Z</time>
      </trkpt>
      <trkpt lat="44.42827" lon="6.03957">
        <ele>687.6</ele>
        <time>2020-09-05T12:48:02.000Z</time>
      </trkpt>
      <trkpt lat="44.42841" lon="6.03961">
        <ele>689.6</ele>
        <time>2020-09-05T12:48:08.000Z</time>
      </trkpt>
      <trkpt lat="44.42857" lon="6.03961">
        <ele>691</ele>
        <time>2020-09-05T12:48:11.000Z</time>
      </trkpt>
      <trkpt lat="44.42875" lon="6.0396">
        <ele>693.3</ele>
        <time>2020-09-05T12:48:14.237Z</time>
      </trkpt>
      <trkpt lat="44.42884" lon="6.03963">
        <ele>696.6</ele>
        <time>2020-09-05T12:48:17.000Z</time>
      </trkpt>
      <trkpt lat="44.42911" lon="6.03953">
        <ele>707.2</ele>
        <time>2020-09-05T12:48:38.000Z</time>
      </trkpt>
      <trkpt lat="44.42939" lon="6.03957">
        <ele>709.5</ele>
        <time>2020-09-05T12:48:41.000Z</time>
      </trkpt>
      <trkpt lat="44.42974" lon="6.0398">
        <ele>707.9</ele>
        <time>2020-09-05T12:48:44.000Z</time>
      </trkpt>
      <trkpt lat="44.42998" lon="6.04">
        <ele>709.2</ele>
        <time>2020-09-05T12:48:47.000Z</time>
      </trkpt>
      <trkpt lat="44.43033" lon="6.04054">
        <ele>710.7</ele>
        <time>2020-09-05T12:48:53.000Z</time>
      </trkpt>
      <trkpt lat="44.43055" lon="6.04083">
        <ele>711.8</ele>
        <time>2020-09-05T12:48:56.000Z</time>
      </trkpt>
      <trkpt lat="44.43108" lon="6.04149">
        <ele>711.3</ele>
        <time>2020-09-05T12:49:02.000Z</time>
      </trkpt>
      <trkpt lat="44.43127" lon="6.04197">
        <ele>710.7</ele>
        <time>2020-09-05T12:49:05.000Z</time>
      </trkpt>
      <trkpt lat="44.4314" lon="6.04259">
        <ele>713.9</ele>
        <time>2020-09-05T12:49:11.000Z</time>
      </trkpt>
      <trkpt lat="44.43104" lon="6.04251">
        <ele>715.9</ele>
        <time>2020-09-05T12:49:17.000Z</time>
      </trkpt>
      <trkpt lat="44.43094" lon="6.04309">
        <ele>717.4</ele>
        <time>2020-09-05T12:49:23.000Z</time>
      </trkpt>
      <trkpt lat="44.43095" lon="6.04353">
        <ele>721</ele>
        <time>2020-09-05T12:49:26.000Z</time>
      </trkpt>
      <trkpt lat="44.43117" lon="6.04422">
        <ele>720.9</ele>
        <time>2020-09-05T12:49:32.000Z</time>
      </trkpt>
      <trkpt lat="44.43135" lon="6.04456">
        <ele>719.4</ele>
        <time>2020-09-05T12:49:35.000Z</time>
      </trkpt>
      <trkpt lat="44.43164" lon="6.04529">
        <ele>715.2</ele>
        <time>2020-09-05T12:49:41.000Z</time>
      </trkpt>
      <trkpt lat="44.43168" lon="6.04566">
        <ele>713</ele>
        <time>2020-09-05T12:49:44.000Z</time>
      </trkpt>
      <trkpt lat="44.43161" lon="6.04596">
        <ele>713.8</ele>
        <time>2020-09-05T12:49:47.000Z</time>
      </trkpt>
      <trkpt lat="44.43118" lon="6.04594">
        <ele>713.5</ele>
        <time>2020-09-05T12:49:53.000Z</time>
      </trkpt>
      <trkpt lat="44.43114" lon="6.04622">
        <ele>714.6</ele>
        <time>2020-09-05T12:49:59.000Z</time>
      </trkpt>
      <trkpt lat="44.43128" lon="6.0467">
        <ele>713.3</ele>
        <time>2020-09-05T12:50:02.000Z</time>
      </trkpt>
      <trkpt lat="44.43148" lon="6.04724">
        <ele>713</ele>
        <time>2020-09-05T12:50:05.000Z</time>
      </trkpt>
      <trkpt lat="44.43154" lon="6.04773">
        <ele>712.7</ele>
        <time>2020-09-05T12:50:08.000Z</time>
      </trkpt>
      <trkpt lat="44.43156" lon="6.04877">
        <ele>717.2</ele>
        <time>2020-09-05T12:50:14.000Z</time>
      </trkpt>
      <trkpt lat="44.43154" lon="6.04926">
        <ele>716.9</ele>
        <time>2020-09-05T12:50:17.000Z</time>
      </trkpt>
      <trkpt lat="44.43132" lon="6.05008">
        <ele>716.4</ele>
        <time>2020-09-05T12:50:23.000Z</time>
      </trkpt>
      <trkpt lat="44.43121" lon="6.05034">
        <ele>719.6</ele>
        <time>2020-09-05T12:50:29.000Z</time>
      </trkpt>
      <trkpt lat="44.43122" lon="6.05017">
        <ele>720</ele>
        <time>2020-09-05T12:50:35.000Z</time>
      </trkpt>
      <trkpt lat="44.43121" lon="6.0503">
        <ele>723.2</ele>
        <time>2020-09-05T12:52:11.568Z</time>
      </trkpt>
      <trkpt lat="44.43129" lon="6.05085">
        <ele>726.8</ele>
        <time>2020-09-05T12:52:17.000Z</time>
      </trkpt>
      <trkpt lat="44.43135" lon="6.05127">
        <ele>728.1</ele>
        <time>2020-09-05T12:52:20.000Z</time>
      </trkpt>
      <trkpt lat="44.43139" lon="6.05217">
        <ele>731.9</ele>
        <time>2020-09-05T12:52:26.000Z</time>
      </trkpt>
      <trkpt lat="44.43172" lon="6.05293">
        <ele>735.7</ele>
        <time>2020-09-05T12:52:32.000Z</time>
      </trkpt>
      <trkpt lat="44.43201" lon="6.05314">
        <ele>741.2</ele>
        <time>2020-09-05T12:52:35.000Z</time>
      </trkpt>
      <trkpt lat="44.43234" lon="6.0533">
        <ele>740.5</ele>
        <time>2020-09-05T12:52:38.000Z</time>
      </trkpt>
      <trkpt lat="44.43273" lon="6.05349">
        <ele>741.1</ele>
        <time>2020-09-05T12:52:41.000Z</time>
      </trkpt>
      <trkpt lat="44.4335" lon="6.05388">
        <ele>741.3</ele>
        <time>2020-09-05T12:52:47.000Z</time>
      </trkpt>
      <trkpt lat="44.43419" lon="6.05406">
        <ele>738.2</ele>
        <time>2020-09-05T12:52:53.000Z</time>
      </trkpt>
      <trkpt lat="44.43493" lon="6.05417">
        <ele>735.3</ele>
        <time>2020-09-05T12:52:59.000Z</time>
      </trkpt>
      <trkpt lat="44.43531" lon="6.05409">
        <ele>733.8</ele>
        <time>2020-09-05T12:53:02.000Z</time>
      </trkpt>
      <trkpt lat="44.43567" lon="6.05423">
        <ele>731.2</ele>
        <time>2020-09-05T12:53:05.000Z</time>
      </trkpt>
      <trkpt lat="44.43599" lon="6.05439">
        <ele>728.3</ele>
        <time>2020-09-05T12:53:08.000Z</time>
      </trkpt>
      <trkpt lat="44.43662" lon="6.05451">
        <ele>727.8</ele>
        <time>2020-09-05T12:53:14.000Z</time>
      </trkpt>
      <trkpt lat="44.43697" lon="6.0545">
        <ele>728.6</ele>
        <time>2020-09-05T12:53:17.000Z</time>
      </trkpt>
      <trkpt lat="44.43736" lon="6.05451">
        <ele>729.5</ele>
        <time>2020-09-05T12:53:20.000Z</time>
      </trkpt>
      <trkpt lat="44.4381" lon="6.05444">
        <ele>727.6</ele>
        <time>2020-09-05T12:53:26.000Z</time>
      </trkpt>
      <trkpt lat="44.43846" lon="6.05419">
        <ele>724.7</ele>
        <time>2020-09-05T12:53:29.000Z</time>
      </trkpt>
      <trkpt lat="44.43911" lon="6.05351">
        <ele>725.1</ele>
        <time>2020-09-05T12:53:35.000Z</time>
      </trkpt>
      <trkpt lat="44.43929" lon="6.0536">
        <ele>725.2</ele>
        <time>2020-09-05T12:53:38.000Z</time>
      </trkpt>
      <trkpt lat="44.43949" lon="6.0539">
        <ele>725.3</ele>
        <time>2020-09-05T12:53:41.000Z</time>
      </trkpt>
      <trkpt lat="44.43973" lon="6.05427">
        <ele>722.5</ele>
        <time>2020-09-05T12:53:44.000Z</time>
      </trkpt>
      <trkpt lat="44.43999" lon="6.05462">
        <ele>720.7</ele>
        <time>2020-09-05T12:53:47.000Z</time>
      </trkpt>
      <trkpt lat="44.44069" lon="6.05533">
        <ele>715.2</ele>
        <time>2020-09-05T12:53:53.000Z</time>
      </trkpt>
      <trkpt lat="44.44153" lon="6.05569">
        <ele>709.7</ele>
        <time>2020-09-05T12:53:59.000Z</time>
      </trkpt>
      <trkpt lat="44.44239" lon="6.05622">
        <ele>702.6</ele>
        <time>2020-09-05T12:54:05.000Z</time>
      </trkpt>
      <trkpt lat="44.44276" lon="6.05644">
        <ele>699.5</ele>
        <time>2020-09-05T12:54:08.000Z</time>
      </trkpt>
      <trkpt lat="44.44307" lon="6.05662">
        <ele>697.9</ele>
        <time>2020-09-05T12:54:11.000Z</time>
      </trkpt>
      <trkpt lat="44.4436" lon="6.05695">
        <ele>693.1</ele>
        <time>2020-09-05T12:54:17.000Z</time>
      </trkpt>
      <trkpt lat="44.44376" lon="6.05707">
        <ele>691.3</ele>
        <time>2020-09-05T12:54:20.000Z</time>
      </trkpt>
      <trkpt lat="44.44383" lon="6.0571">
        <ele>689.9</ele>
        <time>2020-09-05T12:54:25.226Z</time>
      </trkpt>
      <trkpt lat="44.44375" lon="6.05722">
        <ele>692.9</ele>
        <time>2020-09-05T12:54:29.000Z</time>
      </trkpt>
      <trkpt lat="44.44381" lon="6.05768">
        <ele>690.7</ele>
        <time>2020-09-05T12:54:35.000Z</time>
      </trkpt>
      <trkpt lat="44.44387" lon="6.05793">
        <ele>691.4</ele>
        <time>2020-09-05T12:54:38.000Z</time>
      </trkpt>
      <trkpt lat="44.44396" lon="6.05836">
        <ele>688</ele>
        <time>2020-09-05T12:54:44.000Z</time>
      </trkpt>
      <trkpt lat="44.444" lon="6.05859">
        <ele>690.1</ele>
        <time>2020-09-05T12:54:47.000Z</time>
      </trkpt>
      <trkpt lat="44.44411" lon="6.05902">
        <ele>698.4</ele>
        <time>2020-09-05T12:54:53.000Z</time>
      </trkpt>
      <trkpt lat="44.44404" lon="6.05878">
        <ele>692.5</ele>
        <time>2020-09-05T12:55:17.000Z</time>
      </trkpt>
      <trkpt lat="44.44399" lon="6.05856">
        <ele>689.1</ele>
        <time>2020-09-05T12:55:20.000Z</time>
      </trkpt>
      <trkpt lat="44.444" lon="6.05846">
        <ele>687.1</ele>
        <time>2020-09-05T12:55:23.284Z</time>
      </trkpt>
      <trkpt lat="44.44404" lon="6.05834">
        <ele>692.2</ele>
        <time>2020-09-05T12:56:26.000Z</time>
      </trkpt>
      <trkpt lat="44.44428" lon="6.05824">
        <ele>689.7</ele>
        <time>2020-09-05T12:56:32.000Z</time>
      </trkpt>
      <trkpt lat="44.44474" lon="6.05828">
        <ele>687.5</ele>
        <time>2020-09-05T12:56:38.000Z</time>
      </trkpt>
      <trkpt lat="44.44519" lon="6.05859">
        <ele>688.2</ele>
        <time>2020-09-05T12:56:44.000Z</time>
      </trkpt>
      <trkpt lat="44.44561" lon="6.0587">
        <ele>688</ele>
        <time>2020-09-05T12:56:50.000Z</time>
      </trkpt>
      <trkpt lat="44.4459" lon="6.05866">
        <ele>686.6</ele>
        <time>2020-09-05T12:56:56.000Z</time>
      </trkpt>
      <trkpt lat="44.44597" lon="6.05851">
        <ele>683.4</ele>
        <time>2020-09-05T12:57:08.000Z</time>
      </trkpt>
      <trkpt lat="44.44604" lon="6.05847">
        <ele>682.9</ele>
        <time>2020-09-05T12:57:11.664Z</time>
      </trkpt>
      <trkpt lat="44.44646" lon="6.05867">
        <ele>678.7</ele>
        <time>2020-09-05T12:57:17.000Z</time>
      </trkpt>
      <trkpt lat="44.44678" lon="6.0588">
        <ele>673.8</ele>
        <time>2020-09-05T12:57:20.000Z</time>
      </trkpt>
      <trkpt lat="44.44742" lon="6.05866">
        <ele>671.9</ele>
        <time>2020-09-05T12:57:26.000Z</time>
      </trkpt>
      <trkpt lat="44.44788" lon="6.05849">
        <ele>673</ele>
        <time>2020-09-05T12:57:32.000Z</time>
      </trkpt>
      <trkpt lat="44.448" lon="6.05852">
        <ele>674</ele>
        <time>2020-09-05T12:57:35.000Z</time>
      </trkpt>
      <trkpt lat="44.44812" lon="6.05858">
        <ele>674.7</ele>
        <time>2020-09-05T12:57:40.350Z</time>
      </trkpt>
      <trkpt lat="44.44821" lon="6.05869">
        <ele>676.5</ele>
        <time>2020-09-05T12:57:44.000Z</time>
      </trkpt>
      <trkpt lat="44.44822" lon="6.05887">
        <ele>676.7</ele>
        <time>2020-09-05T12:57:47.000Z</time>
      </trkpt>
      <trkpt lat="44.44855" lon="6.05918">
        <ele>678.9</ele>
        <time>2020-09-05T12:57:53.000Z</time>
      </trkpt>
      <trkpt lat="44.4487" lon="6.05928">
        <ele>677.7</ele>
        <time>2020-09-05T12:57:58.317Z</time>
      </trkpt>
      <trkpt lat="44.44884" lon="6.05936">
        <ele>673.9</ele>
        <time>2020-09-05T12:58:02.000Z</time>
      </trkpt>
      <trkpt lat="44.44898" lon="6.05944">
        <ele>675.8</ele>
        <time>2020-09-05T12:58:05.000Z</time>
      </trkpt>
      <trkpt lat="44.44901" lon="6.0595">
        <ele>675.8</ele>
        <time>2020-09-05T12:58:08.000Z</time>
      </trkpt>
      <trkpt lat="44.4489" lon="6.05944">
        <ele>678.2</ele>
        <time>2020-09-05T12:58:17.000Z</time>
      </trkpt>
      <trkpt lat="44.44903" lon="6.05952">
        <ele>678</ele>
        <time>2020-09-05T12:58:29.000Z</time>
      </trkpt>
      <trkpt lat="44.44912" lon="6.05951">
        <ele>677.3</ele>
        <time>2020-09-05T12:58:32.000Z</time>
      </trkpt>
      <trkpt lat="44.44899" lon="6.05948">
        <ele>676.1</ele>
        <time>2020-09-05T12:58:35.528Z</time>
      </trkpt>
      <trkpt lat="44.44893" lon="6.05952">
        <ele>674.9</ele>
        <time>2020-09-05T12:58:39.310Z</time>
      </trkpt>
      <trkpt lat="44.44903" lon="6.05962">
        <ele>673.7</ele>
        <time>2020-09-05T12:58:43.666Z</time>
      </trkpt>
      <trkpt lat="44.4494" lon="6.05998">
        <ele>673.3</ele>
        <time>2020-09-05T12:58:47.000Z</time>
      </trkpt>
      <trkpt lat="44.44969" lon="6.06019">
        <ele>674.4</ele>
        <time>2020-09-05T12:58:50.000Z</time>
      </trkpt>
      <trkpt lat="44.45007" lon="6.0603">
        <ele>673.5</ele>
        <time>2020-09-05T12:58:56.000Z</time>
      </trkpt>
      <trkpt lat="44.45014" lon="6.06033">
        <ele>671.7</ele>
        <time>2020-09-05T12:58:59.000Z</time>
      </trkpt>
      <trkpt lat="44.45021" lon="6.0603">
        <ele>672.6</ele>
        <time>2020-09-05T12:59:02.000Z</time>
      </trkpt>
      <trkpt lat="44.45024" lon="6.06035">
        <ele>676.3</ele>
        <time>2020-09-05T12:59:17.000Z</time>
      </trkpt>
      <trkpt lat="44.45051" lon="6.06053">
        <ele>671.8</ele>
        <time>2020-09-05T12:59:26.000Z</time>
      </trkpt>
      <trkpt lat="44.45059" lon="6.06059">
        <ele>671.2</ele>
        <time>2020-09-05T12:59:29.000Z</time>
      </trkpt>
      <trkpt lat="44.45061" lon="6.06069">
        <ele>670.3</ele>
        <time>2020-09-05T12:59:35.000Z</time>
      </trkpt>
      <trkpt lat="44.45067" lon="6.06083">
        <ele>669</ele>
        <time>2020-09-05T12:59:38.000Z</time>
      </trkpt>
      <trkpt lat="44.4508" lon="6.061">
        <ele>669.8</ele>
        <time>2020-09-05T12:59:42.338Z</time>
      </trkpt>
      <trkpt lat="44.45103" lon="6.06147">
        <ele>669.8</ele>
        <time>2020-09-05T12:59:47.000Z</time>
      </trkpt>
      <trkpt lat="44.45122" lon="6.06183">
        <ele>673.5</ele>
        <time>2020-09-05T12:59:50.000Z</time>
      </trkpt>
      <trkpt lat="44.45134" lon="6.06218">
        <ele>676.2</ele>
        <time>2020-09-05T12:59:53.000Z</time>
      </trkpt>
      <trkpt lat="44.45147" lon="6.06252">
        <ele>676.4</ele>
        <time>2020-09-05T12:59:56.000Z</time>
      </trkpt>
      <trkpt lat="44.45162" lon="6.0628">
        <ele>678.4</ele>
        <time>2020-09-05T12:59:59.000Z</time>
      </trkpt>
      <trkpt lat="44.45199" lon="6.06301">
        <ele>685.1</ele>
        <time>2020-09-05T13:00:05.000Z</time>
      </trkpt>
      <trkpt lat="44.45232" lon="6.06326">
        <ele>686.7</ele>
        <time>2020-09-05T13:00:11.000Z</time>
      </trkpt>
      <trkpt lat="44.45247" lon="6.06337">
        <ele>686.7</ele>
        <time>2020-09-05T13:00:14.000Z</time>
      </trkpt>
      <trkpt lat="44.4524" lon="6.06359">
        <ele>686.8</ele>
        <time>2020-09-05T13:00:19.332Z</time>
      </trkpt>
      <trkpt lat="44.45248" lon="6.06374">
        <ele>688.7</ele>
        <time>2020-09-05T13:00:23.000Z</time>
      </trkpt>
      <trkpt lat="44.4526" lon="6.06392">
        <ele>687.4</ele>
        <time>2020-09-05T13:00:26.000Z</time>
      </trkpt>
      <trkpt lat="44.45287" lon="6.06433">
        <ele>693.2</ele>
        <time>2020-09-05T13:00:32.000Z</time>
      </trkpt>
      <trkpt lat="44.45297" lon="6.06483">
        <ele>697</ele>
        <time>2020-09-05T13:00:38.000Z</time>
      </trkpt>
      <trkpt lat="44.45318" lon="6.06524">
        <ele>696.7</ele>
        <time>2020-09-05T13:00:44.000Z</time>
      </trkpt>
      <trkpt lat="44.45324" lon="6.06528">
        <ele>698.9</ele>
        <time>2020-09-05T13:00:47.000Z</time>
      </trkpt>
      <trkpt lat="44.45315" lon="6.06536">
        <ele>701.8</ele>
        <time>2020-09-05T13:00:53.000Z</time>
      </trkpt>
      <trkpt lat="44.45308" lon="6.06555">
        <ele>701.5</ele>
        <time>2020-09-05T13:00:56.000Z</time>
      </trkpt>
      <trkpt lat="44.45312" lon="6.06592">
        <ele>704.6</ele>
        <time>2020-09-05T13:01:02.000Z</time>
      </trkpt>
      <trkpt lat="44.45331" lon="6.06649">
        <ele>709.2</ele>
        <time>2020-09-05T13:01:08.000Z</time>
      </trkpt>
      <trkpt lat="44.45338" lon="6.06661">
        <ele>711.4</ele>
        <time>2020-09-05T13:01:13.321Z</time>
      </trkpt>
      <trkpt lat="44.45328" lon="6.06673">
        <ele>713.5</ele>
        <time>2020-09-05T13:01:17.000Z</time>
      </trkpt>
      <trkpt lat="44.4533" lon="6.06692">
        <ele>713.1</ele>
        <time>2020-09-05T13:01:20.000Z</time>
      </trkpt>
      <trkpt lat="44.45332" lon="6.06702">
        <ele>713.2</ele>
        <time>2020-09-05T13:01:23.382Z</time>
      </trkpt>
      <trkpt lat="44.45338" lon="6.06717">
        <ele>714.6</ele>
        <time>2020-09-05T13:01:28.366Z</time>
      </trkpt>
      <trkpt lat="44.45345" lon="6.06733">
        <ele>716.9</ele>
        <time>2020-09-05T13:01:32.000Z</time>
      </trkpt>
      <trkpt lat="44.45347" lon="6.06739">
        <ele>718</ele>
        <time>2020-09-05T13:01:35.000Z</time>
      </trkpt>
      <trkpt lat="44.45345" lon="6.06732">
        <ele>718.3</ele>
        <time>2020-09-05T13:01:43.401Z</time>
      </trkpt>
      <trkpt lat="44.45353" lon="6.06724">
        <ele>722.1</ele>
        <time>2020-09-05T13:02:32.000Z</time>
      </trkpt>
      <trkpt lat="44.45361" lon="6.06736">
        <ele>721.9</ele>
        <time>2020-09-05T13:02:35.000Z</time>
      </trkpt>
      <trkpt lat="44.45395" lon="6.06792">
        <ele>723.8</ele>
        <time>2020-09-05T13:02:41.000Z</time>
      </trkpt>
      <trkpt lat="44.45442" lon="6.06816">
        <ele>717.9</ele>
        <time>2020-09-05T13:02:47.000Z</time>
      </trkpt>
      <trkpt lat="44.45472" lon="6.06813">
        <ele>713.6</ele>
        <time>2020-09-05T13:02:50.000Z</time>
      </trkpt>
      <trkpt lat="44.45503" lon="6.06802">
        <ele>710.8</ele>
        <time>2020-09-05T13:02:53.000Z</time>
      </trkpt>
      <trkpt lat="44.45561" lon="6.06781">
        <ele>708.6</ele>
        <time>2020-09-05T13:02:59.000Z</time>
      </trkpt>
      <trkpt lat="44.45603" lon="6.0675">
        <ele>706.4</ele>
        <time>2020-09-05T13:03:05.000Z</time>
      </trkpt>
      <trkpt lat="44.45624" lon="6.0673">
        <ele>703.9</ele>
        <time>2020-09-05T13:03:08.000Z</time>
      </trkpt>
      <trkpt lat="44.45668" lon="6.06685">
        <ele>699.4</ele>
        <time>2020-09-05T13:03:14.000Z</time>
      </trkpt>
      <trkpt lat="44.45689" lon="6.06665">
        <ele>696.4</ele>
        <time>2020-09-05T13:03:17.000Z</time>
      </trkpt>
      <trkpt lat="44.4572" lon="6.06663">
        <ele>694.4</ele>
        <time>2020-09-05T13:03:23.000Z</time>
      </trkpt>
      <trkpt lat="44.45723" lon="6.06679">
        <ele>694.5</ele>
        <time>2020-09-05T13:03:26.000Z</time>
      </trkpt>
      <trkpt lat="44.45733" lon="6.067">
        <ele>696.9</ele>
        <time>2020-09-05T13:03:29.000Z</time>
      </trkpt>
      <trkpt lat="44.45736" lon="6.06744">
        <ele>694.4</ele>
        <time>2020-09-05T13:03:35.000Z</time>
      </trkpt>
      <trkpt lat="44.45748" lon="6.068">
        <ele>694.3</ele>
        <time>2020-09-05T13:03:41.000Z</time>
      </trkpt>
      <trkpt lat="44.45761" lon="6.06812">
        <ele>697.1</ele>
        <time>2020-09-05T13:03:44.000Z</time>
      </trkpt>
      <trkpt lat="44.4578" lon="6.06824">
        <ele>700.1</ele>
        <time>2020-09-05T13:03:47.000Z</time>
      </trkpt>
      <trkpt lat="44.45791" lon="6.06844">
        <ele>701.7</ele>
        <time>2020-09-05T13:03:50.000Z</time>
      </trkpt>
      <trkpt lat="44.45803" lon="6.0688">
        <ele>705.2</ele>
        <time>2020-09-05T13:03:56.000Z</time>
      </trkpt>
      <trkpt lat="44.4581" lon="6.06889">
        <ele>705.3</ele>
        <time>2020-09-05T13:03:59.000Z</time>
      </trkpt>
      <trkpt lat="44.45836" lon="6.06909">
        <ele>706.5</ele>
        <time>2020-09-05T13:04:05.000Z</time>
      </trkpt>
      <trkpt lat="44.45848" lon="6.06927">
        <ele>706.8</ele>
        <time>2020-09-05T13:04:08.000Z</time>
      </trkpt>
      <trkpt lat="44.45861" lon="6.06943">
        <ele>708.3</ele>
        <time>2020-09-05T13:04:11.000Z</time>
      </trkpt>
      <trkpt lat="44.45878" lon="6.06952">
        <ele>711.3</ele>
        <time>2020-09-05T13:04:14.000Z</time>
      </trkpt>
      <trkpt lat="44.4589" lon="6.06956">
        <ele>712.4</ele>
        <time>2020-09-05T13:04:17.000Z</time>
      </trkpt>
      <trkpt lat="44.45904" lon="6.06938">
        <ele>715.6</ele>
        <time>2020-09-05T13:05:30.699Z</time>
      </trkpt>
      <trkpt lat="44.45916" lon="6.06902">
        <ele>695</ele>
        <time>2020-09-05T13:05:35.000Z</time>
      </trkpt>
      <trkpt lat="44.45928" lon="6.06904">
        <ele>690.6</ele>
        <time>2020-09-05T13:05:39.468Z</time>
      </trkpt>
      <trkpt lat="44.4592" lon="6.06915">
        <ele>686.6</ele>
        <time>2020-09-05T13:05:43.420Z</time>
      </trkpt>
      <trkpt lat="44.45933" lon="6.06891">
        <ele>691.2</ele>
        <time>2020-09-05T13:05:46.479Z</time>
      </trkpt>
      <trkpt lat="44.45947" lon="6.0684">
        <ele>700.8</ele>
        <time>2020-09-05T13:05:50.000Z</time>
      </trkpt>
      <trkpt lat="44.45959" lon="6.0681">
        <ele>698.4</ele>
        <time>2020-09-05T13:05:53.000Z</time>
      </trkpt>
      <trkpt lat="44.45986" lon="6.06746">
        <ele>687.3</ele>
        <time>2020-09-05T13:05:59.000Z</time>
      </trkpt>
      <trkpt lat="44.46003" lon="6.06679">
        <ele>682.9</ele>
        <time>2020-09-05T13:06:05.000Z</time>
      </trkpt>
      <trkpt lat="44.46003" lon="6.06635">
        <ele>677.1</ele>
        <time>2020-09-05T13:06:08.000Z</time>
      </trkpt>
      <trkpt lat="44.46007" lon="6.06561">
        <ele>676.4</ele>
        <time>2020-09-05T13:06:14.000Z</time>
      </trkpt>
      <trkpt lat="44.4602" lon="6.06501">
        <ele>676.2</ele>
        <time>2020-09-05T13:06:20.000Z</time>
      </trkpt>
      <trkpt lat="44.46029" lon="6.06515">
        <ele>673.1</ele>
        <time>2020-09-05T13:06:26.000Z</time>
      </trkpt>
      <trkpt lat="44.46027" lon="6.06524">
        <ele>672</ele>
        <time>2020-09-05T13:06:32.000Z</time>
      </trkpt>
      <trkpt lat="44.46072" lon="6.06545">
        <ele>667.4</ele>
        <time>2020-09-05T13:09:35.000Z</time>
      </trkpt>
      <trkpt lat="44.46106" lon="6.06568">
        <ele>667.1</ele>
        <time>2020-09-05T13:09:38.000Z</time>
      </trkpt>
      <trkpt lat="44.46165" lon="6.06651">
        <ele>672.9</ele>
        <time>2020-09-05T13:09:44.000Z</time>
      </trkpt>
      <trkpt lat="44.46197" lon="6.06756">
        <ele>674.9</ele>
        <time>2020-09-05T13:09:50.000Z</time>
      </trkpt>
      <trkpt lat="44.46222" lon="6.06805">
        <ele>674.8</ele>
        <time>2020-09-05T13:09:53.000Z</time>
      </trkpt>
      <trkpt lat="44.46288" lon="6.06895">
        <ele>675.9</ele>
        <time>2020-09-05T13:09:59.000Z</time>
      </trkpt>
      <trkpt lat="44.46296" lon="6.06948">
        <ele>679.3</ele>
        <time>2020-09-05T13:10:02.000Z</time>
      </trkpt>
      <trkpt lat="44.46308" lon="6.07041">
        <ele>663.8</ele>
        <time>2020-09-05T13:10:08.000Z</time>
      </trkpt>
      <trkpt lat="44.46346" lon="6.07073">
        <ele>661.2</ele>
        <time>2020-09-05T13:10:11.000Z</time>
      </trkpt>
      <trkpt lat="44.4642" lon="6.07147">
        <ele>655.5</ele>
        <time>2020-09-05T13:10:17.000Z</time>
      </trkpt>
      <trkpt lat="44.46441" lon="6.07201">
        <ele>655.2</ele>
        <time>2020-09-05T13:10:20.000Z</time>
      </trkpt>
      <trkpt lat="44.46461" lon="6.07344">
        <ele>654</ele>
        <time>2020-09-05T13:10:26.000Z</time>
      </trkpt>
      <trkpt lat="44.46504" lon="6.07472">
        <ele>649.1</ele>
        <time>2020-09-05T13:10:32.000Z</time>
      </trkpt>
      <trkpt lat="44.46529" lon="6.07525">
        <ele>646.3</ele>
        <time>2020-09-05T13:10:35.000Z</time>
      </trkpt>
      <trkpt lat="44.46596" lon="6.07625">
        <ele>646</ele>
        <time>2020-09-05T13:10:41.000Z</time>
      </trkpt>
      <trkpt lat="44.46641" lon="6.07669">
        <ele>646.4</ele>
        <time>2020-09-05T13:10:44.000Z</time>
      </trkpt>
      <trkpt lat="44.46747" lon="6.07754">
        <ele>643.3</ele>
        <time>2020-09-05T13:10:50.000Z</time>
      </trkpt>
      <trkpt lat="44.46797" lon="6.07794">
        <ele>643</ele>
        <time>2020-09-05T13:10:53.000Z</time>
      </trkpt>
      <trkpt lat="44.4684" lon="6.07857">
        <ele>649.5</ele>
        <time>2020-09-05T13:10:59.000Z</time>
      </trkpt>
      <trkpt lat="44.46849" lon="6.07879">
        <ele>652.2</ele>
        <time>2020-09-05T13:11:02.000Z</time>
      </trkpt>
      <trkpt lat="44.46895" lon="6.0785">
        <ele>654.3</ele>
        <time>2020-09-05T13:11:08.000Z</time>
      </trkpt>
      <trkpt lat="44.46929" lon="6.07905">
        <ele>657.1</ele>
        <time>2020-09-05T13:11:14.000Z</time>
      </trkpt>
      <trkpt lat="44.46953" lon="6.07947">
        <ele>659.3</ele>
        <time>2020-09-05T13:11:17.000Z</time>
      </trkpt>
      <trkpt lat="44.46995" lon="6.08027">
        <ele>661</ele>
        <time>2020-09-05T13:11:23.000Z</time>
      </trkpt>
      <trkpt lat="44.47018" lon="6.08074">
        <ele>660.8</ele>
        <time>2020-09-05T13:11:26.000Z</time>
      </trkpt>
      <trkpt lat="44.4707" lon="6.08177">
        <ele>664.1</ele>
        <time>2020-09-05T13:11:32.000Z</time>
      </trkpt>
      <trkpt lat="44.47089" lon="6.08234">
        <ele>665.2</ele>
        <time>2020-09-05T13:11:35.000Z</time>
      </trkpt>
      <trkpt lat="44.47107" lon="6.08293">
        <ele>666.1</ele>
        <time>2020-09-05T13:11:38.000Z</time>
      </trkpt>
      <trkpt lat="44.47129" lon="6.08355">
        <ele>667.4</ele>
        <time>2020-09-05T13:11:41.000Z</time>
      </trkpt>
      <trkpt lat="44.47171" lon="6.08492">
        <ele>668.2</ele>
        <time>2020-09-05T13:11:47.000Z</time>
      </trkpt>
      <trkpt lat="44.47184" lon="6.0857">
        <ele>669</ele>
        <time>2020-09-05T13:11:50.000Z</time>
      </trkpt>
      <trkpt lat="44.47196" lon="6.08727">
        <ele>672.4</ele>
        <time>2020-09-05T13:11:56.000Z</time>
      </trkpt>
      <trkpt lat="44.47197" lon="6.08856">
        <ele>669</ele>
        <time>2020-09-05T13:12:02.000Z</time>
      </trkpt>
      <trkpt lat="44.47199" lon="6.08916">
        <ele>671.2</ele>
        <time>2020-09-05T13:12:05.000Z</time>
      </trkpt>
      <trkpt lat="44.47177" lon="6.08993">
        <ele>680.4</ele>
        <time>2020-09-05T13:12:11.000Z</time>
      </trkpt>
      <trkpt lat="44.47152" lon="6.09025">
        <ele>683.3</ele>
        <time>2020-09-05T13:12:14.000Z</time>
      </trkpt>
      <trkpt lat="44.47131" lon="6.09119">
        <ele>681.1</ele>
        <time>2020-09-05T13:12:20.000Z</time>
      </trkpt>
      <trkpt lat="44.47152" lon="6.09224">
        <ele>672.3</ele>
        <time>2020-09-05T13:12:26.000Z</time>
      </trkpt>
      <trkpt lat="44.4715" lon="6.09326">
        <ele>682.7</ele>
        <time>2020-09-05T13:12:32.000Z</time>
      </trkpt>
      <trkpt lat="44.47137" lon="6.09377">
        <ele>687.1</ele>
        <time>2020-09-05T13:12:35.000Z</time>
      </trkpt>
      <trkpt lat="44.47124" lon="6.0943">
        <ele>688.4</ele>
        <time>2020-09-05T13:12:38.000Z</time>
      </trkpt>
      <trkpt lat="44.47112" lon="6.09484">
        <ele>689.2</ele>
        <time>2020-09-05T13:12:41.000Z</time>
      </trkpt>
      <trkpt lat="44.47103" lon="6.09613">
        <ele>697.5</ele>
        <time>2020-09-05T13:12:47.000Z</time>
      </trkpt>
      <trkpt lat="44.47094" lon="6.09684">
        <ele>700.4</ele>
        <time>2020-09-05T13:12:50.000Z</time>
      </trkpt>
      <trkpt lat="44.47076" lon="6.09753">
        <ele>697.3</ele>
        <time>2020-09-05T13:12:53.000Z</time>
      </trkpt>
      <trkpt lat="44.47056" lon="6.09822">
        <ele>703.2</ele>
        <time>2020-09-05T13:12:56.000Z</time>
      </trkpt>
      <trkpt lat="44.47004" lon="6.09914">
        <ele>703.3</ele>
        <time>2020-09-05T13:13:02.000Z</time>
      </trkpt>
      <trkpt lat="44.46983" lon="6.09957">
        <ele>705.8</ele>
        <time>2020-09-05T13:13:05.000Z</time>
      </trkpt>
      <trkpt lat="44.46993" lon="6.10028">
        <ele>712.6</ele>
        <time>2020-09-05T13:13:11.000Z</time>
      </trkpt>
      <trkpt lat="44.46982" lon="6.10075">
        <ele>717.8</ele>
        <time>2020-09-05T13:13:14.000Z</time>
      </trkpt>
      <trkpt lat="44.46936" lon="6.10194">
        <ele>721.5</ele>
        <time>2020-09-05T13:13:20.000Z</time>
      </trkpt>
      <trkpt lat="44.46909" lon="6.10332">
        <ele>720.1</ele>
        <time>2020-09-05T13:13:26.000Z</time>
      </trkpt>
      <trkpt lat="44.46907" lon="6.10511">
        <ele>719.3</ele>
        <time>2020-09-05T13:13:32.000Z</time>
      </trkpt>
      <trkpt lat="44.46911" lon="6.10607">
        <ele>733.5</ele>
        <time>2020-09-05T13:13:35.000Z</time>
      </trkpt>
      <trkpt lat="44.46902" lon="6.10676">
        <ele>739.1</ele>
        <time>2020-09-05T13:13:38.000Z</time>
      </trkpt>
      <trkpt lat="44.46879" lon="6.10755">
        <ele>742.5</ele>
        <time>2020-09-05T13:13:44.000Z</time>
      </trkpt>
      <trkpt lat="44.46921" lon="6.10714">
        <ele>755.7</ele>
        <time>2020-09-05T13:13:50.000Z</time>
      </trkpt>
      <trkpt lat="44.46953" lon="6.10669">
        <ele>756.5</ele>
        <time>2020-09-05T13:13:53.000Z</time>
      </trkpt>
      <trkpt lat="44.46976" lon="6.1064">
        <ele>757.9</ele>
        <time>2020-09-05T13:13:56.000Z</time>
      </trkpt>
      <trkpt lat="44.46991" lon="6.10575">
        <ele>759.1</ele>
        <time>2020-09-05T13:14:02.000Z</time>
      </trkpt>
      <trkpt lat="44.47006" lon="6.10515">
        <ele>758.6</ele>
        <time>2020-09-05T13:14:08.000Z</time>
      </trkpt>
      <trkpt lat="44.47054" lon="6.10533">
        <ele>762.3</ele>
        <time>2020-09-05T13:14:11.000Z</time>
      </trkpt>
      <trkpt lat="44.47085" lon="6.1056">
        <ele>757.2</ele>
        <time>2020-09-05T13:14:14.000Z</time>
      </trkpt>
      <trkpt lat="44.4713" lon="6.10621">
        <ele>754.1</ele>
        <time>2020-09-05T13:14:20.000Z</time>
      </trkpt>
      <trkpt lat="44.47146" lon="6.10656">
        <ele>753.8</ele>
        <time>2020-09-05T13:14:23.000Z</time>
      </trkpt>
      <trkpt lat="44.4716" lon="6.10713">
        <ele>746.4</ele>
        <time>2020-09-05T13:14:29.000Z</time>
      </trkpt>
      <trkpt lat="44.47124" lon="6.10754">
        <ele>734.3</ele>
        <time>2020-09-05T13:14:35.000Z</time>
      </trkpt>
      <trkpt lat="44.47083" lon="6.10836">
        <ele>734.1</ele>
        <time>2020-09-05T13:14:41.000Z</time>
      </trkpt>
      <trkpt lat="44.47068" lon="6.10875">
        <ele>728.7</ele>
        <time>2020-09-05T13:14:44.000Z</time>
      </trkpt>
      <trkpt lat="44.4705" lon="6.10956">
        <ele>719.9</ele>
        <time>2020-09-05T13:14:50.000Z</time>
      </trkpt>
      <trkpt lat="44.47051" lon="6.10999">
        <ele>719.1</ele>
        <time>2020-09-05T13:14:53.000Z</time>
      </trkpt>
      <trkpt lat="44.47053" lon="6.11039">
        <ele>720.9</ele>
        <time>2020-09-05T13:14:56.000Z</time>
      </trkpt>
      <trkpt lat="44.47064" lon="6.11109">
        <ele>707.9</ele>
        <time>2020-09-05T13:15:02.000Z</time>
      </trkpt>
      <trkpt lat="44.47071" lon="6.1118">
        <ele>709.9</ele>
        <time>2020-09-05T13:15:08.000Z</time>
      </trkpt>
      <trkpt lat="44.47071" lon="6.11218">
        <ele>712.2</ele>
        <time>2020-09-05T13:15:11.000Z</time>
      </trkpt>
      <trkpt lat="44.47061" lon="6.11277">
        <ele>709.4</ele>
        <time>2020-09-05T13:15:17.000Z</time>
      </trkpt>
      <trkpt lat="44.47119" lon="6.11271">
        <ele>698.3</ele>
        <time>2020-09-05T13:15:23.000Z</time>
      </trkpt>
      <trkpt lat="44.47226" lon="6.11246">
        <ele>691.8</ele>
        <time>2020-09-05T13:15:29.000Z</time>
      </trkpt>
      <trkpt lat="44.47281" lon="6.11235">
        <ele>688.7</ele>
        <time>2020-09-05T13:15:33.394Z</time>
      </trkpt>
      <trkpt lat="44.4736" lon="6.11223">
        <ele>680.6</ele>
        <time>2020-09-05T13:15:38.000Z</time>
      </trkpt>
      <trkpt lat="44.47411" lon="6.11217">
        <ele>681.7</ele>
        <time>2020-09-05T13:15:41.000Z</time>
      </trkpt>
      <trkpt lat="44.47457" lon="6.11211">
        <ele>681.7</ele>
        <time>2020-09-05T13:15:44.000Z</time>
      </trkpt>
      <trkpt lat="44.47466" lon="6.11256">
        <ele>672.9</ele>
        <time>2020-09-05T13:15:50.000Z</time>
      </trkpt>
      <trkpt lat="44.47463" lon="6.11297">
        <ele>674.7</ele>
        <time>2020-09-05T13:15:53.000Z</time>
      </trkpt>
      <trkpt lat="44.47455" lon="6.11352">
        <ele>672.7</ele>
        <time>2020-09-05T13:15:56.000Z</time>
      </trkpt>
      <trkpt lat="44.47437" lon="6.11465">
        <ele>670.9</ele>
        <time>2020-09-05T13:16:02.000Z</time>
      </trkpt>
      <trkpt lat="44.47417" lon="6.11539">
        <ele>670.3</ele>
        <time>2020-09-05T13:16:08.000Z</time>
      </trkpt>
      <trkpt lat="44.47409" lon="6.11549">
        <ele>662.8</ele>
        <time>2020-09-05T13:16:11.000Z</time>
      </trkpt>
      <trkpt lat="44.47392" lon="6.11562">
        <ele>664.6</ele>
        <time>2020-09-05T13:16:17.000Z</time>
      </trkpt>
      <trkpt lat="44.47379" lon="6.11586">
        <ele>662</ele>
        <time>2020-09-05T13:16:20.000Z</time>
      </trkpt>
      <trkpt lat="44.47357" lon="6.1162">
        <ele>658</ele>
        <time>2020-09-05T13:16:23.000Z</time>
      </trkpt>
      <trkpt lat="44.47335" lon="6.11655">
        <ele>660.5</ele>
        <time>2020-09-05T13:16:26.000Z</time>
      </trkpt>
      <trkpt lat="44.47313" lon="6.11692">
        <ele>658</ele>
        <time>2020-09-05T13:16:29.000Z</time>
      </trkpt>
      <trkpt lat="44.47268" lon="6.11763">
        <ele>655.9</ele>
        <time>2020-09-05T13:16:35.000Z</time>
      </trkpt>
      <trkpt lat="44.47243" lon="6.11799">
        <ele>659.2</ele>
        <time>2020-09-05T13:16:38.000Z</time>
      </trkpt>
      <trkpt lat="44.47198" lon="6.11871">
        <ele>663.6</ele>
        <time>2020-09-05T13:16:44.000Z</time>
      </trkpt>
      <trkpt lat="44.47176" lon="6.1191">
        <ele>664.6</ele>
        <time>2020-09-05T13:16:47.000Z</time>
      </trkpt>
      <trkpt lat="44.47138" lon="6.11994">
        <ele>662.6</ele>
        <time>2020-09-05T13:16:53.000Z</time>
      </trkpt>
      <trkpt lat="44.47084" lon="6.12061">
        <ele>662.8</ele>
        <time>2020-09-05T13:16:59.000Z</time>
      </trkpt>
      <trkpt lat="44.47027" lon="6.12136">
        <ele>662.5</ele>
        <time>2020-09-05T13:17:05.000Z</time>
      </trkpt>
      <trkpt lat="44.46972" lon="6.12207">
        <ele>664.4</ele>
        <time>2020-09-05T13:17:11.000Z</time>
      </trkpt>
      <trkpt lat="44.46922" lon="6.12267">
        <ele>662.2</ele>
        <time>2020-09-05T13:17:17.000Z</time>
      </trkpt>
      <trkpt lat="44.46876" lon="6.12343">
        <ele>664</ele>
        <time>2020-09-05T13:17:23.000Z</time>
      </trkpt>
      <trkpt lat="44.46849" lon="6.12388">
        <ele>665</ele>
        <time>2020-09-05T13:17:26.000Z</time>
      </trkpt>
      <trkpt lat="44.46791" lon="6.12492">
        <ele>666.5</ele>
        <time>2020-09-05T13:17:32.000Z</time>
      </trkpt>
      <trkpt lat="44.46765" lon="6.12534">
        <ele>665.5</ele>
        <time>2020-09-05T13:17:35.000Z</time>
      </trkpt>
      <trkpt lat="44.46739" lon="6.12585">
        <ele>662.5</ele>
        <time>2020-09-05T13:17:41.000Z</time>
      </trkpt>
      <trkpt lat="44.46752" lon="6.12588">
        <ele>662.1</ele>
        <time>2020-09-05T13:17:44.000Z</time>
      </trkpt>
      <trkpt lat="44.46759" lon="6.12584">
        <ele>662.6</ele>
        <time>2020-09-05T13:17:49.341Z</time>
      </trkpt>
      <trkpt lat="44.4675" lon="6.12571">
        <ele>664.4</ele>
        <time>2020-09-05T13:17:53.000Z</time>
      </trkpt>
      <trkpt lat="44.46732" lon="6.12568">
        <ele>665.4</ele>
        <time>2020-09-05T13:17:56.000Z</time>
      </trkpt>
      <trkpt lat="44.46709" lon="6.12581">
        <ele>666.1</ele>
        <time>2020-09-05T13:17:59.000Z</time>
      </trkpt>
      <trkpt lat="44.46662" lon="6.1263">
        <ele>665.1</ele>
        <time>2020-09-05T13:18:02.975Z</time>
      </trkpt>
      <trkpt lat="44.46628" lon="6.12686">
        <ele>669.7</ele>
        <time>2020-09-05T13:18:08.000Z</time>
      </trkpt>
      <trkpt lat="44.46625" lon="6.12703">
        <ele>673</ele>
        <time>2020-09-05T13:18:11.000Z</time>
      </trkpt>
      <trkpt lat="44.46605" lon="6.12741">
        <ele>674.4</ele>
        <time>2020-09-05T13:18:17.000Z</time>
      </trkpt>
      <trkpt lat="44.46584" lon="6.12782">
        <ele>672.7</ele>
        <time>2020-09-05T13:18:20.000Z</time>
      </trkpt>
      <trkpt lat="44.46567" lon="6.12823">
        <ele>672.2</ele>
        <time>2020-09-05T13:18:23.000Z</time>
      </trkpt>
      <trkpt lat="44.46527" lon="6.12902">
        <ele>672</ele>
        <time>2020-09-05T13:18:29.000Z</time>
      </trkpt>
      <trkpt lat="44.46501" lon="6.1294">
        <ele>664.6</ele>
        <time>2020-09-05T13:18:35.000Z</time>
      </trkpt>
      <trkpt lat="44.46496" lon="6.1298">
        <ele>668.4</ele>
        <time>2020-09-05T13:18:38.000Z</time>
      </trkpt>
      <trkpt lat="44.46487" lon="6.13058">
        <ele>670</ele>
        <time>2020-09-05T13:18:44.000Z</time>
      </trkpt>
      <trkpt lat="44.46482" lon="6.131">
        <ele>669.9</ele>
        <time>2020-09-05T13:18:47.000Z</time>
      </trkpt>
      <trkpt lat="44.46482" lon="6.13189">
        <ele>660.3</ele>
        <time>2020-09-05T13:18:53.000Z</time>
      </trkpt>
      <trkpt lat="44.46496" lon="6.1323">
        <ele>666.1</ele>
        <time>2020-09-05T13:18:56.000Z</time>
      </trkpt>
      <trkpt lat="44.4653" lon="6.13296">
        <ele>665.8</ele>
        <time>2020-09-05T13:19:02.000Z</time>
      </trkpt>
      <trkpt lat="44.46568" lon="6.13359">
        <ele>667</ele>
        <time>2020-09-05T13:19:08.000Z</time>
      </trkpt>
      <trkpt lat="44.4659" lon="6.13386">
        <ele>673.1</ele>
        <time>2020-09-05T13:19:11.000Z</time>
      </trkpt>
      <trkpt lat="44.46621" lon="6.13446">
        <ele>671.9</ele>
        <time>2020-09-05T13:19:17.000Z</time>
      </trkpt>
      <trkpt lat="44.46625" lon="6.13469">
        <ele>663.4</ele>
        <time>2020-09-05T13:19:20.000Z</time>
      </trkpt>
      <trkpt lat="44.46637" lon="6.13506">
        <ele>664.4</ele>
        <time>2020-09-05T13:19:26.000Z</time>
      </trkpt>
      <trkpt lat="44.46652" lon="6.13563">
        <ele>664.4</ele>
        <time>2020-09-05T13:19:32.000Z</time>
      </trkpt>
      <trkpt lat="44.46648" lon="6.13613">
        <ele>665.2</ele>
        <time>2020-09-05T13:19:35.000Z</time>
      </trkpt>
      <trkpt lat="44.46645" lon="6.13679">
        <ele>657</ele>
        <time>2020-09-05T13:19:41.000Z</time>
      </trkpt>
      <trkpt lat="44.4664" lon="6.13698">
        <ele>656.8</ele>
        <time>2020-09-05T13:19:44.000Z</time>
      </trkpt>
      <trkpt lat="44.4662" lon="6.13717">
        <ele>662.7</ele>
        <time>2020-09-05T13:19:47.000Z</time>
      </trkpt>
      <trkpt lat="44.466" lon="6.13758">
        <ele>669.1</ele>
        <time>2020-09-05T13:19:50.000Z</time>
      </trkpt>
      <trkpt lat="44.4656" lon="6.13861">
        <ele>670.6</ele>
        <time>2020-09-05T13:19:56.000Z</time>
      </trkpt>
      <trkpt lat="44.46544" lon="6.13902">
        <ele>664.9</ele>
        <time>2020-09-05T13:19:59.000Z</time>
      </trkpt>
      <trkpt lat="44.46533" lon="6.13938">
        <ele>664</ele>
        <time>2020-09-05T13:20:02.000Z</time>
      </trkpt>
      <trkpt lat="44.46499" lon="6.13992">
        <ele>662.8</ele>
        <time>2020-09-05T13:20:08.000Z</time>
      </trkpt>
      <trkpt lat="44.46446" lon="6.14047">
        <ele>665.8</ele>
        <time>2020-09-05T13:20:14.000Z</time>
      </trkpt>
      <trkpt lat="44.46432" lon="6.14082">
        <ele>665.9</ele>
        <time>2020-09-05T13:20:17.000Z</time>
      </trkpt>
      <trkpt lat="44.46427" lon="6.1414">
        <ele>669.7</ele>
        <time>2020-09-05T13:20:23.000Z</time>
      </trkpt>
      <trkpt lat="44.4643" lon="6.14174">
        <ele>673.4</ele>
        <time>2020-09-05T13:20:29.000Z</time>
      </trkpt>
      <trkpt lat="44.46432" lon="6.14189">
        <ele>672.4</ele>
        <time>2020-09-05T13:20:32.000Z</time>
      </trkpt>
      <trkpt lat="44.46425" lon="6.14221">
        <ele>674.7</ele>
        <time>2020-09-05T13:20:38.000Z</time>
      </trkpt>
      <trkpt lat="44.46421" lon="6.14234">
        <ele>674.6</ele>
        <time>2020-09-05T13:20:41.000Z</time>
      </trkpt>
      <trkpt lat="44.46414" lon="6.14257">
        <ele>675.5</ele>
        <time>2020-09-05T13:20:44.000Z</time>
      </trkpt>
      <trkpt lat="44.46394" lon="6.14301">
        <ele>677.4</ele>
        <time>2020-09-05T13:20:50.000Z</time>
      </trkpt>
      <trkpt lat="44.46385" lon="6.14312">
        <ele>676.9</ele>
        <time>2020-09-05T13:20:54.121Z</time>
      </trkpt>
      <trkpt lat="44.46376" lon="6.14345">
        <ele>674.7</ele>
        <time>2020-09-05T13:20:59.000Z</time>
      </trkpt>
      <trkpt lat="44.46371" lon="6.14359">
        <ele>673.7</ele>
        <time>2020-09-05T13:21:02.000Z</time>
      </trkpt>
      <trkpt lat="44.46367" lon="6.14366">
        <ele>674.2</ele>
        <time>2020-09-05T13:21:05.460Z</time>
      </trkpt>
      <trkpt lat="44.46358" lon="6.14385">
        <ele>673.2</ele>
        <time>2020-09-05T13:21:10.482Z</time>
      </trkpt>
      <trkpt lat="44.46342" lon="6.14406">
        <ele>670.4</ele>
        <time>2020-09-05T13:21:14.000Z</time>
      </trkpt>
      <trkpt lat="44.4633" lon="6.14427">
        <ele>670.3</ele>
        <time>2020-09-05T13:21:17.000Z</time>
      </trkpt>
      <trkpt lat="44.46317" lon="6.14454">
        <ele>667.8</ele>
        <time>2020-09-05T13:21:20.000Z</time>
      </trkpt>
      <trkpt lat="44.463" lon="6.14519">
        <ele>666.4</ele>
        <time>2020-09-05T13:21:26.000Z</time>
      </trkpt>
      <trkpt lat="44.46301" lon="6.14574">
        <ele>666.7</ele>
        <time>2020-09-05T13:21:32.000Z</time>
      </trkpt>
      <trkpt lat="44.4631" lon="6.14603">
        <ele>668.4</ele>
        <time>2020-09-05T13:21:35.000Z</time>
      </trkpt>
      <trkpt lat="44.46325" lon="6.14636">
        <ele>670</ele>
        <time>2020-09-05T13:21:41.000Z</time>
      </trkpt>
      <trkpt lat="44.46331" lon="6.14666">
        <ele>669.1</ele>
        <time>2020-09-05T13:21:44.277Z</time>
      </trkpt>
      <trkpt lat="44.46318" lon="6.14743">
        <ele>671.3</ele>
        <time>2020-09-05T13:21:50.000Z</time>
      </trkpt>
      <trkpt lat="44.46307" lon="6.14784">
        <ele>672.3</ele>
        <time>2020-09-05T13:21:53.000Z</time>
      </trkpt>
      <trkpt lat="44.46298" lon="6.14811">
        <ele>672.7</ele>
        <time>2020-09-05T13:21:56.000Z</time>
      </trkpt>
      <trkpt lat="44.46292" lon="6.1484">
        <ele>674.2</ele>
        <time>2020-09-05T13:22:02.000Z</time>
      </trkpt>
      <trkpt lat="44.46275" lon="6.14877">
        <ele>675.6</ele>
        <time>2020-09-05T13:22:23.000Z</time>
      </trkpt>
      <trkpt lat="44.4626" lon="6.14916">
        <ele>673.1</ele>
        <time>2020-09-05T13:22:26.000Z</time>
      </trkpt>
      <trkpt lat="44.46227" lon="6.15012">
        <ele>680.2</ele>
        <time>2020-09-05T13:22:32.000Z</time>
      </trkpt>
      <trkpt lat="44.46221" lon="6.15069">
        <ele>679</ele>
        <time>2020-09-05T13:22:35.000Z</time>
      </trkpt>
      <trkpt lat="44.46222" lon="6.15101">
        <ele>677.4</ele>
        <time>2020-09-05T13:22:38.294Z</time>
      </trkpt>
      <trkpt lat="44.4622" lon="6.15115">
        <ele>678.5</ele>
        <time>2020-09-05T13:22:43.308Z</time>
      </trkpt>
      <trkpt lat="44.4621" lon="6.1518">
        <ele>676.1</ele>
        <time>2020-09-05T13:22:47.000Z</time>
      </trkpt>
      <trkpt lat="44.46206" lon="6.15213">
        <ele>678.9</ele>
        <time>2020-09-05T13:22:50.000Z</time>
      </trkpt>
      <trkpt lat="44.46205" lon="6.15231">
        <ele>682.5</ele>
        <time>2020-09-05T13:22:53.383Z</time>
      </trkpt>
      <trkpt lat="44.46207" lon="6.15223">
        <ele>682.1</ele>
        <time>2020-09-05T13:23:02.000Z</time>
      </trkpt>
      <trkpt lat="44.46207" lon="6.15232">
        <ele>679.3</ele>
        <time>2020-09-05T13:23:20.000Z</time>
      </trkpt>
      <trkpt lat="44.46206" lon="6.15264">
        <ele>683.5</ele>
        <time>2020-09-05T13:23:24.603Z</time>
      </trkpt>
      <trkpt lat="44.46202" lon="6.15352">
        <ele>679</ele>
        <time>2020-09-05T13:23:29.000Z</time>
      </trkpt>
      <trkpt lat="44.462" lon="6.15406">
        <ele>680</ele>
        <time>2020-09-05T13:23:32.000Z</time>
      </trkpt>
      <trkpt lat="44.46197" lon="6.15456">
        <ele>679.8</ele>
        <time>2020-09-05T13:23:35.000Z</time>
      </trkpt>
      <trkpt lat="44.46188" lon="6.15544">
        <ele>677.9</ele>
        <time>2020-09-05T13:23:41.000Z</time>
      </trkpt>
      <trkpt lat="44.46184" lon="6.15603">
        <ele>675.7</ele>
        <time>2020-09-05T13:23:44.000Z</time>
      </trkpt>
      <trkpt lat="44.46188" lon="6.15705">
        <ele>677.2</ele>
        <time>2020-09-05T13:23:50.000Z</time>
      </trkpt>
      <trkpt lat="44.46196" lon="6.1575">
        <ele>676.6</ele>
        <time>2020-09-05T13:23:53.000Z</time>
      </trkpt>
      <trkpt lat="44.46203" lon="6.15845">
        <ele>681.4</ele>
        <time>2020-09-05T13:23:59.000Z</time>
      </trkpt>
      <trkpt lat="44.46208" lon="6.15904">
        <ele>680.6</ele>
        <time>2020-09-05T13:24:02.000Z</time>
      </trkpt>
      <trkpt lat="44.46217" lon="6.15989">
        <ele>673.5</ele>
        <time>2020-09-05T13:24:08.000Z</time>
      </trkpt>
      <trkpt lat="44.4622" lon="6.16013">
        <ele>674.7</ele>
        <time>2020-09-05T13:24:11.000Z</time>
      </trkpt>
      <trkpt lat="44.46215" lon="6.15985">
        <ele>676.3</ele>
        <time>2020-09-05T13:24:20.000Z</time>
      </trkpt>
      <trkpt lat="44.46212" lon="6.1598">
        <ele>681.2</ele>
        <time>2020-09-05T13:24:29.000Z</time>
      </trkpt>
      <trkpt lat="44.46213" lon="6.15997">
        <ele>684</ele>
        <time>2020-09-05T13:24:47.000Z</time>
      </trkpt>
      <trkpt lat="44.46218" lon="6.16033">
        <ele>681.5</ele>
        <time>2020-09-05T13:24:50.000Z</time>
      </trkpt>
      <trkpt lat="44.46226" lon="6.1609">
        <ele>677.7</ele>
        <time>2020-09-05T13:24:53.000Z</time>
      </trkpt>
      <trkpt lat="44.46237" lon="6.16194">
        <ele>675.7</ele>
        <time>2020-09-05T13:24:59.000Z</time>
      </trkpt>
      <trkpt lat="44.46237" lon="6.16228">
        <ele>675.6</ele>
        <time>2020-09-05T13:25:02.000Z</time>
      </trkpt>
      <trkpt lat="44.46238" lon="6.16255">
        <ele>674.4</ele>
        <time>2020-09-05T13:25:05.000Z</time>
      </trkpt>
      <trkpt lat="44.46239" lon="6.16307">
        <ele>681.4</ele>
        <time>2020-09-05T13:25:11.000Z</time>
      </trkpt>
      <trkpt lat="44.46237" lon="6.16345">
        <ele>678.1</ele>
        <time>2020-09-05T13:25:14.000Z</time>
      </trkpt>
      <trkpt lat="44.46234" lon="6.16436">
        <ele>680</ele>
        <time>2020-09-05T13:25:20.000Z</time>
      </trkpt>
      <trkpt lat="44.4624" lon="6.16506">
        <ele>681</ele>
        <time>2020-09-05T13:25:26.000Z</time>
      </trkpt>
      <trkpt lat="44.46246" lon="6.1654">
        <ele>681.1</ele>
        <time>2020-09-05T13:25:29.000Z</time>
      </trkpt>
      <trkpt lat="44.46251" lon="6.1662">
        <ele>684.8</ele>
        <time>2020-09-05T13:25:35.000Z</time>
      </trkpt>
      <trkpt lat="44.46252" lon="6.16663">
        <ele>681.7</ele>
        <time>2020-09-05T13:25:38.000Z</time>
      </trkpt>
      <trkpt lat="44.46249" lon="6.16752">
        <ele>679.5</ele>
        <time>2020-09-05T13:25:44.000Z</time>
      </trkpt>
      <trkpt lat="44.46247" lon="6.16796">
        <ele>679.2</ele>
        <time>2020-09-05T13:25:47.000Z</time>
      </trkpt>
      <trkpt lat="44.46242" lon="6.16877">
        <ele>681.9</ele>
        <time>2020-09-05T13:25:53.000Z</time>
      </trkpt>
      <trkpt lat="44.4624" lon="6.16917">
        <ele>682.2</ele>
        <time>2020-09-05T13:25:56.000Z</time>
      </trkpt>
      <trkpt lat="44.4623" lon="6.1698">
        <ele>680.6</ele>
        <time>2020-09-05T13:26:02.000Z</time>
      </trkpt>
      <trkpt lat="44.46225" lon="6.17007">
        <ele>677</ele>
        <time>2020-09-05T13:26:05.000Z</time>
      </trkpt>
      <trkpt lat="44.46206" lon="6.17086">
        <ele>684.4</ele>
        <time>2020-09-05T13:26:11.000Z</time>
      </trkpt>
      <trkpt lat="44.46193" lon="6.17154">
        <ele>682.2</ele>
        <time>2020-09-05T13:26:17.000Z</time>
      </trkpt>
      <trkpt lat="44.46194" lon="6.1717">
        <ele>683.9</ele>
        <time>2020-09-05T13:26:20.000Z</time>
      </trkpt>
      <trkpt lat="44.46197" lon="6.1718">
        <ele>683.2</ele>
        <time>2020-09-05T13:26:25.379Z</time>
      </trkpt>
      <trkpt lat="44.46198" lon="6.1722">
        <ele>683.5</ele>
        <time>2020-09-05T13:26:29.000Z</time>
      </trkpt>
      <trkpt lat="44.46198" lon="6.17286">
        <ele>686</ele>
        <time>2020-09-05T13:26:35.000Z</time>
      </trkpt>
      <trkpt lat="44.46197" lon="6.17385">
        <ele>677.6</ele>
        <time>2020-09-05T13:26:41.000Z</time>
      </trkpt>
      <trkpt lat="44.46192" lon="6.17417">
        <ele>684.3</ele>
        <time>2020-09-05T13:26:44.000Z</time>
      </trkpt>
      <trkpt lat="44.46186" lon="6.17421">
        <ele>683.7</ele>
        <time>2020-09-05T13:26:47.000Z</time>
      </trkpt>
      <trkpt lat="44.46184" lon="6.17429">
        <ele>683.3</ele>
        <time>2020-09-05T13:26:53.000Z</time>
      </trkpt>
      <trkpt lat="44.46176" lon="6.17478">
        <ele>681.6</ele>
        <time>2020-09-05T13:26:59.000Z</time>
      </trkpt>
      <trkpt lat="44.4617" lon="6.17485">
        <ele>681.7</ele>
        <time>2020-09-05T13:27:04.261Z</time>
      </trkpt>
      <trkpt lat="44.46172" lon="6.17497">
        <ele>680.7</ele>
        <time>2020-09-05T13:27:08.000Z</time>
      </trkpt>
      <trkpt lat="44.46171" lon="6.17519">
        <ele>682.6</ele>
        <time>2020-09-05T13:27:11.000Z</time>
      </trkpt>
      <trkpt lat="44.46152" lon="6.17651">
        <ele>680.2</ele>
        <time>2020-09-05T13:27:17.000Z</time>
      </trkpt>
      <trkpt lat="44.46134" lon="6.17779">
        <ele>684.1</ele>
        <time>2020-09-05T13:27:23.000Z</time>
      </trkpt>
      <trkpt lat="44.46115" lon="6.17902">
        <ele>684.4</ele>
        <time>2020-09-05T13:27:29.000Z</time>
      </trkpt>
      <trkpt lat="44.46084" lon="6.17999">
        <ele>685.3</ele>
        <time>2020-09-05T13:27:35.000Z</time>
      </trkpt>
      <trkpt lat="44.46081" lon="6.18047">
        <ele>685.8</ele>
        <time>2020-09-05T13:27:38.000Z</time>
      </trkpt>
      <trkpt lat="44.46081" lon="6.18032">
        <ele>690.5</ele>
        <time>2020-09-05T13:27:50.000Z</time>
      </trkpt>
      <trkpt lat="44.46082" lon="6.18124">
        <ele>681</ele>
        <time>2020-09-05T13:28:17.000Z</time>
      </trkpt>
      <trkpt lat="44.46061" lon="6.18294">
        <ele>677.6</ele>
        <time>2020-09-05T13:28:23.000Z</time>
      </trkpt>
      <trkpt lat="44.46054" lon="6.18378">
        <ele>684.2</ele>
        <time>2020-09-05T13:28:26.000Z</time>
      </trkpt>
      <trkpt lat="44.46048" lon="6.1846">
        <ele>682</ele>
        <time>2020-09-05T13:28:29.722Z</time>
      </trkpt>
      <trkpt lat="44.46035" lon="6.18587">
        <ele>684.7</ele>
        <time>2020-09-05T13:28:35.000Z</time>
      </trkpt>
      <trkpt lat="44.46028" lon="6.18658">
        <ele>689</ele>
        <time>2020-09-05T13:28:38.000Z</time>
      </trkpt>
      <trkpt lat="44.4602" lon="6.18727">
        <ele>689.3</ele>
        <time>2020-09-05T13:28:41.000Z</time>
      </trkpt>
      <trkpt lat="44.46021" lon="6.18806">
        <ele>693.7</ele>
        <time>2020-09-05T13:28:47.000Z</time>
      </trkpt>
      <trkpt lat="44.46013" lon="6.18847">
        <ele>694.1</ele>
        <time>2020-09-05T13:28:50.000Z</time>
      </trkpt>
      <trkpt lat="44.46022" lon="6.18914">
        <ele>680.6</ele>
        <time>2020-09-05T13:28:56.000Z</time>
      </trkpt>
      <trkpt lat="44.46017" lon="6.19035">
        <ele>686.6</ele>
        <time>2020-09-05T13:29:02.000Z</time>
      </trkpt>
      <trkpt lat="44.46014" lon="6.19099">
        <ele>687.8</ele>
        <time>2020-09-05T13:29:05.000Z</time>
      </trkpt>
      <trkpt lat="44.46008" lon="6.1921">
        <ele>691.3</ele>
        <time>2020-09-05T13:29:11.000Z</time>
      </trkpt>
      <trkpt lat="44.46" lon="6.1927">
        <ele>694.6</ele>
        <time>2020-09-05T13:29:14.000Z</time>
      </trkpt>
      <trkpt lat="44.45995" lon="6.19331">
        <ele>695</ele>
        <time>2020-09-05T13:29:17.000Z</time>
      </trkpt>
      <trkpt lat="44.45995" lon="6.19445">
        <ele>689.7</ele>
        <time>2020-09-05T13:29:23.000Z</time>
      </trkpt>
      <trkpt lat="44.45989" lon="6.19553">
        <ele>683.1</ele>
        <time>2020-09-05T13:29:29.000Z</time>
      </trkpt>
      <trkpt lat="44.45983" lon="6.19616">
        <ele>682.9</ele>
        <time>2020-09-05T13:29:32.000Z</time>
      </trkpt>
      <trkpt lat="44.45965" lon="6.19718">
        <ele>689.3</ele>
        <time>2020-09-05T13:29:38.000Z</time>
      </trkpt>
      <trkpt lat="44.45926" lon="6.19757">
        <ele>693</ele>
        <time>2020-09-05T13:29:44.000Z</time>
      </trkpt>
      <trkpt lat="44.45921" lon="6.19838">
        <ele>693.8</ele>
        <time>2020-09-05T13:29:50.000Z</time>
      </trkpt>
      <trkpt lat="44.45923" lon="6.19858">
        <ele>694.4</ele>
        <time>2020-09-05T13:29:53.000Z</time>
      </trkpt>
      <trkpt lat="44.45961" lon="6.19859">
        <ele>681.2</ele>
        <time>2020-09-05T13:29:59.000Z</time>
      </trkpt>
      <trkpt lat="44.45987" lon="6.19856">
        <ele>680.1</ele>
        <time>2020-09-05T13:30:02.000Z</time>
      </trkpt>
      <trkpt lat="44.4601" lon="6.19855">
        <ele>685.7</ele>
        <time>2020-09-05T13:30:05.000Z</time>
      </trkpt>
      <trkpt lat="44.46025" lon="6.19858">
        <ele>686.6</ele>
        <time>2020-09-05T13:30:08.000Z</time>
      </trkpt>
      <trkpt lat="44.46047" lon="6.19858">
        <ele>689.7</ele>
        <time>2020-09-05T13:30:14.000Z</time>
      </trkpt>
      <trkpt lat="44.46052" lon="6.19885">
        <ele>687.9</ele>
        <time>2020-09-05T13:30:20.000Z</time>
      </trkpt>
      <trkpt lat="44.46049" lon="6.19956">
        <ele>682.9</ele>
        <time>2020-09-05T13:30:26.000Z</time>
      </trkpt>
      <trkpt lat="44.4605" lon="6.19991">
        <ele>683.6</ele>
        <time>2020-09-05T13:30:29.000Z</time>
      </trkpt>
      <trkpt lat="44.46053" lon="6.20082">
        <ele>687.4</ele>
        <time>2020-09-05T13:30:35.000Z</time>
      </trkpt>
      <trkpt lat="44.46073" lon="6.20244">
        <ele>687.4</ele>
        <time>2020-09-05T13:30:41.000Z</time>
      </trkpt>
      <trkpt lat="44.46071" lon="6.20392">
        <ele>688.7</ele>
        <time>2020-09-05T13:30:47.000Z</time>
      </trkpt>
      <trkpt lat="44.46072" lon="6.20474">
        <ele>688.1</ele>
        <time>2020-09-05T13:30:50.000Z</time>
      </trkpt>
      <trkpt lat="44.46097" lon="6.20633">
        <ele>692.2</ele>
        <time>2020-09-05T13:30:56.000Z</time>
      </trkpt>
      <trkpt lat="44.46116" lon="6.20715">
        <ele>693</ele>
        <time>2020-09-05T13:30:59.000Z</time>
      </trkpt>
      <trkpt lat="44.46147" lon="6.20881">
        <ele>694.3</ele>
        <time>2020-09-05T13:31:05.000Z</time>
      </trkpt>
      <trkpt lat="44.46159" lon="6.20948">
        <ele>694.9</ele>
        <time>2020-09-05T13:31:08.000Z</time>
      </trkpt>
      <trkpt lat="44.46182" lon="6.21047">
        <ele>692.2</ele>
        <time>2020-09-05T13:31:14.000Z</time>
      </trkpt>
      <trkpt lat="44.46197" lon="6.21152">
        <ele>700</ele>
        <time>2020-09-05T13:31:20.000Z</time>
      </trkpt>
      <trkpt lat="44.46208" lon="6.21236">
        <ele>699.2</ele>
        <time>2020-09-05T13:31:26.000Z</time>
      </trkpt>
      <trkpt lat="44.46204" lon="6.21248">
        <ele>699.1</ele>
        <time>2020-09-05T13:31:29.000Z</time>
      </trkpt>
      <trkpt lat="44.46187" lon="6.21249">
        <ele>700.5</ele>
        <time>2020-09-05T13:31:35.000Z</time>
      </trkpt>
      <trkpt lat="44.46193" lon="6.21254">
        <ele>699.6</ele>
        <time>2020-09-05T13:31:44.000Z</time>
      </trkpt>
      <trkpt lat="44.46202" lon="6.21261">
        <ele>699.9</ele>
        <time>2020-09-05T13:31:47.000Z</time>
      </trkpt>
      <trkpt lat="44.46208" lon="6.21264">
        <ele>699.2</ele>
        <time>2020-09-05T13:31:53.000Z</time>
      </trkpt>
      <trkpt lat="44.46203" lon="6.21276">
        <ele>703.3</ele>
        <time>2020-09-05T13:31:59.000Z</time>
      </trkpt>
      <trkpt lat="44.462" lon="6.21285">
        <ele>702.8</ele>
        <time>2020-09-05T13:32:02.000Z</time>
      </trkpt>
      <trkpt lat="44.46194" lon="6.21294">
        <ele>702.1</ele>
        <time>2020-09-05T13:32:05.258Z</time>
      </trkpt>
      <trkpt lat="44.46184" lon="6.21316">
        <ele>700.1</ele>
        <time>2020-09-05T13:32:10.275Z</time>
      </trkpt>
      <trkpt lat="44.46151" lon="6.21332">
        <ele>699.2</ele>
        <time>2020-09-05T13:32:23.000Z</time>
      </trkpt>
      <trkpt lat="44.4612" lon="6.21357">
        <ele>694.1</ele>
        <time>2020-09-05T13:32:26.000Z</time>
      </trkpt>
      <trkpt lat="44.46096" lon="6.21408">
        <ele>695.3</ele>
        <time>2020-09-05T13:32:31.371Z</time>
      </trkpt>
      <trkpt lat="44.46079" lon="6.21469">
        <ele>694.7</ele>
        <time>2020-09-05T13:32:35.000Z</time>
      </trkpt>
      <trkpt lat="44.4606" lon="6.21546">
        <ele>694.2</ele>
        <time>2020-09-05T13:32:41.000Z</time>
      </trkpt>
      <trkpt lat="44.4606" lon="6.21608">
        <ele>702.7</ele>
        <time>2020-09-05T13:32:47.000Z</time>
      </trkpt>
      <trkpt lat="44.4605" lon="6.21645">
        <ele>703.9</ele>
        <time>2020-09-05T13:32:50.000Z</time>
      </trkpt>
      <trkpt lat="44.46044" lon="6.21688">
        <ele>700</ele>
        <time>2020-09-05T13:32:53.000Z</time>
      </trkpt>
      <trkpt lat="44.46046" lon="6.21776">
        <ele>698.9</ele>
        <time>2020-09-05T13:32:59.000Z</time>
      </trkpt>
      <trkpt lat="44.46041" lon="6.21813">
        <ele>699.8</ele>
        <time>2020-09-05T13:33:02.000Z</time>
      </trkpt>
      <trkpt lat="44.46041" lon="6.21824">
        <ele>698.2</ele>
        <time>2020-09-05T13:33:05.000Z</time>
      </trkpt>
      <trkpt lat="44.46044" lon="6.21819">
        <ele>699.1</ele>
        <time>2020-09-05T13:33:10.399Z</time>
      </trkpt>
      <trkpt lat="44.4606" lon="6.21811">
        <ele>695.6</ele>
        <time>2020-09-05T13:33:14.000Z</time>
      </trkpt>
      <trkpt lat="44.46088" lon="6.21832">
        <ele>700.5</ele>
        <time>2020-09-05T13:33:17.000Z</time>
      </trkpt>
      <trkpt lat="44.46115" lon="6.21854">
        <ele>699.3</ele>
        <time>2020-09-05T13:33:20.000Z</time>
      </trkpt>
      <trkpt lat="44.46168" lon="6.21916">
        <ele>697</ele>
        <time>2020-09-05T13:33:26.000Z</time>
      </trkpt>
      <trkpt lat="44.46189" lon="6.21956">
        <ele>696.1</ele>
        <time>2020-09-05T13:33:29.989Z</time>
      </trkpt>
      <trkpt lat="44.46127" lon="6.22072">
        <ele>694.1</ele>
        <time>2020-09-05T13:33:35.000Z</time>
      </trkpt>
      <trkpt lat="44.46122" lon="6.22179">
        <ele>702.5</ele>
        <time>2020-09-05T13:33:41.000Z</time>
      </trkpt>
      <trkpt lat="44.46119" lon="6.2228">
        <ele>700.7</ele>
        <time>2020-09-05T13:33:47.000Z</time>
      </trkpt>
      <trkpt lat="44.46098" lon="6.22297">
        <ele>700</ele>
        <time>2020-09-05T13:33:53.000Z</time>
      </trkpt>
      <trkpt lat="44.46095" lon="6.22306">
        <ele>700.2</ele>
        <time>2020-09-05T13:33:58.366Z</time>
      </trkpt>
      <trkpt lat="44.46101" lon="6.22327">
        <ele>701.6</ele>
        <time>2020-09-05T13:34:02.000Z</time>
      </trkpt>
      <trkpt lat="44.46115" lon="6.22363">
        <ele>704.9</ele>
        <time>2020-09-05T13:34:05.000Z</time>
      </trkpt>
      <trkpt lat="44.4615" lon="6.22432">
        <ele>702</ele>
        <time>2020-09-05T13:34:08.000Z</time>
      </trkpt>
      <trkpt lat="44.46222" lon="6.22561">
        <ele>702.6</ele>
        <time>2020-09-05T13:34:14.000Z</time>
      </trkpt>
      <trkpt lat="44.4625" lon="6.2261">
        <ele>702</ele>
        <time>2020-09-05T13:34:17.000Z</time>
      </trkpt>
      <trkpt lat="44.46301" lon="6.22702">
        <ele>702.6</ele>
        <time>2020-09-05T13:34:23.000Z</time>
      </trkpt>
      <trkpt lat="44.4633" lon="6.22794">
        <ele>710.4</ele>
        <time>2020-09-05T13:34:29.000Z</time>
      </trkpt>
      <trkpt lat="44.46341" lon="6.22903">
        <ele>704.7</ele>
        <time>2020-09-05T13:34:35.000Z</time>
      </trkpt>
      <trkpt lat="44.46341" lon="6.22945">
        <ele>704.6</ele>
        <time>2020-09-05T13:34:38.000Z</time>
      </trkpt>
      <trkpt lat="44.46337" lon="6.22989">
        <ele>700.2</ele>
        <time>2020-09-05T13:34:44.000Z</time>
      </trkpt>
      <trkpt lat="44.46333" lon="6.2303">
        <ele>697.8</ele>
        <time>2020-09-05T13:34:50.000Z</time>
      </trkpt>
      <trkpt lat="44.46334" lon="6.23064">
        <ele>696.1</ele>
        <time>2020-09-05T13:34:53.000Z</time>
      </trkpt>
      <trkpt lat="44.46354" lon="6.23151">
        <ele>696.4</ele>
        <time>2020-09-05T13:34:59.000Z</time>
      </trkpt>
      <trkpt lat="44.46365" lon="6.2319">
        <ele>696.6</ele>
        <time>2020-09-05T13:35:02.000Z</time>
      </trkpt>
      <trkpt lat="44.46371" lon="6.23208">
        <ele>700.1</ele>
        <time>2020-09-05T13:35:05.000Z</time>
      </trkpt>
      <trkpt lat="44.46382" lon="6.23225">
        <ele>702.2</ele>
        <time>2020-09-05T13:35:11.000Z</time>
      </trkpt>
      <trkpt lat="44.46394" lon="6.23232">
        <ele>700.8</ele>
        <time>2020-09-05T13:35:17.000Z</time>
      </trkpt>
      <trkpt lat="44.464" lon="6.23253">
        <ele>699.7</ele>
        <time>2020-09-05T13:35:20.000Z</time>
      </trkpt>
      <trkpt lat="44.46404" lon="6.23266">
        <ele>698.8</ele>
        <time>2020-09-05T13:35:23.269Z</time>
      </trkpt>
      <trkpt lat="44.4642" lon="6.23268">
        <ele>698.3</ele>
        <time>2020-09-05T13:35:28.306Z</time>
      </trkpt>
      <trkpt lat="44.46453" lon="6.23259">
        <ele>707.8</ele>
        <time>2020-09-05T13:35:32.000Z</time>
      </trkpt>
      <trkpt lat="44.46486" lon="6.23256">
        <ele>712.3</ele>
        <time>2020-09-05T13:35:35.000Z</time>
      </trkpt>
      <trkpt lat="44.46517" lon="6.23306">
        <ele>716.2</ele>
        <time>2020-09-05T13:35:41.000Z</time>
      </trkpt>
      <trkpt lat="44.4653" lon="6.23331">
        <ele>709.3</ele>
        <time>2020-09-05T13:35:44.214Z</time>
      </trkpt>
      <trkpt lat="44.46565" lon="6.23367">
        <ele>709.7</ele>
        <time>2020-09-05T13:35:50.000Z</time>
      </trkpt>
      <trkpt lat="44.46626" lon="6.23374">
        <ele>725.5</ele>
        <time>2020-09-05T13:35:56.000Z</time>
      </trkpt>
      <trkpt lat="44.46665" lon="6.23366">
        <ele>726.7</ele>
        <time>2020-09-05T13:36:00.526Z</time>
      </trkpt>
      <trkpt lat="44.4671" lon="6.23357">
        <ele>731.5</ele>
        <time>2020-09-05T13:36:05.000Z</time>
      </trkpt>
      <trkpt lat="44.46736" lon="6.23347">
        <ele>730.7</ele>
        <time>2020-09-05T13:36:08.000Z</time>
      </trkpt>
      <trkpt lat="44.46786" lon="6.233">
        <ele>731.5</ele>
        <time>2020-09-05T13:36:14.000Z</time>
      </trkpt>
      <trkpt lat="44.46806" lon="6.23278">
        <ele>735.4</ele>
        <time>2020-09-05T13:36:17.000Z</time>
      </trkpt>
      <trkpt lat="44.46847" lon="6.23239">
        <ele>738.2</ele>
        <time>2020-09-05T13:36:23.000Z</time>
      </trkpt>
      <trkpt lat="44.4689" lon="6.23277">
        <ele>747.6</ele>
        <time>2020-09-05T13:36:29.000Z</time>
      </trkpt>
      <trkpt lat="44.46899" lon="6.23307">
        <ele>748.7</ele>
        <time>2020-09-05T13:36:32.000Z</time>
      </trkpt>
      <trkpt lat="44.46916" lon="6.23347">
        <ele>751.7</ele>
        <time>2020-09-05T13:36:38.000Z</time>
      </trkpt>
      <trkpt lat="44.46911" lon="6.23324">
        <ele>755.5</ele>
        <time>2020-09-05T13:36:44.000Z</time>
      </trkpt>
      <trkpt lat="44.46907" lon="6.23308">
        <ele>751.6</ele>
        <time>2020-09-05T13:36:50.000Z</time>
      </trkpt>
      <trkpt lat="44.46902" lon="6.23304">
        <ele>757.3</ele>
        <time>2020-09-05T13:37:05.000Z</time>
      </trkpt>
      <trkpt lat="44.46894" lon="6.23306">
        <ele>761.9</ele>
        <time>2020-09-05T13:37:26.000Z</time>
      </trkpt>
      <trkpt lat="44.46889" lon="6.23311">
        <ele>763.6</ele>
        <time>2020-09-05T13:37:35.000Z</time>
      </trkpt>
      <trkpt lat="44.46896" lon="6.23311">
        <ele>764</ele>
        <time>2020-09-05T13:37:47.000Z</time>
      </trkpt>
      <trkpt lat="44.46903" lon="6.23309">
        <ele>763.7</ele>
        <time>2020-09-05T13:37:53.000Z</time>
      </trkpt>
      <trkpt lat="44.46902" lon="6.23318">
        <ele>763.7</ele>
        <time>2020-09-05T13:38:06.528Z</time>
      </trkpt>
      <trkpt lat="44.46902" lon="6.2331">
        <ele>763.7</ele>
        <time>2020-09-05T13:38:41.670Z</time>
      </trkpt>
      <trkpt lat="44.46902" lon="6.23303">
        <ele>763.7</ele>
        <time>2020-09-05T13:38:51.661Z</time>
      </trkpt>
      <trkpt lat="44.46902" lon="6.23295">
        <ele>763.7</ele>
        <time>2020-09-05T13:39:06.709Z</time>
      </trkpt>
      <trkpt lat="44.46427" lon="6.22283">
        <ele>650.7</ele>
        <time>2020-09-05T13:40:27.008Z</time>
      </trkpt>
      <trkpt lat="44.46427" lon="6.22283">
        <ele>650.7</ele>
        <time>2020-09-05T13:41:17.160Z</time>
      </trkpt>
      <trkpt lat="44.46852" lon="6.23643">
        <ele>728.8</ele>
        <time>2020-09-05T13:42:12.285Z</time>
      </trkpt>
      <trkpt lat="44.46821" lon="6.23676">
        <ele>722.4</ele>
        <time>2020-09-05T13:42:22.622Z</time>
      </trkpt>
      <trkpt lat="44.4681" lon="6.23687">
        <ele>720.2</ele>
        <time>2020-09-05T13:42:27.660Z</time>
      </trkpt>
      <trkpt lat="44.46805" lon="6.23693">
        <ele>719.3</ele>
        <time>2020-09-05T13:42:32.672Z</time>
      </trkpt>
      <trkpt lat="44.46676" lon="6.23643">
        <ele>678.5</ele>
        <time>2020-09-05T13:43:52.983Z</time>
      </trkpt>
      <trkpt lat="44.46813" lon="6.22747">
        <ele>688.2</ele>
        <time>2020-09-05T13:44:43.194Z</time>
      </trkpt>
      <trkpt lat="44.46852" lon="6.23643">
        <ele>728.8</ele>
        <time>2020-09-05T13:45:43.388Z</time>
      </trkpt>
      <trkpt lat="44.46895" lon="6.2324">
        <ele>701.5</ele>
        <time>2020-09-05T13:46:13.929Z</time>
      </trkpt>
      <trkpt lat="44.46915" lon="6.23302">
        <ele>767.1</ele>
        <time>2020-09-05T13:46:17.000Z</time>
      </trkpt>
      <trkpt lat="44.46909" lon="6.23294">
        <ele>757.9</ele>
        <time>2020-09-05T13:46:32.000Z</time>
      </trkpt>
      <trkpt lat="44.46901" lon="6.23295">
        <ele>752.1</ele>
        <time>2020-09-05T14:00:44.000Z</time>
      </trkpt>
      <trkpt lat="44.46893" lon="6.23296">
        <ele>751.7</ele>
        <time>2020-09-05T14:00:51.906Z</time>
      </trkpt>
      <trkpt lat="44.4689" lon="6.23301">
        <ele>751.9</ele>
        <time>2020-09-05T14:01:05.000Z</time>
      </trkpt>
      <trkpt lat="44.46894" lon="6.23303">
        <ele>748.1</ele>
        <time>2020-09-05T14:02:32.351Z</time>
      </trkpt>
      <trkpt lat="44.46899" lon="6.233">
        <ele>753.9</ele>
        <time>2020-09-05T14:04:40.000Z</time>
      </trkpt>
      <trkpt lat="44.46901" lon="6.23293">
        <ele>754.1</ele>
        <time>2020-09-05T14:04:52.000Z</time>
      </trkpt>
      <trkpt lat="44.46905" lon="6.23288">
        <ele>754.2</ele>
        <time>2020-09-05T14:05:28.000Z</time>
      </trkpt>
      <trkpt lat="44.46912" lon="6.23288">
        <ele>754.2</ele>
        <time>2020-09-05T14:05:37.000Z</time>
      </trkpt>
      <trkpt lat="44.46917" lon="6.23287">
        <ele>754.2</ele>
        <time>2020-09-05T14:05:55.000Z</time>
      </trkpt>
      <trkpt lat="44.46919" lon="6.23294">
        <ele>759.7</ele>
        <time>2020-09-05T14:06:37.166Z</time>
      </trkpt>
      <trkpt lat="44.46924" lon="6.23295">
        <ele>757.8</ele>
        <time>2020-09-05T14:06:43.000Z</time>
      </trkpt>
      <trkpt lat="44.46917" lon="6.23293">
        <ele>762.8</ele>
        <time>2020-09-05T14:06:52.000Z</time>
      </trkpt>
      <trkpt lat="44.4691" lon="6.23292">
        <ele>759.6</ele>
        <time>2020-09-05T14:07:01.000Z</time>
      </trkpt>
      <trkpt lat="44.46904" lon="6.23288">
        <ele>761.8</ele>
        <time>2020-09-05T14:07:07.000Z</time>
      </trkpt>
      <trkpt lat="44.469" lon="6.23285">
        <ele>756.2</ele>
        <time>2020-09-05T14:09:58.000Z</time>
      </trkpt>
      <trkpt lat="44.46904" lon="6.23288">
        <ele>753.9</ele>
        <time>2020-09-05T14:10:37.000Z</time>
      </trkpt>
      <trkpt lat="44.46911" lon="6.23286">
        <ele>750.8</ele>
        <time>2020-09-05T14:22:49.157Z</time>
      </trkpt>
      <trkpt lat="44.46906" lon="6.23285">
        <ele>754.2</ele>
        <time>2020-09-05T14:23:08.549Z</time>
      </trkpt>
      <trkpt lat="44.46901" lon="6.23286">
        <ele>754.2</ele>
        <time>2020-09-05T14:23:16.000Z</time>
      </trkpt>
      <trkpt lat="44.46897" lon="6.23286">
        <ele>754.2</ele>
        <time>2020-09-05T14:23:34.000Z</time>
      </trkpt>
      <trkpt lat="44.46902" lon="6.23281">
        <ele>756.5</ele>
        <time>2020-09-05T14:24:13.000Z</time>
      </trkpt>
      <trkpt lat="44.46909" lon="6.23282">
        <ele>762.7</ele>
        <time>2020-09-05T14:24:19.000Z</time>
      </trkpt>
      <trkpt lat="44.46904" lon="6.23282">
        <ele>755</ele>
        <time>2020-09-05T14:24:55.000Z</time>
      </trkpt>
      <trkpt lat="44.46898" lon="6.23281">
        <ele>755</ele>
        <time>2020-09-05T14:25:16.000Z</time>
      </trkpt>
      <trkpt lat="44.46904" lon="6.23282">
        <ele>755</ele>
        <time>2020-09-05T14:25:34.000Z</time>
      </trkpt>
      <trkpt lat="44.4691" lon="6.23285">
        <ele>755</ele>
        <time>2020-09-05T14:25:43.000Z</time>
      </trkpt>
      <trkpt lat="44.46904" lon="6.23282">
        <ele>755</ele>
        <time>2020-09-05T14:26:10.000Z</time>
      </trkpt>
      <trkpt lat="44.46897" lon="6.23283">
        <ele>755</ele>
        <time>2020-09-05T14:26:25.000Z</time>
      </trkpt>
      <trkpt lat="44.46901" lon="6.23287">
        <ele>754.2</ele>
        <time>2020-09-05T14:26:56.155Z</time>
      </trkpt>
      <trkpt lat="44.46908" lon="6.23288">
        <ele>754.2</ele>
        <time>2020-09-05T14:27:01.000Z</time>
      </trkpt>
      <trkpt lat="44.46905" lon="6.23282">
        <ele>755</ele>
        <time>2020-09-05T14:27:14.229Z</time>
      </trkpt>
      <trkpt lat="44.46899" lon="6.2328">
        <ele>755</ele>
        <time>2020-09-05T14:27:26.677Z</time>
      </trkpt>
      <trkpt lat="44.46904" lon="6.2328">
        <ele>754.2</ele>
        <time>2020-09-05T14:27:57.752Z</time>
      </trkpt>
      <trkpt lat="44.46908" lon="6.23287">
        <ele>754.2</ele>
        <time>2020-09-05T14:28:09.674Z</time>
      </trkpt>
      <trkpt lat="44.46908" lon="6.23296">
        <ele>754.2</ele>
        <time>2020-09-05T14:28:19.669Z</time>
      </trkpt>
      <trkpt lat="44.46905" lon="6.23303">
        <ele>754.2</ele>
        <time>2020-09-05T14:28:26.428Z</time>
      </trkpt>
      <trkpt lat="44.46901" lon="6.23305">
        <ele>754.2</ele>
        <time>2020-09-05T14:28:34.030Z</time>
      </trkpt>
      <trkpt lat="44.46899" lon="6.23312">
        <ele>752.9</ele>
        <time>2020-09-05T14:29:05.000Z</time>
      </trkpt>
      <trkpt lat="44.46898" lon="6.2332">
        <ele>753.5</ele>
        <time>2020-09-05T14:29:08.691Z</time>
      </trkpt>
      <trkpt lat="44.46898" lon="6.23335">
        <ele>750</ele>
        <time>2020-09-05T14:29:15.749Z</time>
      </trkpt>
      <trkpt lat="44.46902" lon="6.23347">
        <ele>752.2</ele>
        <time>2020-09-05T14:29:25.737Z</time>
      </trkpt>
      <trkpt lat="44.46903" lon="6.23356">
        <ele>756.1</ele>
        <time>2020-09-05T14:29:29.000Z</time>
      </trkpt>
      <trkpt lat="44.46904" lon="6.23364">
        <ele>753.4</ele>
        <time>2020-09-05T14:29:32.569Z</time>
      </trkpt>
      <trkpt lat="44.46902" lon="6.23375">
        <ele>753.8</ele>
        <time>2020-09-05T14:29:37.580Z</time>
      </trkpt>
      <trkpt lat="44.46905" lon="6.23392">
        <ele>755.1</ele>
        <time>2020-09-05T14:29:44.789Z</time>
      </trkpt>
      <trkpt lat="44.46902" lon="6.23422">
        <ele>760.6</ele>
        <time>2020-09-05T14:29:49.052Z</time>
      </trkpt>
      <trkpt lat="44.46904" lon="6.23435">
        <ele>763.3</ele>
        <time>2020-09-05T14:29:52.219Z</time>
      </trkpt>
      <trkpt lat="44.46905" lon="6.2344">
        <ele>766.9</ele>
        <time>2020-09-05T14:30:01.307Z</time>
      </trkpt>
      <trkpt lat="44.46903" lon="6.23447">
        <ele>766.8</ele>
        <time>2020-09-05T14:30:24.365Z</time>
      </trkpt>
      <trkpt lat="44.46899" lon="6.2345">
        <ele>767.2</ele>
        <time>2020-09-05T14:30:27.835Z</time>
      </trkpt>
      <trkpt lat="44.46896" lon="6.23456">
        <ele>764.6</ele>
        <time>2020-09-05T14:30:31.733Z</time>
      </trkpt>
      <trkpt lat="44.46894" lon="6.23464">
        <ele>767.4</ele>
        <time>2020-09-05T14:30:35.000Z</time>
      </trkpt>
      <trkpt lat="44.46888" lon="6.23481">
        <ele>771.7</ele>
        <time>2020-09-05T14:30:38.589Z</time>
      </trkpt>
      <trkpt lat="44.46884" lon="6.23494">
        <ele>772.1</ele>
        <time>2020-09-05T14:30:42.413Z</time>
      </trkpt>
      <trkpt lat="44.46884" lon="6.23505">
        <ele>777.4</ele>
        <time>2020-09-05T14:30:47.000Z</time>
      </trkpt>
      <trkpt lat="44.46878" lon="6.23517">
        <ele>777.1</ele>
        <time>2020-09-05T14:30:50.000Z</time>
      </trkpt>
      <trkpt lat="44.46876" lon="6.23523">
        <ele>778</ele>
        <time>2020-09-05T14:30:54.428Z</time>
      </trkpt>
      <trkpt lat="44.46875" lon="6.23532">
        <ele>777.7</ele>
        <time>2020-09-05T14:30:58.714Z</time>
      </trkpt>
      <trkpt lat="44.46875" lon="6.2354">
        <ele>785.4</ele>
        <time>2020-09-05T14:31:02.000Z</time>
      </trkpt>
      <trkpt lat="44.46879" lon="6.23535">
        <ele>782</ele>
        <time>2020-09-05T14:31:17.000Z</time>
      </trkpt>
      <trkpt lat="44.46893" lon="6.23545">
        <ele>775.9</ele>
        <time>2020-09-05T14:31:35.000Z</time>
      </trkpt>
      <trkpt lat="44.46899" lon="6.23546">
        <ele>776</ele>
        <time>2020-09-05T14:31:38.000Z</time>
      </trkpt>
      <trkpt lat="44.46897" lon="6.2354">
        <ele>779.6</ele>
        <time>2020-09-05T14:33:14.000Z</time>
      </trkpt>
      <trkpt lat="44.46892" lon="6.2354">
        <ele>781.4</ele>
        <time>2020-09-05T14:47:53.000Z</time>
      </trkpt>
      <trkpt lat="44.46888" lon="6.23546">
        <ele>784.1</ele>
        <time>2020-09-05T14:49:08.000Z</time>
      </trkpt>
      <trkpt lat="44.46878" lon="6.23554">
        <ele>784.5</ele>
        <time>2020-09-05T14:49:11.000Z</time>
      </trkpt>
      <trkpt lat="44.4687" lon="6.23571">
        <ele>784.6</ele>
        <time>2020-09-05T14:49:17.000Z</time>
      </trkpt>
      <trkpt lat="44.46866" lon="6.23562">
        <ele>779</ele>
        <time>2020-09-05T14:49:22.849Z</time>
      </trkpt>
      <trkpt lat="44.46866" lon="6.23554">
        <ele>775.5</ele>
        <time>2020-09-05T14:49:26.000Z</time>
      </trkpt>
      <trkpt lat="44.4687" lon="6.23551">
        <ele>770.4</ele>
        <time>2020-09-05T14:49:32.000Z</time>
      </trkpt>
      <trkpt lat="44.46874" lon="6.23545">
        <ele>769.3</ele>
        <time>2020-09-05T14:49:37.640Z</time>
      </trkpt>
      <trkpt lat="44.46878" lon="6.23537">
        <ele>766.1</ele>
        <time>2020-09-05T14:49:41.000Z</time>
      </trkpt>
      <trkpt lat="44.46889" lon="6.23521">
        <ele>765.4</ele>
        <time>2020-09-05T14:49:47.077Z</time>
      </trkpt>
      <trkpt lat="44.46897" lon="6.23456">
        <ele>761.7</ele>
        <time>2020-09-05T14:49:50.000Z</time>
      </trkpt>
      <trkpt lat="44.46889" lon="6.23364">
        <ele>754.3</ele>
        <time>2020-09-05T14:49:56.000Z</time>
      </trkpt>
      <trkpt lat="44.4689" lon="6.23303">
        <ele>749.2</ele>
        <time>2020-09-05T14:50:02.000Z</time>
      </trkpt>
      <trkpt lat="44.46904" lon="6.23298">
        <ele>751</ele>
        <time>2020-09-05T14:50:08.000Z</time>
      </trkpt>
      <trkpt lat="44.4691" lon="6.23298">
        <ele>753.5</ele>
        <time>2020-09-05T14:50:30.000Z</time>
      </trkpt>
      <trkpt lat="44.46915" lon="6.23299">
        <ele>751.9</ele>
        <time>2020-09-05T14:50:37.920Z</time>
      </trkpt>
      <trkpt lat="44.46911" lon="6.23295">
        <ele>752.3</ele>
        <time>2020-09-05T14:50:58.643Z</time>
      </trkpt>
      <trkpt lat="44.46906" lon="6.23291">
        <ele>752.6</ele>
        <time>2020-09-05T14:51:10.219Z</time>
      </trkpt>
    </trkseg>
  </trk>
</gpx>